ECMWFFLT1_850_thetae_000.txt.gz
Theta_e
350 354 355 355 358 359 359 358 357 356 355 353 353 350 343 338 337 337 337 338 337 337 336 336 337 341 342 334 323 320 321 320 319 319 319 319 318 318 322 324 325 326 326 324 323 325 327 326 325 324 323 322 320 319 319 321 322 322 323 325 325 327 328
349 353 355 355 357 358 358 358 356 355 354 353 354 350 343 337 336 336 336 337 336 335 334 333 333 334 334 327 320 320 321 319 319 318 316 316 316 317 320 322 323 324 321 318 316 316 318 319 318 319 323 328 327 322 320 321 322 323 325 327 329 330 332
347 352 355 355 356 357 358 357 355 355 354 354 355 351 344 337 334 335 337 338 337 335 333 330 330 330 327 322 318 320 321 319 319 317 315 315 316 318 320 321 322 321 317 314 313 314 315 316 317 319 324 329 328 324 322 322 324 324 326 329 330 331 332
346 350 353 354 355 355 357 357 356 356 355 353 355 351 344 337 334 334 336 337 337 336 333 330 329 330 326 319 316 319 321 319 318 317 316 316 317 319 321 321 321 320 318 316 315 316 318 319 319 321 324 325 325 324 323 323 323 324 326 328 329 330 331
346 349 351 354 356 356 357 358 358 358 356 354 355 352 347 342 340 339 338 337 337 334 333 331 330 331 328 318 315 318 320 320 319 318 316 316 317 319 320 319 320 321 322 320 319 319 322 324 323 322 321 322 323 325 324 323 323 322 322 324 325 326 327
348 349 351 353 355 356 357 357 358 357 356 355 355 353 351 348 346 345 343 341 340 337 336 333 332 334 331 320 314 318 320 321 321 320 318 317 317 318 318 318 319 320 322 322 323 324 326 327 326 323 323 323 325 326 324 322 321 321 321 321 323 324 325
348 349 350 352 353 354 356 357 356 356 357 356 356 355 353 352 349 348 346 344 343 340 338 335 333 336 334 321 314 319 321 322 323 322 320 319 318 318 318 318 318 320 322 323 325 327 327 327 327 326 326 326 326 325 323 323 323 324 323 323 324 324 325
347 350 350 351 351 351 353 354 354 356 359 358 358 357 355 354 351 350 349 346 345 343 339 336 334 337 337 325 316 321 322 322 323 323 321 320 318 318 318 318 319 320 322 323 327 329 328 329 328 327 327 327 327 326 325 324 326 326 326 326 326 326 327
347 349 350 350 351 350 351 352 354 356 360 360 359 357 355 354 353 352 350 348 347 345 341 337 336 338 339 329 320 321 323 324 325 324 322 320 318 319 319 318 319 321 321 324 327 330 331 330 329 328 327 328 327 326 325 325 326 326 327 327 327 328 329
347 348 349 350 349 350 350 352 355 357 359 359 358 358 356 355 354 352 351 350 348 345 342 339 338 340 341 332 323 324 327 329 328 326 322 319 318 319 320 320 320 322 323 324 327 328 329 329 328 327 326 326 325 324 325 327 327 327 327 327 328 328 328
347 347 349 350 349 350 351 352 354 356 357 358 357 357 356 355 354 353 351 349 348 346 343 340 340 343 342 334 326 328 333 330 327 326 323 319 319 321 321 320 322 325 325 326 327 327 327 327 327 325 325 325 325 325 327 329 328 328 327 325 326 326 326
346 347 348 349 348 349 350 350 352 354 356 357 357 356 356 355 354 352 350 349 347 345 343 342 343 344 341 335 330 334 336 329 324 326 323 318 319 321 321 320 322 324 326 327 328 329 328 328 326 326 326 326 325 327 329 329 328 327 325 323 323 325 326
348 348 347 348 347 348 350 351 352 353 355 356 357 356 355 354 353 352 350 349 347 345 343 342 344 344 341 337 332 334 337 331 325 327 323 316 319 319 318 319 320 323 327 330 332 331 328 326 325 326 326 325 325 328 330 330 329 327 324 323 324 325 326
350 349 350 351 349 349 351 351 352 354 354 356 356 355 355 353 352 350 349 347 346 345 344 343 344 343 341 338 333 334 338 336 331 330 324 319 318 317 316 318 319 322 328 332 332 328 324 324 326 326 325 325 326 330 332 331 329 327 325 324 325 326 326
350 349 351 353 351 351 350 350 352 353 354 356 355 355 354 352 352 350 348 347 346 345 344 343 343 342 340 338 334 333 336 335 332 330 327 324 321 317 317 318 318 323 329 329 327 324 323 326 327 326 326 328 330 331 333 331 327 325 324 324 325 326 327
351 351 350 350 350 350 349 349 349 351 353 356 355 354 353 351 351 349 348 348 346 344 343 342 342 341 340 338 335 333 332 331 331 331 330 328 323 318 318 319 319 323 325 324 322 322 324 324 324 324 325 328 330 331 332 329 326 324 323 324 325 327 327
351 352 352 352 351 348 347 347 347 348 352 354 353 353 352 350 349 348 348 348 347 344 341 340 341 341 339 338 335 335 334 331 332 334 332 328 323 319 320 320 321 322 322 322 322 323 323 322 322 322 325 327 330 331 330 327 325 325 325 325 327 328 328
348 352 353 352 350 350 347 346 347 348 350 352 353 353 351 350 349 348 349 348 346 343 340 340 341 341 341 340 337 338 337 330 332 337 334 328 324 321 320 321 322 322 323 323 323 324 324 323 323 324 326 329 331 331 329 326 326 326 326 326 327 328 328
345 348 348 345 345 346 346 346 347 346 348 350 351 352 350 350 350 348 348 347 345 343 341 340 341 341 341 340 338 340 338 331 334 339 334 328 327 323 322 323 323 323 324 324 324 325 325 325 325 328 330 331 332 330 327 326 326 326 326 326 326 327 327
343 343 342 339 338 339 339 341 343 344 346 348 348 348 348 349 349 348 347 347 345 343 340 341 342 341 342 342 340 340 337 333 336 339 333 331 331 328 325 325 324 323 324 325 325 325 326 326 328 329 330 331 331 331 329 329 328 327 327 326 326 326 327
341 341 339 338 336 336 336 336 337 339 343 347 348 348 349 350 350 349 348 347 345 343 343 343 343 344 345 344 341 338 336 335 338 338 334 334 334 332 329 327 324 324 325 325 325 325 326 327 328 329 330 332 332 332 332 331 329 327 327 326 326 326 327
338 338 338 337 336 337 338 337 336 337 338 342 345 347 349 349 349 348 348 347 346 346 346 345 346 346 344 340 337 335 335 336 338 338 337 336 335 335 333 329 325 323 324 324 325 325 326 327 329 330 332 333 332 332 332 332 330 328 327 327 326 326 326
339 337 338 339 337 337 339 340 338 339 339 341 343 344 346 347 350 350 348 347 346 347 347 346 346 345 343 341 339 337 336 337 338 338 339 338 336 336 335 330 324 323 324 325 325 326 328 330 331 332 332 331 330 330 332 333 330 328 327 326 326 326 325
340 339 339 339 337 337 339 342 341 341 342 343 344 345 345 349 351 351 349 348 347 346 347 346 345 345 345 345 342 338 336 336 335 335 339 340 337 335 334 330 325 324 325 326 327 329 332 332 332 332 330 328 328 330 332 332 330 328 327 326 326 325 325
338 338 338 338 338 339 339 340 339 338 340 341 343 345 347 350 352 351 348 347 345 345 346 347 345 345 347 346 341 337 337 333 327 332 339 340 336 334 332 329 326 324 325 328 330 332 333 333 333 332 331 329 329 331 332 332 329 327 327 326 326 325 325
337 338 341 339 340 340 339 337 336 334 334 337 341 345 348 352 353 351 348 346 344 344 346 346 345 346 346 344 339 337 335 331 326 332 338 337 334 331 330 328 327 326 327 329 332 334 335 334 332 330 329 329 329 330 331 330 328 327 327 326 326 325 324
337 339 341 340 339 338 336 335 334 333 333 333 334 339 344 349 352 352 349 347 345 345 346 345 343 343 343 341 339 336 334 330 328 332 334 333 330 329 330 330 328 328 330 332 334 336 335 333 330 327 327 328 329 330 329 328 327 327 326 326 325 325 324
336 336 336 337 337 335 334 335 336 335 334 332 331 333 338 342 347 350 350 348 346 346 345 344 343 342 340 339 337 336 335 332 331 332 331 330 328 329 331 331 330 331 334 336 336 334 332 330 328 328 329 329 329 329 328 327 326 326 325 325 324 323 323
333 332 332 335 337 337 337 336 336 336 336 335 336 337 338 339 343 348 349 348 348 346 344 343 342 340 339 338 337 336 336 335 332 330 329 328 328 331 333 334 334 335 336 335 334 332 330 329 329 331 330 329 327 327 326 325 325 324 324 323 322 322 322
332 330 330 333 335 338 339 338 336 338 339 339 339 340 339 340 342 345 346 345 345 344 343 342 341 340 341 340 339 337 336 334 331 329 329 330 332 334 336 336 335 335 334 333 332 331 329 330 331 331 328 325 325 324 324 323 323 322 321 320 320 321 321
331 332 331 331 334 340 342 341 338 339 340 340 338 338 340 342 344 345 345 343 342 342 341 340 340 340 340 340 338 337 336 335 333 331 330 332 334 335 335 334 333 332 331 330 329 329 329 330 329 327 325 324 324 323 322 321 320 319 318 319 320 321 321
332 332 332 332 334 339 344 347 343 338 338 339 340 342 345 344 345 345 343 342 341 341 340 339 339 340 339 338 337 336 333 331 329 328 329 332 334 334 333 332 330 329 328 327 327 327 328 328 326 324 323 323 322 321 320 320 319 319 318 319 319 320 321
333 333 332 332 333 335 339 344 345 341 340 342 342 343 343 343 343 342 339 338 339 339 338 337 336 334 332 331 331 329 325 324 323 323 326 331 333 333 331 331 330 328 327 327 326 325 324 324 324 323 323 322 321 320 320 320 319 319 319 319 319 320 321
333 333 331 331 331 331 332 336 341 342 341 340 339 340 341 340 340 338 335 333 333 334 333 330 327 324 323 323 324 323 322 322 322 321 325 330 333 332 331 331 330 329 328 326 325 324 324 324 324 323 322 321 319 319 320 319 318 318 318 318 319 319 320
333 333 331 330 331 331 331 334 340 342 341 338 337 339 339 337 335 334 333 331 330 330 329 325 323 323 323 322 322 322 321 321 320 321 325 330 332 331 330 330 328 327 326 325 325 325 324 324 323 321 321 320 319 319 319 318 318 317 317 318 319 319 319
333 333 332 332 332 332 333 337 341 342 341 339 340 339 337 335 332 332 331 330 329 328 326 324 324 325 324 322 321 322 321 319 318 321 326 330 331 330 329 328 326 326 325 325 326 325 324 322 321 321 319 319 318 319 319 318 317 317 318 318 319 319 319
333 333 333 333 332 332 337 341 342 341 341 339 338 337 335 333 331 330 330 331 330 328 326 326 325 324 324 323 321 320 319 318 320 325 329 330 330 329 328 327 326 325 326 326 325 324 322 322 321 320 319 318 318 319 318 318 318 318 318 319 319 319 319
334 334 333 333 333 333 338 342 342 340 338 337 336 334 333 333 332 332 332 332 331 329 329 329 325 322 323 321 319 318 321 324 327 329 330 330 330 328 327 327 326 326 326 324 323 322 322 322 322 321 320 319 319 319 318 318 318 318 318 319 319 318 316

ECMWFFLT1_850_thetae_003.txt.gz
Theta_e
350 351 352 352 354 354 355 354 354 355 355 355 353 348 345 346 343 338 335 333 331 331 331 330 332 333 334 334 334 333 331 330 328 326 323 319 317 317 315 315 316 317 318 319 320 322 322 319 316 316 317 317 317 317 318 319 321 322 322 323 323 323 325
349 351 352 353 354 355 355 356 356 356 355 355 354 349 347 346 341 336 332 331 330 329 329 330 331 332 331 330 332 330 327 328 327 324 321 318 316 315 315 317 317 317 319 321 322 323 321 318 316 316 315 315 317 318 319 320 321 321 322 323 323 324 326
347 350 352 353 354 354 356 357 356 357 356 356 356 351 348 346 339 332 328 328 329 328 330 331 332 332 331 331 331 329 327 327 326 322 318 317 315 315 316 317 318 319 320 321 322 321 318 317 317 316 315 317 322 324 324 322 321 322 322 323 323 324 325
347 349 351 353 355 354 355 357 357 357 355 356 356 352 348 345 339 330 327 327 329 329 331 331 331 332 332 332 331 330 330 328 324 320 318 316 315 316 316 317 318 318 318 319 318 317 315 314 315 316 317 321 326 329 327 325 324 323 322 322 323 323 324
346 348 350 351 355 355 356 357 357 358 356 355 356 353 348 345 340 332 327 327 329 329 330 330 330 331 331 331 329 330 334 331 323 319 318 317 317 317 316 317 318 317 317 317 315 314 314 316 318 320 321 323 325 327 327 327 327 325 322 320 320 321 322
345 346 349 350 352 354 356 357 357 356 356 354 356 353 350 347 343 336 329 327 328 329 331 330 330 331 330 328 325 327 334 335 325 319 318 318 318 319 317 318 318 317 316 316 316 317 318 320 323 324 325 325 325 325 327 328 327 324 323 323 322 321 321
345 346 347 349 351 352 354 356 356 356 355 354 354 354 352 349 346 341 334 330 328 329 331 331 332 332 329 327 325 323 329 333 325 319 319 320 320 319 318 319 318 317 317 317 319 320 321 323 325 326 326 326 326 327 327 326 325 325 326 326 326 325 324
344 346 346 347 349 350 353 355 355 355 356 356 356 356 354 352 350 347 341 334 330 329 331 332 332 333 330 330 328 324 325 329 326 320 320 322 321 318 317 319 318 317 318 319 320 322 323 324 325 325 326 325 326 326 326 325 325 325 326 326 326 326 326
344 345 344 346 347 348 351 352 353 353 355 355 356 356 355 354 352 350 347 342 336 332 331 332 334 334 333 331 330 328 329 330 326 321 322 323 320 317 316 318 318 318 319 320 321 322 323 323 324 326 326 325 325 326 325 324 324 324 326 326 326 326 326
345 344 345 346 345 347 349 350 352 353 354 355 355 356 356 354 353 352 352 350 345 337 333 333 335 336 335 333 333 333 334 332 325 321 324 322 319 318 317 317 318 319 320 321 322 322 322 322 324 326 326 325 325 325 324 324 325 327 328 327 326 325 324
343 344 345 345 345 346 347 350 352 352 353 354 354 355 355 354 354 354 354 354 351 344 338 337 338 339 338 336 335 336 338 336 325 321 323 321 319 320 317 316 318 320 320 322 321 321 321 322 324 325 325 324 324 324 323 325 327 328 327 327 325 323 322
344 344 345 345 345 345 347 348 350 350 351 352 352 354 354 354 355 354 355 355 354 350 345 342 343 343 341 340 337 336 341 340 327 319 322 322 323 324 319 316 318 319 321 322 321 321 321 322 324 324 325 324 323 322 322 324 326 327 327 327 325 322 322
344 345 344 345 344 344 346 347 348 349 350 350 352 353 354 354 355 356 356 356 355 354 351 348 347 346 345 343 341 340 344 342 330 319 321 325 326 324 318 316 318 319 321 322 321 320 321 322 324 324 325 324 321 320 320 322 325 327 329 327 323 322 323
344 345 344 346 345 345 347 347 348 349 350 351 353 355 357 357 357 357 357 356 356 356 353 352 351 349 347 346 345 344 344 344 334 321 321 326 325 321 316 317 318 319 321 321 319 319 320 321 323 324 324 321 319 320 321 323 326 328 329 326 322 321 322
344 344 344 346 346 346 348 347 349 349 349 351 353 354 357 358 358 358 358 357 357 356 355 354 352 351 349 348 347 346 344 344 336 324 322 326 324 318 316 317 318 319 320 320 318 319 319 320 323 325 323 320 319 321 324 325 326 326 328 326 323 322 321
344 344 345 346 346 347 347 348 348 349 349 350 351 352 355 356 358 358 357 358 357 357 355 354 353 352 351 349 349 347 345 343 337 326 324 327 322 317 317 318 317 318 319 318 317 318 319 320 324 325 322 320 320 324 326 326 325 325 327 327 325 323 322
343 343 345 346 345 346 347 347 348 348 349 349 350 351 353 354 356 356 357 358 357 357 356 354 354 353 352 350 349 347 346 343 337 328 325 328 323 318 317 317 317 318 318 317 318 318 319 321 324 324 321 320 321 324 327 327 326 326 327 327 326 325 324
343 343 344 345 346 346 345 347 347 347 348 347 348 350 350 352 354 355 356 356 356 356 356 354 354 353 352 350 348 347 346 343 337 330 328 329 326 321 319 318 318 318 318 317 318 319 320 322 323 323 321 320 322 324 327 328 328 329 329 328 326 325 325
343 342 343 343 343 344 344 345 346 346 346 346 347 348 348 350 352 353 355 355 354 355 355 354 354 352 351 349 347 346 344 340 338 336 332 331 328 324 322 320 318 319 319 319 319 319 321 323 323 323 322 323 325 326 327 327 328 330 331 330 329 327 326
342 341 343 344 345 344 344 346 346 346 346 344 345 346 347 350 352 353 355 354 353 354 354 353 353 350 349 348 346 345 343 339 339 337 333 330 328 327 326 323 320 320 320 320 320 321 322 324 325 324 324 325 327 327 328 328 329 329 330 332 332 330 328
343 344 345 345 344 342 342 342 341 342 340 338 339 341 346 349 351 353 355 354 353 354 353 352 350 349 348 347 345 345 343 340 338 337 333 330 329 331 331 327 322 320 321 321 321 321 322 324 325 325 325 326 328 328 329 330 331 330 330 330 332 332 331
345 346 344 339 336 336 337 336 336 336 336 334 334 335 338 341 346 352 354 355 354 353 351 350 349 348 347 346 346 345 343 341 340 337 333 330 331 333 334 331 325 322 321 321 321 322 323 324 325 326 326 327 328 329 331 333 332 330 329 330 331 333 333
343 343 338 336 335 336 337 337 337 336 336 336 335 334 335 338 343 349 352 353 354 352 350 348 347 347 347 346 346 344 343 343 341 336 332 331 330 332 334 332 329 327 324 324 323 324 324 324 326 326 327 328 330 332 333 333 330 328 329 331 332 331 331
340 339 337 336 337 337 338 338 338 337 337 337 336 336 337 340 343 346 348 351 353 351 350 348 347 347 346 345 345 343 343 342 339 336 333 329 327 331 334 332 331 332 331 329 327 326 326 327 328 328 328 330 332 333 332 332 330 328 329 331 331 330 328
340 339 338 337 336 336 335 336 337 336 336 335 333 334 336 337 340 342 345 348 350 351 351 350 349 348 346 344 343 342 343 343 339 336 332 326 325 332 335 333 335 337 336 334 331 330 330 331 331 330 330 332 333 333 331 330 329 328 328 330 330 328 327
341 340 340 338 338 337 337 336 336 336 335 333 331 333 333 333 334 336 337 339 344 348 349 348 348 348 345 343 342 342 343 342 338 334 330 326 326 331 335 337 340 340 339 338 335 333 334 335 334 334 334 335 334 332 330 328 327 327 329 329 329 327 326
339 341 341 340 340 340 338 338 336 335 335 335 334 332 331 330 332 331 331 335 340 345 347 347 348 347 344 342 342 342 340 338 334 330 327 326 327 330 336 340 340 338 337 337 336 335 336 336 335 335 335 334 331 330 328 328 328 329 329 328 327 326 325
332 335 335 336 338 338 338 338 337 336 337 336 335 334 332 331 331 330 332 338 344 346 346 346 345 344 341 340 341 340 337 335 332 328 325 325 326 328 333 337 336 335 336 336 336 336 336 336 336 335 334 332 329 328 329 328 328 328 327 326 325 324 323
331 331 331 332 332 333 334 335 336 337 338 338 337 338 336 336 337 336 339 344 346 345 344 343 343 341 338 337 338 337 336 334 331 328 326 327 327 328 332 334 334 335 336 337 336 336 335 336 336 334 333 331 329 329 328 326 326 325 324 323 322 321 320
332 331 332 332 331 331 332 334 337 339 340 340 341 341 341 342 343 344 345 346 345 344 344 343 342 340 338 337 337 336 335 335 334 333 332 331 331 333 335 334 333 335 337 336 335 335 334 335 334 332 330 329 329 328 326 324 324 322 321 320 319 319 318
332 332 332 331 332 332 332 334 338 342 343 343 343 344 345 346 346 346 346 345 345 344 343 342 341 340 337 336 336 335 333 334 335 335 335 333 332 334 335 334 333 334 336 336 335 334 334 333 331 330 328 328 328 326 324 323 321 319 318 318 318 319 318
332 332 332 331 330 331 331 332 333 338 342 344 344 345 346 346 347 347 347 345 345 343 342 341 340 339 337 338 337 335 334 335 335 333 331 328 327 329 332 334 334 334 336 336 334 333 332 330 328 327 326 327 326 324 323 321 319 318 318 318 318 319 319
330 330 331 332 332 331 331 331 331 334 340 345 345 346 346 346 346 346 345 345 344 342 341 341 339 338 338 337 334 331 331 332 331 328 326 325 325 328 332 335 335 333 333 333 331 330 330 328 326 325 324 325 324 323 322 319 317 317 318 318 318 318 319
328 328 328 328 330 331 331 331 332 334 340 344 345 345 344 344 344 344 343 343 341 340 339 338 335 335 334 331 328 326 327 328 328 327 327 327 328 330 331 329 329 329 330 330 329 329 328 327 325 324 323 323 323 321 319 318 317 318 318 318 318 318 319
327 330 330 328 329 331 332 332 333 336 339 342 343 343 342 342 341 341 341 340 337 336 334 330 329 329 328 325 325 326 327 326 324 325 325 324 325 327 325 321 323 328 329 329 329 329 327 325 325 324 324 323 321 320 319 318 317 318 318 318 318 318 319
327 331 333 332 331 331 331 331 333 336 338 340 341 341 341 340 339 338 337 336 334 333 332 329 328 327 325 324 323 325 325 324 324 325 325 324 325 325 321 320 324 329 330 329 328 327 325 325 325 324 322 321 321 320 319 318 318 318 318 318 317 318 318
331 333 334 334 332 332 332 332 334 336 338 340 340 339 339 339 337 337 336 335 334 332 331 331 329 326 325 325 324 324 325 325 326 326 326 325 325 322 319 321 326 329 329 328 327 326 325 325 325 323 322 321 322 321 320 319 318 318 318 318 318 317 318
334 335 335 335 334 333 332 333 334 335 337 339 339 338 338 337 337 336 336 335 334 333 332 330 328 327 327 326 324 324 325 326 326 326 325 324 322 318 318 323 328 330 329 327 326 325 325 325 323 322 322 322 321 321 320 319 319 319 318 318 318 318 318

ECMWFFLT1_850_thetae_009.txt.gz
Theta_e
347 348 349 348 348 348 347 347 346 344 343 344 345 345 345 345 345 345 346 347 349 349 349 346 343 341 340 340 341 341 342 342 342 343 344 344 344 344 344 345 344 341 335 331 328 327 328 329 329 328 325 323 323 325 327 325 321 319 320 320 322 324 325
347 347 348 349 348 348 348 347 346 345 344 344 344 345 346 345 345 344 345 346 348 349 349 346 342 340 339 339 340 341 341 341 340 340 342 342 342 341 342 343 342 338 332 327 326 327 327 326 325 324 324 324 322 322 323 322 320 318 318 319 321 323 324
346 346 347 347 347 347 347 346 346 346 345 344 344 345 345 345 344 343 343 345 347 348 349 347 342 339 338 339 339 339 340 339 338 339 340 339 339 340 342 343 342 337 330 326 326 326 325 322 321 321 321 321 320 319 320 319 318 318 318 319 320 322 324
344 345 345 345 346 346 346 346 345 346 345 344 344 344 345 345 344 343 343 344 346 348 349 347 342 338 336 337 338 337 338 337 337 338 337 336 336 338 342 344 343 335 327 324 323 323 321 320 320 321 320 319 318 317 317 317 317 318 319 320 320 321 323
344 343 344 344 345 345 345 346 346 346 345 344 344 344 344 344 344 344 344 344 345 347 348 348 345 340 336 336 335 334 335 336 336 335 335 334 334 337 342 346 344 335 326 322 321 319 318 318 320 320 319 319 317 316 315 316 316 318 319 320 320 321 322
344 343 344 343 344 344 344 345 346 346 345 345 344 344 344 345 345 345 345 344 345 346 348 349 347 342 336 334 333 332 333 335 335 335 333 332 335 339 342 344 344 338 328 322 320 318 316 317 318 319 319 318 317 316 315 315 317 318 320 321 322 322 321
344 342 343 342 343 344 344 345 346 346 345 345 345 344 344 345 346 345 345 345 344 345 347 348 347 344 339 335 332 332 332 333 334 334 333 333 337 340 343 346 346 339 330 324 320 318 317 317 317 318 318 317 315 315 315 316 318 320 322 324 324 323 321
341 341 341 342 342 342 344 344 345 345 346 345 345 345 345 345 346 346 346 345 344 345 346 347 348 345 342 338 335 333 331 332 334 334 334 334 338 343 346 347 343 332 324 322 320 318 317 317 318 319 317 316 315 314 315 317 319 322 324 326 325 323 322
341 340 340 341 342 343 344 344 345 345 345 345 345 345 345 345 346 345 346 345 345 345 345 346 347 345 343 342 339 335 333 332 332 334 337 339 344 348 348 346 340 328 320 320 319 316 316 316 318 319 317 315 314 315 316 318 320 323 326 326 325 324 322
339 339 340 341 343 344 345 345 345 345 345 345 345 345 346 345 346 345 345 346 346 346 346 346 347 346 345 344 342 340 337 334 335 338 340 342 344 347 347 347 346 336 323 319 318 316 316 316 317 318 317 315 315 317 318 319 321 323 325 325 325 323 321
339 339 340 342 343 343 344 345 345 345 345 346 346 346 346 345 345 346 346 346 346 347 347 347 348 347 346 346 346 344 341 341 344 342 338 337 338 342 346 347 348 342 327 319 319 318 315 316 317 317 317 316 317 319 320 320 321 323 324 324 323 322 321
339 340 340 342 342 343 344 344 345 345 345 346 346 346 346 346 346 346 346 347 347 347 347 347 348 347 348 348 348 347 347 348 349 342 333 332 333 337 343 345 347 345 332 320 319 318 315 316 317 317 317 317 319 320 320 320 321 322 323 323 322 321 321
340 340 340 341 342 342 343 344 345 346 346 346 346 346 346 346 346 347 347 347 347 347 348 348 348 348 348 349 350 352 352 350 348 340 331 328 329 332 336 340 345 344 331 323 321 317 317 320 318 317 317 318 319 320 320 321 321 322 323 323 323 322 321
340 340 340 342 342 342 343 343 345 345 346 346 346 346 346 346 347 347 347 346 347 348 348 348 349 349 350 353 354 355 354 351 348 344 336 328 328 331 333 334 341 340 329 323 323 318 318 323 321 319 319 319 319 320 321 322 322 323 324 324 323 322 321
341 341 341 341 342 342 342 342 343 345 345 346 346 346 347 347 347 348 347 347 347 348 349 350 351 352 354 356 356 355 355 353 352 351 347 339 332 331 335 337 341 341 330 323 323 319 318 322 322 320 320 320 320 321 322 323 323 323 324 323 322 322 321
343 342 341 341 342 341 342 342 343 343 344 344 344 345 346 346 347 347 347 348 349 350 352 353 353 354 356 357 357 356 356 355 354 353 351 347 338 330 333 338 343 345 338 326 322 320 318 320 323 321 320 321 322 321 322 323 323 323 323 322 322 322 322
343 343 341 341 341 341 341 342 342 343 343 343 343 343 344 344 344 345 347 349 351 351 352 353 354 355 356 357 357 357 356 356 356 354 352 348 342 334 331 332 336 344 345 334 324 322 320 321 323 321 318 321 323 322 322 323 324 325 324 322 323 323 321
342 342 341 341 342 341 341 341 341 342 341 341 342 342 342 343 345 347 349 350 350 349 350 351 352 353 355 357 357 357 357 356 355 356 351 345 342 340 336 331 328 335 345 342 328 322 323 323 323 321 319 323 325 324 324 324 324 327 326 323 323 323 322
341 341 340 340 341 341 340 339 339 339 340 340 341 341 342 344 346 347 347 347 347 348 349 350 351 353 354 356 357 356 356 356 355 354 351 346 343 343 342 339 333 330 337 340 329 322 324 324 322 321 322 325 324 324 326 326 325 328 327 324 322 323 323
342 343 342 342 342 341 339 338 338 339 340 340 341 342 343 345 345 346 345 346 346 347 348 349 350 352 353 355 356 356 356 356 355 353 354 352 350 345 342 343 340 333 334 336 330 327 328 325 321 323 324 322 320 323 326 325 324 327 329 326 324 323 324
342 343 343 343 342 341 339 338 339 341 341 341 343 344 344 344 343 342 342 342 343 344 346 348 348 349 351 353 355 355 355 356 355 355 355 354 352 348 345 344 343 338 337 335 331 331 329 325 322 324 324 319 317 320 322 319 323 329 331 329 327 324 325
339 341 342 342 341 342 341 341 340 341 341 343 343 342 339 337 336 337 337 338 340 341 342 343 343 344 347 350 352 353 354 354 354 354 354 353 352 350 347 344 343 341 337 333 332 331 327 324 323 324 324 321 318 319 319 320 327 331 331 330 329 328 328
337 338 339 341 341 342 342 342 342 343 343 342 339 335 333 332 332 333 335 337 337 337 337 337 338 341 343 346 349 350 351 353 353 353 353 352 351 350 349 345 342 340 336 333 332 328 324 323 323 324 327 326 321 318 319 322 326 328 328 331 332 331 330
337 337 338 339 341 342 342 342 343 342 339 336 333 332 332 333 334 334 335 334 332 331 333 333 334 337 340 344 347 348 350 351 351 352 352 351 349 348 347 343 339 337 335 333 330 326 324 325 324 323 324 324 321 319 320 323 326 328 330 334 335 333 332
338 339 340 340 342 342 342 342 340 337 335 333 333 334 335 334 334 333 332 331 330 330 331 331 332 337 341 344 346 347 349 349 349 350 349 348 347 346 343 340 337 336 335 332 330 327 326 324 322 321 322 322 321 319 320 323 326 328 332 335 334 332 332
342 343 343 343 343 343 341 339 336 334 335 335 334 334 334 332 332 330 329 330 330 330 330 332 336 340 342 343 344 346 347 347 348 348 348 347 346 345 342 339 337 335 334 332 328 326 324 322 320 320 322 322 321 320 323 328 330 331 333 335 335 333 332
343 343 343 343 344 342 339 338 337 337 337 337 335 334 333 331 330 329 329 330 330 332 334 337 339 341 340 341 342 344 345 345 345 346 346 346 345 343 341 338 335 334 332 328 326 325 324 321 321 324 325 325 325 326 329 332 333 333 333 334 334 334 334
342 342 342 343 343 341 340 339 340 339 338 337 337 336 334 333 333 333 333 333 334 336 338 339 339 339 339 340 342 343 342 342 343 344 344 344 344 341 338 336 334 333 330 326 325 325 324 323 325 327 329 330 330 332 333 333 333 333 332 333 333 333 332
337 337 337 339 339 338 339 339 338 338 339 338 338 337 337 337 337 338 338 338 339 339 339 338 339 339 339 342 343 341 340 340 342 343 343 343 342 340 337 335 332 330 328 326 325 324 325 326 328 329 331 332 333 333 333 334 334 334 334 333 332 331 329
331 330 331 332 332 332 333 333 333 333 334 334 336 339 340 340 340 339 340 341 341 339 339 339 339 339 341 343 342 340 339 340 341 342 342 341 340 337 336 334 331 329 328 328 326 325 326 327 330 331 332 333 333 331 330 332 334 334 333 332 331 329 328
329 328 328 328 328 329 329 328 329 329 328 330 333 335 337 338 339 340 341 343 343 340 338 338 338 339 342 343 341 340 339 341 341 341 340 339 338 336 334 332 331 331 331 329 327 327 328 330 331 331 331 331 331 329 330 332 333 332 331 330 329 328 326
327 327 328 328 328 329 328 328 329 329 329 330 331 330 330 330 331 331 332 336 340 340 338 336 337 339 341 342 341 340 340 340 341 340 339 339 337 335 332 331 332 332 330 328 327 329 331 331 330 329 329 328 326 326 330 333 331 329 329 329 328 325 322
326 327 327 328 327 327 327 328 328 328 328 329 328 328 327 326 327 327 326 328 333 337 337 335 335 339 342 342 341 340 340 340 339 339 339 337 333 330 328 328 329 328 327 327 329 330 329 328 327 326 325 324 325 327 330 330 330 329 329 327 324 322 319
326 327 327 327 327 327 327 327 327 326 327 327 327 327 327 327 327 328 326 328 333 337 337 335 337 341 342 340 339 339 339 339 339 339 338 334 330 329 330 330 330 329 329 329 329 327 326 324 324 324 324 325 327 328 328 328 329 329 327 323 321 319 318
327 326 327 328 328 327 326 326 326 326 326 327 327 327 327 327 328 327 327 332 338 339 338 337 339 341 339 338 338 338 338 338 338 337 336 332 328 330 332 332 332 333 331 329 327 325 324 323 322 324 327 328 328 327 327 328 329 326 323 321 320 319 318
330 329 329 329 329 328 329 329 328 327 327 328 327 327 327 328 329 330 333 337 339 338 337 337 337 336 335 335 336 336 337 337 337 337 336 333 330 331 332 332 331 331 329 326 325 323 322 321 323 327 329 328 326 325 327 329 327 324 321 320 320 319 318
333 333 333 332 331 331 331 331 330 328 328 330 330 331 332 333 335 338 339 339 337 335 334 334 332 331 331 333 333 333 334 334 334 335 336 334 333 334 332 330 329 327 325 324 323 321 321 323 325 328 328 326 326 326 326 327 325 322 321 321 320 319 319
329 331 332 333 333 334 333 333 333 332 332 333 333 334 335 336 337 340 339 337 334 334 333 331 330 329 329 330 329 330 330 331 331 333 334 334 335 333 330 328 327 325 324 323 321 320 322 325 327 327 327 326 326 326 326 325 324 322 321 321 320 320 318

ECMWFFLT1_850_thetae_012.txt.gz
Theta_e
353 354 353 353 354 354 353 353 352 352 350 347 342 340 339 339 340 341 341 342 343 345 346 347 348 348 347 346 344 344 344 345 348 349 346 345 343 344 346 346 344 344 345 345 346 347 345 341 338 337 338 338 337 332 327 331 333 330 326 323 326 332 333
353 353 354 354 354 354 354 351 347 347 347 346 344 342 340 340 340 341 341 341 341 344 346 346 348 347 347 346 344 342 341 343 347 350 349 348 346 344 342 342 342 341 343 343 345 347 343 339 336 335 335 335 333 327 323 330 330 326 328 326 324 330 332
352 353 354 354 355 355 354 349 343 342 344 344 343 342 342 341 340 340 341 341 340 342 344 345 347 346 346 345 343 341 340 342 347 350 349 348 348 345 338 339 342 341 342 344 347 347 341 338 336 334 334 332 330 326 324 331 330 322 327 329 327 331 332
351 352 353 354 355 355 353 347 341 340 341 342 340 340 340 339 339 339 340 340 340 340 342 345 346 346 345 344 343 343 342 344 348 348 346 345 346 344 339 339 340 340 343 344 347 346 340 338 336 333 331 328 328 327 324 330 331 324 324 327 329 333 333
351 351 351 353 355 356 356 352 346 342 342 343 341 339 339 339 339 339 340 340 340 339 340 343 344 345 345 344 344 343 343 348 349 345 342 345 345 342 339 338 339 341 343 345 346 345 339 336 335 331 327 323 324 327 325 326 330 329 327 327 329 333 334
350 351 351 352 353 355 357 355 352 348 344 344 343 340 339 340 340 340 341 341 340 340 340 341 343 345 345 344 344 344 344 348 348 343 343 345 342 339 337 338 340 341 341 344 345 343 335 330 330 328 325 322 324 330 330 327 327 330 330 328 329 332 333
349 352 352 351 353 354 355 353 353 353 351 348 345 342 340 341 342 341 342 341 340 340 340 340 342 343 344 344 344 345 346 346 346 344 343 342 341 340 337 337 340 341 341 342 341 340 335 325 322 322 321 322 326 331 332 329 326 330 333 331 329 330 331
349 352 352 352 352 352 353 354 354 356 356 353 350 347 343 343 345 346 345 345 342 341 341 341 341 342 343 344 344 345 345 344 344 343 342 342 340 338 336 337 339 339 339 339 336 337 336 326 319 319 318 321 325 327 330 329 325 327 333 333 331 331 332
349 353 353 351 351 351 352 354 354 355 357 356 354 350 347 346 348 349 349 350 349 345 343 342 343 342 341 343 345 345 345 346 345 344 343 342 339 335 335 336 338 338 338 341 339 337 335 328 322 321 320 321 321 321 325 326 323 324 330 332 332 331 331
350 354 354 351 350 350 351 353 355 356 357 357 356 353 350 348 350 351 351 352 353 352 348 346 348 346 342 342 343 344 346 346 345 344 340 335 334 335 334 335 339 341 340 342 344 344 340 332 325 324 322 320 319 318 320 321 318 319 327 331 330 326 325
350 353 355 353 350 350 352 354 355 356 355 354 353 352 353 351 349 351 352 352 354 355 354 353 354 353 348 342 342 344 344 343 344 346 341 335 334 336 339 344 346 344 342 341 343 344 340 331 323 322 323 322 321 319 318 317 315 316 324 329 326 322 322
352 354 355 354 353 353 355 356 355 355 352 350 349 350 351 350 348 350 352 352 354 357 358 358 358 358 356 348 343 343 342 342 345 346 344 343 345 347 348 348 344 338 336 337 338 339 333 326 322 321 321 321 321 319 318 317 315 315 320 324 323 322 323
352 355 355 354 355 356 356 355 354 354 350 348 349 348 347 346 346 349 350 350 353 357 360 360 360 360 359 355 350 345 342 343 343 345 347 349 350 351 348 340 334 331 331 330 335 337 331 323 322 321 319 319 319 318 318 317 316 317 319 322 323 324 324
351 354 355 355 356 357 356 354 354 353 350 348 348 347 345 344 345 348 348 348 353 358 360 361 361 361 359 357 356 352 348 349 349 351 353 352 351 350 346 337 331 329 328 328 331 335 334 326 322 321 320 319 319 319 317 317 318 318 320 322 323 325 326
352 354 355 355 355 354 352 351 352 352 349 347 347 346 345 345 346 349 350 351 353 356 360 361 360 358 357 356 356 355 355 357 357 355 354 353 352 351 350 344 336 328 327 328 327 332 339 336 327 323 321 319 319 319 318 318 318 318 319 321 323 327 327
353 353 353 352 353 351 348 347 350 350 347 345 344 345 345 346 347 347 349 350 350 353 358 360 358 355 355 356 355 356 359 359 357 355 354 354 354 354 353 351 347 339 333 330 328 332 340 342 337 328 322 320 320 320 319 318 319 320 320 321 324 327 325
352 354 353 350 352 354 350 348 350 347 344 341 341 344 345 344 345 345 347 350 352 352 355 358 358 355 355 357 355 355 359 359 356 355 356 355 355 355 355 354 353 348 342 336 333 333 337 344 344 335 323 321 321 320 319 319 321 323 321 320 324 324 320
353 353 351 348 352 354 348 345 345 342 340 340 341 343 343 344 344 343 347 352 354 357 358 358 360 357 353 354 352 355 359 359 356 356 356 356 355 354 354 355 353 350 347 342 337 335 339 345 347 340 327 322 322 321 321 321 323 325 321 319 321 319 317
355 352 349 348 350 349 343 341 342 339 338 339 341 342 342 343 344 342 346 352 356 360 360 359 358 354 351 350 351 357 361 358 355 356 356 355 353 353 353 354 353 351 348 345 339 337 340 344 346 342 331 325 324 322 321 322 324 324 321 319 319 317 317
355 356 354 353 351 348 344 347 347 344 344 342 341 341 342 343 345 345 348 352 354 356 356 358 357 354 353 352 351 357 360 357 353 355 356 354 353 354 354 354 354 351 348 346 342 339 339 341 344 340 332 327 325 322 322 323 323 322 321 319 318 318 318
354 356 356 357 355 351 349 350 349 348 349 350 348 346 346 346 346 344 346 349 349 348 350 353 355 354 353 351 353 357 357 353 352 354 354 354 353 354 353 353 353 351 348 346 344 341 337 335 337 338 333 328 324 322 324 324 323 321 319 319 318 318 319
348 351 353 355 354 353 352 351 349 347 349 353 356 354 349 346 345 345 350 353 350 347 348 349 349 350 350 350 355 358 355 350 350 352 353 353 353 353 353 352 352 351 349 347 346 344 338 332 333 336 334 329 325 324 324 324 324 321 319 318 318 319 320
344 346 349 350 348 348 350 349 348 347 347 350 354 353 350 348 349 353 357 355 348 344 345 346 345 346 347 348 353 355 350 347 348 350 351 353 352 352 352 352 351 350 349 348 347 345 340 335 335 335 333 330 328 325 323 324 325 322 318 318 318 319 321
342 344 347 348 348 348 345 342 344 345 344 344 347 349 350 352 354 354 353 349 344 341 342 343 342 343 346 349 351 349 345 346 348 350 351 352 352 351 350 350 350 349 347 346 345 343 339 337 336 334 331 330 328 325 324 325 325 321 318 319 319 319 320
344 347 348 347 349 350 347 344 344 343 341 344 348 350 352 353 351 345 340 341 343 342 340 341 343 343 345 346 346 343 343 345 348 350 352 351 351 350 349 348 348 348 346 345 343 341 339 337 335 332 330 328 325 324 325 325 322 319 318 319 319 319 319
349 350 351 351 352 351 347 345 348 349 349 349 349 348 348 346 342 337 335 340 346 347 344 342 343 343 342 342 341 340 342 346 349 352 351 350 349 349 348 347 347 346 345 344 342 340 338 337 335 333 330 327 326 327 327 324 321 319 319 319 319 320 319
351 351 353 353 351 348 345 347 350 351 349 345 341 339 339 337 336 336 335 337 343 347 346 342 340 339 338 339 339 341 346 349 350 350 349 347 347 346 346 346 345 345 345 343 340 338 337 335 334 332 330 328 327 329 330 328 325 323 321 319 320 321 321
354 354 354 353 351 349 350 350 349 346 341 336 335 336 336 335 334 334 334 335 338 341 340 337 337 337 337 338 340 343 347 349 347 345 344 344 344 344 344 344 344 343 342 340 337 336 335 334 333 332 331 329 329 328 328 327 325 323 320 320 322 326 328
354 353 353 352 351 351 350 347 343 340 338 337 337 337 336 336 335 335 336 337 337 337 337 336 335 336 337 340 341 343 344 343 341 341 340 341 343 342 342 343 342 341 339 337 335 335 335 334 333 332 331 330 328 327 325 324 324 322 321 324 328 331 333
351 351 350 349 347 345 343 341 340 340 339 338 338 338 337 336 335 336 337 337 336 336 335 334 334 335 337 339 341 342 339 337 339 341 341 340 341 341 340 340 339 338 337 336 335 335 335 334 333 332 331 329 327 324 324 325 325 326 327 330 331 332 332
344 344 344 342 340 338 338 338 337 337 337 337 336 336 336 335 334 334 335 337 338 337 335 333 333 332 333 337 340 340 338 336 339 341 340 339 340 339 339 337 336 336 336 335 335 335 334 332 331 331 330 327 326 326 327 328 330 330 330 330 330 331 331
336 335 334 333 333 333 334 334 333 333 334 334 333 333 334 334 333 332 334 335 336 335 334 333 332 331 335 339 340 338 338 339 340 340 339 338 338 338 337 336 335 335 335 335 334 333 332 332 332 331 328 325 327 330 331 331 331 330 328 327 328 330 330
332 331 330 330 329 330 330 330 330 331 331 331 331 331 330 330 330 329 331 331 331 332 332 331 333 337 341 342 339 338 340 341 340 340 339 338 338 337 336 335 335 335 334 334 333 332 332 333 331 329 327 328 330 331 330 329 328 326 326 327 328 329 329
327 327 328 328 328 328 330 330 329 329 329 329 329 328 327 328 328 328 329 328 330 335 336 335 337 341 342 342 340 340 341 341 340 339 339 338 337 336 336 335 334 334 334 334 333 333 333 333 330 329 330 331 330 328 326 326 326 327 328 328 329 329 327
328 328 327 328 327 327 328 327 328 328 327 327 327 327 327 328 327 328 330 330 335 341 341 337 339 341 340 341 341 340 340 340 340 338 338 337 336 335 334 334 334 334 334 334 333 333 334 334 333 331 330 328 327 327 329 330 330 330 329 328 329 327 324
330 328 327 327 327 327 327 327 326 327 326 326 326 326 326 327 327 330 334 336 339 342 340 338 341 342 340 340 341 340 339 340 339 338 338 338 336 333 331 331 332 333 333 332 330 330 332 334 334 329 326 329 331 331 332 332 332 329 328 328 327 325 321
331 330 329 328 328 328 329 328 326 327 327 327 326 326 327 328 329 330 335 338 340 341 339 338 339 341 341 341 340 339 339 339 338 338 338 338 336 332 330 331 332 332 332 331 330 330 331 331 328 324 325 331 334 331 329 330 330 329 329 328 325 323 321
331 331 332 334 334 333 332 331 329 329 329 329 329 329 331 334 334 334 337 339 339 338 336 333 334 339 342 342 339 338 338 338 337 337 337 337 336 334 333 333 333 332 332 333 333 331 329 326 323 322 325 330 331 328 326 327 327 328 328 326 324 322 321

ECMWFFLT1_850_thetae_015.txt.gz
Theta_e
348 348 350 352 354 353 352 355 357 356 357 355 356 355 353 353 354 357 358 359 361 357 344 339 344 347 347 347 347 346 345 345 344 345 345 344 345 350 352 351 352 350 349 350 350 350 349 347 346 346 344 343 342 341 340 339 338 338 338 337 336 337 336
348 347 348 351 354 355 352 354 357 357 357 357 356 356 353 353 354 356 358 359 358 354 343 340 345 347 347 347 346 345 344 344 345 345 346 345 344 347 351 352 352 351 349 350 351 351 350 348 347 345 344 343 342 341 340 339 336 335 337 337 335 333 333
350 348 348 350 354 356 354 354 357 357 358 357 357 356 354 353 353 351 354 357 354 349 342 340 345 347 347 347 346 345 344 344 345 345 347 348 344 343 348 350 350 350 348 347 349 351 351 349 347 346 344 343 343 341 338 337 333 328 331 335 335 331 332
348 350 350 351 353 356 356 354 357 358 357 357 357 357 355 352 352 346 344 349 349 343 340 340 343 345 347 348 346 345 344 343 345 346 349 351 348 343 344 345 347 349 348 347 347 348 350 349 347 345 344 343 342 338 333 334 335 327 321 326 332 335 335
345 349 349 351 354 356 357 356 357 357 356 356 357 359 356 352 353 349 342 343 346 342 336 338 346 348 346 346 347 345 343 343 345 347 349 349 348 348 345 341 343 346 348 349 347 344 345 345 343 343 342 339 334 328 325 330 335 332 323 319 325 333 337
342 347 349 351 354 356 357 357 358 358 356 354 357 359 358 354 355 355 348 343 346 347 340 336 346 352 349 346 347 346 343 344 346 348 349 347 347 349 348 345 346 345 347 349 346 341 341 342 343 341 337 332 326 321 323 327 330 330 326 322 321 327 335
339 346 351 352 353 356 358 358 358 359 356 352 355 358 357 355 355 356 354 348 346 350 349 342 344 352 351 348 347 345 342 343 346 347 347 346 346 348 349 350 350 347 347 348 343 340 341 341 340 335 327 324 322 321 324 325 325 326 326 323 319 321 330
338 347 352 353 353 355 357 359 359 358 357 352 353 357 356 353 353 353 353 353 351 350 353 352 348 350 351 347 345 343 340 342 346 346 345 345 347 349 350 351 350 346 345 345 341 341 340 335 331 327 323 322 321 320 322 322 322 324 325 323 318 318 327
340 349 354 354 352 351 354 359 359 358 358 354 352 356 357 351 350 351 349 351 353 350 351 353 353 354 353 347 342 340 338 339 345 345 344 346 350 352 350 350 349 345 342 342 341 338 334 327 325 324 324 324 321 320 321 321 321 323 325 325 320 318 327
339 346 353 355 351 350 352 357 359 359 359 356 353 355 357 351 346 348 348 348 352 351 350 350 351 357 358 350 340 339 338 340 343 344 347 352 354 351 349 350 349 345 341 340 340 337 331 327 326 326 325 323 323 322 319 319 322 324 326 326 324 320 323
337 339 351 357 352 351 353 355 359 359 359 359 356 356 358 353 346 346 347 347 349 350 350 350 348 354 362 358 346 339 340 341 343 346 351 354 350 343 347 351 348 343 339 338 336 335 331 329 329 329 327 325 326 324 319 319 321 322 322 323 324 324 326
342 344 356 359 355 352 353 354 357 359 359 360 359 358 359 356 349 346 347 347 348 349 349 351 349 350 359 364 359 351 344 341 343 349 351 346 339 338 345 348 344 341 339 337 336 333 331 334 334 331 328 326 328 327 322 319 320 321 321 318 320 326 331
355 355 360 360 357 354 354 355 357 359 361 362 362 362 361 360 354 348 347 348 349 349 349 351 351 350 354 363 366 363 356 346 342 346 346 339 334 337 338 335 339 344 339 334 335 334 333 336 336 332 328 325 327 328 324 320 320 323 324 320 320 328 332
360 360 362 361 358 357 356 356 358 361 363 364 365 364 363 363 360 354 352 352 351 349 349 352 353 353 354 359 365 367 365 358 351 346 344 342 339 338 335 332 338 341 335 330 333 333 331 334 336 335 332 327 325 329 327 322 321 324 324 322 322 328 331
351 356 362 363 360 359 358 359 361 364 365 365 366 365 365 364 363 360 358 358 356 352 349 351 355 356 357 359 365 368 367 366 362 356 352 351 347 343 342 341 340 338 332 331 332 331 330 333 337 337 336 331 329 334 331 323 322 323 321 319 319 324 331
337 343 354 361 363 361 360 362 365 365 366 366 365 364 366 365 365 365 363 362 361 356 351 352 355 359 361 362 365 368 368 367 365 362 359 355 350 345 345 346 345 343 341 340 339 337 336 338 340 340 340 336 334 338 334 325 323 323 319 318 318 320 327
334 335 341 351 361 364 362 364 368 368 367 367 364 365 367 366 366 365 363 363 362 359 355 354 358 363 365 364 366 369 369 366 364 362 361 356 351 348 348 349 350 349 349 349 347 344 342 341 342 343 344 342 339 340 336 328 326 324 319 318 318 319 324
333 334 334 337 354 365 364 365 368 367 366 366 366 366 366 366 367 365 363 363 363 361 359 359 364 367 366 367 369 368 367 366 363 361 360 358 354 351 352 353 353 353 353 352 351 350 348 345 344 344 346 345 344 344 340 333 329 325 320 319 318 320 326
333 333 333 333 348 364 366 365 366 365 365 367 367 366 365 365 366 365 364 364 364 364 361 362 367 368 367 368 368 366 365 365 362 359 358 356 353 353 354 354 355 355 354 354 353 353 352 349 347 346 346 346 346 345 343 338 332 326 322 320 317 320 327
334 333 334 336 344 356 363 366 368 368 369 369 366 365 365 365 364 364 364 364 365 365 363 364 368 369 367 368 367 365 364 363 362 359 356 354 353 353 354 354 355 354 354 354 354 353 353 351 349 348 347 346 345 344 343 340 335 329 323 320 318 320 325
335 334 337 341 341 347 360 367 368 370 371 368 366 366 366 363 362 362 362 363 365 366 365 365 369 370 369 368 367 366 364 364 362 357 355 356 355 353 352 354 355 356 355 355 354 352 352 350 349 348 347 346 345 343 340 338 337 333 325 319 320 321 323
337 339 343 349 348 353 362 365 365 368 369 366 365 366 365 362 362 362 362 364 366 366 367 367 369 370 370 368 367 365 364 364 362 356 355 356 354 351 351 353 355 356 356 355 353 352 350 349 348 348 346 345 345 343 339 337 336 333 325 320 321 323 324
337 339 341 347 353 360 364 362 362 368 368 366 365 365 364 364 364 364 363 365 367 368 369 369 369 370 369 367 366 364 363 363 361 357 356 354 349 345 348 351 353 355 354 353 353 352 350 349 348 347 346 345 344 342 340 337 335 331 325 322 321 323 324
338 337 337 346 354 363 364 358 359 364 365 364 364 364 365 365 365 365 365 366 368 368 367 369 369 369 368 366 364 363 362 361 361 357 354 351 348 345 346 348 349 351 351 351 351 351 350 349 348 346 345 344 343 342 340 337 335 330 324 322 322 324 325
341 338 339 346 352 361 363 355 355 363 364 363 363 365 366 366 364 364 364 365 367 365 367 369 369 368 367 365 363 362 360 358 358 356 353 353 353 351 349 348 348 349 349 349 349 350 349 349 348 346 344 343 341 340 339 337 334 329 324 323 324 324 324
342 339 342 346 351 360 361 355 356 362 362 361 364 364 364 363 361 361 363 365 366 366 367 368 367 367 366 364 363 360 357 355 354 354 355 355 354 352 351 350 348 349 349 347 347 347 347 346 346 345 343 341 339 338 337 334 331 326 324 324 325 324 324
347 345 345 346 350 358 361 359 359 362 360 362 364 361 359 360 361 362 364 365 365 366 367 367 366 366 363 360 359 357 356 355 355 355 355 354 353 352 350 350 349 348 348 346 346 346 345 345 345 343 341 340 338 336 335 332 330 327 325 325 325 324 323
352 351 351 352 355 360 361 360 359 358 358 360 359 357 360 363 364 363 363 362 364 367 365 362 358 354 352 354 357 357 357 357 356 355 353 352 352 351 349 348 348 347 346 346 345 345 344 344 343 341 339 338 337 335 334 332 329 328 327 326 324 322 321
354 356 358 359 358 358 359 358 359 359 360 360 360 362 366 366 365 363 363 365 366 361 352 344 339 339 344 351 355 354 352 350 349 351 353 351 349 349 348 348 346 345 345 344 343 342 341 340 339 338 337 335 334 334 333 331 329 329 329 328 325 323 323
358 359 360 358 357 359 361 362 362 362 362 363 363 366 366 364 363 364 364 363 356 345 337 334 335 338 343 349 351 350 346 343 343 347 349 348 346 346 347 346 344 343 342 342 340 340 338 338 336 336 335 334 334 333 333 333 332 330 328 326 324 323 322
358 358 357 357 357 360 361 363 363 363 363 364 364 362 359 354 351 350 349 344 338 334 334 335 335 336 338 343 348 349 347 346 345 343 343 344 344 344 344 343 342 341 340 339 339 338 337 337 336 335 335 335 334 335 335 336 334 331 327 324 323 321 321
356 357 357 358 358 359 360 360 359 358 356 354 350 347 342 337 336 335 334 334 334 335 334 333 333 334 335 339 344 346 345 346 344 340 340 342 343 342 341 341 340 340 339 339 338 338 338 337 336 336 335 335 335 335 334 332 330 328 325 323 323 324 326
353 352 352 353 354 354 353 352 351 348 345 342 339 339 337 333 332 332 333 335 335 333 333 334 334 335 336 338 340 342 344 345 343 341 341 341 341 340 339 339 339 339 339 338 338 338 338 337 336 335 335 335 335 333 330 328 327 327 326 326 328 330 330
355 353 352 350 350 350 350 350 349 349 348 348 348 347 341 336 333 334 336 338 337 334 334 334 334 336 338 340 340 342 344 343 342 341 340 340 339 339 338 338 338 338 338 338 337 337 337 336 335 336 335 334 334 333 331 331 331 331 331 331 331 330 328
352 353 353 353 353 353 353 354 354 353 352 353 352 349 345 342 342 342 343 340 336 334 334 334 337 339 339 340 342 342 343 342 341 340 340 339 338 338 337 337 337 337 337 336 336 336 336 336 336 336 334 334 334 334 334 334 333 332 331 330 329 327 327
345 346 348 349 347 344 342 342 343 343 344 346 347 345 346 347 346 347 348 344 336 334 336 336 340 343 343 343 344 342 342 342 341 340 340 339 338 337 336 336 336 336 336 336 335 335 335 336 337 336 334 333 334 334 333 332 331 329 328 328 327 328 328
346 346 347 348 347 344 340 337 334 331 334 338 339 338 341 344 345 349 351 346 340 340 340 339 341 345 346 345 344 343 342 342 340 339 340 339 338 337 336 335 335 336 336 335 335 335 335 335 336 335 333 332 332 330 329 328 328 327 328 329 329 329 328
344 345 347 348 350 349 348 347 343 338 336 337 337 339 343 345 347 349 348 340 335 338 340 340 342 345 345 344 343 342 342 342 340 339 340 339 337 336 336 335 334 335 335 334 333 333 333 334 335 334 331 328 327 326 327 328 328 328 329 329 329 329 327

ECMWFFLT1_850_thetae_018.txt.gz
Theta_e
350 350 350 349 349 351 350 350 351 353 355 356 354 355 356 356 357 359 359 358 357 357 357 357 354 350 346 343 342 342 343 344 345 343 344 345 345 350 351 347 344 345 345 344 347 347 343 343 347 347 346 344 342 341 339 336 335 332 328 328 333 335 336
350 348 347 347 348 350 351 350 350 353 355 356 355 355 355 356 356 357 359 358 358 357 357 356 354 349 345 343 343 343 344 345 345 344 344 344 344 347 348 346 344 344 347 347 348 346 343 344 347 346 343 342 342 339 336 336 333 327 324 323 324 328 329
348 348 346 346 347 349 350 351 350 353 355 355 356 355 356 356 355 356 357 358 358 358 357 357 353 347 344 343 343 344 345 346 345 345 344 344 343 344 345 347 349 348 348 350 349 346 345 346 347 345 343 340 339 337 335 336 332 326 323 320 320 321 321
347 346 347 345 346 348 351 351 350 353 355 356 356 356 356 355 355 355 356 357 357 357 358 359 355 349 345 344 343 343 346 347 345 345 343 343 343 342 342 345 350 352 352 351 349 346 346 347 346 346 344 341 338 336 335 335 332 327 322 320 319 319 318
347 347 347 344 345 349 352 352 352 355 357 356 357 356 356 356 355 355 355 355 357 357 357 360 358 352 346 344 342 342 345 347 347 345 343 343 343 342 341 342 347 351 352 350 349 346 345 346 346 346 345 342 339 336 335 333 331 329 324 319 319 319 317
348 347 346 345 345 349 351 352 352 355 358 358 357 357 357 357 356 355 355 355 357 358 357 360 360 355 348 344 342 342 345 348 348 346 343 343 343 341 341 342 344 347 348 349 349 347 345 345 345 346 345 343 341 336 334 332 330 330 327 322 319 317 318
348 347 345 346 347 348 349 351 352 353 357 359 359 359 358 358 357 355 356 356 358 360 360 361 361 357 348 341 341 343 346 349 350 348 344 342 343 342 343 343 343 343 344 347 348 346 345 345 344 344 344 344 342 337 333 331 327 329 331 326 320 316 319
347 347 345 346 347 347 349 351 352 355 356 357 358 359 359 358 357 355 355 358 359 362 363 363 360 356 347 340 341 345 348 351 352 350 346 342 342 344 345 344 342 340 338 340 343 344 344 344 343 343 343 342 342 339 334 330 326 328 331 329 323 319 321
343 345 344 345 345 347 348 349 350 354 354 354 357 359 359 358 357 356 355 357 359 360 362 364 362 356 347 341 342 345 349 354 356 351 345 342 343 343 344 345 343 341 338 337 338 340 340 341 340 340 341 341 340 339 336 331 326 326 329 328 325 322 323
344 344 344 346 346 346 347 348 349 351 351 351 354 358 359 359 358 356 356 357 357 357 361 363 363 358 348 341 344 349 351 354 358 354 346 342 342 340 340 343 343 341 340 338 338 339 338 337 338 338 340 340 339 339 338 332 326 324 326 326 323 323 325
346 347 348 348 348 348 347 349 351 352 351 351 355 358 358 359 359 358 356 355 355 355 359 361 360 359 353 345 349 354 353 353 355 353 346 343 341 337 338 342 344 343 339 337 339 339 337 337 338 338 339 340 339 339 337 335 329 324 325 325 322 322 325
344 347 350 350 351 348 347 348 349 352 353 355 357 358 357 359 359 357 355 355 354 353 356 358 357 358 357 354 355 357 356 354 351 348 345 343 342 339 339 343 348 347 341 335 336 338 337 338 338 338 339 340 340 338 337 336 332 326 325 325 322 321 324
347 348 348 351 353 350 348 347 347 349 354 358 360 358 358 359 358 357 355 354 353 352 353 354 353 355 357 359 360 359 357 352 345 343 343 342 343 343 343 345 348 350 345 337 334 336 337 338 339 338 340 342 341 340 340 339 335 329 326 325 322 321 322
349 353 353 354 355 352 351 350 349 351 355 359 361 359 357 357 357 357 355 353 351 351 351 351 352 353 355 359 362 360 358 351 342 340 342 343 345 345 345 346 347 349 348 343 339 338 338 340 341 340 341 343 344 343 342 341 337 331 328 326 324 323 323
346 354 360 361 357 354 352 351 352 355 357 360 362 361 358 357 357 357 353 352 349 348 350 350 351 351 352 356 361 362 359 355 350 346 343 344 347 346 344 344 345 348 349 347 344 343 344 346 347 346 345 346 346 345 344 343 339 335 331 328 325 323 323
342 346 355 361 358 354 350 347 349 355 358 360 361 361 360 357 357 358 353 350 347 347 348 350 350 350 351 353 358 361 360 359 358 356 350 347 347 346 345 344 344 348 349 348 347 348 349 351 352 352 351 350 349 347 346 344 342 339 335 331 327 324 323
339 338 347 357 357 354 351 347 346 352 358 361 360 361 361 358 358 358 354 350 348 346 346 348 349 350 349 351 355 359 360 360 360 360 357 352 349 348 349 349 348 349 351 351 351 352 352 353 354 354 353 352 350 348 347 345 343 343 338 335 331 326 323
337 336 345 355 355 355 354 351 349 352 356 358 359 360 361 361 360 360 358 353 348 346 346 347 350 349 349 351 353 356 360 361 361 362 361 358 355 354 354 354 354 352 353 353 353 352 353 353 353 353 353 352 351 349 349 347 345 344 341 337 334 329 326
337 335 342 348 353 356 359 357 354 353 353 354 356 360 361 363 362 362 361 356 351 348 347 347 350 351 350 351 353 356 360 361 362 363 364 363 361 359 358 356 355 355 355 355 355 354 354 354 354 353 352 351 351 350 350 349 347 346 343 340 338 332 329
337 336 336 339 347 357 361 362 359 356 354 354 356 362 365 365 364 365 363 361 356 351 349 349 350 352 352 351 354 356 360 361 364 365 366 365 364 362 360 357 356 356 356 357 357 356 357 356 354 354 353 351 351 350 350 349 348 346 344 343 340 334 331
337 338 337 333 340 353 358 360 364 364 360 358 361 365 367 366 366 366 365 363 361 358 355 353 351 353 354 354 356 358 360 364 366 366 367 366 364 363 361 359 358 358 357 357 357 357 357 355 354 354 353 352 351 350 349 349 348 347 345 344 342 336 331
336 335 337 335 336 347 352 353 359 365 363 360 362 365 366 366 366 368 367 365 363 362 361 357 354 357 358 358 360 362 364 367 368 369 368 366 364 363 362 360 359 357 356 357 357 357 356 355 354 353 352 352 351 350 349 348 348 347 346 344 343 337 330
334 333 336 336 333 341 347 346 350 358 361 362 362 364 365 367 368 368 367 365 363 363 363 360 358 360 362 363 364 365 367 369 369 368 367 365 364 363 361 359 356 356 356 356 356 356 355 354 353 353 351 350 349 349 349 348 348 348 346 344 342 337 330
332 333 333 335 335 341 345 342 344 350 354 358 361 363 366 368 369 369 366 365 365 364 364 363 362 363 366 367 367 367 369 369 369 368 366 364 362 360 358 356 354 354 354 353 352 353 353 353 353 352 352 350 348 348 348 348 348 347 345 343 341 337 332
330 331 331 331 335 343 344 341 341 347 352 358 360 363 367 368 369 368 365 365 366 365 364 366 366 367 368 369 370 369 369 369 367 365 362 361 361 358 355 352 350 348 345 342 343 344 347 351 353 352 351 350 348 348 347 347 347 346 343 342 340 338 335
336 335 332 330 334 339 342 342 345 352 360 360 356 359 366 367 368 367 364 365 366 366 366 366 368 368 369 369 370 369 367 366 363 359 358 359 359 355 350 343 337 335 331 334 335 332 336 349 353 351 350 349 348 347 346 345 345 344 342 340 339 338 333
344 343 333 330 334 340 343 347 352 360 365 360 352 358 367 367 367 365 364 364 366 367 367 368 368 369 368 368 369 368 367 365 361 358 358 356 352 345 338 333 333 336 336 338 338 332 336 347 350 349 348 347 345 346 345 344 343 342 340 338 337 334 328
344 348 341 334 336 338 342 352 359 363 365 362 359 362 367 367 365 365 364 366 369 369 369 369 369 368 367 367 368 366 364 361 359 356 353 346 338 333 332 332 334 336 338 341 341 339 343 347 346 345 344 344 343 343 342 341 340 338 336 335 332 328 323
342 347 347 347 347 343 343 353 362 363 363 363 364 365 366 366 367 366 366 367 369 371 370 369 368 367 366 365 364 361 360 360 358 353 346 339 335 336 336 335 334 336 341 344 345 345 346 346 344 343 343 342 341 341 339 338 337 335 334 332 329 325 323
349 347 348 352 360 358 355 358 362 362 361 362 364 366 366 368 367 367 367 369 369 370 370 369 367 367 365 363 361 360 359 358 354 349 345 341 340 341 344 344 344 346 348 349 347 346 346 345 343 342 341 340 339 338 337 336 335 334 332 330 327 325 325
357 357 354 353 360 363 363 362 361 359 361 363 365 365 367 367 367 367 368 368 368 369 369 367 365 363 362 361 360 358 356 353 349 349 349 347 345 347 349 348 348 348 348 348 347 346 344 342 340 339 338 337 336 336 336 336 335 333 331 329 328 328 327
358 359 356 353 357 360 360 359 357 358 362 365 365 366 367 367 366 367 369 369 369 368 366 364 363 362 360 358 355 351 347 345 345 349 351 349 348 349 350 349 349 347 345 344 343 342 340 338 337 336 336 335 335 335 335 335 335 334 332 330 329 327 325
355 355 354 355 359 360 359 358 360 364 368 369 368 367 367 366 367 368 368 367 366 365 363 363 361 359 356 352 346 343 342 341 342 345 348 347 347 346 346 346 346 344 342 340 339 339 338 337 336 336 336 336 336 336 335 335 336 335 333 330 328 325 323
354 355 355 355 357 359 361 362 363 366 368 368 368 367 366 366 367 367 365 363 363 363 363 360 355 351 349 346 343 342 343 343 341 342 343 343 343 342 341 340 340 340 340 339 338 339 338 338 337 337 337 337 337 336 336 336 335 333 331 328 325 322 322
354 355 356 356 356 357 359 360 360 362 364 364 364 366 365 363 363 362 361 361 361 360 356 349 344 343 344 345 345 345 344 343 342 340 339 339 340 339 337 337 339 339 339 339 339 339 338 338 337 337 337 336 336 336 335 334 331 329 328 327 325 324 325
351 353 354 355 356 355 356 355 355 356 356 357 359 360 359 359 359 360 359 356 353 347 340 337 339 343 345 346 346 344 342 341 340 340 339 339 339 338 338 338 339 339 338 339 339 339 338 338 338 337 336 336 336 336 335 333 333 332 331 331 329 328 328
349 350 351 352 353 353 352 352 353 354 354 354 354 354 355 358 358 357 352 346 340 336 334 335 340 343 345 346 345 342 341 341 341 341 339 339 339 338 338 338 338 338 337 338 338 338 337 338 337 337 336 335 335 335 334 334 335 334 331 330 328 328 328
345 348 350 350 351 350 349 349 349 349 350 351 351 353 355 356 356 355 350 342 337 337 337 338 341 344 346 346 344 341 341 342 341 340 339 338 338 338 337 337 338 337 336 337 337 337 337 337 336 336 335 335 334 333 332 332 331 329 328 327 327 327 328

ECMWFFLT1_850_thetae_021.txt.gz
Theta_e
347 347 346 346 346 347 347 347 347 348 349 350 352 353 354 355 355 355 355 356 356 355 355 355 354 352 351 349 345 341 340 339 339 340 342 344 345 346 347 348 348 347 343 339 337 338 338 339 341 341 339 333 332 335 337 338 335 334 336 334 335 338 338
348 346 346 346 347 347 348 348 348 348 349 350 352 353 354 355 356 356 355 355 356 355 355 355 355 353 351 351 348 344 341 339 339 340 341 343 343 345 347 347 346 344 341 339 336 337 338 341 343 342 340 336 335 336 335 335 334 332 333 331 334 337 337
347 346 346 345 347 347 348 349 349 348 349 350 352 353 354 355 355 356 355 355 355 356 355 355 355 355 353 352 350 347 342 340 339 339 340 342 342 344 347 347 345 341 339 338 337 339 340 343 345 344 340 336 338 339 336 333 331 330 329 328 331 336 335
346 347 346 344 346 346 347 348 349 350 350 350 351 352 353 355 356 356 355 354 355 355 356 355 355 355 354 353 352 349 345 341 339 339 340 341 342 343 345 346 344 341 339 337 338 341 342 344 345 343 339 338 341 340 337 335 331 327 324 322 326 333 335
347 346 347 347 347 346 346 347 348 350 350 351 352 353 353 355 355 355 355 354 355 355 356 356 355 356 355 354 353 351 348 342 339 339 340 341 342 342 343 344 342 340 339 338 339 342 343 345 345 342 338 339 342 342 340 338 333 327 323 320 320 324 328
347 347 348 349 349 349 349 348 348 349 350 351 352 353 354 354 355 355 355 355 356 357 358 358 357 356 356 356 354 353 350 345 339 338 340 341 342 343 343 342 341 340 338 338 339 341 343 344 345 342 339 339 342 343 342 341 337 330 325 321 318 318 319
348 348 349 349 350 350 348 347 347 348 349 350 351 353 353 354 355 355 355 355 356 357 358 358 358 356 356 356 355 354 352 347 340 338 340 341 342 343 342 342 341 339 338 338 339 341 343 344 344 343 341 341 342 344 344 343 341 336 329 324 320 318 316
346 347 348 348 348 347 346 346 347 348 349 350 351 353 354 355 355 355 355 356 356 357 358 358 358 357 356 356 356 355 352 348 341 338 340 341 342 342 342 342 341 340 339 337 338 342 343 344 344 344 343 343 344 344 345 344 343 340 335 328 323 320 318
346 345 346 347 347 346 346 346 348 350 350 351 352 353 355 356 356 356 355 356 356 356 357 357 358 357 356 356 356 355 353 349 343 340 341 342 341 341 341 341 342 340 338 337 337 340 343 344 345 345 345 345 345 345 346 345 344 342 340 334 327 322 321
346 345 346 347 346 346 346 347 349 351 351 351 351 353 355 356 356 356 356 356 356 356 356 356 358 357 356 356 355 356 355 351 346 342 341 341 341 340 340 341 341 341 339 336 336 338 341 344 345 346 346 346 345 346 346 345 344 343 342 339 332 326 322
347 346 345 346 345 345 346 349 350 351 351 352 352 354 355 356 356 357 356 356 356 355 355 356 357 358 357 356 356 356 355 352 348 345 343 341 339 339 340 340 341 341 339 335 334 336 340 343 344 344 344 343 343 344 345 345 344 343 342 340 336 329 324
345 346 345 345 346 345 346 349 350 351 352 353 354 355 356 356 357 357 357 356 356 356 356 356 357 358 358 357 356 356 355 353 350 347 343 340 339 339 340 340 341 341 339 336 333 334 338 341 340 339 338 338 339 341 343 344 344 343 342 341 339 333 327
345 345 345 346 346 346 346 348 348 350 350 350 353 356 357 357 357 357 357 357 356 356 356 356 357 358 358 358 357 355 354 351 349 345 342 339 338 339 339 340 340 340 339 336 334 333 336 338 337 336 336 336 338 340 342 344 344 344 343 342 341 337 331
345 346 347 347 346 346 347 348 348 349 349 351 354 356 357 358 358 359 358 357 357 356 356 356 357 358 358 359 359 356 352 348 345 344 341 338 338 340 340 339 339 339 339 338 336 333 334 336 337 339 339 339 340 342 344 346 346 346 345 344 342 339 334
347 347 347 346 345 345 345 346 348 349 350 352 355 356 358 358 359 359 358 358 357 356 355 356 357 359 359 360 360 357 352 347 346 345 343 341 341 342 341 340 340 340 341 340 338 336 337 340 342 344 344 344 345 346 347 348 348 347 346 345 343 341 338
348 348 348 345 344 344 343 344 345 345 346 349 351 354 355 356 357 359 358 358 357 356 356 356 357 359 360 360 360 358 353 349 348 348 345 343 342 341 342 342 342 343 344 343 342 342 344 346 346 346 346 348 348 349 350 350 350 349 348 346 345 343 341
350 350 349 348 346 345 345 346 345 344 344 346 347 350 351 351 354 357 359 358 357 356 356 355 356 357 358 359 359 358 356 353 351 349 347 344 343 343 345 346 346 347 348 348 348 349 350 351 351 349 349 349 351 352 352 352 351 351 350 348 347 345 342
354 353 351 350 349 348 348 347 346 346 346 345 346 347 349 351 354 357 359 358 357 357 356 355 355 355 356 358 357 356 356 354 353 351 349 347 347 348 349 350 351 351 351 351 352 353 353 354 354 353 352 352 353 354 354 354 354 352 351 350 349 347 343
352 354 354 352 351 350 351 349 348 349 348 346 347 347 348 352 355 357 359 358 358 357 356 355 354 354 354 355 355 355 354 354 354 353 351 351 350 351 353 354 355 354 354 354 354 354 355 356 356 355 355 354 355 355 355 355 354 353 352 351 349 348 344
341 345 348 347 345 346 349 350 350 350 349 347 347 348 350 354 357 358 359 358 358 357 356 355 353 353 353 353 353 353 352 353 354 354 354 353 354 355 355 356 357 357 355 355 355 355 355 356 357 357 356 355 355 355 354 354 353 352 351 350 349 348 345
335 337 339 343 343 342 342 347 351 350 348 345 347 351 354 356 357 359 359 358 358 357 355 355 352 352 352 352 352 352 352 352 353 354 356 356 357 358 358 357 358 358 357 357 356 356 356 356 356 357 356 355 355 354 354 354 353 352 351 351 350 348 346
338 337 336 340 345 345 344 346 349 350 347 344 346 352 355 355 357 360 359 358 358 356 355 354 352 350 351 351 351 351 352 352 353 356 358 359 360 361 361 359 359 359 358 358 357 357 356 355 356 355 355 355 355 355 355 354 352 352 351 350 350 349 347
333 334 334 334 338 344 346 344 344 346 347 346 347 350 352 353 356 360 360 358 358 356 354 352 351 349 349 350 351 351 352 353 355 358 360 361 362 363 362 361 360 359 359 359 358 357 356 356 356 355 355 355 356 355 354 353 352 351 350 350 350 349 347
329 329 330 331 332 337 341 342 343 344 345 348 350 350 351 352 355 360 361 360 359 357 355 351 349 348 347 348 350 350 352 354 356 359 361 361 362 363 364 363 362 361 360 359 359 358 357 357 356 355 355 354 354 353 352 351 350 348 348 349 349 348 347
329 329 329 329 332 337 340 344 346 346 347 349 350 351 351 351 354 357 360 361 361 358 356 353 350 347 346 347 349 350 352 354 358 361 361 362 363 364 364 364 364 363 362 361 360 359 358 357 355 354 355 354 353 352 351 349 348 347 346 347 348 348 346
328 332 333 333 334 336 339 345 348 350 352 350 350 351 350 350 355 356 357 360 362 362 360 357 354 349 346 348 350 352 353 356 359 362 363 363 364 365 365 365 364 364 363 362 360 358 356 355 354 354 355 353 352 351 350 349 348 347 346 347 347 346 345
334 335 336 337 338 338 340 343 346 351 352 346 345 351 350 350 355 356 355 359 363 363 362 361 358 354 349 350 353 355 357 359 361 364 365 365 365 366 366 365 364 364 362 359 355 353 353 352 352 353 353 352 351 350 349 348 347 346 346 346 345 344 343
344 342 341 339 338 337 338 340 340 345 350 346 345 353 354 353 356 356 354 359 363 363 363 363 361 359 355 355 357 359 361 363 366 368 367 366 367 367 366 365 364 361 356 351 348 348 349 350 350 351 351 350 349 348 347 345 345 344 344 343 342 341 340
349 348 347 345 343 340 343 345 342 341 349 354 355 357 356 354 356 357 357 360 363 363 363 364 365 363 361 362 363 364 365 367 368 368 368 367 367 366 365 363 359 351 346 343 343 345 347 347 348 348 347 347 345 344 343 343 342 342 341 340 339 339 339
354 353 351 351 352 351 350 355 358 356 358 361 360 360 359 357 358 359 361 364 365 364 365 366 366 366 366 366 367 368 368 369 369 368 368 367 365 364 363 357 348 343 342 342 340 340 343 344 345 345 344 343 342 340 340 340 340 339 338 337 336 335 335
357 357 355 353 357 358 355 356 362 364 364 364 363 361 360 359 359 360 364 367 366 365 366 367 368 369 369 369 370 370 369 369 368 367 366 364 363 361 356 346 340 340 341 340 338 338 341 343 344 343 343 341 340 339 339 339 337 336 335 334 333 332 330
355 356 355 352 355 359 358 357 361 362 362 361 362 364 365 362 361 364 366 367 367 366 367 369 370 371 370 370 370 368 367 366 364 362 361 359 357 352 343 334 333 336 337 337 338 340 342 344 343 342 341 340 340 339 338 337 335 334 333 332 332 330 328
352 353 354 353 353 354 355 357 361 362 360 357 358 363 366 366 365 366 367 366 367 367 368 370 371 371 370 369 367 365 364 363 359 357 356 354 349 344 341 340 339 337 336 336 338 342 344 344 342 340 339 339 338 337 336 335 335 334 333 332 331 330 328
352 352 352 352 353 351 352 355 357 358 357 355 355 360 362 363 366 369 369 369 370 370 370 370 370 368 366 364 363 362 361 359 355 354 354 353 350 348 348 348 345 342 341 340 341 342 342 340 338 337 337 336 334 334 335 335 335 335 333 333 331 329 327
350 351 350 351 353 353 352 355 359 361 360 360 361 363 361 357 358 363 366 365 365 366 365 363 362 361 358 358 359 359 358 357 356 355 353 352 351 350 349 348 346 345 344 342 341 340 338 337 335 335 335 334 333 334 336 335 335 334 334 332 330 327 325
348 348 349 350 352 352 351 353 358 361 361 359 360 362 360 354 352 355 358 358 358 360 359 358 358 357 355 356 358 358 357 357 356 354 351 349 348 347 346 346 344 343 341 339 338 337 336 336 335 334 334 334 334 334 335 333 330 330 330 330 328 325 323
344 345 347 348 350 350 349 349 352 356 358 356 354 354 355 353 351 352 353 353 353 354 354 354 356 358 357 356 357 357 357 355 354 352 351 349 345 342 341 340 339 338 338 337 337 337 336 336 336 336 335 334 333 333 333 331 328 327 328 328 327 326 325
339 341 343 347 349 349 348 348 349 350 353 353 350 348 349 350 350 352 353 351 347 347 350 353 355 356 356 355 355 355 354 352 350 349 347 344 340 338 337 335 334 336 338 338 338 337 337 336 337 338 337 336 335 334 333 331 330 330 330 329 329 329 327

ECMWFFLT1_850_thetae_024.txt.gz
Theta_e
341 341 341 341 342 342 344 345 346 347 348 349 349 350 351 352 352 352 352 352 352 352 352 352 352 352 352 352 352 351 349 346 343 341 339 338 339 344 347 347 346 344 345 345 344 343 340 338 339 338 337 339 339 336 332 329 330 332 333 334 334 336 335
341 342 341 341 342 342 343 343 344 346 347 348 349 349 351 351 352 353 353 353 353 352 352 352 352 352 351 351 352 352 350 347 344 342 340 339 338 341 345 346 345 344 344 345 344 344 341 339 338 338 338 339 339 336 332 329 330 332 332 333 333 333 333
342 342 342 342 343 342 343 343 343 345 346 347 348 349 350 351 352 352 352 353 353 353 352 352 352 352 351 351 351 351 351 348 345 343 340 339 338 338 342 345 344 344 344 345 345 344 342 340 339 338 338 340 341 339 333 330 331 333 332 331 332 331 331
342 343 343 343 344 343 343 344 344 344 345 346 347 347 348 350 351 352 352 352 353 353 353 352 352 352 352 351 351 351 350 348 345 343 341 339 338 338 340 343 344 344 344 344 345 344 342 340 339 339 339 341 343 341 336 333 332 333 332 331 330 329 328
344 344 344 343 344 344 344 344 344 345 345 345 346 347 348 350 351 353 352 352 353 353 352 352 352 353 353 352 351 350 349 347 344 343 342 340 339 338 339 341 342 343 343 343 344 344 342 341 340 339 339 342 344 343 339 335 334 333 331 329 326 325 325
344 344 344 344 344 345 345 345 344 345 345 345 346 347 348 350 351 352 353 352 353 353 353 353 353 353 353 353 353 351 350 348 345 343 342 341 340 339 339 340 341 342 342 342 344 344 342 340 340 339 340 342 344 344 340 337 337 335 332 328 324 322 321
343 344 345 344 345 345 345 345 345 345 345 346 346 347 349 351 351 352 352 352 353 353 354 354 354 353 353 353 353 352 351 349 347 345 344 342 341 340 338 339 341 342 341 341 343 344 342 340 339 339 341 342 343 344 340 337 338 338 335 330 325 321 319
342 344 345 345 345 345 345 346 345 346 346 346 347 348 349 350 351 352 353 353 353 353 354 354 355 354 353 353 353 352 350 349 349 348 345 343 342 341 339 339 340 341 341 341 341 342 342 339 338 339 341 343 344 344 341 339 339 340 339 335 330 324 320
342 343 344 345 345 345 346 345 346 347 346 346 347 348 349 350 351 352 352 353 353 354 354 354 355 355 354 353 352 352 350 349 349 350 348 345 342 341 340 339 340 340 341 341 341 342 341 340 338 338 340 342 343 344 343 340 339 341 342 341 337 330 324
343 342 343 345 345 346 346 345 347 347 347 348 347 348 350 350 351 352 352 354 353 354 354 355 355 355 354 354 353 352 351 350 350 350 349 346 342 339 339 339 340 340 341 341 341 341 341 340 339 338 339 341 343 344 344 342 341 342 343 343 342 339 334
343 343 343 345 345 346 346 345 346 347 348 349 348 349 350 350 352 352 352 354 354 354 355 355 356 355 355 354 354 354 353 351 350 350 349 346 341 337 337 339 340 340 341 341 341 341 341 340 339 338 338 340 342 344 344 344 343 343 344 344 344 344 342
343 344 343 344 344 345 346 345 346 346 347 349 349 349 350 350 352 352 352 353 354 355 355 355 355 356 355 355 355 355 354 353 351 349 347 345 339 336 336 339 339 340 341 340 341 341 341 341 340 338 337 338 341 343 344 345 345 344 345 345 345 345 344
344 344 343 345 345 345 346 347 346 347 347 348 348 349 350 351 352 352 353 354 354 355 355 355 356 356 356 356 356 356 355 354 351 347 344 342 337 334 335 337 339 339 339 340 341 341 341 341 341 339 337 337 338 340 343 345 346 346 346 346 346 346 345
344 344 344 345 345 345 346 346 347 347 347 348 349 349 349 350 351 352 353 353 354 355 356 355 355 356 357 357 357 357 356 354 351 346 342 339 337 335 335 336 338 339 339 340 340 341 341 341 341 340 340 339 338 339 342 345 346 346 347 347 346 346 346
342 343 344 345 345 346 347 346 347 347 347 348 348 349 350 350 351 352 353 353 354 354 355 356 356 357 357 357 357 357 356 355 353 348 343 340 339 338 336 336 337 339 341 341 340 340 340 341 342 343 342 341 340 341 342 344 344 345 345 345 345 346 346
341 343 344 344 345 345 345 346 346 346 347 347 347 348 349 350 351 352 352 353 354 354 355 356 356 357 357 357 357 356 356 355 354 350 347 343 340 338 337 336 337 339 341 341 340 340 341 343 344 344 344 343 342 342 342 343 342 342 342 342 344 345 346
341 342 342 343 345 345 345 346 346 346 346 346 347 348 349 349 350 351 352 353 354 355 356 356 357 357 357 356 356 356 357 356 355 353 349 345 341 339 338 338 338 340 342 342 342 343 344 346 346 345 345 344 342 341 341 341 340 340 341 343 346 347 348
342 342 342 343 343 343 345 345 345 346 345 345 347 347 348 349 350 351 353 354 354 355 356 356 356 356 356 356 356 356 357 356 355 354 351 347 344 341 340 341 342 343 343 344 344 345 346 348 348 347 346 345 344 342 341 340 341 342 344 346 348 349 349
343 342 343 344 343 344 345 345 345 345 343 344 345 345 346 347 349 351 352 353 354 355 356 356 356 356 356 356 356 356 356 355 356 354 351 349 345 343 344 346 346 345 346 346 346 347 349 349 349 348 348 347 345 344 343 344 345 346 348 349 350 351 352
343 344 344 344 345 345 344 345 345 344 343 342 342 341 344 346 348 350 351 353 355 355 356 356 356 356 356 356 356 356 355 355 355 354 352 349 348 349 350 349 347 347 349 350 350 350 350 349 348 348 347 345 345 346 346 348 349 350 351 352 353 354 354
340 343 343 344 346 345 345 346 344 343 343 341 340 339 342 345 347 349 352 355 356 356 356 356 356 357 357 356 356 356 355 355 355 354 353 351 351 352 352 350 350 352 353 353 353 352 350 349 348 348 346 346 347 349 351 352 353 353 353 354 355 355 354
337 338 339 342 343 342 343 345 344 343 341 339 340 341 343 345 347 349 353 355 355 356 356 357 357 357 356 356 356 356 355 355 355 354 354 353 353 354 353 352 352 354 355 355 354 353 351 350 349 349 348 349 350 352 355 355 355 355 356 356 355 354 353
339 339 340 341 342 342 341 342 343 342 340 339 340 342 343 346 347 350 353 355 356 356 356 356 357 356 356 357 356 356 355 355 355 355 354 354 354 354 353 353 352 353 355 354 354 354 352 351 351 351 352 352 354 355 356 356 356 357 356 355 354 353 352
338 342 345 344 346 346 344 344 344 341 340 340 342 343 344 345 348 350 352 353 354 355 356 356 356 356 356 356 356 356 356 355 355 355 355 354 354 353 353 353 352 352 352 352 352 352 352 353 354 354 355 355 355 356 356 357 357 356 355 355 353 351 349
333 335 337 337 339 342 342 343 343 342 343 343 343 344 345 346 349 350 351 351 351 353 354 355 355 355 356 356 356 357 356 355 356 355 354 354 353 354 354 353 352 351 351 351 352 353 354 356 356 356 356 356 356 356 357 357 357 356 355 353 349 346 346
338 337 336 333 333 335 336 336 336 338 343 346 346 347 347 348 349 350 349 349 351 353 354 354 355 355 355 356 356 356 356 356 355 354 354 355 354 354 354 353 353 353 353 354 355 355 357 357 358 358 357 357 357 357 356 356 355 354 352 349 345 345 346
345 345 346 345 342 338 336 336 335 335 337 340 344 346 347 349 349 348 348 348 352 354 353 353 354 354 355 357 356 356 356 355 355 354 355 355 356 355 355 354 354 355 355 356 357 358 359 359 358 358 357 357 357 357 356 355 352 350 349 346 345 345 346
346 345 347 348 347 343 340 338 338 338 339 340 342 345 347 349 348 345 344 345 349 351 350 352 355 355 356 357 356 355 355 354 354 355 355 356 357 356 355 356 356 357 358 359 359 359 360 359 359 358 358 358 357 357 355 352 350 349 348 347 346 345 346
350 349 348 347 347 346 344 343 342 344 345 347 349 352 353 354 354 352 350 350 347 346 348 353 356 357 357 356 355 355 355 353 353 355 355 356 358 357 356 357 359 360 360 360 361 361 360 360 360 359 359 358 357 355 353 349 348 349 347 346 346 346 345
352 352 351 350 350 350 350 349 348 349 350 351 352 355 356 357 357 358 359 360 358 357 358 358 358 357 356 355 354 354 354 352 353 354 355 357 358 359 358 358 360 362 362 361 362 361 360 360 360 359 358 357 354 352 349 348 347 347 345 344 345 344 343
351 352 352 351 351 354 353 352 350 352 355 356 356 357 358 359 359 360 360 361 361 361 362 361 360 358 356 355 354 353 353 352 353 354 356 358 360 361 360 360 363 363 363 363 363 361 361 361 360 358 356 353 350 348 347 346 345 343 343 343 342 341 340
350 351 351 350 350 352 353 353 353 354 357 360 360 360 362 362 362 362 362 361 361 361 362 363 363 361 358 356 353 351 351 352 355 358 361 362 363 363 362 363 364 363 363 363 360 359 360 360 357 355 353 349 347 345 343 342 341 341 341 341 340 339 339
348 349 349 350 350 350 350 352 353 353 355 358 360 363 364 365 366 365 363 363 363 362 363 364 364 363 362 359 357 357 358 360 361 363 364 364 364 364 363 363 364 363 364 363 359 356 357 356 353 351 349 346 344 342 340 339 339 339 339 339 338 337 337
347 347 348 348 348 349 349 351 352 352 353 355 357 360 362 364 365 365 363 362 363 363 363 361 362 365 366 364 363 363 364 364 364 364 364 363 363 364 364 363 363 363 361 361 359 355 350 348 347 346 344 342 340 339 339 339 338 338 337 337 335 334 334
347 348 348 348 348 349 350 351 353 355 354 355 356 356 358 360 360 360 359 358 358 359 360 359 359 363 364 363 364 365 364 364 363 362 363 364 364 365 364 362 361 361 357 355 354 349 342 340 342 341 341 339 338 337 338 337 336 335 335 334 333 332 331
347 347 347 347 348 349 350 351 354 356 356 356 356 356 356 356 356 355 355 353 354 355 358 360 360 361 363 363 362 362 361 361 361 363 364 364 363 363 361 359 358 357 353 350 349 345 341 339 339 338 337 337 336 335 335 334 334 334 333 332 332 331 329
345 346 346 346 347 347 348 349 352 354 356 357 356 357 357 356 356 356 354 356 359 361 363 364 361 358 357 355 354 356 359 361 361 362 361 359 359 359 357 355 353 352 350 347 345 342 339 337 335 335 335 334 333 334 334 334 334 334 332 332 331 330 328
343 344 345 345 346 346 346 346 348 351 353 353 353 354 354 353 354 356 356 358 361 360 358 357 353 349 346 344 343 347 354 357 356 354 354 354 355 355 354 351 349 348 347 345 341 338 335 334 334 333 334 333 333 334 334 335 335 334 332 331 330 328 325

ECMWFFLT1_850_thetae_027.txt.gz
Theta_e
339 341 342 343 345 345 346 345 346 347 346 347 347 347 348 348 348 349 349 350 350 350 350 350 350 350 349 350 350 350 350 350 349 348 347 347 347 345 341 337 337 338 340 342 342 342 341 342 343 344 343 340 337 337 337 335 331 328 328 328 328 330 330
338 339 340 341 343 344 345 345 346 346 346 347 347 347 348 348 348 349 349 350 350 350 350 350 350 350 349 349 350 351 351 350 350 348 347 346 346 346 344 340 337 338 341 342 342 343 342 342 343 344 343 339 336 336 337 337 334 330 328 328 328 330 330
337 338 339 339 342 342 344 345 345 346 346 346 347 347 348 348 348 348 348 349 350 350 350 350 350 350 349 349 350 350 351 351 350 349 348 346 344 344 345 343 339 338 341 343 343 343 343 343 343 344 343 340 338 337 337 338 336 331 329 328 328 328 329
336 338 338 338 340 341 342 344 344 345 346 345 346 346 346 347 347 348 348 348 349 350 350 350 350 350 350 349 350 350 350 350 349 348 348 347 345 343 344 344 341 339 341 343 344 344 344 344 344 344 343 342 340 338 337 339 337 332 330 329 328 327 327
336 337 338 338 339 340 340 342 343 344 344 345 345 345 345 346 347 348 348 348 349 349 349 350 349 350 350 350 350 350 349 349 349 348 348 347 346 342 342 342 341 339 340 342 344 344 344 344 344 344 344 342 341 339 338 339 338 334 331 329 328 326 326
338 337 338 338 339 339 340 341 342 342 343 343 345 345 345 346 347 349 349 349 350 350 350 350 350 350 350 350 350 350 350 349 349 348 348 347 346 342 339 340 341 340 339 341 343 344 344 345 344 344 343 342 341 339 338 340 341 338 333 331 329 327 325
339 339 338 338 339 339 339 340 340 341 342 342 343 344 345 347 348 348 349 349 350 350 351 351 351 350 350 350 351 351 350 349 349 349 348 348 347 343 337 337 340 340 339 340 341 343 344 344 344 344 343 342 340 338 338 339 342 340 337 333 331 329 326
341 341 339 339 339 339 339 340 340 341 341 342 344 345 346 347 347 348 349 350 350 351 351 351 351 351 351 351 350 351 351 350 350 350 349 349 348 344 337 335 338 339 339 340 340 341 342 343 343 343 343 343 341 339 338 338 341 342 339 335 333 331 328
341 341 341 340 340 340 340 340 340 340 341 342 343 345 346 346 347 348 349 349 350 351 351 351 351 351 351 351 351 351 351 351 350 350 350 349 348 345 338 334 336 338 339 339 339 339 341 342 343 342 343 343 342 340 338 338 341 343 341 338 336 334 330
341 341 341 342 340 340 341 340 340 340 341 342 342 344 345 346 347 348 348 350 350 350 350 351 352 352 351 351 351 351 351 351 351 351 350 349 348 345 340 334 334 337 338 339 338 339 340 341 342 342 342 343 342 340 339 339 341 343 343 341 338 337 335
340 341 341 342 341 342 342 341 342 341 341 342 342 343 344 345 346 348 348 350 349 349 350 351 352 352 352 352 352 351 351 351 351 351 351 350 348 346 341 337 334 335 337 339 339 339 339 340 342 342 342 342 342 341 340 339 341 342 344 343 341 339 339
339 340 341 342 342 342 342 342 342 342 342 342 342 343 344 344 346 347 348 349 349 350 350 351 352 352 352 353 352 352 352 351 352 352 351 350 349 347 344 340 336 334 335 337 338 339 339 339 341 341 341 341 342 342 341 341 341 342 343 344 343 341 340
338 339 340 342 343 342 343 343 342 343 343 343 343 343 344 344 345 346 348 348 349 350 350 351 352 352 352 353 352 352 352 351 352 352 352 351 349 348 346 343 339 335 334 335 337 338 339 339 339 340 341 341 341 343 343 342 341 341 342 343 344 343 342
337 338 339 341 341 342 343 343 343 343 343 343 344 344 344 344 345 346 347 348 349 350 351 352 352 352 352 352 353 353 352 352 352 352 352 351 350 350 349 347 343 338 335 334 335 337 338 338 339 340 341 341 341 342 344 344 342 341 342 343 344 345 344
336 336 338 340 340 341 343 343 344 344 343 344 344 344 345 345 345 346 347 348 349 350 351 352 352 351 352 352 353 352 352 352 353 353 352 352 352 351 350 349 346 343 339 334 333 334 336 338 339 340 341 341 342 343 343 343 342 341 341 343 344 346 346
335 336 338 339 340 341 341 342 344 344 344 345 344 345 345 345 345 346 347 348 350 350 350 351 352 351 351 352 352 351 352 353 353 353 353 353 352 351 351 350 349 348 343 336 332 332 334 337 339 341 342 342 343 343 343 342 341 341 341 342 344 346 346
335 336 337 338 340 341 341 342 343 344 344 345 344 345 346 346 346 347 347 348 349 350 350 351 352 352 351 351 351 352 353 353 353 354 354 353 353 352 352 352 351 350 347 340 335 333 333 335 338 340 342 343 343 343 342 341 341 341 341 342 344 345 346
336 336 336 338 339 340 342 342 342 344 344 344 345 345 345 346 347 347 348 348 348 349 350 351 352 352 351 351 351 352 353 353 354 354 354 354 354 353 353 353 352 351 349 345 339 335 333 334 336 339 341 343 344 344 342 341 340 341 342 343 344 345 346
335 336 337 338 339 340 342 342 342 343 344 344 345 345 345 345 346 347 348 348 348 350 351 351 352 352 352 352 352 353 354 354 354 354 353 354 354 354 354 354 354 353 350 346 342 337 334 334 334 337 340 342 343 343 341 340 341 342 343 343 344 345 346
337 337 337 337 339 340 341 342 343 343 343 344 344 344 345 345 345 346 346 347 348 350 351 351 352 352 352 353 353 353 354 354 354 354 354 354 355 355 355 355 355 353 351 348 345 341 336 333 334 335 337 339 340 340 340 341 342 343 343 343 344 345 346
341 341 339 337 339 340 340 342 343 343 344 344 344 345 345 346 346 346 346 348 349 349 350 351 351 352 353 353 354 354 354 354 354 354 355 355 356 356 356 355 355 354 352 350 346 341 336 335 334 334 334 335 337 339 340 341 342 344 343 344 345 346 347
342 342 340 340 339 339 340 341 341 343 344 344 345 345 346 346 346 346 347 348 349 349 350 351 351 352 353 354 355 355 354 354 354 354 356 356 357 357 356 356 355 354 353 351 347 344 341 339 337 335 335 335 336 338 340 341 343 344 344 345 347 347 349
340 341 342 342 341 341 341 340 340 341 342 344 345 345 345 346 345 347 347 347 348 349 349 351 351 352 353 354 354 355 355 355 354 355 357 357 357 357 357 356 356 355 354 352 350 348 345 341 339 338 337 336 337 339 341 342 343 344 345 346 348 349 352
337 339 341 340 341 342 341 342 343 342 342 343 344 344 345 345 345 346 347 347 347 349 350 351 351 351 351 353 353 353 354 355 356 356 357 357 357 357 357 356 355 355 354 353 351 349 346 343 342 339 337 337 338 339 341 343 344 345 346 348 349 352 354
338 337 338 339 341 342 342 344 344 343 344 344 343 344 345 344 345 347 347 347 346 348 349 350 350 351 351 351 352 352 354 355 356 357 357 357 357 356 356 356 355 355 355 353 353 352 350 348 345 341 338 338 339 340 343 345 346 347 349 350 352 354 356
343 341 340 339 340 342 343 346 346 345 345 344 343 345 344 345 347 347 347 347 347 347 348 347 347 348 349 350 351 353 354 355 356 356 356 356 356 356 356 356 355 356 355 355 355 354 352 350 347 345 342 341 341 343 346 347 348 350 352 353 355 356 356
347 347 345 342 341 339 339 342 344 347 347 346 345 345 344 345 346 347 347 348 348 346 343 342 343 345 346 350 352 353 355 356 355 356 355 355 355 356 356 356 356 356 355 355 355 354 353 352 351 349 347 345 346 348 349 350 352 353 354 356 357 357 356
348 348 349 347 346 342 338 337 339 341 344 346 347 347 347 347 346 346 348 349 348 345 340 341 343 343 345 350 352 353 355 355 356 356 356 356 356 356 356 356 356 356 355 356 355 355 354 354 353 353 351 350 351 352 352 354 355 355 357 357 357 357 355
347 348 347 347 347 347 345 343 340 339 340 341 343 345 347 349 350 350 349 349 348 347 347 348 348 348 350 352 353 354 355 355 356 356 356 356 356 356 357 357 356 357 357 356 356 356 357 356 355 354 354 354 354 355 356 357 357 357 357 357 356 355 351
348 348 348 347 347 347 348 348 346 344 343 343 344 345 346 348 351 353 353 352 350 349 350 351 351 352 353 354 354 355 355 355 356 356 356 357 357 357 358 358 357 358 358 357 358 358 357 357 357 356 357 357 357 357 357 358 357 357 357 356 354 351 348
348 348 348 348 347 347 348 348 347 345 345 343 343 345 349 352 353 354 353 354 354 354 353 353 353 354 354 355 355 355 355 355 355 355 356 357 357 357 358 358 358 359 358 358 358 358 357 358 357 357 358 358 357 358 358 358 357 357 356 354 352 349 346
347 348 348 348 348 348 348 347 348 348 348 347 344 342 344 350 355 357 357 356 356 357 357 356 356 355 354 355 355 354 355 355 354 354 355 356 357 357 357 358 359 359 358 358 357 358 358 358 357 357 357 356 355 356 357 358 357 356 355 353 349 346 344
346 346 346 346 347 347 346 347 347 348 349 350 350 349 347 347 352 358 361 361 360 359 358 359 359 358 358 357 357 356 356 355 354 355 354 354 355 357 357 358 359 358 358 358 357 357 358 357 357 357 355 353 355 356 357 357 357 356 355 351 346 343 343
345 345 344 344 345 344 345 346 345 346 347 347 348 350 351 352 353 357 360 363 363 362 362 361 360 360 360 359 359 358 357 356 355 354 354 354 355 356 357 358 359 359 359 357 357 358 358 357 358 356 351 349 354 357 356 356 357 356 352 345 340 340 342
345 344 344 344 344 345 345 346 347 348 349 349 348 348 349 351 353 356 358 362 363 363 363 362 362 362 362 360 361 360 359 357 356 355 354 353 354 355 357 358 358 358 359 358 356 356 356 356 357 354 350 349 352 354 356 358 357 351 343 337 337 339 341
344 344 344 344 344 345 346 348 349 350 352 352 352 352 351 351 352 353 355 356 357 358 358 359 359 361 362 362 362 361 360 360 358 356 355 354 354 354 357 358 359 359 359 358 358 358 358 357 354 353 353 354 355 356 356 353 347 340 336 337 340 340 340
345 344 344 343 344 345 346 347 348 350 352 353 352 352 353 353 353 354 354 355 355 355 356 356 358 359 361 362 362 362 362 361 360 358 356 354 354 355 356 358 359 359 359 358 357 358 358 357 355 354 355 356 354 350 345 340 337 336 336 338 340 339 338
344 343 343 343 344 344 346 347 348 349 350 350 350 351 352 352 352 353 353 353 354 354 355 356 357 358 359 360 361 362 362 361 360 359 358 356 355 356 357 358 358 357 357 358 358 358 357 356 355 354 353 350 344 338 334 335 337 337 337 338 337 335 334

ECMWFFLT1_850_thetae_030.txt.gz
Theta_e
343 344 345 345 346 346 346 346 346 346 346 346 347 347 347 348 348 348 348 348 348 347 348 347 348 348 348 348 348 348 348 348 347 346 345 344 342 342 341 340 339 339 337 337 336 336 335 335 339 344 346 346 346 346 347 345 341 338 336 332 327 325 326
340 343 344 344 345 345 345 346 345 346 346 346 346 346 347 347 348 348 347 346 346 346 347 347 347 347 348 348 348 348 349 348 348 348 347 346 345 344 343 341 340 339 337 337 336 336 336 335 339 345 345 344 344 345 345 342 338 336 335 331 327 325 326
339 341 342 343 344 344 345 345 345 346 345 345 346 345 346 346 346 347 346 346 346 345 347 347 347 347 347 348 348 348 349 349 349 349 348 348 347 345 345 344 342 341 339 338 337 336 336 335 338 344 345 344 344 345 345 341 336 335 334 332 329 326 326
336 339 340 341 343 343 344 345 345 345 345 345 345 345 344 344 344 345 346 346 345 345 346 346 346 347 347 348 348 348 348 349 349 349 348 348 348 347 347 346 344 343 341 340 339 337 336 336 339 343 345 345 344 345 345 342 336 334 335 334 331 328 326
334 336 338 339 341 342 343 344 344 345 345 344 345 344 344 344 344 346 346 346 346 344 343 343 344 346 346 347 348 348 348 348 348 349 349 348 349 348 349 348 345 344 342 341 340 338 336 336 339 343 345 345 345 345 345 343 339 336 336 336 333 330 328
334 334 335 337 339 340 341 343 343 343 344 344 344 345 344 345 345 346 346 346 346 345 345 345 345 345 346 347 347 348 348 348 349 349 349 349 349 349 349 348 346 344 342 342 341 339 337 336 339 342 344 345 345 345 345 344 342 338 337 337 336 332 328
334 334 334 335 337 338 340 341 342 343 343 343 344 344 344 345 346 346 346 346 346 346 346 346 346 345 346 346 347 348 348 349 349 349 349 349 349 349 349 349 348 345 344 343 342 340 338 336 337 340 343 345 345 345 345 345 343 340 338 337 337 334 329
336 335 335 335 335 336 338 339 340 341 342 343 344 344 345 345 346 346 346 346 346 346 346 345 345 345 345 346 346 347 347 348 349 349 349 349 349 349 349 349 348 346 345 344 343 340 339 337 336 338 342 344 345 345 345 345 344 342 339 337 338 336 332
337 337 336 336 335 335 336 337 339 340 341 343 343 344 345 344 345 346 346 346 346 346 346 344 345 345 346 346 346 347 347 348 349 349 349 349 349 349 349 349 348 347 346 345 343 341 339 338 336 336 339 342 344 345 344 345 345 343 340 337 337 339 336
338 337 337 337 336 335 336 336 337 338 339 341 342 343 344 344 345 345 345 346 346 346 345 345 346 346 347 347 346 347 348 348 349 349 349 349 349 349 349 349 349 347 347 347 345 342 339 338 337 336 337 339 342 344 344 344 344 344 341 337 336 339 339
337 337 337 338 337 337 337 336 337 338 338 340 340 342 343 343 344 345 345 346 346 345 345 345 346 347 347 347 347 347 348 349 349 349 350 350 350 350 350 350 349 348 348 348 347 343 339 338 338 337 336 337 339 342 343 343 344 343 341 338 336 337 340
336 337 337 338 338 338 338 337 337 337 337 338 339 340 342 342 343 344 344 345 345 345 345 345 346 347 348 348 348 348 348 348 349 349 349 350 350 350 350 350 350 349 349 348 347 345 341 338 338 337 336 337 337 339 341 342 343 343 342 340 338 337 339
335 337 337 338 339 339 339 338 338 337 338 338 338 339 340 341 342 343 343 344 344 345 345 346 346 347 348 348 348 348 348 348 348 349 349 349 350 350 350 350 350 349 349 349 348 346 342 337 337 337 336 336 336 337 339 340 341 341 341 341 340 339 339
334 335 336 338 338 339 340 339 339 339 338 338 338 338 339 340 341 341 342 343 344 345 346 346 346 347 348 348 348 349 348 348 348 349 349 349 349 350 350 350 350 350 349 349 347 346 342 338 336 336 336 336 336 337 337 339 340 340 341 341 341 341 340
331 332 334 336 337 338 340 340 340 340 339 339 339 338 339 340 340 341 342 343 343 344 345 345 346 346 347 348 348 348 347 348 349 349 349 349 350 350 351 350 350 350 350 348 346 345 342 338 335 335 335 335 336 336 337 338 339 339 339 340 341 341 341
328 330 332 333 335 337 338 339 340 340 340 340 339 339 340 339 340 341 341 342 343 344 344 345 346 347 347 348 347 346 347 348 349 350 349 350 350 350 351 351 350 351 350 349 346 344 342 340 337 335 335 335 335 335 336 336 337 337 338 339 340 341 341
329 331 331 332 333 335 336 339 339 340 341 341 340 341 340 340 340 341 340 341 342 343 344 345 346 347 347 347 347 347 348 349 349 350 350 350 350 351 351 351 351 351 351 350 346 343 341 341 338 335 334 334 334 335 335 335 335 335 337 338 339 340 341
331 330 330 331 331 333 335 336 338 340 341 341 342 341 341 341 341 341 341 341 342 342 344 345 346 347 347 347 347 348 348 349 350 351 351 350 350 351 351 351 351 351 352 350 347 343 341 340 338 337 336 334 333 333 334 334 334 334 336 337 338 340 340
330 329 330 330 331 331 333 334 336 338 338 340 342 342 342 342 341 342 342 342 342 343 344 345 345 346 346 347 348 349 349 350 350 351 351 351 352 351 351 351 351 351 351 351 349 345 342 340 338 338 338 335 333 332 332 332 332 333 334 336 337 339 340
330 331 331 330 331 332 333 334 335 336 338 339 341 341 342 342 342 343 342 343 343 343 344 345 345 346 346 347 348 349 349 349 350 351 351 352 352 352 352 351 351 351 351 351 351 349 347 343 340 339 338 335 333 332 331 330 330 331 333 335 336 338 340
330 333 331 330 331 331 334 336 335 336 337 337 339 340 342 342 342 343 343 343 343 344 344 345 345 345 346 347 348 349 349 350 350 351 352 352 352 353 352 351 351 352 352 351 351 351 350 347 344 341 338 336 335 333 331 329 329 330 331 333 335 338 340
332 333 332 333 332 332 336 338 337 337 337 337 339 340 340 342 342 343 343 344 344 344 345 346 346 347 347 348 349 349 349 350 350 351 352 353 353 353 353 352 352 352 352 352 352 352 351 351 348 345 343 341 339 335 331 328 329 330 331 332 335 337 341
337 337 337 337 336 337 340 340 338 338 338 338 340 340 341 342 343 343 344 344 344 345 345 346 347 347 347 348 348 349 350 351 351 352 353 353 354 354 353 353 352 352 353 353 352 352 352 352 352 350 348 346 342 336 331 328 329 329 330 331 334 338 342
340 340 340 338 338 339 341 341 340 339 339 339 340 340 341 342 342 343 344 345 345 346 346 347 347 346 347 348 348 349 351 351 352 352 352 353 353 352 352 352 352 352 353 353 353 353 353 353 353 352 352 350 343 336 333 331 330 329 330 332 335 339 343
344 344 344 342 340 341 341 342 341 341 341 341 341 341 342 342 343 343 344 345 346 346 346 346 346 346 346 347 347 349 350 351 351 351 351 351 351 351 352 352 352 353 353 353 353 353 353 353 354 354 354 352 347 341 338 337 335 333 334 335 338 341 345
348 348 347 345 342 340 341 341 342 344 344 343 343 343 342 342 343 344 344 345 345 346 346 346 345 345 346 347 348 349 350 350 351 350 351 351 350 351 352 352 353 354 354 354 354 354 354 355 355 355 354 354 351 348 345 343 340 338 338 338 340 343 346
348 349 350 349 347 345 343 340 340 342 344 346 346 345 343 343 343 344 345 345 345 346 346 345 345 346 346 347 348 349 350 350 350 349 349 349 349 351 352 352 353 354 354 355 355 355 356 355 355 356 355 354 354 352 349 347 344 341 340 341 342 345 348
347 348 349 350 350 350 348 345 342 342 343 345 347 346 346 345 344 344 346 346 346 346 345 346 347 347 348 349 349 350 350 350 350 349 349 350 351 352 352 352 353 354 354 355 356 356 357 356 356 356 356 356 355 354 352 350 348 345 342 342 345 348 351
347 346 346 347 348 349 349 348 347 347 346 346 347 347 347 347 346 345 345 345 345 346 346 347 348 347 349 349 349 350 351 350 351 350 351 352 353 353 353 353 353 354 355 356 357 357 357 357 357 357 356 356 356 355 354 352 350 348 345 345 348 350 352
347 346 346 346 346 346 347 347 348 351 353 352 352 351 350 350 350 349 348 347 347 347 347 348 348 349 349 349 349 350 349 350 351 352 351 353 353 353 354 354 354 354 354 355 356 357 358 358 358 357 357 357 356 355 355 354 353 351 348 348 351 353 354
345 345 345 346 346 346 345 345 347 349 352 354 356 357 356 355 355 354 353 352 351 350 350 349 349 349 349 350 350 351 351 351 352 352 352 353 353 354 354 354 355 356 356 356 356 356 357 357 357 357 357 356 356 355 355 355 354 352 351 351 353 354 355
340 340 340 341 342 343 344 345 345 346 347 349 351 354 356 358 358 358 358 357 357 356 355 353 352 352 351 351 351 351 351 352 352 352 353 353 353 354 354 354 355 356 357 357 357 357 357 357 357 357 357 356 356 355 355 354 354 352 352 353 355 355 356
337 336 335 335 337 338 339 340 342 343 344 345 346 347 349 352 355 357 358 359 360 360 359 358 357 356 355 355 354 353 353 353 352 353 353 353 354 354 355 355 356 355 356 357 357 358 358 358 357 357 357 357 356 355 354 354 353 353 353 355 356 356 356
339 338 338 337 336 336 336 336 337 339 340 341 343 343 344 345 347 349 351 354 357 359 361 361 360 359 359 359 358 358 357 356 355 354 354 354 354 354 354 356 356 356 357 357 357 357 358 358 358 357 357 357 357 356 355 355 354 354 355 356 357 356 355
342 341 341 341 340 339 338 338 338 338 338 340 341 341 342 342 342 342 343 346 349 353 357 359 360 361 361 361 360 360 359 358 358 356 355 355 355 354 355 355 355 356 356 356 356 357 357 357 358 357 356 355 356 356 356 355 354 355 356 357 357 356 356
343 342 342 342 341 341 340 340 339 340 341 342 341 342 342 342 341 342 342 343 345 348 351 353 354 356 357 358 360 360 360 360 358 356 355 355 354 354 355 354 355 355 356 356 356 356 356 356 356 357 357 356 356 356 355 353 353 355 356 357 356 356 356
344 344 344 343 343 343 344 343 343 343 343 343 342 343 344 344 344 344 344 344 345 346 347 348 349 349 351 353 354 357 359 360 360 358 355 353 352 353 354 354 355 355 355 356 357 356 357 357 356 356 357 356 355 354 353 352 353 355 356 356 355 355 354
344 344 344 344 345 345 346 346 346 346 346 345 344 344 344 345 346 346 345 344 344 344 344 346 346 346 346 347 349 352 355 358 360 360 357 354 353 352 353 354 355 355 355 356 357 357 357 357 357 357 357 356 354 352 351 352 354 355 355 354 353 351 349

ECMWFFLT1_850_thetae_033.txt.gz
Theta_e
349 350 350 350 351 350 349 347 347 346 346 346 345 344 344 343 343 342 341 342 343 343 344 345 347 347 347 347 346 346 346 345 345 343 342 341 339 337 336 336 336 336 336 336 336 335 335 335 335 335 335 335 335 338 342 345 347 346 345 345 343 340 334
348 349 349 350 350 350 349 347 346 344 344 344 344 344 345 344 341 340 339 340 342 342 343 345 346 347 347 347 347 347 347 347 347 347 346 344 342 340 339 337 336 336 336 336 336 336 335 335 336 336 335 335 335 338 343 345 346 346 345 343 342 338 333
347 347 348 349 349 349 349 349 347 345 344 343 343 343 343 342 340 340 339 339 340 341 343 344 345 347 347 347 347 347 347 347 347 348 347 346 345 343 343 341 340 338 338 338 338 338 337 336 336 336 336 336 335 338 343 344 344 345 343 341 339 336 331
344 346 347 347 348 347 348 348 348 347 345 344 343 341 340 340 339 340 340 340 339 340 341 342 343 345 346 346 346 346 346 347 347 347 348 347 347 346 346 345 343 342 340 339 339 340 339 337 336 336 336 336 335 338 343 344 343 344 343 340 337 334 331
341 342 345 346 347 347 347 347 347 347 347 345 343 342 341 340 340 340 341 341 341 340 340 341 342 344 345 346 346 346 345 345 346 346 347 348 347 347 348 347 346 345 343 341 340 340 339 339 338 336 335 336 336 338 341 343 343 343 344 340 336 333 332
338 339 341 343 345 345 345 345 346 346 346 346 345 343 342 341 342 341 341 341 342 342 342 343 344 344 344 345 345 345 345 345 345 345 346 347 348 348 348 348 347 347 346 344 343 341 340 340 339 337 336 335 336 338 341 342 342 343 344 341 336 334 333
336 336 336 338 340 342 343 344 345 345 345 346 345 344 344 344 343 342 342 342 341 342 343 343 344 344 344 345 345 345 345 345 346 345 346 346 347 348 348 348 348 347 347 347 346 345 343 341 340 339 337 336 336 338 341 342 342 342 344 342 339 335 333
334 335 333 335 336 338 341 343 344 345 346 345 346 345 345 345 345 343 343 343 342 342 343 342 343 343 343 344 345 345 345 345 346 345 345 346 347 348 348 348 348 347 347 347 347 347 345 342 341 340 339 337 336 337 340 341 342 342 343 343 341 338 334
334 335 334 334 335 337 340 342 343 345 345 345 345 345 345 345 345 344 344 343 342 343 342 341 342 342 342 343 343 344 344 345 345 344 345 345 346 347 348 347 348 348 347 347 347 348 346 344 342 340 339 339 336 336 338 340 341 342 343 343 343 340 335
334 335 335 335 335 335 337 338 340 342 343 344 344 344 345 345 345 345 344 344 343 342 342 341 343 343 342 342 343 343 344 344 344 344 345 346 346 347 347 347 347 347 347 347 347 347 347 344 342 341 340 339 337 336 336 339 340 341 342 343 344 342 338
333 334 335 336 335 335 334 335 337 338 340 342 342 344 344 344 345 345 344 344 343 342 342 342 343 343 342 343 344 344 344 344 344 344 345 346 346 347 347 347 347 347 347 348 348 348 347 345 343 341 340 339 338 336 335 337 339 340 341 342 343 343 341
332 333 334 335 336 336 336 335 335 336 337 339 340 342 343 344 344 344 344 344 343 343 343 343 344 343 343 343 344 344 344 343 344 344 344 346 346 345 346 346 347 347 347 348 348 348 348 346 343 341 339 338 337 336 336 336 337 339 340 341 342 342 342
330 332 332 334 335 335 336 336 335 336 336 337 338 339 341 342 343 343 343 343 343 343 344 344 344 343 343 343 344 344 343 343 343 344 344 344 345 345 345 346 347 347 347 348 348 348 348 347 344 340 338 337 336 336 336 336 336 337 338 340 340 341 342
330 331 330 332 333 334 336 336 336 336 336 336 337 337 338 340 341 342 342 341 342 343 344 343 344 343 343 344 344 344 343 343 343 343 344 344 344 345 345 346 346 347 347 347 348 348 349 348 345 341 338 337 336 336 336 336 336 336 337 338 339 340 341
329 329 329 329 330 332 334 335 336 337 336 336 336 336 338 338 339 340 341 341 342 343 343 343 343 343 343 343 343 343 342 343 344 343 344 345 345 345 346 346 346 347 347 348 348 348 349 349 347 344 340 338 336 336 336 336 336 336 336 337 338 339 340
327 327 327 328 329 329 330 332 334 336 337 337 337 337 337 338 338 339 340 340 341 341 342 343 342 342 343 343 342 342 342 343 344 344 344 345 346 346 346 346 346 347 347 347 348 348 349 349 349 347 343 340 337 336 335 336 336 335 335 336 337 337 338
327 327 327 327 328 329 330 331 332 335 337 337 337 337 337 337 338 338 339 339 340 340 341 342 342 342 343 343 342 342 343 344 344 345 345 345 346 346 347 347 347 347 347 347 348 348 349 349 350 349 346 343 339 336 335 335 335 335 335 335 336 337 338
326 327 327 326 327 328 329 330 331 332 334 336 337 338 338 338 338 338 338 339 339 339 340 341 341 342 342 342 343 344 344 344 345 345 345 346 347 347 347 347 347 347 348 347 348 348 349 349 350 350 349 345 341 337 335 333 334 335 335 335 335 335 337
327 327 326 327 326 327 329 329 330 331 331 333 336 337 338 338 338 338 338 339 339 340 340 340 340 341 342 342 343 344 344 345 345 346 346 346 347 348 347 348 348 348 348 348 348 349 349 350 350 350 350 347 343 338 335 332 332 333 334 334 335 335 336
326 326 326 326 326 327 329 329 330 331 331 332 334 336 338 338 339 339 339 339 339 340 340 340 340 341 341 342 343 344 345 345 345 346 346 347 347 348 348 348 348 348 348 348 348 349 349 350 350 350 350 349 345 340 336 333 331 331 333 333 334 335 336
326 326 326 326 326 327 327 328 328 328 330 333 334 335 337 338 339 339 339 339 339 340 340 340 341 341 341 342 343 345 345 346 346 347 347 348 348 349 349 349 349 349 349 349 349 349 349 349 350 351 351 350 348 343 338 333 330 331 331 332 333 333 335
328 328 327 327 327 327 327 327 328 328 331 335 336 335 336 337 338 339 340 340 339 340 340 340 341 342 343 343 344 345 346 347 347 348 348 349 349 349 349 349 349 350 350 350 349 349 349 350 350 351 351 350 350 347 341 335 331 331 330 331 332 333 334
331 330 330 328 327 327 328 329 330 331 334 337 337 336 336 336 338 339 340 340 340 340 340 340 341 341 342 344 344 344 346 347 347 348 348 348 349 349 349 349 349 350 350 349 349 350 350 351 350 351 351 351 351 350 346 340 334 330 330 331 332 333 334
335 334 333 331 329 330 332 333 333 334 337 339 338 338 337 337 338 339 340 340 340 341 341 341 341 341 342 343 344 344 345 345 346 346 346 347 347 347 348 348 348 349 349 349 350 350 350 351 351 351 351 351 351 351 350 346 339 333 332 332 332 334 335
340 338 337 335 335 336 335 336 336 337 339 340 339 338 338 338 338 339 339 340 341 341 341 341 341 342 342 343 344 343 344 344 345 346 347 347 347 347 348 348 348 349 349 350 350 350 350 351 351 350 350 351 351 351 351 350 345 340 337 336 335 336 337
344 343 342 340 339 339 339 339 339 340 341 341 341 341 340 339 339 340 340 340 341 341 342 341 341 342 343 343 343 344 344 344 345 346 347 347 347 348 348 348 348 349 350 350 351 351 352 351 350 349 350 351 352 351 351 351 350 347 344 342 340 339 340
349 349 347 346 343 341 340 340 341 343 343 344 343 342 341 341 341 341 341 341 341 341 342 342 342 343 343 344 344 345 345 345 346 346 347 347 347 348 349 349 350 350 350 351 351 352 353 353 353 353 353 351 352 352 351 351 352 350 349 347 345 344 345
352 354 354 352 348 344 341 340 342 344 345 345 344 343 343 342 342 342 342 342 342 342 342 343 343 343 344 344 345 345 346 346 346 346 347 348 349 350 350 350 351 352 352 352 352 353 354 355 355 355 355 352 352 353 352 351 352 352 351 350 349 348 348
351 354 356 356 353 351 348 344 344 345 345 346 346 345 345 344 343 343 343 343 344 343 344 344 344 345 345 345 346 346 346 346 346 347 348 348 349 350 351 351 352 352 353 353 353 354 355 356 356 357 357 355 353 353 352 351 352 353 352 352 351 350 349
347 349 352 353 354 355 354 351 348 349 349 350 349 347 346 345 345 345 345 345 345 345 345 346 346 346 346 346 346 347 347 347 348 348 348 349 349 350 351 351 352 353 353 353 353 354 355 356 357 358 358 357 357 357 356 354 351 353 353 352 352 351 350
345 346 348 349 350 352 353 352 352 352 353 354 353 352 351 349 347 346 346 346 346 346 346 347 347 347 347 347 347 347 348 348 349 349 349 350 350 351 351 351 353 353 354 354 354 355 356 357 357 356 356 356 357 357 357 356 354 354 354 354 354 354 353
343 344 345 346 347 348 348 349 349 349 351 353 355 355 355 354 353 351 350 349 349 349 349 349 349 348 348 348 349 349 349 349 350 350 350 351 351 352 352 352 353 353 354 354 354 354 355 356 356 356 355 355 356 356 356 356 356 356 355 355 355 355 355
343 343 343 345 345 346 346 346 346 345 345 347 348 350 351 353 355 356 355 355 355 354 354 354 353 352 351 350 350 350 351 351 351 351 351 352 352 352 353 353 353 354 354 355 355 355 355 355 357 357 357 356 356 356 356 356 356 356 355 356 356 355 355
342 343 343 344 344 345 345 344 344 345 345 344 345 346 347 348 351 352 354 356 357 358 359 359 358 357 355 354 353 352 352 352 352 352 352 352 352 352 353 353 353 354 354 354 354 354 355 356 357 357 357 357 357 357 356 356 356 355 355 356 356 356 355
342 342 343 344 344 345 345 344 343 343 343 344 346 347 347 347 348 348 349 350 352 354 356 358 359 360 359 358 357 356 354 354 354 353 353 353 352 353 353 353 354 355 356 356 355 355 356 356 357 357 356 356 357 357 357 356 356 354 353 354 355 356 355
343 343 344 344 344 345 345 345 344 343 342 344 346 346 346 346 346 346 346 346 347 349 351 353 356 358 359 360 360 359 359 358 357 356 355 354 353 352 353 353 354 356 356 357 357 357 357 357 358 358 357 357 356 356 355 356 355 354 354 354 356 356 355
343 344 343 343 344 344 345 344 344 344 344 344 344 345 345 345 345 344 344 344 345 345 346 348 350 353 355 357 357 358 359 359 359 360 359 358 356 355 353 352 352 353 354 355 356 357 357 357 357 357 357 357 357 357 356 356 356 357 356 355 356 356 355
342 342 343 343 343 343 343 343 343 344 344 344 344 344 345 344 344 343 344 344 344 344 345 345 346 347 348 350 351 353 354 354 355 355 356 356 356 355 354 354 353 353 352 352 353 353 354 356 357 357 357 357 357 357 357 357 356 356 355 356 355 355 355

ECMWFFLT1_850_thetae_036.txt.gz
Theta_e
349 351 353 354 357 357 357 359 358 356 356 355 353 351 352 351 350 348 343 339 337 337 338 338 340 340 339 340 339 339 339 340 340 339 339 339 339 339 338 337 337 336 337 337 336 337 336 336 337 336 337 337 337 337 336 337 336 339 346 349 348 347 348
348 349 353 354 356 357 357 358 359 357 356 354 351 349 351 350 348 346 342 338 337 337 337 337 338 339 339 340 340 339 339 341 341 340 341 341 338 338 338 337 337 336 336 336 336 337 336 337 337 336 337 338 337 336 335 334 335 338 343 346 347 348 350
348 349 351 353 355 357 357 358 359 358 356 354 351 348 347 346 344 342 340 338 337 336 337 337 337 337 338 339 339 339 339 341 344 342 341 340 338 338 339 338 338 337 337 336 336 336 336 337 336 335 337 339 340 340 337 335 335 338 342 343 346 349 350
348 349 350 352 355 356 357 358 359 359 357 354 350 345 343 342 341 340 339 337 336 336 337 337 337 337 337 338 338 339 340 342 345 344 341 340 339 340 341 340 340 339 338 337 336 337 336 336 336 336 336 336 340 343 340 335 334 337 341 343 346 348 350
347 348 349 352 354 356 357 357 358 358 356 353 348 344 342 342 341 341 340 338 336 336 336 336 337 337 337 337 337 338 340 342 344 344 345 345 343 342 344 344 343 342 340 339 338 337 336 336 336 336 336 335 337 340 338 335 335 336 340 343 343 344 348
346 348 349 351 353 355 357 356 357 357 356 355 352 348 346 346 344 342 340 339 337 336 336 336 336 336 336 337 337 337 338 341 343 344 346 347 345 345 346 347 346 345 343 342 341 340 338 337 337 336 336 336 336 337 337 336 335 336 339 342 342 340 344
341 348 350 350 351 353 355 356 355 355 356 356 356 354 353 351 348 346 345 342 338 338 337 336 335 335 336 336 336 337 337 339 342 343 345 346 345 346 347 347 347 347 346 345 345 344 341 338 338 338 337 336 336 337 337 336 335 336 338 341 341 340 338
339 347 349 350 351 351 353 355 355 355 356 356 355 356 356 354 352 351 349 345 341 341 340 338 337 335 335 336 335 336 336 338 340 341 343 345 345 345 346 346 346 347 347 347 347 346 344 340 337 337 338 337 337 337 336 337 336 336 338 340 341 341 337
340 347 349 348 348 349 350 353 354 353 354 355 355 355 355 355 354 354 351 349 348 346 342 340 340 338 336 336 336 335 336 336 337 339 340 342 343 343 344 344 345 345 346 347 347 347 346 343 340 338 338 338 337 337 336 337 336 335 338 340 340 342 340
340 345 348 346 344 345 347 349 352 353 353 353 352 353 355 355 354 353 352 352 352 348 342 341 343 342 339 338 338 338 337 337 338 338 338 339 340 342 342 343 343 343 344 346 347 347 346 345 344 341 340 339 339 338 337 337 336 336 338 340 340 341 341
345 348 349 346 344 343 343 345 349 351 351 351 350 351 353 354 354 353 352 352 352 350 346 344 346 345 341 338 339 340 339 339 339 340 340 340 340 341 341 342 343 343 343 344 346 347 346 346 346 345 343 342 341 340 339 338 337 337 337 338 340 341 342
348 346 341 341 344 344 343 345 346 347 347 348 349 351 352 352 353 353 352 352 351 351 351 350 350 348 343 340 340 340 340 340 340 341 342 342 342 342 342 342 344 345 344 343 344 346 346 346 346 346 346 345 343 342 340 339 338 338 337 337 338 340 342
345 342 336 336 342 343 342 341 341 340 341 344 350 351 351 351 352 352 353 353 352 352 353 353 353 350 347 345 342 341 340 339 340 340 341 342 343 343 343 342 344 346 345 343 343 345 346 347 346 346 347 346 345 344 342 339 339 338 337 336 337 339 341
340 343 341 336 335 336 336 336 336 337 338 342 348 351 351 351 351 351 351 352 353 353 353 354 354 352 349 347 345 343 341 339 340 340 340 342 342 342 343 342 342 345 346 344 344 344 345 346 347 346 346 346 345 345 343 341 339 339 338 336 336 337 339
335 341 343 338 331 330 330 331 333 334 335 339 344 348 350 350 351 350 350 351 352 353 353 354 354 352 350 349 346 343 342 341 341 341 340 342 342 341 342 342 342 344 345 345 344 344 345 345 346 347 347 347 346 344 343 342 340 339 337 337 336 336 337
332 332 337 339 339 336 330 329 330 331 333 335 338 343 347 350 350 350 349 350 351 352 352 353 354 352 350 348 346 343 344 343 342 342 341 341 342 342 341 342 343 344 345 345 344 344 345 345 346 347 347 347 347 345 344 342 340 338 337 336 336 336 336
332 331 332 337 343 341 332 328 328 327 330 332 333 337 342 345 347 348 349 351 351 351 351 352 353 351 348 347 345 346 346 344 343 343 342 342 342 342 342 342 343 344 345 345 345 344 345 345 346 347 347 348 348 347 345 342 339 337 336 336 336 336 336
333 335 332 332 338 339 332 329 329 327 327 329 330 334 336 339 343 345 347 349 351 351 351 352 353 350 347 346 346 347 345 343 343 343 343 343 343 343 343 343 344 345 345 346 346 345 344 346 346 347 347 348 348 348 348 345 341 336 334 335 335 336 337
331 332 332 330 336 339 333 331 332 329 326 328 330 331 334 336 340 341 342 346 351 352 352 352 352 350 349 347 348 347 344 343 343 343 343 344 344 344 345 344 344 345 346 347 346 346 346 347 347 346 347 348 348 348 349 347 344 338 335 334 333 335 336
333 334 333 331 333 338 333 329 329 328 327 328 331 334 336 336 336 337 339 344 349 350 351 352 354 352 350 349 348 346 344 343 343 343 344 344 344 345 345 345 345 345 346 348 347 346 347 347 347 347 347 347 348 348 348 349 346 341 336 334 333 334 334
332 333 334 335 337 338 333 327 326 327 326 328 330 334 337 336 337 341 342 343 345 345 346 349 353 353 350 347 345 344 342 342 342 344 345 345 345 346 346 345 346 345 346 348 347 347 348 348 348 347 346 348 349 349 348 349 349 344 337 334 333 333 334
332 335 338 340 339 337 331 327 327 326 326 328 328 331 336 339 342 344 345 346 346 345 345 346 348 349 347 344 342 341 340 341 342 343 344 345 345 345 346 345 345 345 346 347 347 348 349 349 349 347 347 350 351 350 348 349 349 346 339 334 333 334 335
337 340 340 337 332 330 328 326 327 327 327 329 329 330 337 343 345 345 345 347 348 347 347 346 344 343 343 342 340 340 340 341 341 342 342 343 344 344 344 344 344 344 345 346 347 348 348 349 349 348 349 349 350 349 349 350 350 347 341 335 332 333 335
342 342 341 336 331 331 333 330 330 330 330 331 332 333 336 342 345 346 346 347 348 349 350 347 342 340 340 340 340 341 341 341 341 341 342 342 342 342 343 343 344 344 345 346 347 347 347 347 348 348 349 348 347 348 349 350 350 348 344 337 331 330 332
351 348 344 342 340 339 337 334 332 333 333 333 334 335 337 341 344 346 347 346 347 350 350 345 339 339 340 340 341 343 342 341 341 341 341 342 342 342 342 343 344 345 346 347 347 348 349 349 349 350 351 350 352 353 352 353 354 353 349 344 337 333 331
349 347 346 349 349 343 338 338 339 341 341 339 337 338 338 340 341 344 347 348 347 348 349 345 342 342 341 341 342 342 341 340 341 341 341 342 342 342 343 344 344 345 345 346 347 349 350 351 351 352 353 353 354 355 353 354 358 358 354 350 345 341 336
349 349 350 351 350 344 344 349 349 348 347 342 338 340 341 341 342 346 347 347 346 348 350 350 348 345 342 340 341 340 340 340 341 341 342 342 343 344 345 345 345 347 347 347 349 350 352 353 354 356 357 356 355 356 356 356 358 358 356 354 351 348 345
352 354 353 351 349 348 351 353 353 351 350 345 341 341 342 342 345 347 346 343 342 343 348 352 350 345 341 341 341 341 341 341 341 342 343 343 344 345 345 345 347 348 348 350 352 354 355 356 358 359 360 359 357 358 359 357 356 358 358 356 355 353 351
352 353 352 352 351 351 354 355 353 351 349 346 343 343 342 344 347 348 347 345 341 343 349 351 348 343 341 342 342 342 342 342 342 343 343 343 344 345 345 346 347 348 350 352 355 359 361 360 360 360 360 359 359 359 359 358 357 358 358 356 355 354 351
351 351 352 352 352 352 354 356 355 352 349 346 344 343 343 344 346 347 349 348 344 345 349 349 345 343 342 343 343 343 343 343 343 344 344 344 345 346 346 347 348 349 350 351 354 359 362 361 361 361 358 358 359 359 359 359 359 359 358 356 354 353 352
349 350 351 351 351 352 353 355 356 354 353 350 347 344 343 344 345 346 347 346 343 342 345 344 343 343 344 344 345 344 344 344 344 344 346 346 347 347 347 347 349 350 351 352 355 359 361 360 361 360 358 359 360 360 359 360 360 359 359 357 354 352 353
348 348 349 350 351 351 352 353 354 354 354 353 351 349 346 343 344 344 344 344 344 344 345 344 345 345 345 345 346 346 346 346 347 347 348 347 348 350 349 348 351 352 352 355 359 360 359 359 360 360 359 360 361 360 360 360 360 359 359 359 358 357 356
346 347 348 348 350 351 351 352 352 353 354 354 354 354 353 350 349 348 346 346 346 345 346 346 346 347 347 347 348 348 348 349 351 354 355 353 352 354 355 353 354 356 356 358 361 361 359 360 361 360 360 360 360 360 360 360 360 360 360 359 359 358 358
345 346 347 348 349 350 350 351 351 351 352 352 353 354 355 354 355 354 354 353 352 354 355 353 350 351 351 351 354 356 355 355 355 357 359 359 359 359 360 359 359 360 360 360 361 361 359 360 361 360 360 360 360 360 360 360 360 361 360 360 359 359 360
344 345 346 347 347 348 349 349 349 349 350 350 350 351 352 352 353 355 356 357 358 360 361 359 357 358 358 358 360 361 360 359 359 359 359 361 361 361 362 361 361 361 362 361 362 362 361 361 361 360 360 360 360 360 361 360 360 360 360 360 360 360 359
344 344 345 345 346 346 347 347 348 348 348 348 348 349 349 349 350 351 352 354 356 359 361 360 360 360 360 360 361 360 357 357 359 359 359 359 360 360 361 361 360 361 361 361 361 361 361 361 360 360 360 360 359 360 360 360 360 360 360 360 360 359 359
342 343 344 344 345 345 345 345 346 347 347 348 348 348 347 347 348 348 348 349 351 354 356 357 358 359 359 359 360 359 358 357 358 359 359 358 358 358 358 358 359 359 358 359 360 360 361 361 360 359 359 359 358 358 358 358 359 359 359 360 360 359 359
342 343 343 343 343 344 344 345 345 345 346 347 347 347 347 347 347 348 347 347 347 348 350 351 353 356 357 357 358 359 359 358 358 359 359 359 359 358 358 359 358 355 351 350 350 350 348 348 347 345 344 343 343 343 344 347 350 352 355 357 359 359 359

ECMWFFLT1_850_thetae_039.txt.gz
Theta_e
345 343 347 350 356 358 358 360 361 361 362 362 363 361 360 361 360 363 361 352 345 341 338 338 337 337 337 336 336 337 336 336 336 335 336 337 337 339 343 341 338 338 341 343 341 336 335 339 347 351 347 340 341 343 343 344 343 342 345 346 345 347 346
342 340 344 348 354 358 357 360 362 362 362 362 363 363 361 361 361 361 361 352 344 340 337 337 337 336 336 337 336 337 336 336 336 336 336 337 337 338 340 341 339 336 337 341 345 342 337 335 339 344 342 339 341 345 344 346 346 340 338 340 339 344 346
343 339 343 346 352 357 359 360 362 363 362 363 364 364 362 360 357 357 357 353 347 341 338 337 337 337 337 336 336 336 336 336 336 336 336 337 337 337 339 340 339 338 336 337 341 345 343 338 335 337 338 337 339 344 345 346 347 342 337 335 336 343 346
343 341 341 344 351 357 359 360 362 363 362 363 364 364 363 361 356 353 353 351 347 343 340 338 336 337 337 336 336 335 336 336 335 336 336 337 338 338 340 341 339 338 338 336 336 341 346 345 340 336 336 337 337 339 342 344 345 343 338 335 335 342 346
342 342 341 343 348 355 360 360 361 363 363 363 363 364 365 363 361 358 353 350 347 342 338 337 336 337 337 336 336 335 335 335 335 336 336 337 339 339 340 342 341 338 337 338 336 336 341 345 344 340 336 337 337 336 338 340 343 343 339 335 335 338 345
338 340 341 342 345 352 359 359 360 362 362 362 364 364 365 364 364 362 358 352 349 344 340 339 337 336 336 336 336 336 335 335 335 336 337 337 338 340 339 339 340 340 337 337 338 337 337 339 342 341 337 337 338 339 340 337 338 341 340 338 336 336 343
339 341 341 341 344 350 357 360 359 361 362 362 363 364 365 364 364 364 362 358 353 349 345 342 339 336 336 336 336 336 336 335 336 336 337 337 337 338 338 338 339 341 340 339 338 339 339 337 338 340 339 337 338 342 346 342 336 337 340 341 338 335 340
341 343 344 344 346 351 356 360 359 359 361 361 361 363 364 364 364 363 364 361 357 355 349 343 340 336 335 336 336 336 336 335 336 335 335 336 337 337 338 338 338 339 340 339 338 339 340 340 339 338 339 340 339 341 346 345 338 335 339 342 341 337 337
338 342 344 344 346 347 351 357 359 358 361 362 361 363 363 364 364 363 364 362 361 360 354 348 345 340 335 336 336 335 335 335 335 335 335 335 336 337 337 340 340 338 338 338 340 342 343 343 343 341 339 341 342 341 344 346 341 336 337 340 341 339 337
338 340 345 346 346 346 348 353 358 358 360 362 360 362 363 363 363 362 362 362 361 361 357 355 354 349 339 333 335 335 336 336 335 336 335 335 336 335 337 341 343 341 338 337 343 349 349 345 346 346 343 342 343 343 343 343 341 337 336 337 338 338 337
340 343 347 347 345 345 348 353 358 357 358 361 360 360 362 363 363 362 361 362 360 359 359 358 358 357 347 334 333 336 335 336 336 336 335 335 336 336 337 343 349 350 347 340 342 351 355 352 347 347 347 345 344 344 342 341 339 337 336 337 336 336 337
343 347 350 348 345 346 348 353 357 359 359 360 360 360 361 362 362 361 361 361 360 359 360 359 358 360 355 343 336 336 334 334 335 335 336 335 337 339 342 347 352 356 356 350 343 347 355 357 352 347 347 347 345 344 342 339 338 338 337 337 337 336 336
342 349 351 350 349 349 348 350 355 359 360 359 359 360 359 360 361 360 360 360 360 359 360 360 359 361 359 352 344 338 335 334 334 333 334 335 335 340 347 352 354 357 360 358 351 345 350 357 357 349 344 346 346 346 345 341 339 340 338 337 338 338 336
340 347 349 350 351 349 348 347 350 356 360 357 356 358 358 359 360 359 360 360 359 359 358 360 360 360 362 359 352 344 337 335 335 334 334 336 337 340 347 353 355 356 359 360 357 350 348 353 359 355 347 343 345 346 346 344 342 342 340 338 338 339 337
336 340 344 348 350 349 346 343 342 348 356 357 354 356 356 356 357 358 359 359 359 359 357 358 360 360 362 362 355 347 342 340 340 337 337 339 340 341 345 349 351 353 357 360 360 357 353 352 357 359 355 348 344 344 346 345 343 343 342 339 337 339 339
332 335 339 344 350 350 350 348 341 338 346 353 354 357 357 356 355 356 357 358 358 358 357 357 359 360 361 361 355 349 348 347 344 340 338 339 341 342 344 345 347 350 353 358 359 359 356 354 356 360 360 356 348 344 345 346 345 342 341 339 338 337 339
331 333 336 338 343 348 353 357 354 344 338 341 346 352 356 356 357 355 355 356 356 357 356 356 358 360 361 362 359 354 352 349 345 343 339 339 341 343 342 342 344 349 352 355 358 358 357 355 355 358 361 361 356 348 344 344 345 344 341 340 338 338 338
333 333 335 333 334 339 343 351 357 354 348 345 346 348 349 352 356 355 354 355 355 355 356 355 357 360 360 361 362 360 355 350 347 346 343 341 341 342 344 343 344 349 351 353 356 357 357 356 354 353 357 363 363 357 350 345 344 344 342 340 338 337 338
333 332 333 334 334 335 335 339 348 352 352 352 353 352 348 347 350 354 355 354 354 354 355 354 356 358 360 361 361 361 358 354 351 349 345 345 344 345 347 345 345 347 350 352 354 355 355 354 352 350 352 359 363 362 357 350 346 345 343 342 339 336 337
334 335 335 335 333 334 334 336 343 345 342 344 349 352 353 350 348 351 353 353 353 354 355 354 355 356 359 360 360 360 360 356 353 350 348 348 348 348 349 347 345 346 348 352 353 352 352 353 353 351 350 352 357 360 359 356 352 349 346 345 344 340 338
335 334 335 334 333 341 347 347 348 350 347 345 344 346 349 352 351 351 352 353 353 354 354 355 355 355 359 360 358 359 359 357 354 351 351 351 350 349 347 345 344 344 347 352 352 351 350 351 350 351 351 350 351 355 358 357 355 352 348 346 346 345 344
334 334 333 333 338 350 357 352 347 349 347 342 342 344 344 347 351 351 351 352 352 353 353 355 356 356 357 359 359 358 357 356 353 352 351 350 349 348 346 345 344 343 347 352 354 353 351 351 350 350 352 352 350 350 353 355 353 352 349 347 346 346 347
330 332 334 339 346 352 352 347 345 344 337 331 334 340 341 343 347 349 351 351 352 353 354 354 356 355 356 359 360 358 356 354 352 351 350 350 349 347 345 346 346 345 347 349 352 353 351 351 352 351 351 353 351 349 350 352 353 351 347 346 347 346 347
338 342 347 351 352 353 353 355 357 352 341 333 334 339 342 342 344 348 350 351 352 353 353 355 356 354 353 357 360 359 357 354 352 350 349 349 348 346 345 347 347 347 347 347 350 351 351 354 356 355 355 356 355 352 349 349 354 355 351 347 349 348 348
352 353 353 352 354 359 359 354 349 343 337 336 339 342 344 345 347 348 351 351 352 352 353 354 355 354 353 355 359 361 360 357 354 352 350 348 346 345 347 347 347 347 348 347 349 352 355 358 361 362 362 361 359 356 351 349 355 361 359 354 352 351 349
355 354 353 353 356 359 357 352 349 350 352 353 354 353 353 352 351 349 351 352 351 352 353 353 354 355 355 355 358 362 361 360 359 355 352 348 346 348 349 348 348 349 350 351 354 358 360 362 363 364 364 362 360 358 354 352 356 360 360 357 354 353 352
354 354 356 358 356 353 352 357 362 363 362 361 357 353 353 354 354 351 352 353 352 351 353 354 354 355 356 356 359 360 360 360 359 356 350 347 348 348 349 349 349 350 351 354 359 363 362 362 363 364 365 363 363 362 361 360 360 360 360 358 356 354 353
355 355 355 357 357 354 355 362 365 363 363 363 359 355 354 354 354 354 353 353 354 353 352 354 356 357 359 360 360 361 361 359 354 350 348 348 349 349 350 351 352 354 354 356 362 363 362 361 362 362 363 364 365 365 364 364 362 362 362 360 359 358 355
355 355 354 356 358 356 356 361 364 364 364 362 360 360 360 357 356 356 356 355 357 355 353 354 357 357 360 364 363 361 359 356 350 348 352 354 353 352 354 354 355 358 357 357 360 364 364 363 363 361 361 363 364 364 363 364 362 362 363 361 361 360 358
354 354 353 356 357 355 355 360 363 363 361 358 354 353 357 361 360 358 357 359 359 358 356 355 358 360 362 363 363 360 360 358 355 355 359 360 359 357 357 358 358 359 359 359 362 365 365 365 365 363 361 361 363 363 361 361 361 361 362 361 361 361 360
351 352 353 355 355 353 355 358 360 358 358 358 354 349 354 363 365 362 363 364 363 362 360 357 360 365 366 365 362 360 363 365 364 363 364 365 363 362 362 364 364 363 362 363 364 365 365 364 364 364 362 361 362 362 361 361 360 360 361 361 361 360 360
350 351 352 353 353 353 354 356 356 355 356 358 356 355 356 362 364 365 365 363 362 363 363 364 367 368 367 367 364 361 363 366 366 365 366 365 365 366 366 366 366 366 365 365 364 364 365 364 363 362 362 362 361 362 361 361 360 361 361 361 361 361 361
349 350 350 351 352 352 353 354 354 354 355 356 357 358 358 359 361 363 362 360 360 360 359 360 365 367 365 366 366 364 364 366 365 364 364 364 364 364 365 366 365 365 365 365 365 364 364 363 363 362 361 361 362 361 361 361 361 361 361 361 361 361 361
349 349 350 351 351 352 353 353 353 354 355 355 356 356 356 357 359 360 360 361 363 363 358 355 361 365 365 364 365 366 366 365 365 364 364 365 364 364 364 364 364 363 364 364 364 364 364 363 363 361 360 361 361 361 361 362 362 361 361 361 362 361 361
348 349 349 350 350 350 351 352 352 352 353 353 353 353 354 355 356 357 359 360 362 365 364 360 360 364 365 364 365 366 365 365 365 364 364 365 364 364 363 363 362 363 364 363 363 363 363 363 363 363 363 363 362 362 362 362 362 362 362 362 361 361 362
346 347 348 348 348 349 350 350 351 351 351 351 351 351 352 353 353 355 356 358 361 363 365 364 363 364 364 364 364 364 364 365 364 364 363 364 363 362 362 362 363 363 363 363 363 363 362 363 363 363 363 362 361 361 361 361 361 361 361 361 361 361 361
345 346 347 347 347 348 349 349 349 350 350 350 350 350 350 351 352 352 352 355 358 360 362 363 363 363 362 362 362 362 361 362 362 361 362 362 361 362 363 363 361 362 363 363 363 362 362 362 362 362 362 362 362 362 361 360 360 359 359 360 359 359 360
345 346 345 346 347 347 347 347 347 348 349 349 349 349 350 349 350 350 351 352 354 356 358 359 359 359 360 360 360 360 360 360 360 360 360 360 361 363 363 362 362 360 360 360 361 361 360 360 359 358 357 356 354 353 351 350 350 349 348 347 346 346 347

ECMWFFLT1_850_thetae_042.txt.gz
Theta_e
344 347 349 347 348 349 349 349 350 350 351 353 356 358 360 361 359 359 358 353 347 343 342 341 340 340 338 338 335 334 333 334 333 334 335 336 336 336 337 337 337 340 341 339 337 337 341 345 347 347 344 340 338 339 340 340 341 343 344 345 348 349 350
342 346 349 347 348 349 348 349 350 350 350 353 359 360 361 362 360 358 358 355 348 343 340 339 340 340 338 337 336 334 334 334 334 334 335 335 335 335 336 336 336 338 339 340 339 337 337 341 344 347 348 345 340 338 339 339 340 341 343 343 345 347 347
342 342 346 347 348 350 350 351 351 351 351 353 358 361 362 362 360 359 358 356 352 347 341 337 338 338 337 336 335 335 334 334 334 335 335 334 334 334 334 336 338 339 339 340 342 341 340 341 341 345 348 347 342 338 338 340 341 341 342 341 342 344 343
345 343 343 346 349 350 350 352 352 352 353 354 358 362 362 361 360 359 358 357 355 350 343 338 336 337 336 335 335 335 334 333 334 333 334 333 333 334 334 336 339 341 343 342 343 344 345 345 344 343 345 344 342 338 335 338 341 342 343 343 342 341 340
346 343 342 345 348 348 348 350 353 356 355 356 360 363 363 362 361 360 360 359 356 348 342 338 337 336 337 336 335 334 333 334 333 333 334 333 334 335 335 336 339 342 344 343 342 343 345 347 347 345 345 343 342 340 336 337 339 343 344 344 344 342 338
347 345 343 343 346 348 346 345 350 356 356 353 359 364 364 362 363 362 363 364 360 353 346 342 339 337 338 337 335 334 333 333 333 333 333 334 334 336 335 337 340 341 343 344 343 343 342 345 346 347 347 344 342 342 339 336 337 339 342 343 344 343 338
347 345 342 341 344 348 348 348 350 355 356 354 357 363 365 363 363 363 365 367 364 360 353 347 343 339 338 337 335 335 334 333 333 333 333 334 335 337 336 337 340 341 343 344 345 345 344 342 342 345 347 346 344 343 340 338 336 336 338 340 341 342 340
345 342 340 342 344 347 348 349 350 351 351 353 356 362 364 364 363 363 365 368 367 365 360 352 347 341 338 336 336 336 335 334 333 333 333 334 335 335 337 338 340 341 344 347 347 347 345 342 341 343 347 348 346 344 342 340 339 337 338 337 336 338 339
343 342 339 341 344 346 347 346 346 345 346 349 354 361 364 364 364 364 365 367 368 368 364 357 350 346 341 339 337 336 336 335 333 334 333 334 334 335 336 338 339 340 343 346 348 349 348 346 344 342 343 347 347 346 344 342 341 341 341 340 337 336 336
342 344 339 341 344 344 346 346 348 349 349 352 356 362 366 365 364 364 364 366 367 368 367 362 357 352 345 342 339 337 337 336 335 334 334 333 333 334 335 334 337 339 340 343 347 350 349 349 349 345 341 344 348 348 346 344 342 342 342 343 341 337 335
342 343 340 340 343 345 347 350 352 354 354 357 360 363 366 365 365 365 365 366 367 368 368 367 364 359 352 344 342 339 337 337 336 335 334 335 334 334 334 334 336 338 339 340 344 349 350 350 351 349 344 341 343 347 346 346 344 343 343 343 343 341 337
344 343 341 341 343 343 344 345 349 350 353 359 362 364 364 365 366 365 365 365 366 366 368 367 366 364 358 350 344 341 339 336 336 337 335 334 335 334 335 336 338 339 339 339 341 344 349 352 349 348 346 340 340 343 345 345 346 345 344 344 345 345 340
347 346 343 342 344 343 341 343 347 350 352 357 362 362 364 366 365 365 365 366 365 366 367 367 365 364 362 357 350 346 343 338 337 339 338 335 335 337 339 339 339 343 344 343 342 342 345 350 350 347 346 343 342 343 344 344 345 346 346 346 347 348 345
346 347 346 346 346 345 343 344 350 355 356 359 362 362 363 364 365 365 365 365 365 364 365 365 364 362 363 362 358 352 346 340 336 338 339 338 336 338 343 344 344 347 349 349 349 346 345 349 352 351 348 347 345 345 345 345 345 346 347 347 348 350 349
343 346 348 348 349 346 344 347 354 358 359 362 363 362 363 363 364 365 364 364 365 365 364 364 363 363 362 362 362 357 351 345 340 338 338 339 340 339 342 344 346 348 350 352 354 353 352 351 353 355 354 352 350 348 349 349 346 346 347 346 347 348 350
341 342 344 346 347 346 345 352 357 358 359 362 362 361 361 362 363 364 363 364 364 364 363 363 362 362 361 361 361 359 356 351 346 341 339 338 339 339 339 342 346 349 349 352 353 355 357 356 355 356 357 357 356 354 353 351 349 346 345 345 344 344 346
339 340 342 342 341 338 339 345 352 356 358 359 360 361 361 359 361 363 363 363 363 363 363 362 362 360 360 360 360 360 359 356 351 346 341 338 338 338 339 341 344 347 350 352 353 354 356 357 357 356 357 358 359 358 356 353 350 346 343 342 342 342 343
335 338 342 346 346 344 343 342 341 342 347 349 352 356 359 359 359 360 361 361 361 361 361 361 362 361 359 360 360 361 360 357 355 350 344 340 339 338 339 341 343 346 348 351 353 354 354 356 358 357 356 357 359 360 359 356 352 348 344 341 340 341 342
335 334 337 343 348 349 349 352 351 347 349 351 352 352 354 357 358 358 359 359 359 360 361 360 361 361 361 360 360 361 361 359 357 354 347 342 341 340 341 342 343 343 346 349 352 354 354 354 355 355 355 356 358 359 360 359 356 352 348 345 342 340 342
332 334 336 335 338 340 342 348 355 354 351 354 355 354 352 354 357 358 357 356 357 359 359 359 359 359 361 360 360 362 362 361 358 356 353 348 345 346 346 344 342 343 345 348 350 352 353 352 353 354 354 353 354 357 359 359 358 355 352 348 345 342 342
333 335 336 333 337 345 346 345 348 350 351 349 349 354 357 355 354 357 357 356 356 356 357 358 358 358 360 360 361 361 361 362 361 358 357 355 352 351 349 346 345 345 346 349 351 351 352 352 352 353 353 352 352 354 357 358 358 357 354 351 349 346 344
336 333 332 337 345 352 352 348 346 347 347 345 341 344 352 355 355 355 355 355 355 354 357 357 356 357 358 359 361 361 362 362 361 361 360 359 358 356 353 351 349 348 348 350 352 354 355 354 353 354 354 355 354 353 353 356 358 358 357 355 353 354 352
348 343 342 346 351 354 352 349 349 348 347 347 345 344 345 348 351 353 353 354 355 355 355 356 356 355 356 358 360 360 362 362 362 362 361 361 360 358 356 355 353 352 352 351 353 356 356 356 355 355 355 357 356 354 351 351 356 359 360 359 359 359 359
355 353 353 355 357 359 354 348 350 352 349 348 348 349 347 345 345 350 352 352 354 354 354 354 355 355 355 356 359 360 361 362 361 362 362 361 362 361 360 358 358 357 356 355 354 354 356 357 358 357 356 357 356 356 353 352 353 356 360 362 362 361 361
356 356 356 360 362 360 350 345 348 348 345 349 353 354 354 349 343 344 349 352 351 353 354 354 354 356 356 355 358 359 360 361 361 362 362 362 362 364 364 361 359 360 359 358 356 356 356 359 360 359 360 358 358 357 357 356 356 355 357 361 363 363 363
356 355 358 359 359 355 344 344 357 359 357 363 366 363 362 359 351 346 345 350 352 351 353 353 353 355 356 356 357 359 359 360 361 361 362 363 364 365 365 362 361 361 361 360 359 358 358 359 360 362 363 363 362 360 359 360 360 358 358 358 360 362 363
354 356 356 354 356 356 348 350 363 363 359 363 366 363 363 361 357 352 347 348 352 352 352 353 353 352 355 355 356 358 359 361 361 361 363 365 367 366 365 363 362 362 362 362 362 360 359 359 361 363 363 364 365 364 362 362 363 361 360 358 359 361 362
355 357 354 350 356 359 355 355 364 365 363 366 365 364 365 362 358 357 352 348 352 352 351 353 353 352 355 355 356 358 359 361 361 362 365 366 368 367 366 364 363 363 363 364 363 363 362 361 361 362 364 364 365 365 365 365 364 363 362 361 362 363 363
354 355 354 352 357 359 355 357 364 366 365 364 361 359 361 363 362 360 356 352 353 354 353 353 354 355 354 354 356 357 359 361 362 364 366 368 368 367 365 365 365 365 366 365 365 364 363 363 362 362 363 364 364 365 365 365 365 364 363 364 364 364 364
352 353 353 354 357 357 354 357 363 363 362 362 360 354 350 356 363 362 359 357 357 356 356 355 355 356 356 354 356 357 359 361 364 365 368 369 368 367 367 367 367 367 367 367 366 366 366 365 365 364 364 364 364 364 364 365 365 365 365 364 365 364 364
351 352 353 353 355 355 353 356 360 360 358 360 362 357 352 358 365 365 362 362 360 358 357 356 356 359 357 355 357 357 359 363 366 368 370 369 369 369 369 369 369 369 367 367 367 366 366 365 366 365 365 364 364 364 364 363 364 364 364 363 363 363 362
351 351 351 352 354 353 352 355 357 357 357 359 361 361 360 364 368 367 367 367 364 362 360 357 359 361 360 360 362 362 361 364 367 370 370 369 369 369 369 369 369 368 368 368 368 366 365 365 366 367 366 365 364 363 363 363 362 362 363 363 362 362 361
350 351 351 352 353 353 353 355 356 355 357 358 358 359 360 363 365 365 366 366 365 364 361 359 363 365 364 365 367 366 366 368 369 369 369 368 368 368 368 368 368 368 367 367 366 366 365 365 365 366 366 366 365 363 363 363 362 362 362 362 362 362 362
349 350 351 351 351 351 354 355 355 356 356 356 355 356 358 359 359 361 363 364 365 365 363 363 367 369 367 367 369 368 367 368 369 369 368 368 367 367 367 367 366 366 368 367 366 366 365 364 365 365 365 365 364 363 362 362 362 362 362 362 362 361 361
347 348 349 350 349 349 351 354 354 354 354 354 354 354 356 356 356 358 361 362 364 366 366 364 365 368 367 367 367 367 367 367 367 368 367 367 367 366 366 365 365 366 366 367 366 366 365 365 365 364 364 363 362 362 363 363 363 363 362 362 362 361 361
345 347 349 349 349 349 351 352 353 354 353 353 352 353 354 354 354 355 357 359 362 366 367 364 364 365 366 365 366 365 366 367 366 366 366 366 365 365 365 364 364 365 364 365 365 365 365 366 366 365 365 364 362 362 362 362 363 363 362 362 362 361 361
345 347 348 348 348 350 351 351 352 352 352 351 352 352 352 352 352 354 356 358 361 364 366 365 366 367 366 365 365 365 364 365 364 364 365 366 365 364 364 365 366 366 365 364 364 364 364 364 364 364 364 363 363 363 363 362 362 361 361 361 361 360 360
346 347 347 348 348 349 349 350 351 351 351 351 351 351 350 350 350 352 354 357 359 361 363 364 366 366 366 365 364 364 364 365 364 363 364 366 365 363 363 363 364 364 362 361 362 363 362 363 363 363 362 362 362 361 359 359 358 358 358 358 357 356 356

ECMWFFLT1_850_thetae_045.txt.gz
Theta_e
350 350 352 352 353 353 353 353 352 352 352 353 355 355 357 357 356 356 356 356 356 353 351 349 348 345 340 339 338 337 335 333 333 333 332 331 331 333 334 335 336 338 341 342 340 340 340 341 341 339 337 338 339 339 339 340 341 341 342 344 344 345 347
350 350 351 351 352 353 353 353 353 352 351 352 354 356 356 357 357 357 357 357 356 355 352 349 347 344 339 337 338 337 335 334 332 332 331 331 331 332 333 333 334 334 337 339 339 339 341 340 339 338 338 338 338 339 339 340 340 340 341 343 344 345 346
350 350 351 350 351 351 353 353 352 352 352 353 355 356 356 357 357 358 358 358 358 356 353 350 348 345 340 337 337 335 334 333 332 332 331 331 330 331 332 332 332 332 334 337 339 340 342 341 340 339 339 339 338 338 340 339 339 339 339 341 343 343 344
349 350 349 350 351 350 351 352 352 352 352 352 352 353 354 355 356 357 358 358 358 357 356 352 349 347 343 339 335 334 332 332 332 331 330 330 330 331 331 332 331 332 333 335 337 340 343 342 341 340 339 339 338 338 339 340 338 338 339 340 341 342 342
348 349 348 350 351 351 351 352 351 352 352 351 351 351 353 355 355 357 357 358 359 358 357 354 350 349 347 344 338 334 333 332 331 331 331 331 331 331 331 331 331 331 332 333 335 338 341 343 343 341 339 339 339 338 338 339 338 338 339 340 340 340 341
348 346 348 348 350 350 351 351 351 352 351 351 352 352 353 354 355 356 358 359 359 359 358 356 354 351 350 348 343 338 334 332 332 331 331 331 331 331 331 331 330 331 331 332 333 336 338 341 343 343 342 340 339 338 338 338 337 337 337 339 340 340 340
347 346 346 347 348 348 349 350 350 350 350 351 352 352 353 353 354 356 357 359 359 359 359 358 356 353 351 350 347 342 338 335 333 332 332 331 331 331 331 331 330 331 331 332 333 334 337 339 340 342 343 343 341 339 338 337 336 335 335 336 338 340 340
346 347 347 347 347 348 349 349 349 348 349 350 350 352 352 353 355 357 359 359 359 360 359 359 358 355 352 351 348 345 341 337 335 334 333 332 332 331 331 331 331 331 333 333 334 334 335 337 339 342 345 345 343 341 338 337 336 335 334 334 335 337 338
346 346 347 347 346 348 348 349 350 348 349 349 349 351 354 355 357 358 359 360 360 360 360 360 359 356 354 352 350 346 342 339 338 336 335 335 333 332 331 331 332 332 333 333 334 334 334 336 339 342 344 345 344 343 340 337 336 335 335 334 334 335 336
344 344 346 346 346 347 347 347 349 349 349 350 351 352 354 357 358 360 361 361 361 361 361 360 360 358 356 353 351 348 346 342 339 338 337 336 334 333 333 332 333 333 333 334 334 335 335 335 339 342 343 344 344 343 340 338 336 335 335 334 335 334 335
344 344 346 348 347 348 348 347 350 350 350 352 352 352 353 353 356 359 359 361 362 362 362 361 360 359 358 354 351 350 348 346 342 340 338 337 336 334 333 333 334 333 334 334 335 336 337 338 339 342 343 343 342 341 340 338 337 336 335 334 334 334 335
343 343 346 348 349 348 348 349 349 348 349 350 352 354 353 353 355 357 357 358 361 362 362 363 362 361 359 358 355 352 349 347 345 342 339 337 336 335 334 334 334 334 334 334 335 336 337 339 340 341 341 341 341 340 338 338 338 337 336 334 334 334 334
345 343 344 347 350 348 349 349 348 347 348 351 354 355 354 354 355 356 358 359 361 362 364 365 365 364 362 361 358 355 351 348 345 342 339 338 336 335 335 335 335 335 335 335 337 337 338 339 339 339 339 340 341 341 339 338 338 338 337 337 336 336 336
344 342 343 346 348 348 347 347 348 348 349 351 355 355 354 354 355 356 360 362 363 363 364 366 367 366 365 363 361 358 354 349 345 342 339 338 337 336 335 335 335 336 336 336 337 338 338 338 338 337 339 340 340 340 340 340 340 340 340 340 339 339 339
344 344 345 346 348 348 348 348 350 351 352 354 354 352 353 354 356 359 361 363 363 363 364 365 367 367 367 365 364 361 356 352 348 344 342 340 338 337 336 336 336 337 338 338 337 336 337 339 339 338 338 339 340 340 341 343 343 342 341 341 340 340 341
348 349 349 349 348 347 347 348 349 349 351 351 348 349 352 355 358 360 363 363 364 363 364 365 366 368 367 366 365 363 360 356 351 348 346 344 341 338 337 337 337 338 339 339 338 337 338 339 341 341 340 340 341 343 345 346 345 343 343 341 340 340 341
350 352 351 349 350 349 347 346 346 347 348 349 349 351 356 359 360 362 364 364 364 364 364 365 365 367 367 367 366 365 363 360 356 352 349 346 343 340 339 338 339 339 340 341 340 338 339 340 341 343 344 344 345 346 347 347 346 345 345 344 344 343 343
347 349 348 348 349 349 349 350 349 348 349 349 352 357 360 363 364 364 365 364 365 365 364 364 366 367 367 367 366 365 364 362 359 355 351 348 345 343 340 340 340 340 341 342 341 341 340 340 342 344 345 347 348 350 350 348 347 348 347 347 346 345 345
344 347 348 347 347 349 351 350 350 351 352 350 351 357 361 364 364 364 365 365 365 365 365 365 365 365 366 366 366 365 365 363 362 358 354 351 347 345 344 344 343 343 342 341 341 342 341 340 341 343 347 349 350 351 350 350 349 350 351 350 349 349 347
340 344 344 344 346 345 344 344 346 353 359 360 358 361 362 363 362 363 363 365 365 365 365 365 364 365 365 366 365 365 364 363 362 361 358 355 351 349 348 347 344 343 343 342 342 342 343 342 343 344 346 349 351 351 350 349 349 350 351 351 351 351 350
340 340 342 343 345 346 343 341 345 350 352 353 354 358 361 362 362 362 362 363 364 365 365 364 364 364 365 365 365 364 363 363 361 360 360 358 356 353 351 349 346 345 345 343 342 342 342 343 343 343 344 346 350 352 352 350 349 348 350 350 351 351 352
356 355 355 354 353 351 347 345 348 349 346 346 347 349 351 354 357 359 361 361 361 363 363 363 364 363 363 364 364 363 363 363 361 359 359 359 357 356 354 352 349 347 345 345 344 344 343 343 343 343 343 344 346 349 351 352 352 351 351 351 352 354 354
363 361 361 358 356 355 352 350 351 351 348 348 349 350 350 347 347 350 354 356 358 361 361 361 362 362 362 362 362 362 362 362 362 361 359 358 358 357 356 354 352 349 347 347 347 347 346 344 343 343 344 345 345 345 347 350 354 355 355 355 356 357 357
360 360 359 356 353 351 353 351 346 344 346 342 340 346 352 352 349 348 348 349 351 355 357 358 359 360 360 361 360 362 362 361 361 361 359 358 358 357 357 356 355 353 352 350 349 348 347 346 346 346 347 347 348 347 348 349 351 355 356 358 359 360 360
355 355 355 355 349 347 354 356 347 344 351 349 341 340 343 349 352 351 351 350 349 348 349 351 355 357 359 360 359 360 362 362 361 361 361 360 359 358 358 358 356 356 354 354 352 350 350 350 351 351 352 352 352 352 352 353 354 354 356 358 359 361 362
353 352 353 355 350 347 352 356 352 354 361 361 357 351 345 345 348 350 351 354 353 351 349 347 350 353 355 357 358 358 359 361 362 362 361 362 360 360 360 359 359 358 358 357 357 355 355 354 354 354 355 355 355 355 355 356 357 358 358 359 359 360 361
349 350 354 357 357 352 347 350 356 363 365 364 363 360 353 351 351 351 352 353 353 355 353 351 350 350 351 354 356 356 357 358 361 362 361 362 362 362 360 360 361 361 360 360 360 359 358 358 356 356 356 357 358 358 359 359 359 359 360 361 361 361 361
347 349 354 357 358 355 351 353 361 365 363 362 362 361 359 358 357 357 356 355 353 354 354 355 354 351 351 352 353 355 357 357 359 361 362 362 364 362 362 362 361 363 363 362 362 362 362 361 359 358 358 358 359 360 360 361 360 361 362 362 362 362 361
350 351 354 354 355 354 353 357 361 361 359 359 357 355 355 357 357 358 358 357 355 353 352 354 355 354 352 352 351 353 355 355 357 360 361 362 364 363 364 363 362 364 364 364 364 364 363 363 362 361 360 360 360 360 361 361 361 361 362 362 363 363 362
351 352 352 352 353 353 352 356 359 358 356 356 355 352 352 356 358 359 360 357 356 355 353 353 355 355 355 354 353 352 352 353 356 358 359 362 363 364 364 363 363 364 365 365 365 365 365 365 364 363 363 362 362 362 361 362 363 363 364 364 364 364 364
351 352 352 352 352 350 350 354 357 356 355 356 358 358 360 364 365 363 362 360 357 356 355 354 356 356 356 356 354 353 352 353 354 356 358 360 362 363 363 363 363 364 365 366 367 366 366 365 364 364 364 363 363 362 362 363 363 364 365 365 365 365 365
348 350 351 351 350 349 350 353 355 355 356 357 358 359 362 365 366 366 365 364 361 358 356 356 356 356 355 357 357 355 355 355 356 358 360 361 362 363 362 363 364 365 366 367 368 367 366 366 366 366 366 365 365 364 363 363 363 364 364 365 365 365 364
344 347 349 350 349 349 351 354 355 355 354 354 355 357 359 361 364 365 366 366 364 361 358 358 358 356 356 358 360 358 358 358 359 361 362 363 364 364 364 364 366 367 368 368 368 368 368 367 367 367 367 367 366 365 365 365 365 364 365 364 364 363 362
342 344 347 349 349 348 350 353 354 354 353 353 352 353 356 358 359 362 364 364 363 362 360 360 361 362 361 361 361 362 362 362 362 363 364 364 366 367 367 367 368 369 369 370 369 369 368 368 368 367 368 368 367 366 366 365 365 364 364 363 362 362 361
343 343 346 348 348 348 350 352 353 353 353 352 351 352 354 355 354 356 360 363 364 364 361 361 364 366 365 364 364 363 364 365 365 366 366 368 369 370 370 371 370 370 370 370 369 369 368 369 369 367 367 367 367 367 367 366 365 365 364 363 362 362 362
344 345 347 348 348 350 350 351 352 352 352 351 350 350 352 352 351 353 357 360 363 365 363 362 364 367 367 366 366 365 364 364 366 368 369 370 370 371 370 370 370 370 370 370 370 369 368 368 368 366 366 366 366 366 366 365 365 364 362 362 362 361 361
345 345 346 347 348 349 349 349 351 351 350 351 351 351 351 350 349 352 356 358 362 366 365 364 364 366 366 366 366 366 365 364 365 368 369 369 369 369 368 368 369 369 369 369 369 369 368 368 368 367 366 365 366 365 364 364 364 363 361 361 361 361 360
345 345 346 347 347 348 348 349 349 349 350 350 351 350 350 349 348 351 355 358 361 365 366 365 366 366 366 364 364 366 366 365 366 367 368 367 368 367 367 367 367 366 366 366 366 366 366 366 366 366 366 365 364 363 362 362 361 360 360 361 360 359 358

ECMWFFLT1_850_thetae_048.txt.gz
Theta_e
348 350 351 351 352 351 351 351 350 350 351 352 352 352 352 352 351 351 351 351 351 351 351 350 349 348 347 347 345 344 341 338 336 334 334 334 334 334 334 332 332 331 332 334 334 334 334 335 338 338 337 336 336 337 336 337 342 343 344 346 346 346 345
348 349 350 351 352 352 352 351 350 350 350 351 352 352 352 352 352 352 352 351 351 351 351 350 350 348 347 347 346 345 342 339 337 336 334 335 335 334 334 332 331 330 331 333 334 335 336 337 338 338 338 338 337 337 337 337 339 341 342 344 345 344 344
347 348 350 350 351 352 352 352 351 351 351 350 351 352 352 352 352 353 352 352 352 352 352 351 350 349 347 347 347 346 344 341 339 337 335 334 334 333 333 333 331 330 331 334 334 334 335 335 337 338 338 338 337 337 338 338 338 339 340 342 343 343 343
348 348 350 350 351 352 352 352 351 351 351 351 351 352 352 352 352 353 353 352 353 352 352 352 351 350 348 348 347 347 345 343 340 338 335 334 332 332 332 332 331 331 332 333 334 334 334 335 336 338 337 337 337 337 338 338 338 339 339 340 341 341 342
348 348 349 350 351 352 352 352 352 352 352 351 352 352 352 352 352 353 353 352 353 352 352 352 352 351 349 349 348 347 346 344 341 339 337 335 334 333 332 331 331 331 331 332 334 334 334 334 335 338 338 337 336 337 338 338 338 339 339 339 340 340 341
349 348 349 350 351 352 352 353 352 352 352 352 352 352 352 353 353 353 353 353 353 353 353 353 352 351 351 350 349 348 348 346 344 341 339 338 336 334 332 332 331 330 330 330 332 333 333 333 333 336 338 337 336 337 337 337 338 337 338 338 338 338 339
348 349 349 350 351 352 352 352 352 352 352 351 351 352 353 353 353 353 353 353 354 354 353 353 353 352 352 351 350 349 347 345 344 342 341 341 340 337 333 332 331 330 330 329 330 331 331 331 331 332 335 337 336 335 336 336 336 336 336 337 337 338 338
348 349 348 350 350 351 352 352 352 351 352 352 352 353 353 353 354 354 354 355 355 354 355 354 354 354 353 352 351 350 348 345 344 343 342 343 343 340 336 333 331 330 330 329 329 329 329 329 329 331 333 335 335 335 334 334 335 335 335 335 335 336 337
348 349 348 350 349 351 352 352 352 352 351 351 352 353 353 353 354 354 355 355 355 355 355 355 355 354 354 354 353 351 349 346 344 342 342 343 342 340 338 335 333 331 330 330 330 329 329 329 329 329 331 333 334 334 334 333 334 334 335 334 334 335 334
348 348 348 350 349 350 351 351 352 352 351 352 352 352 353 353 353 355 354 355 356 356 356 356 356 356 355 355 355 353 351 348 346 343 342 342 341 339 337 336 335 334 332 331 330 330 329 329 329 330 331 333 333 334 334 333 333 334 335 335 334 334 334
347 348 347 348 349 350 351 351 352 352 351 352 351 352 352 352 354 354 355 356 356 356 357 356 356 357 356 356 355 355 353 350 347 345 343 341 340 338 337 336 336 334 333 332 331 331 330 329 330 331 331 332 333 334 333 333 334 334 335 335 335 335 334
346 347 347 347 348 350 350 350 351 351 351 352 351 351 352 352 354 354 355 355 356 356 356 356 356 357 357 356 356 356 355 353 351 348 345 342 340 338 338 337 337 335 334 332 332 332 331 331 331 331 332 332 332 333 333 333 334 335 335 335 335 335 335
347 347 346 348 348 349 350 350 350 351 351 351 351 351 351 351 352 353 354 355 355 356 356 356 357 357 356 357 357 357 356 355 353 352 349 345 342 339 339 338 338 336 334 333 332 332 331 331 331 331 331 332 332 333 333 334 336 336 336 336 337 336 336
346 345 345 347 348 349 350 349 349 350 350 351 351 351 351 351 352 352 353 354 354 355 356 356 357 357 357 357 358 358 358 356 355 353 350 348 345 342 340 340 340 338 336 334 333 333 332 331 331 331 332 332 333 333 333 335 337 337 338 338 338 338 338
346 344 346 346 347 348 348 348 349 349 350 350 350 351 350 350 352 352 352 354 355 355 356 356 357 357 358 358 359 359 359 358 357 355 353 351 348 345 342 341 341 340 338 337 334 333 333 333 332 332 333 333 333 334 334 336 338 337 337 338 338 338 338
344 344 345 346 346 347 346 348 347 348 349 349 349 349 350 349 351 351 352 352 354 355 357 357 358 359 359 359 359 359 359 359 358 357 355 354 351 348 346 343 343 343 342 339 336 335 333 333 334 333 333 333 334 335 335 337 337 337 336 337 337 337 337
343 344 345 345 345 346 346 347 348 348 349 349 348 349 348 348 349 350 351 353 354 356 358 360 361 361 361 361 360 360 360 360 359 359 357 356 354 352 349 346 345 345 343 341 339 337 335 335 335 334 333 334 334 335 336 337 337 336 336 336 337 339 340
342 343 344 345 345 345 346 346 347 348 348 347 348 348 347 348 349 350 352 354 355 357 359 360 361 361 361 361 361 361 361 362 361 360 360 358 357 355 353 351 349 347 346 344 341 338 338 336 336 335 335 336 336 336 336 337 336 336 337 337 338 341 343
342 342 344 345 345 345 346 346 347 347 346 347 348 347 346 347 348 350 351 352 354 355 356 359 360 360 361 361 362 362 362 363 363 363 362 361 360 359 357 354 352 350 348 346 343 341 340 338 337 336 336 337 337 336 336 336 335 336 337 337 339 341 344
344 345 345 346 346 346 345 346 347 347 348 347 346 346 348 348 349 350 351 352 353 353 354 357 360 361 362 362 363 363 363 363 364 363 364 363 362 361 359 356 354 352 349 347 345 343 341 339 339 338 337 338 338 338 337 336 336 336 337 338 340 342 345
349 348 348 347 348 347 347 348 347 348 349 348 348 348 349 351 352 352 351 352 353 354 356 358 360 362 363 363 363 363 363 363 364 364 365 365 364 363 361 359 356 354 351 350 347 345 343 340 340 339 338 339 339 338 338 337 337 337 338 340 341 344 347
354 352 352 352 351 351 350 349 348 348 349 348 348 350 350 352 352 351 352 352 353 354 358 360 361 362 363 363 363 363 363 364 364 365 365 365 365 364 363 361 359 356 354 352 350 348 346 344 342 342 341 341 341 341 340 337 338 338 339 341 343 346 350
357 357 356 356 357 357 356 356 354 354 353 352 353 354 353 353 351 350 353 356 358 358 359 361 363 363 363 364 363 363 364 364 364 365 365 365 365 365 364 363 361 359 356 354 352 350 348 346 345 343 342 343 343 344 342 340 340 341 341 343 346 350 352
356 359 359 357 357 356 356 357 356 355 355 356 358 358 359 359 358 358 360 362 363 363 363 363 364 363 364 364 364 364 364 364 364 364 364 365 364 364 364 363 362 360 358 356 354 351 349 347 347 345 345 345 345 345 345 346 346 347 348 348 349 352 353
355 357 358 357 357 356 356 356 355 353 351 352 354 355 356 358 358 360 361 362 363 364 364 364 364 363 364 364 364 364 364 364 364 364 364 364 364 364 364 363 362 361 360 358 356 354 351 349 349 348 346 346 346 346 347 349 351 352 353 353 354 354 355
355 354 355 355 355 356 356 354 353 352 351 351 353 354 353 354 356 355 356 357 359 361 362 362 363 363 364 364 364 365 364 364 364 363 363 364 363 363 363 362 361 361 360 359 358 357 355 353 351 350 349 348 348 348 349 350 351 352 353 355 355 356 357
355 354 352 350 349 347 347 347 349 354 357 358 358 356 353 353 354 354 354 354 354 356 357 358 359 359 360 361 362 362 362 362 363 363 363 363 362 362 362 362 362 361 360 360 359 358 358 356 355 354 352 351 350 350 349 350 351 352 353 354 355 356 357
351 352 350 348 345 340 337 338 343 349 353 354 355 354 353 353 353 353 355 354 354 354 354 355 354 355 355 356 356 358 357 358 360 361 362 362 363 362 362 362 362 361 360 360 360 359 359 358 357 356 355 354 353 353 352 352 353 353 354 355 356 357 357
347 349 349 348 348 346 341 336 336 340 342 342 343 344 345 345 349 352 353 355 355 354 353 354 354 354 353 353 352 352 352 352 354 357 359 361 362 361 363 362 361 361 361 360 360 360 360 359 359 358 358 357 356 356 356 355 356 356 357 357 359 358 359
347 347 347 347 348 349 348 345 344 345 346 345 343 341 340 340 342 347 352 355 355 354 353 353 354 354 354 354 353 351 350 349 350 352 355 358 360 361 362 362 362 362 362 361 361 360 360 360 360 361 360 360 360 360 359 359 359 359 359 360 361 361 361
347 347 346 346 347 348 348 349 350 351 350 349 348 347 348 348 346 348 352 355 355 354 354 352 353 353 353 354 354 353 351 351 350 351 353 355 358 360 361 362 362 362 362 362 361 361 361 362 362 362 362 362 362 362 362 362 361 361 361 361 362 362 362
347 345 344 344 346 348 349 349 349 350 350 350 349 350 353 355 356 357 358 358 357 357 355 353 353 352 352 353 353 354 353 353 352 352 352 354 357 359 361 361 362 362 363 363 363 362 363 363 364 364 364 364 365 365 364 364 363 363 363 363 363 363 363
345 345 344 343 344 346 347 348 349 349 349 348 347 347 350 354 358 360 362 361 361 360 359 357 354 353 351 353 354 354 353 355 353 353 354 355 359 361 361 362 363 363 363 364 364 364 364 365 365 366 366 366 366 366 366 365 365 364 364 364 363 363 363
344 344 345 346 345 345 346 348 349 350 350 349 348 346 348 351 354 357 360 362 363 362 361 359 358 356 354 353 354 354 355 354 355 355 356 359 361 363 365 365 365 365 365 365 365 365 366 366 366 366 366 366 366 366 366 366 365 365 365 364 364 364 364
344 345 346 347 347 347 347 349 350 350 350 350 349 347 348 349 350 352 354 357 360 362 362 361 360 361 360 356 355 354 354 356 357 357 358 361 362 364 366 367 367 368 367 367 366 366 366 366 366 367 367 367 367 367 366 366 366 366 366 366 365 365 364
343 344 345 345 346 346 347 348 349 348 348 349 349 347 347 348 349 348 348 350 355 360 361 360 361 364 365 362 360 358 358 359 362 361 362 362 362 363 365 366 367 367 367 367 367 366 367 367 368 368 368 367 368 368 368 367 367 367 366 366 366 365 365
343 344 344 344 344 345 346 347 347 347 347 347 347 347 346 348 348 347 347 349 354 359 362 360 360 365 368 367 365 365 364 363 364 365 364 364 364 364 365 366 366 368 368 369 369 368 368 369 368 369 369 368 368 368 368 367 367 367 366 366 365 365 363
344 344 344 343 344 345 346 346 346 346 346 346 347 347 347 347 347 345 345 351 355 360 363 363 361 363 367 368 367 368 367 366 366 366 366 366 366 366 366 366 367 368 370 370 371 371 370 370 368 369 370 369 368 367 367 366 366 365 364 363 362 362 361

ECMWFFLT1_850_thetae_051.txt.gz
Theta_e
346 347 348 349 350 349 350 349 349 349 348 349 349 349 349 349 350 349 350 350 350 350 350 350 350 349 349 348 347 347 345 343 342 341 339 338 336 335 336 337 336 335 335 335 333 332 331 332 332 333 337 337 335 333 334 335 336 339 344 344 344 344 344
344 346 347 348 349 350 349 349 348 349 348 349 349 349 349 349 349 350 349 350 350 350 350 350 350 350 348 348 348 348 346 344 342 342 342 340 337 336 336 336 337 336 335 334 332 331 331 333 333 333 337 339 337 335 335 335 335 338 342 343 343 342 342
344 345 346 348 349 349 349 349 348 348 348 349 349 349 349 349 349 350 349 350 350 350 350 350 349 349 348 349 349 349 347 345 343 343 343 341 338 336 336 337 337 335 335 334 332 330 329 331 333 335 336 339 339 338 337 336 336 336 339 342 343 342 341
345 345 345 347 348 348 349 350 349 349 349 348 349 349 350 350 349 350 350 350 350 350 350 350 350 349 349 349 349 349 347 345 344 342 342 340 339 338 337 336 336 336 335 333 332 330 329 330 334 336 337 337 338 339 338 337 337 336 337 339 340 340 339
345 345 345 346 347 349 349 350 350 349 349 349 350 350 350 350 350 350 350 350 350 350 350 350 350 350 349 349 350 349 348 346 344 342 341 341 340 340 337 336 335 335 334 333 332 331 330 330 333 335 336 336 336 337 338 337 337 337 336 337 338 338 338
346 345 346 346 347 348 349 349 349 349 349 349 350 349 350 350 350 350 350 350 350 350 350 350 350 350 349 350 350 350 349 347 345 343 342 341 342 341 338 335 334 334 334 333 332 331 329 330 332 334 334 334 334 335 336 336 336 337 337 337 337 337 338
346 346 346 347 347 347 349 349 350 349 349 349 349 350 350 350 351 350 351 351 350 351 350 350 350 350 350 350 350 350 350 348 346 344 343 343 343 342 339 336 335 334 334 334 333 331 330 330 331 333 332 332 332 333 334 335 336 337 337 338 337 337 337
344 346 346 347 347 348 349 349 349 350 350 350 349 350 350 350 351 351 351 351 351 351 350 350 350 350 350 350 350 351 350 349 348 346 345 344 344 342 340 339 337 336 336 335 333 331 330 330 331 332 332 331 332 333 334 334 335 335 337 336 337 337 337
343 345 346 347 347 348 349 349 350 349 349 350 350 350 350 350 351 351 351 351 351 351 351 351 350 350 350 350 350 351 350 350 348 347 346 346 344 343 342 340 339 338 337 335 333 331 331 330 330 331 331 331 331 331 333 334 334 334 334 335 335 335 335
344 344 345 346 346 347 348 349 350 350 350 350 350 350 350 350 351 351 351 352 351 351 351 351 351 350 350 351 351 351 350 350 350 349 348 347 345 343 341 340 340 339 338 336 334 333 331 331 330 329 330 330 329 329 331 332 333 333 334 333 333 334 333
343 344 345 346 346 347 348 349 351 350 350 351 350 350 350 350 351 351 351 352 352 352 352 351 351 351 351 351 351 351 351 350 350 350 350 348 347 344 342 340 340 339 338 337 336 333 332 331 331 330 329 329 328 328 329 330 331 332 332 332 332 333 333
343 344 344 345 347 348 348 350 350 350 350 350 350 351 350 351 351 351 351 351 352 352 352 352 352 352 352 351 351 352 351 352 351 351 350 350 349 347 343 341 339 338 337 337 336 333 332 332 331 329 329 329 328 328 328 330 330 331 332 332 332 332 332
343 344 345 346 346 347 348 349 350 350 350 350 350 351 351 351 351 351 352 352 352 353 352 353 353 352 352 352 352 352 352 352 352 352 351 351 350 349 347 343 341 339 337 336 336 334 332 331 330 330 329 329 328 328 329 329 330 331 332 332 332 332 332
344 345 344 346 346 347 348 350 350 350 350 350 351 351 351 352 352 352 352 352 352 353 352 352 352 352 352 353 352 352 352 352 352 352 351 352 352 351 350 346 344 341 339 337 336 334 332 331 330 330 329 329 329 329 329 329 330 330 331 332 332 332 332
344 345 345 346 347 347 349 349 350 350 350 351 351 351 351 351 352 352 353 353 352 353 353 353 353 353 353 353 353 352 353 352 353 353 353 353 353 353 352 350 347 345 342 340 338 335 333 332 331 331 330 330 330 330 330 330 330 331 331 332 332 332 332
344 344 345 346 346 348 348 349 350 349 351 351 350 351 351 351 352 352 352 353 353 353 354 353 354 354 354 354 353 353 353 354 354 353 353 353 354 354 354 352 350 348 346 344 341 338 335 334 333 332 331 331 330 330 330 330 330 331 331 332 332 332 332
344 344 346 346 346 348 348 349 350 349 350 351 351 351 350 350 351 352 352 353 353 353 354 354 355 355 355 354 354 354 354 354 354 354 354 354 354 355 355 354 352 351 349 348 344 341 338 336 335 334 333 332 331 331 331 331 330 331 331 332 331 332 333
344 345 345 346 347 348 347 349 349 350 350 351 350 350 350 350 350 351 352 352 353 353 354 355 355 355 355 355 355 355 355 355 355 355 355 355 355 356 356 355 355 353 352 350 348 345 342 339 336 334 335 334 333 332 332 332 331 331 331 331 332 332 333
343 345 345 346 346 347 348 349 348 349 349 349 350 349 348 348 349 350 350 351 352 353 354 354 355 356 356 355 355 356 355 355 355 355 355 356 356 357 357 357 356 355 354 352 351 349 346 342 338 335 336 335 335 335 334 333 332 332 332 332 333 333 334
342 344 345 345 346 347 347 348 348 349 349 348 348 348 348 349 348 348 350 351 352 353 353 355 355 356 356 355 355 355 355 355 355 355 356 357 358 358 358 358 358 357 356 355 354 352 350 345 341 339 337 337 337 337 336 335 334 333 333 334 334 334 336
342 344 343 344 345 346 346 347 347 348 348 349 349 349 349 350 350 350 350 351 352 352 353 354 355 355 354 353 354 355 355 356 356 356 357 358 359 359 359 360 360 359 359 357 356 355 353 350 345 341 339 338 339 339 338 337 336 335 335 334 335 337 339
343 343 342 344 344 344 346 347 347 348 348 349 349 349 350 349 350 350 351 350 351 352 352 353 354 354 354 353 355 355 356 357 358 358 359 359 359 360 360 361 361 361 361 360 358 358 356 353 349 344 342 342 341 341 339 337 336 337 336 336 337 340 342
343 342 343 344 344 344 346 346 347 347 348 348 348 349 349 350 349 350 350 350 350 350 351 353 354 355 355 355 356 356 357 357 357 358 359 359 360 361 362 362 362 362 363 361 361 360 358 354 350 347 345 344 343 341 340 337 337 338 338 338 340 343 344
350 347 346 345 345 345 345 346 347 347 347 348 349 349 349 349 349 349 350 350 349 349 350 352 353 355 356 355 356 355 355 356 356 358 359 360 362 362 362 363 363 363 363 363 362 362 359 357 354 351 348 346 342 341 340 338 337 339 339 340 342 344 345
357 356 352 350 349 348 348 347 347 348 349 349 349 350 350 350 350 350 350 349 350 350 350 351 353 354 355 354 354 354 355 356 357 360 361 362 363 362 363 363 363 363 363 363 363 363 361 359 358 356 354 350 347 345 344 341 339 341 341 342 343 346 346
359 359 358 357 355 354 355 354 352 353 354 354 354 354 353 352 352 352 352 351 351 351 352 352 352 353 353 354 354 355 356 358 360 361 362 362 363 362 363 363 363 363 363 364 364 363 363 362 360 358 357 356 353 351 348 346 344 343 343 343 344 345 347
357 359 359 359 358 357 358 357 356 358 357 357 359 359 357 357 357 356 356 356 356 355 355 355 355 355 355 356 357 357 359 360 362 362 362 363 363 363 363 364 364 364 364 364 363 363 363 362 361 360 359 357 357 355 353 351 350 348 347 346 346 346 348
354 355 355 355 356 357 357 357 357 358 358 358 359 359 358 359 359 359 360 360 360 360 360 360 359 359 359 360 360 361 361 362 362 363 363 363 363 364 364 364 363 364 364 363 364 363 363 362 362 362 360 359 358 357 356 355 353 353 352 351 350 350 350
353 353 352 349 348 348 349 352 352 350 351 352 354 355 356 358 358 359 359 359 359 360 360 360 361 360 360 361 361 361 363 363 363 363 364 364 364 364 364 364 363 364 364 364 363 363 363 363 362 362 361 360 359 359 358 357 356 355 354 354 354 353 353
352 353 352 350 347 342 338 337 337 336 336 337 340 342 345 348 352 354 356 357 357 358 358 357 358 357 357 357 357 357 358 359 360 361 362 362 363 364 363 363 363 363 363 363 364 363 363 363 362 362 362 361 360 360 359 358 358 358 358 357 356 355 355
350 351 352 352 350 348 343 337 335 333 332 332 332 333 333 336 339 343 347 350 352 354 356 355 355 355 354 354 354 355 354 354 355 356 357 358 359 360 361 361 361 362 363 363 364 363 363 363 363 362 362 361 360 360 360 359 359 359 359 358 358 358 358
348 349 349 350 350 349 347 344 340 337 337 337 336 335 334 335 337 339 343 346 347 348 351 351 352 353 353 353 353 353 353 353 353 353 353 355 355 356 357 359 359 360 361 361 363 363 363 363 363 362 362 362 361 361 360 361 360 361 361 361 361 361 360
348 348 348 348 348 347 346 344 341 340 340 339 339 339 338 338 339 342 345 347 349 350 350 350 351 351 352 351 352 351 352 352 353 353 353 353 354 355 356 358 359 360 360 362 362 362 362 362 363 362 362 362 361 362 361 362 362 362 363 363 363 363 362
347 348 348 348 348 347 345 342 342 342 340 340 340 340 339 338 338 338 340 342 345 347 349 351 353 355 354 352 351 351 352 352 353 354 353 353 354 355 356 357 359 360 361 362 362 362 362 363 363 363 362 362 362 363 363 364 364 365 365 365 365 365 365
345 346 346 346 346 346 344 343 342 341 340 340 341 340 340 340 339 338 338 337 337 339 342 347 352 356 358 357 354 352 352 353 353 355 354 354 354 354 355 357 358 360 361 361 362 363 363 363 363 363 363 364 364 365 365 365 366 366 366 366 365 365 364
343 344 345 345 345 344 344 343 343 343 342 342 341 341 341 341 342 342 341 339 337 337 337 340 345 353 358 360 359 357 356 356 355 355 355 354 354 354 355 355 356 359 361 362 362 363 364 365 365 366 366 366 366 367 367 367 367 367 366 366 365 365 363
344 344 344 344 344 344 343 343 343 344 344 343 341 340 341 342 343 343 342 341 341 341 341 342 344 348 355 360 362 362 359 358 358 358 357 357 357 356 356 356 358 360 362 363 364 365 366 366 367 367 366 367 367 367 367 367 366 366 366 367 366 365 364
344 344 344 344 343 343 343 343 343 343 343 341 339 338 340 341 342 341 340 341 342 344 347 350 350 351 355 361 365 365 362 360 360 361 360 360 360 360 360 360 360 361 363 365 366 367 367 368 368 367 366 367 367 368 367 367 367 367 367 366 366 365 365

ECMWFFLT1_850_thetae_054.txt.gz
Theta_e
348 349 348 349 348 348 348 348 347 347 347 348 348 349 350 350 351 351 351 351 350 349 349 349 349 348 348 348 348 347 346 345 344 342 341 339 339 338 337 335 334 334 336 336 335 334 334 335 335 335 336 336 336 336 335 334 334 334 335 337 340 342 343
347 348 348 348 349 348 348 347 348 348 347 347 348 348 350 350 350 351 350 350 350 349 349 349 348 349 348 348 348 348 347 346 344 343 341 340 339 339 338 336 334 333 335 336 336 335 335 335 335 336 336 336 334 335 335 334 333 334 334 335 338 341 342
346 348 348 349 349 348 349 348 348 348 347 347 347 348 348 349 349 350 350 350 350 349 349 349 348 349 348 348 349 348 348 346 345 344 342 341 339 338 338 337 336 335 335 336 337 337 335 335 335 335 336 336 335 335 335 334 333 333 334 334 335 339 341
345 347 347 348 349 348 348 349 348 348 347 348 347 347 348 348 349 349 350 349 350 349 349 349 348 348 348 349 348 349 348 347 345 343 342 341 340 340 339 339 337 336 335 335 336 337 336 336 335 334 335 336 335 335 335 334 333 334 335 335 335 336 339
344 346 347 347 348 348 348 349 348 348 348 347 347 347 347 348 348 349 349 349 349 349 349 349 348 349 348 348 349 349 348 348 346 344 342 342 342 342 341 339 338 337 336 336 336 337 337 336 335 334 333 334 335 334 335 334 334 334 335 335 336 336 337
343 344 346 346 346 348 348 348 348 348 349 347 348 348 347 348 348 348 349 349 349 348 348 349 349 349 348 348 349 349 348 348 347 345 344 343 343 343 341 340 339 338 337 336 336 336 337 336 335 333 331 331 334 335 335 335 335 335 335 336 335 336 336
342 343 344 345 346 347 347 348 349 349 348 348 348 348 347 348 348 348 348 348 349 349 349 349 349 348 349 349 349 349 349 349 348 347 346 346 345 343 340 339 338 338 338 337 336 336 336 335 335 333 330 330 332 335 335 335 335 336 335 335 336 336 336
341 343 343 344 345 346 346 347 348 349 349 348 348 348 348 347 348 348 348 348 348 348 348 349 349 349 349 349 349 349 349 348 348 348 347 347 346 344 341 339 338 338 338 338 337 336 336 335 334 332 331 330 331 333 335 335 335 335 336 336 336 336 336
341 342 343 344 344 344 345 346 347 348 348 349 348 348 348 348 348 348 348 348 348 349 348 348 348 349 349 349 349 349 349 349 348 348 348 348 347 345 343 339 338 338 338 338 337 336 335 334 333 332 331 330 331 332 333 333 334 333 334 334 335 335 336
340 341 342 344 344 344 345 345 347 347 348 349 348 349 348 348 348 348 348 349 348 348 349 348 348 349 349 349 349 349 349 349 349 349 348 348 348 347 345 342 340 338 337 337 337 336 334 334 333 332 331 330 330 331 333 333 332 332 333 333 334 335 335
338 340 341 343 343 344 344 344 346 347 347 349 348 348 349 348 349 348 348 349 348 348 348 348 349 349 349 349 349 349 349 349 349 349 349 348 348 348 347 345 343 340 337 337 337 335 335 334 333 332 331 330 329 330 331 332 332 331 332 333 333 333 333
337 339 340 342 343 344 344 344 346 347 347 348 348 348 349 348 348 348 348 349 348 348 349 349 349 349 349 349 349 349 349 349 349 349 348 348 348 348 348 347 345 342 339 337 337 336 335 335 334 333 331 330 329 329 329 330 330 330 330 331 332 333 333
336 338 339 341 343 344 344 345 345 346 347 348 348 348 348 348 349 348 349 349 349 349 349 349 349 349 349 350 349 349 350 349 349 349 348 348 348 349 349 348 347 345 342 338 337 337 335 335 335 333 332 331 330 329 329 329 329 329 329 329 329 331 331
332 337 339 340 342 343 344 345 345 347 347 347 348 348 348 349 349 349 349 349 349 350 350 349 349 350 350 349 349 349 350 349 349 348 348 348 349 349 349 349 348 347 345 343 340 337 336 335 335 334 333 332 331 330 330 330 329 328 328 328 328 329 330
329 335 338 340 342 343 344 345 346 347 347 348 348 348 348 349 349 350 350 349 350 350 349 350 350 350 350 350 350 350 349 349 349 349 349 349 349 349 349 349 349 349 347 345 341 338 336 335 335 335 335 334 332 331 330 330 329 328 328 328 328 328 329
328 335 338 339 341 342 343 345 345 347 348 348 349 348 349 349 349 350 349 349 350 350 349 350 350 350 350 350 350 349 349 349 349 350 349 349 350 350 350 350 350 349 349 347 343 339 338 336 336 335 335 334 333 332 331 330 328 328 328 328 328 329 328
330 336 337 339 341 342 342 345 346 347 348 348 349 348 348 349 349 349 350 350 350 350 350 350 350 350 350 350 351 350 350 350 350 350 350 350 350 350 350 350 350 351 350 349 347 343 341 339 338 336 336 335 335 334 332 330 329 328 328 328 328 329 329
334 337 338 339 341 342 343 345 346 347 348 348 349 348 348 349 349 349 350 350 350 350 350 350 351 351 351 350 351 351 350 350 350 351 350 350 350 350 350 351 351 351 351 351 350 347 345 343 340 338 337 336 336 334 333 332 330 329 329 329 329 329 329
336 337 340 340 341 343 343 344 346 346 347 348 348 348 348 349 350 349 349 350 350 350 351 351 351 350 350 351 351 351 351 351 351 351 350 350 350 351 351 352 352 351 352 352 351 350 349 347 343 341 339 339 337 336 335 333 331 331 331 330 330 330 330
337 338 339 340 341 342 343 344 345 346 346 347 348 348 348 349 349 350 350 350 351 351 351 351 351 351 351 351 351 352 351 351 351 351 351 350 351 351 351 352 352 352 352 352 353 353 351 349 346 343 341 340 338 337 336 335 333 332 332 331 330 330 331
339 339 340 342 342 342 343 344 345 347 347 347 348 349 349 350 350 351 350 350 351 351 351 352 351 351 351 351 352 352 351 352 352 351 351 351 352 352 352 352 352 352 352 354 354 354 354 351 349 346 344 342 340 338 337 335 334 333 333 332 332 332 332
338 340 341 343 343 343 344 345 345 346 347 348 349 349 349 350 349 350 350 351 351 351 352 351 352 351 351 352 351 352 352 351 352 352 352 352 352 353 353 353 352 353 354 355 355 356 356 355 354 352 349 347 345 343 339 335 334 334 334 334 334 334 335
338 341 341 342 345 344 344 345 346 347 348 348 349 349 349 350 350 351 351 351 351 352 352 352 352 351 351 351 351 352 352 352 352 352 352 352 353 354 353 353 353 354 355 356 357 357 358 358 357 356 353 352 350 347 342 336 334 335 335 335 336 337 338
339 342 342 342 345 345 345 346 347 347 348 349 348 349 349 350 350 350 351 350 351 352 351 351 352 350 351 351 351 351 351 351 351 352 352 353 353 354 354 354 354 355 356 358 358 359 359 359 360 359 357 356 353 349 344 339 335 336 337 337 339 340 340
345 342 342 343 344 344 345 347 346 347 348 348 349 349 349 349 349 350 350 351 351 351 351 351 351 350 350 350 349 350 350 351 351 352 351 353 353 353 355 356 357 358 358 359 360 360 360 361 361 360 360 359 357 355 352 348 342 341 341 342 343 344 343
351 346 343 343 343 344 345 346 346 347 348 348 348 349 349 350 349 350 350 350 351 351 351 351 350 349 349 350 350 350 351 351 351 352 352 354 354 355 356 357 358 359 359 360 360 360 361 361 361 361 362 361 360 359 358 355 351 349 348 347 347 346 345
355 351 348 345 345 345 345 346 346 347 347 347 348 348 348 349 349 350 350 350 350 351 351 351 351 350 349 350 351 351 352 352 352 353 354 354 355 356 357 358 358 359 360 361 361 361 362 362 362 362 363 362 362 361 360 359 357 355 353 352 351 350 348
355 355 354 352 350 348 345 346 347 346 347 347 347 347 348 348 349 349 349 350 350 351 351 351 352 352 351 352 351 352 353 353 353 355 355 355 355 356 357 357 359 359 360 361 362 362 362 362 363 363 363 363 363 362 362 360 359 357 357 355 354 353 352
354 356 357 356 355 354 352 351 350 350 349 348 348 348 348 348 349 349 350 350 351 350 351 351 351 352 352 352 352 353 354 354 354 355 355 356 356 356 357 358 359 361 361 362 362 363 363 363 363 363 363 363 363 362 362 361 360 359 358 357 356 356 355
353 354 356 356 358 358 358 357 358 357 357 355 353 351 351 350 350 350 350 351 351 352 353 352 353 353 354 354 354 354 355 355 356 356 357 358 358 358 358 360 360 361 362 362 363 363 364 364 363 364 363 363 363 363 362 362 361 360 359 358 358 357 357
351 352 353 353 355 356 358 359 360 361 361 360 359 358 356 354 354 354 355 355 355 356 357 357 358 358 358 358 358 358 358 359 359 359 359 360 360 360 361 361 362 362 362 363 363 363 363 364 364 364 364 363 363 363 362 362 361 361 360 360 359 358 358
349 350 350 350 350 351 352 354 356 357 358 360 360 360 360 359 358 358 358 359 359 360 360 359 360 359 359 359 358 358 358 357 358 359 359 359 360 360 360 360 361 361 362 362 363 363 364 363 363 363 364 364 363 363 362 362 361 361 360 360 360 359 359
349 349 349 349 348 347 347 347 348 349 351 352 354 356 357 358 358 358 358 358 359 359 359 359 358 358 357 357 355 355 355 355 355 356 356 356 358 358 359 359 360 360 361 361 362 362 363 363 363 363 363 363 363 362 362 362 362 362 362 361 360 361 361
348 348 348 348 347 347 346 346 345 345 344 344 345 346 346 347 349 349 350 352 353 353 354 354 355 354 355 355 354 353 353 353 353 354 354 354 355 355 357 358 358 359 359 359 360 360 361 361 362 362 362 362 362 362 362 362 362 362 362 361 362 363 363
346 346 346 347 346 346 346 346 346 345 345 343 343 341 339 338 337 337 338 339 340 341 342 344 347 348 349 350 350 350 351 351 352 352 353 353 355 355 355 357 358 358 358 357 358 359 359 360 361 361 362 362 362 363 363 363 363 363 363 363 364 364 364
345 345 345 346 345 346 347 346 345 345 344 344 343 342 340 338 337 336 335 334 333 334 335 337 340 343 344 346 346 346 347 347 348 351 353 353 354 354 355 355 355 357 358 358 358 359 359 360 361 362 363 363 363 363 364 364 364 364 365 365 365 365 366
345 344 345 345 346 345 346 345 344 344 343 342 341 340 340 340 339 337 337 336 337 338 338 340 342 345 348 349 349 346 345 346 348 351 352 354 355 355 355 355 356 356 358 358 359 359 360 361 362 362 363 363 364 365 365 365 365 366 366 366 366 366 365
344 344 344 345 345 345 345 344 344 343 343 341 340 340 339 339 339 340 340 339 341 343 345 346 348 349 351 353 354 353 350 349 352 354 355 356 356 357 357 357 357 358 358 358 359 360 360 362 363 363 364 365 365 366 366 366 366 366 366 366 366 366 365

ECMWFFLT1_850_thetae_057.txt.gz
Theta_e
351 351 350 350 350 349 349 349 348 349 349 349 349 348 349 349 349 349 349 349 349 349 349 349 349 349 348 346 343 341 339 337 336 336 335 334 333 334 335 334 335 334 334 333 333 334 335 335 336 336 337 337 337 336 337 337 337 336 335 334 335 336 338
351 351 351 350 350 349 349 349 348 348 349 348 348 349 349 349 349 349 349 349 349 349 349 349 349 349 349 348 346 344 343 341 340 339 338 337 337 337 337 337 337 336 336 335 334 334 335 336 336 336 336 337 336 336 336 336 336 335 334 334 334 335 336
350 351 351 350 350 350 349 349 348 348 348 348 348 348 348 348 348 348 348 349 349 349 349 349 349 349 349 349 348 347 346 345 344 343 342 341 340 340 339 339 339 338 338 337 335 334 335 336 336 336 336 336 336 336 335 335 335 334 334 334 334 334 334
349 350 350 350 350 350 349 349 348 348 348 347 347 347 347 348 347 348 348 348 348 349 349 349 349 349 349 349 349 348 347 347 346 345 343 342 342 341 340 340 339 339 338 337 336 334 334 335 336 336 336 336 337 336 336 335 334 334 334 334 333 333 334
349 349 350 351 350 350 350 349 348 348 348 348 347 347 347 347 347 348 348 348 348 348 347 348 348 349 349 349 349 348 348 347 346 346 345 344 343 342 341 339 339 338 338 337 336 335 334 334 336 337 336 336 336 337 337 336 335 334 335 334 333 333 334
348 349 350 350 350 350 350 349 349 348 348 348 348 347 347 347 347 347 348 348 349 348 348 347 347 348 348 349 349 348 348 347 347 347 347 346 344 342 340 338 337 337 337 337 337 336 335 335 335 336 336 336 336 336 336 336 336 335 335 334 333 334 335
347 348 349 349 349 350 350 349 349 349 348 348 348 347 347 347 347 348 348 348 348 348 348 347 347 347 347 348 348 348 348 348 348 347 348 347 346 344 341 338 337 337 337 337 337 336 336 336 335 335 336 336 335 335 335 335 335 335 335 334 333 333 335
345 346 346 347 348 349 349 349 349 349 349 349 349 348 347 347 348 348 348 348 348 348 348 347 347 347 347 348 348 347 347 348 348 348 348 348 347 346 342 339 337 337 337 337 337 337 337 336 335 335 335 335 335 334 334 334 335 336 336 335 335 334 334
342 342 342 344 346 348 349 348 348 349 349 349 348 348 347 347 348 347 347 347 347 347 347 347 347 347 347 347 347 347 347 347 348 348 348 348 348 347 344 340 338 337 337 337 337 337 336 336 336 335 335 335 334 333 333 333 334 336 336 336 335 335 335
341 341 340 343 346 348 348 348 349 349 349 349 348 348 348 347 347 347 347 347 347 347 346 346 347 347 346 346 346 346 347 347 347 348 348 348 348 347 346 344 341 339 338 337 336 336 336 336 336 335 335 334 334 333 333 332 332 334 336 336 336 336 335
341 340 340 343 345 347 347 348 349 349 348 349 348 348 348 347 347 347 347 347 347 347 347 347 347 347 346 346 347 347 347 347 348 347 348 348 348 348 347 346 345 343 340 339 337 335 334 335 335 334 334 334 333 332 331 331 331 332 334 335 335 335 335
338 340 341 342 343 344 346 347 347 347 348 348 348 348 348 348 348 348 347 347 347 347 347 347 347 347 346 347 347 347 347 347 347 348 348 348 348 348 347 347 346 345 343 342 339 336 334 334 333 333 333 332 332 332 331 330 330 331 332 333 333 333 333
332 336 339 342 343 343 344 345 346 346 347 347 348 348 348 348 348 348 348 347 347 347 347 347 347 347 347 347 348 347 347 347 347 347 348 348 348 348 348 347 347 346 345 344 341 338 335 334 333 332 332 332 332 331 331 330 330 329 330 331 332 332 332
327 330 333 337 341 342 344 345 345 346 346 347 347 348 348 348 348 348 348 347 348 348 347 347 347 347 347 347 347 347 347 347 347 347 347 348 348 348 348 348 347 347 346 345 343 340 337 334 334 333 332 332 332 331 331 330 329 329 330 330 331 331 331
326 329 331 334 337 340 342 343 344 345 345 346 347 348 348 348 348 348 348 348 348 348 348 347 347 347 347 347 347 347 346 346 347 347 347 348 348 348 348 348 347 347 347 346 344 341 338 336 334 334 333 333 332 332 331 330 330 329 328 329 329 329 329
329 328 331 333 334 336 339 341 343 343 344 346 346 347 347 348 348 348 348 348 348 348 348 348 347 347 347 347 347 347 346 347 346 347 347 347 347 348 348 348 348 348 347 347 346 344 341 338 336 335 333 333 333 332 332 331 329 329 328 328 329 328 328
336 331 330 329 330 332 335 339 341 342 344 345 346 346 347 347 348 348 348 348 348 348 348 348 347 348 347 347 347 347 347 347 347 347 347 347 348 348 348 348 348 348 348 348 347 346 343 341 339 336 333 332 332 332 332 331 329 328 328 328 328 328 328
345 338 333 329 329 330 332 336 340 342 343 344 345 346 346 347 347 348 348 348 348 348 348 348 347 348 348 348 348 348 348 347 347 347 347 347 348 348 348 348 348 348 348 348 348 348 346 344 341 336 334 333 332 332 332 331 329 329 329 329 328 328 329
351 345 340 336 333 330 331 335 338 339 341 343 344 345 346 346 347 347 348 348 348 348 348 348 348 348 348 348 348 348 348 348 348 348 347 347 348 348 348 348 348 348 348 349 349 349 348 347 344 340 336 335 333 331 332 331 330 330 329 329 328 328 329
354 349 342 337 334 332 331 333 337 338 339 341 343 344 346 346 346 347 348 348 348 348 348 348 348 348 348 348 348 349 348 349 349 348 347 347 348 348 348 348 348 348 348 349 349 350 349 349 348 345 342 339 336 334 333 333 332 331 330 330 329 329 329
354 352 344 337 336 335 332 332 336 339 339 341 344 346 346 347 347 347 348 348 348 348 348 348 348 348 349 349 349 349 349 349 349 348 348 348 348 348 348 348 348 348 349 349 349 350 350 350 350 349 348 345 343 340 337 334 332 331 331 331 330 330 330
355 353 345 339 337 336 335 334 336 338 340 343 346 346 346 347 347 348 348 348 348 348 349 349 349 349 349 349 349 349 349 349 349 348 348 348 348 349 348 348 349 348 349 349 350 350 350 350 351 351 350 349 348 346 342 337 335 333 332 331 331 332 333
355 351 344 339 339 337 337 338 338 341 343 345 346 346 346 347 347 348 348 349 348 349 349 349 349 349 349 349 349 349 349 349 348 348 348 348 348 349 349 348 348 348 349 349 350 350 351 351 351 351 351 351 351 350 346 340 337 335 334 334 334 335 335
353 348 341 339 339 338 338 339 340 343 345 346 347 347 346 347 348 348 349 349 349 349 349 349 349 349 349 349 349 348 348 348 348 348 348 348 348 349 349 349 349 349 350 350 350 351 351 351 352 352 353 353 354 353 350 346 343 341 339 339 338 339 339
351 345 340 341 340 339 340 340 341 343 344 346 347 347 347 347 348 348 349 349 348 349 349 349 349 349 349 349 349 348 348 348 348 348 348 348 349 349 349 350 349 350 350 351 351 351 351 352 352 353 354 355 356 356 354 353 351 348 345 344 344 344 344
352 347 342 342 342 341 341 342 342 343 345 345 346 347 347 348 348 348 349 349 349 349 349 349 349 348 348 349 349 349 349 349 348 349 349 349 350 350 350 350 350 351 351 352 352 352 353 353 354 355 356 356 357 358 358 357 356 353 349 348 348 348 348
353 351 347 343 343 344 343 343 344 344 345 345 346 347 348 348 348 349 349 349 349 349 349 348 348 349 349 349 349 350 350 350 349 349 350 350 350 351 351 351 351 352 353 353 353 353 354 355 356 356 357 358 359 360 360 359 359 357 354 352 352 351 351
353 352 351 346 344 345 345 345 345 345 345 346 346 347 348 348 348 349 349 349 349 348 348 348 348 349 349 350 350 350 350 350 350 350 351 351 351 352 352 352 352 353 354 354 354 355 356 356 357 358 358 359 360 360 361 361 361 360 359 357 356 355 354
352 352 352 350 348 347 346 346 346 346 347 347 347 348 348 348 349 349 349 349 349 349 349 349 349 350 350 350 350 350 350 350 350 351 351 352 352 352 352 353 353 354 355 355 355 356 357 357 358 359 359 360 360 361 361 362 362 361 361 360 359 358 357
352 352 353 352 351 350 348 347 347 347 348 348 348 349 349 348 349 349 349 349 349 349 349 349 349 350 350 350 350 350 350 350 350 351 351 352 352 353 353 354 354 355 356 356 356 357 357 358 358 359 359 360 361 362 362 362 362 362 362 362 361 360 358
351 352 353 353 354 352 351 350 348 348 348 349 349 349 349 349 349 349 349 349 349 349 349 349 349 349 349 349 350 349 350 350 351 351 352 352 353 354 354 355 355 356 357 357 357 357 357 358 359 359 360 361 361 362 363 363 362 363 362 362 362 360 360
349 350 351 353 354 354 354 353 351 350 349 349 349 349 350 350 349 349 350 349 349 349 348 348 348 349 349 350 350 350 351 351 351 352 353 354 354 355 356 356 357 357 358 358 358 358 358 359 359 360 360 361 362 363 363 363 363 363 363 362 362 361 360
348 348 349 350 351 353 354 354 354 353 351 350 349 349 349 349 350 349 349 349 349 349 349 350 350 350 350 351 352 352 353 353 354 354 355 356 356 357 358 358 358 358 358 358 359 359 360 360 360 361 361 362 362 362 363 363 363 363 363 362 362 362 361
346 347 347 347 348 350 351 352 353 353 353 353 353 352 351 351 351 350 350 350 350 349 350 351 352 353 355 356 356 356 357 357 357 357 357 357 358 358 358 358 359 359 359 359 359 360 360 360 360 361 361 361 362 362 362 362 362 362 363 362 362 362 361
345 346 346 346 346 346 347 347 349 350 351 353 354 355 355 355 354 354 354 353 353 353 354 356 357 358 359 358 357 357 356 356 357 356 357 357 358 358 358 358 358 358 358 359 359 359 360 361 361 361 361 361 361 361 361 362 362 362 362 362 362 362 361
345 344 345 345 345 345 344 343 344 345 346 347 349 352 355 356 357 358 358 358 358 358 359 360 360 360 359 359 358 356 355 354 354 354 354 355 356 356 357 357 356 357 358 358 358 358 359 360 360 360 361 361 361 361 362 362 362 362 362 362 362 362 361
345 343 343 344 344 344 343 342 341 342 342 343 344 345 347 350 353 355 357 359 360 361 361 361 360 360 359 359 358 357 356 355 354 354 354 353 353 354 356 356 355 356 356 357 357 358 359 359 360 360 360 361 362 362 362 362 362 363 363 363 363 363 363
344 342 342 343 343 344 344 343 342 342 342 343 344 344 344 345 345 346 348 349 351 353 355 356 357 357 357 357 356 356 356 354 354 354 353 353 353 354 354 355 355 355 355 356 356 357 358 359 359 359 360 361 362 362 362 363 363 363 364 364 364 364 364

ECMWFFLT1_850_thetae_060.txt.gz
Theta_e
352 353 353 354 355 355 356 357 357 357 357 357 357 356 356 356 355 354 349 345 345 346 346 347 346 346 343 342 340 338 335 333 332 332 331 331 330 330 329 329 330 328 328 330 331 332 332 333 335 335 336 341 342 341 341 342 342 342 342 341 341 342 342
350 352 352 354 355 355 356 357 356 357 357 357 357 357 356 355 355 353 349 345 345 346 346 346 347 346 345 344 343 339 336 336 334 334 334 333 332 331 331 330 332 330 328 329 331 331 332 332 333 334 335 339 341 340 341 342 343 343 342 340 340 342 343
347 350 352 353 354 354 355 357 357 357 357 357 357 356 356 355 353 351 348 345 345 346 347 346 347 347 347 347 346 343 340 339 337 337 337 336 334 332 332 332 333 332 331 331 332 332 332 333 333 334 335 337 338 338 340 342 342 342 342 340 340 341 342
343 347 350 353 354 354 355 356 356 356 357 356 357 356 355 354 353 351 348 345 345 346 346 347 347 347 347 347 347 346 344 342 340 338 338 337 336 334 333 333 333 334 334 334 334 334 335 334 333 334 335 336 337 336 338 340 341 342 341 341 341 340 340
343 344 349 352 353 354 355 355 356 356 357 356 356 356 356 355 353 352 348 345 344 346 346 347 347 348 348 348 348 348 346 344 342 340 339 338 337 336 335 335 335 335 335 336 337 336 336 335 333 333 334 336 337 336 337 338 339 340 341 341 342 340 339
343 345 348 352 354 354 355 355 355 355 356 356 355 357 357 356 355 353 350 346 345 345 345 346 348 347 348 348 348 348 348 347 345 343 341 340 340 339 338 337 337 337 337 338 338 338 337 335 334 333 334 334 336 336 336 336 337 338 339 341 341 340 341
341 345 349 350 352 354 355 355 354 354 355 355 356 356 357 357 356 355 354 351 347 346 345 345 346 346 347 348 348 348 349 348 347 346 345 344 343 342 341 340 340 340 340 339 339 338 337 335 334 333 333 334 335 337 336 336 336 335 338 340 339 338 340
340 345 350 351 352 354 354 354 355 354 355 355 355 356 357 356 357 356 356 355 351 350 349 347 346 345 346 346 347 348 348 348 348 347 347 346 346 345 344 343 342 341 341 340 339 338 337 336 334 333 333 333 334 336 336 336 336 335 337 339 338 336 336
340 345 350 351 352 352 354 354 355 354 355 355 355 355 356 356 357 356 357 356 354 353 351 349 349 347 345 345 346 346 347 348 348 347 347 347 347 346 345 345 343 342 341 340 338 337 336 336 336 334 333 333 334 335 335 335 335 334 336 336 335 334 334
338 345 350 351 351 352 353 354 355 355 354 355 354 355 355 356 356 357 357 357 355 354 352 352 353 351 346 343 344 345 346 347 347 347 348 348 347 347 347 347 346 342 340 338 338 338 336 335 335 335 333 333 334 334 335 335 334 334 334 333 333 333 333
338 344 350 352 351 351 352 354 356 355 355 356 354 354 355 355 356 357 356 356 355 355 354 354 355 354 350 344 343 345 346 346 347 347 348 347 349 349 349 350 350 346 340 337 339 339 337 336 336 336 334 333 334 334 334 334 333 333 332 332 332 334 333
340 346 352 353 352 352 352 354 356 356 356 356 355 354 355 355 356 356 356 356 355 355 356 356 356 356 353 348 344 344 344 345 346 347 347 347 349 351 351 351 353 351 343 337 338 338 337 336 335 335 335 334 333 333 333 333 333 332 332 331 332 333 334
339 344 348 352 353 353 352 354 357 357 356 355 355 354 354 355 355 355 355 355 355 356 357 356 357 357 355 352 347 344 344 345 345 347 348 347 348 351 352 352 353 353 349 341 336 338 339 337 336 334 335 335 333 333 333 333 333 332 331 331 331 332 333
336 337 342 347 350 352 354 355 357 358 357 356 355 354 355 355 355 354 355 355 355 356 356 357 356 357 356 353 350 347 344 344 346 345 346 346 346 349 352 353 353 354 353 346 338 340 341 339 337 334 333 334 334 333 333 333 333 332 332 331 330 330 332
335 333 336 342 348 352 353 354 358 358 356 355 355 355 355 355 355 355 355 355 356 355 355 357 357 356 356 354 349 346 344 345 347 345 345 346 346 347 349 351 352 352 352 347 342 342 343 342 342 339 334 333 333 333 333 332 333 332 332 331 330 329 330
339 336 334 335 343 350 351 353 356 357 354 353 354 355 355 355 355 354 354 355 355 356 356 357 357 357 356 353 348 346 345 346 346 345 345 346 345 346 347 348 349 350 349 346 344 344 344 344 346 346 341 335 332 333 333 331 332 332 331 330 329 329 328
343 345 343 339 339 344 349 351 354 356 354 351 351 352 354 355 354 354 354 355 355 355 355 356 357 356 353 351 350 349 347 345 345 345 344 345 345 346 347 347 348 348 348 347 346 345 345 345 345 347 348 343 335 332 332 332 331 331 330 330 329 328 328
350 352 353 352 348 345 346 349 352 354 352 348 349 351 353 355 355 354 354 355 355 356 355 356 356 355 353 352 352 349 347 345 345 345 345 344 344 345 345 347 347 348 347 347 347 346 346 346 345 346 349 348 343 338 335 332 332 331 330 330 329 329 328
354 355 356 358 358 354 349 346 348 351 349 347 349 351 352 354 354 354 354 355 355 355 354 355 357 356 354 353 352 349 346 346 345 346 345 345 344 345 345 346 346 347 347 347 348 347 347 347 347 346 347 348 348 343 339 336 333 331 330 330 329 329 328
355 356 357 358 359 359 357 351 346 348 350 348 346 348 351 353 353 354 354 355 355 355 355 355 357 357 355 353 351 348 346 346 346 346 346 344 345 344 345 346 346 347 347 347 348 347 347 347 347 347 347 347 347 345 341 340 336 331 330 331 330 329 328
355 356 357 358 359 360 361 356 348 345 351 351 348 349 352 355 354 354 355 355 355 355 356 356 357 358 356 353 350 347 346 346 347 346 346 346 345 345 345 346 346 347 347 348 347 347 348 347 347 348 348 347 348 346 343 341 338 332 330 330 330 330 329
355 356 356 358 358 359 361 359 349 342 347 352 350 350 353 354 355 355 355 355 355 355 356 356 357 358 357 352 349 348 347 347 347 347 347 346 346 346 345 346 346 347 347 348 348 348 348 347 348 348 348 347 348 347 346 344 340 335 330 330 330 331 331
354 355 356 357 358 360 359 356 348 342 346 352 351 350 352 353 354 355 354 354 355 355 356 356 356 356 354 351 349 347 347 347 347 347 347 347 347 346 347 346 346 346 347 347 348 348 348 348 348 348 348 349 348 348 348 346 344 339 334 333 331 332 332
353 354 356 357 359 359 354 350 346 343 347 351 351 350 351 353 354 354 354 354 355 355 356 356 355 353 351 349 347 347 347 347 347 347 347 347 348 347 347 347 347 347 347 347 347 348 348 348 348 348 348 349 349 349 348 348 347 344 340 338 337 336 335
353 355 355 356 359 357 351 347 347 345 347 352 352 349 351 353 354 354 354 355 356 356 357 357 354 350 347 347 347 347 347 347 346 348 347 348 348 348 347 348 347 347 348 347 347 348 348 348 348 348 349 349 349 350 349 349 349 348 344 343 342 341 341
353 354 355 357 359 357 351 349 349 348 349 353 351 350 353 354 353 354 354 356 356 356 356 355 351 348 346 347 347 347 346 347 347 347 348 348 349 348 348 348 347 347 347 347 348 348 347 348 348 348 348 349 349 351 350 350 351 350 348 347 346 345 345
353 354 355 356 358 356 352 351 352 350 350 352 350 352 354 354 354 354 355 356 356 356 356 354 350 347 347 346 347 347 346 347 347 348 348 349 349 349 349 348 348 348 347 348 348 348 348 349 349 350 350 350 350 351 351 351 352 352 351 350 348 348 349
353 353 354 356 357 356 354 353 353 350 350 353 353 354 354 354 353 355 355 355 354 354 356 355 351 347 347 347 347 347 347 348 347 348 348 348 349 349 348 348 349 349 348 349 348 350 350 350 350 351 352 354 353 353 352 352 353 355 355 354 354 352 353
353 353 353 355 356 357 357 355 352 351 352 354 353 353 354 354 354 353 352 351 351 353 356 355 350 346 347 347 347 347 347 348 347 348 348 349 349 349 349 349 350 350 350 350 351 352 352 353 353 354 355 356 357 357 356 355 355 356 357 357 358 357 356
353 353 353 354 354 357 358 358 354 351 353 355 354 354 355 355 353 350 348 347 350 353 354 353 350 348 347 347 348 348 348 348 348 349 349 349 349 349 350 350 350 351 352 352 352 353 354 355 356 358 358 359 360 360 361 361 360 359 359 359 360 359 359
352 353 353 353 354 355 358 359 358 356 355 355 355 355 357 357 352 348 348 349 349 352 354 353 351 349 348 348 348 349 349 349 349 349 349 350 350 350 350 351 351 351 352 352 353 354 355 356 358 359 360 361 362 362 363 363 362 362 361 360 361 361 361
350 351 352 353 353 354 355 357 359 361 361 359 357 357 358 360 355 349 349 350 349 350 353 352 349 348 348 348 349 349 349 350 350 350 350 351 352 352 350 351 352 352 352 353 354 354 355 357 359 359 358 360 363 363 363 364 364 363 363 362 361 362 361
348 349 350 351 352 353 354 355 356 359 361 361 362 362 362 362 359 353 349 349 349 350 351 349 349 349 349 349 349 349 349 350 350 352 353 353 355 357 355 352 353 354 353 352 354 355 355 357 359 361 360 362 363 364 364 364 364 364 363 363 362 363 363
347 348 347 348 350 351 352 353 354 356 357 358 360 362 362 363 363 359 352 348 350 351 350 348 349 350 350 350 350 350 350 351 350 354 357 356 355 358 359 357 355 357 356 354 355 357 356 357 359 362 363 364 364 364 365 365 364 365 365 364 363 363 362
345 346 345 346 348 349 350 351 352 353 354 355 356 356 357 359 359 357 353 351 351 351 350 348 349 351 350 350 351 351 352 352 350 352 358 360 357 357 359 360 361 362 361 360 358 358 359 360 362 362 363 364 365 365 366 366 366 366 366 365 363 363 363
344 344 343 344 345 346 348 349 349 351 353 353 354 355 355 355 355 353 351 351 350 350 350 350 351 351 351 351 352 351 351 352 352 352 356 362 363 360 356 358 361 362 363 364 363 361 360 362 363 364 364 365 366 366 366 366 366 366 365 363 362 362 363
341 342 342 343 343 344 346 346 347 349 350 352 353 355 355 355 355 355 353 353 352 351 351 350 349 351 352 352 352 352 352 352 355 356 355 359 366 366 360 356 359 359 359 362 363 362 362 362 362 363 364 364 364 365 365 365 365 364 363 363 362 362 361
339 341 342 342 342 343 344 345 346 347 348 350 352 353 354 355 356 357 358 358 358 358 357 355 352 353 356 355 354 353 355 355 356 358 357 358 364 368 364 360 358 358 358 359 360 361 361 361 361 361 362 362 362 363 363 364 363 363 362 362 362 362 362

ECMWFFLT1_850_thetae_063.txt.gz
Theta_e
348 348 350 353 354 353 354 355 356 356 357 359 358 359 359 358 359 360 360 360 356 350 344 344 347 343 340 340 338 336 334 331 329 327 327 326 326 332 335 333 327 326 333 340 340 343 347 346 346 351 351 345 341 341 340 340 342 343 344 341 342 343 343
349 346 348 352 354 353 354 356 358 359 358 360 359 359 359 359 361 361 361 361 357 350 344 344 347 344 341 341 341 340 338 336 334 331 329 329 327 330 335 335 330 325 327 335 343 347 349 346 342 346 350 347 344 343 341 341 342 343 344 342 341 343 342
348 347 348 350 352 352 353 355 357 360 360 361 361 359 360 360 361 361 362 362 358 353 350 346 345 344 343 344 343 342 342 340 337 334 331 331 329 329 333 333 330 328 326 326 335 345 350 347 340 338 343 346 345 344 341 339 341 342 344 343 341 343 343
347 348 348 350 351 351 353 355 357 360 361 360 361 360 360 360 360 361 362 362 359 356 353 347 344 345 345 345 345 345 344 342 340 337 334 333 332 330 333 334 330 330 331 328 329 338 346 349 347 337 334 338 340 343 344 341 342 343 343 343 342 341 343
345 348 348 349 350 352 355 355 356 360 361 360 362 361 361 361 361 362 362 363 362 357 351 344 343 346 345 345 345 344 343 342 341 339 336 334 334 333 334 337 335 332 333 333 334 336 338 345 351 343 334 333 334 339 344 341 340 343 340 341 343 341 343
342 345 348 349 350 352 354 353 354 358 360 361 361 362 361 361 361 361 362 362 363 361 356 349 344 344 344 344 344 343 342 341 339 339 338 335 335 336 335 335 338 336 335 337 341 343 338 336 345 347 339 335 335 339 344 343 340 343 340 338 340 341 345
340 344 346 349 349 350 351 352 353 355 358 359 360 361 362 360 361 361 361 362 362 363 361 356 349 345 344 343 343 342 340 339 337 337 338 336 336 337 338 336 337 338 339 340 344 348 345 337 337 342 341 339 339 340 346 347 343 344 346 341 338 338 340
338 341 343 347 348 346 347 350 352 354 355 357 359 361 361 361 361 361 360 361 361 361 361 359 356 351 345 343 344 343 341 339 338 337 337 339 339 338 339 339 337 336 339 344 346 347 349 344 336 335 337 340 341 340 345 347 343 343 350 348 340 337 337
339 339 342 345 346 345 344 348 351 353 355 355 358 361 361 361 361 361 360 360 360 361 361 359 358 355 348 344 344 344 343 343 343 341 340 342 342 342 343 343 340 335 336 342 348 348 348 348 344 337 335 337 339 338 339 343 340 338 345 347 340 337 336
338 340 341 344 345 345 344 344 349 353 354 355 358 361 361 361 361 360 360 361 360 359 359 358 358 358 354 347 345 346 346 345 347 348 347 348 348 347 349 350 346 341 336 339 348 350 349 349 349 343 337 333 335 335 333 336 337 335 337 340 338 334 334
337 340 342 345 346 344 345 344 347 351 353 355 358 360 362 361 362 361 359 360 360 358 358 357 356 359 359 354 351 351 350 348 350 353 351 351 352 353 353 354 352 349 343 340 347 352 352 350 349 347 341 333 333 333 332 332 334 335 336 337 336 334 332
337 338 342 345 345 343 344 345 348 351 354 357 359 360 361 362 361 361 360 360 359 358 358 357 356 357 360 359 357 356 355 352 354 356 354 352 354 356 354 354 354 353 350 346 347 351 353 353 349 344 340 334 332 332 332 332 333 333 335 339 341 339 335
338 339 342 345 346 344 345 346 349 354 357 359 360 359 360 362 361 360 361 360 360 359 358 357 357 357 359 361 359 357 357 355 355 356 357 356 354 355 355 354 353 353 353 352 351 351 352 354 351 344 337 334 334 333 331 331 332 333 333 336 343 343 338
338 340 343 347 349 348 348 348 352 358 360 359 360 359 360 361 361 360 361 360 360 360 358 358 357 357 359 361 360 359 358 356 355 355 356 356 354 354 356 354 352 351 353 354 355 353 351 353 354 350 342 336 334 334 333 332 330 333 334 332 335 340 338
335 337 339 344 348 350 351 351 354 359 361 360 360 359 358 360 361 360 360 361 360 359 359 359 357 357 359 360 361 360 358 356 357 357 355 356 355 354 355 355 352 352 353 354 356 354 352 352 354 354 351 344 337 334 335 335 332 331 333 332 331 334 336
335 334 336 337 343 348 351 352 356 361 363 362 360 359 358 358 360 361 360 361 361 359 359 359 358 358 360 360 361 361 359 356 356 356 355 354 354 353 353 354 355 353 353 354 356 355 354 352 352 354 356 353 347 338 334 336 336 332 331 332 332 331 332
340 341 341 341 342 346 348 350 355 360 364 363 361 359 358 358 359 360 360 360 361 360 359 359 360 360 360 361 362 362 360 357 354 354 354 353 353 353 351 353 355 354 353 354 356 356 355 354 352 352 354 357 356 349 340 336 336 334 331 331 331 331 331
343 342 343 344 346 348 348 349 350 357 362 363 361 360 358 358 358 359 360 360 359 359 359 360 360 361 361 362 363 362 360 357 354 354 353 352 353 351 347 349 353 355 355 355 357 358 357 355 355 353 352 355 358 357 351 344 339 334 331 331 330 330 331
344 343 342 345 347 349 350 350 350 353 358 361 361 359 357 357 358 359 358 358 359 359 359 360 360 361 361 363 363 363 359 355 353 353 352 350 349 347 344 345 349 354 356 358 359 359 356 353 354 355 354 354 356 358 358 355 348 338 331 330 331 330 331
343 344 345 346 346 349 353 358 359 357 356 358 359 359 358 356 357 359 358 358 358 359 359 359 360 362 362 363 364 364 360 356 354 351 350 349 348 347 344 343 344 350 356 359 359 357 352 349 352 354 353 353 355 358 359 359 357 349 337 330 330 331 331
345 348 350 349 349 353 358 361 362 361 357 355 354 356 358 358 357 358 358 357 358 359 359 359 360 362 362 363 364 364 361 359 356 352 351 350 348 346 344 342 342 346 353 358 358 354 348 346 349 353 351 349 351 357 359 358 358 356 348 336 331 331 331
348 350 351 352 353 356 359 360 361 362 362 359 356 353 354 357 356 357 357 357 357 359 359 359 360 362 363 363 365 365 363 360 357 355 352 349 347 345 343 343 342 343 349 355 358 356 351 346 347 351 351 347 347 352 357 357 355 355 352 343 334 333 333
344 346 349 351 352 355 358 360 360 361 362 362 359 354 352 354 355 355 357 357 357 358 359 360 359 362 363 364 365 366 364 360 358 356 353 350 347 345 344 342 343 343 345 350 355 357 354 349 347 348 350 349 347 346 350 353 352 350 347 344 339 336 335
342 345 347 350 352 355 357 358 359 361 361 360 357 354 353 354 355 354 357 357 357 358 358 359 360 362 363 364 365 366 363 360 358 355 353 350 347 345 344 343 343 344 344 346 349 353 355 353 351 350 350 350 348 345 345 349 350 347 344 344 342 339 337
341 344 347 350 352 354 356 357 360 361 361 358 353 350 350 353 354 354 356 356 357 358 359 359 360 362 363 363 365 366 363 360 358 355 352 350 347 346 345 345 343 344 344 344 345 349 355 357 357 355 354 352 351 348 345 346 349 348 345 344 343 341 340
339 344 348 351 352 354 356 358 360 360 358 355 352 348 349 353 355 355 356 357 357 358 359 359 360 362 364 364 365 365 362 359 358 355 353 351 348 347 347 346 345 345 344 344 346 350 355 359 360 359 357 355 355 354 350 347 347 347 346 344 343 342 342
339 345 350 352 353 355 356 357 359 359 357 354 351 348 349 354 355 355 356 357 358 358 358 359 360 363 364 364 365 364 361 358 357 355 353 351 350 349 349 347 346 345 344 345 350 354 356 358 360 361 360 358 358 359 357 352 347 346 346 344 344 344 344
343 348 352 353 355 355 356 357 359 358 357 354 351 349 351 354 354 356 357 357 358 358 359 359 361 363 364 363 364 365 362 359 357 355 355 354 352 350 350 347 346 347 346 348 353 355 356 357 359 361 361 361 361 361 360 357 351 349 348 346 346 346 346
343 348 352 353 355 355 356 357 358 359 357 354 351 350 353 354 354 355 357 357 358 358 359 360 362 364 364 362 363 364 362 358 354 354 356 358 354 350 349 348 347 349 348 348 352 357 359 359 359 362 362 363 363 362 361 358 354 351 350 349 349 349 349
342 346 351 353 354 355 356 357 358 360 356 353 353 353 353 353 354 356 357 357 358 358 359 361 362 364 364 363 363 363 361 357 354 353 358 360 356 350 350 348 348 350 349 348 352 358 363 362 361 361 363 363 363 363 362 361 359 356 353 352 351 350 351
340 344 349 352 354 355 356 357 359 360 357 353 354 354 353 354 356 356 357 358 359 359 360 362 363 364 364 364 363 362 359 357 354 353 358 362 358 352 350 349 350 351 352 352 352 356 362 365 362 362 363 363 364 364 364 363 363 361 358 355 354 353 353
339 345 348 352 354 354 357 359 360 362 362 357 353 354 355 356 358 358 359 360 361 360 362 364 364 364 365 364 365 363 359 356 356 356 360 364 363 358 353 352 353 355 355 355 355 355 361 364 364 362 362 363 364 364 363 363 364 363 362 361 360 358 358
337 344 348 350 352 353 356 359 361 363 366 363 359 358 356 356 360 361 362 363 362 361 363 367 366 365 366 367 366 365 361 359 360 361 363 364 365 364 361 358 359 359 357 357 358 359 361 364 364 363 363 362 363 364 363 363 363 363 362 363 363 362 361
337 344 346 349 351 353 356 358 359 362 364 365 366 365 361 359 362 364 364 364 362 361 366 369 368 368 369 368 367 366 364 360 361 362 364 364 364 366 365 363 361 361 360 357 359 362 363 364 363 363 363 364 364 364 364 364 363 363 363 365 365 365 364
336 342 345 346 349 351 353 355 357 359 361 363 365 365 364 364 364 364 364 364 363 364 368 370 369 368 368 367 367 366 362 359 359 361 364 365 364 364 366 365 363 364 365 362 362 362 364 364 364 363 364 365 364 364 365 364 364 364 364 365 366 366 367
333 339 343 345 347 349 351 353 354 356 357 359 361 363 365 366 366 366 365 364 363 365 367 368 368 368 368 368 367 364 361 360 362 362 364 365 364 364 365 366 365 365 366 366 363 361 361 363 364 363 363 364 364 363 364 364 364 364 365 365 366 367 367
330 335 340 343 344 347 349 351 353 355 355 355 356 358 361 363 365 366 367 366 365 366 367 368 368 368 368 368 366 366 365 365 365 364 364 366 366 364 363 364 365 364 365 366 365 362 360 360 361 363 363 363 363 364 363 363 364 365 365 366 367 367 367
328 331 337 341 343 344 347 349 351 353 354 354 355 356 357 359 361 362 364 366 366 366 367 368 367 367 367 367 366 366 366 367 367 367 366 366 368 367 363 361 361 363 364 365 366 365 363 361 361 362 363 364 364 364 364 363 365 366 366 367 366 367 367

ECMWFFLT1_850_thetae_066.txt.gz
Theta_e
353 354 354 355 356 354 354 354 355 352 352 354 356 356 356 356 356 356 358 359 357 354 352 351 349 343 337 332 329 327 325 325 326 326 327 326 327 328 329 329 327 326 327 327 326 327 331 341 349 351 350 344 340 340 340 340 341 342 342 342 343 343 343
352 351 352 356 356 355 356 355 354 354 354 355 356 356 357 356 357 357 356 358 358 355 353 353 350 346 340 336 333 330 328 326 325 325 325 326 327 328 329 328 327 326 327 328 329 331 332 336 342 348 349 346 341 340 340 340 340 340 342 341 341 341 340
351 350 352 355 356 355 357 356 354 354 354 355 355 356 357 357 357 357 357 358 359 357 355 353 350 347 342 339 337 335 332 330 328 326 325 325 326 327 328 328 329 328 326 327 331 337 342 340 338 342 347 348 344 339 339 341 340 340 340 340 340 341 340
350 350 352 354 355 354 356 357 355 354 354 354 355 356 358 357 356 357 358 358 359 359 358 354 351 349 345 339 339 339 335 334 331 329 328 326 326 326 327 328 329 329 328 325 327 334 344 347 343 339 341 345 347 342 337 338 340 340 339 340 341 340 340
349 348 351 353 355 355 355 356 355 354 354 355 355 357 358 357 356 357 358 360 361 360 358 355 352 354 351 343 339 339 338 336 335 332 331 329 329 328 328 329 329 329 329 328 325 327 336 346 348 343 338 338 341 342 337 334 336 338 338 340 340 340 340
349 348 351 354 355 354 356 357 356 354 354 356 356 356 358 357 357 358 358 361 363 362 362 359 356 358 356 346 340 340 339 339 338 336 334 333 333 332 331 330 331 330 329 328 329 329 331 338 345 346 341 336 336 338 336 334 334 335 336 338 339 339 339
349 348 351 354 354 353 356 357 356 354 355 355 355 356 357 357 357 358 359 361 363 363 363 362 359 360 358 349 342 342 341 339 339 339 337 336 336 337 335 333 332 331 329 329 332 335 335 335 338 343 344 340 336 335 337 337 336 336 335 335 336 337 338
348 348 349 352 353 353 356 357 356 355 355 354 355 356 356 357 357 357 359 361 363 363 364 363 362 361 358 350 344 344 342 340 340 339 340 340 338 339 338 337 334 332 332 333 335 338 341 340 338 339 342 344 342 337 337 341 341 340 339 335 333 335 335
344 345 345 351 353 353 353 354 354 356 355 354 356 356 357 356 356 356 358 361 363 364 364 364 363 362 357 350 346 345 343 342 341 341 341 341 340 339 339 339 337 334 334 337 340 341 342 344 342 339 339 342 344 341 339 341 343 342 342 339 334 333 334
340 341 344 350 351 351 352 353 355 356 356 355 355 356 357 357 356 357 358 359 361 364 365 365 365 364 360 352 347 345 344 343 342 341 341 341 340 340 339 340 338 335 334 336 341 343 343 344 345 343 340 340 343 344 342 342 344 344 344 343 339 334 333
337 340 343 348 349 350 350 350 354 356 357 356 356 356 356 357 357 358 359 358 360 362 364 365 365 365 363 356 350 347 344 343 342 340 339 338 339 339 340 343 342 338 335 335 338 343 344 345 346 346 345 342 341 343 342 343 344 345 344 344 342 338 335
336 341 342 346 350 349 349 351 353 354 357 356 357 358 357 358 359 359 359 359 360 360 363 365 366 365 364 361 355 350 345 343 342 340 337 337 337 338 341 345 348 346 340 337 338 341 345 347 347 346 346 342 339 338 339 340 343 344 343 342 341 339 337
338 341 341 345 349 349 350 351 353 355 355 356 356 357 357 359 359 359 359 359 359 359 361 365 365 364 364 362 358 353 348 346 343 341 340 337 337 340 344 347 350 351 347 342 341 342 346 349 350 348 346 344 339 336 336 336 339 341 339 339 339 338 338
340 341 340 343 349 349 349 350 352 353 354 354 355 356 357 359 358 358 358 357 358 359 359 362 364 363 363 362 359 355 352 348 346 345 344 342 339 342 348 349 349 351 350 348 346 346 347 350 353 352 349 347 343 338 336 335 336 338 336 334 335 336 337
340 342 342 345 349 349 347 349 350 351 352 353 355 356 358 359 358 358 358 357 357 358 358 360 363 362 361 361 359 356 354 352 351 350 349 347 344 345 349 351 350 350 352 351 350 350 349 349 352 354 353 352 349 343 341 339 336 334 333 331 332 334 335
342 342 341 345 349 350 349 350 352 351 349 351 354 355 357 359 359 358 358 358 358 358 358 360 362 361 360 361 360 357 355 355 353 352 351 351 349 349 350 352 352 352 353 352 352 352 352 350 351 354 355 355 353 349 347 343 337 333 331 331 330 330 333
343 343 343 345 348 349 350 350 354 355 353 353 353 354 357 359 359 358 359 359 359 358 357 357 360 360 360 361 360 358 357 356 355 354 352 351 351 350 350 352 353 354 353 354 353 353 352 351 350 352 355 356 356 354 351 347 340 334 331 330 330 330 331
342 342 343 344 346 348 348 349 351 353 356 356 358 358 358 358 358 358 359 360 360 359 356 356 359 359 359 361 361 359 357 356 355 355 353 352 351 351 351 352 354 355 354 353 353 352 353 352 350 350 353 355 357 357 355 351 345 339 335 333 332 332 330
342 344 346 346 346 345 347 350 353 353 353 356 358 358 357 357 357 358 358 359 359 360 358 356 357 359 358 359 360 360 358 356 355 356 354 352 351 351 351 351 353 355 354 352 352 352 353 352 351 350 350 353 356 357 357 356 352 347 341 336 333 333 332
343 345 348 350 349 347 345 347 352 354 354 354 354 354 353 355 355 354 355 355 356 358 358 357 359 360 359 359 361 360 359 358 356 354 354 352 353 352 352 351 351 353 354 353 352 352 353 353 353 352 350 351 354 355 356 357 357 355 350 343 337 333 332
343 344 346 349 351 351 348 348 350 352 353 354 354 353 351 351 350 350 352 355 357 359 360 359 360 361 359 359 360 361 360 359 357 355 355 354 353 353 354 352 351 351 352 354 353 353 353 354 353 353 351 350 350 352 354 356 357 358 357 352 345 340 336
342 342 344 346 348 350 351 352 353 353 355 356 357 356 354 351 349 350 352 355 356 357 359 359 359 360 360 359 360 361 361 360 358 357 356 355 354 354 354 353 351 350 351 354 354 354 354 354 354 354 354 352 349 349 352 355 357 358 358 355 352 349 347
338 340 341 343 345 347 349 350 351 353 355 357 357 357 354 351 350 350 350 353 354 354 357 357 358 360 361 360 360 361 361 360 360 358 358 356 355 353 352 352 352 350 350 352 355 355 355 355 354 355 355 354 351 348 348 352 355 357 357 357 355 355 354
336 337 339 341 342 345 347 350 352 353 355 357 359 358 354 351 348 348 350 352 353 353 354 355 356 359 362 361 361 361 362 361 361 360 359 357 356 354 353 352 352 351 350 351 354 355 356 357 356 356 356 356 354 350 347 347 349 352 355 355 356 357 356
333 335 337 340 342 344 347 351 353 354 356 358 359 358 355 353 351 349 350 352 353 353 354 355 356 359 362 362 362 362 363 362 362 361 360 359 357 355 355 353 353 353 350 350 352 354 357 359 359 359 358 357 356 355 350 344 344 347 349 350 352 354 354
331 333 337 342 344 346 348 350 352 354 356 357 358 358 357 356 354 349 349 351 353 352 353 354 357 360 362 362 362 363 364 364 364 363 361 360 359 359 359 357 356 355 353 351 350 353 357 360 361 362 361 359 358 358 355 350 348 347 346 345 346 348 350
331 334 338 342 346 349 350 350 352 354 356 356 357 359 359 358 355 351 350 351 352 354 353 354 356 359 361 362 363 363 363 364 365 365 364 363 362 362 362 361 359 358 355 353 352 353 356 359 361 362 362 361 359 359 357 356 353 350 347 344 344 346 348
332 336 339 343 347 349 350 351 353 355 357 357 358 359 360 359 355 352 352 351 352 353 355 356 357 360 361 363 363 363 364 365 366 365 366 366 365 363 363 361 360 359 358 356 354 354 354 356 358 360 362 361 360 360 359 358 357 354 351 348 346 347 348
332 335 339 343 347 349 350 352 353 355 358 357 358 359 359 358 355 352 350 351 351 352 355 357 358 360 361 362 364 363 364 365 366 367 367 368 367 365 362 362 361 362 360 358 356 355 354 354 357 358 360 361 361 361 360 360 360 358 356 354 352 351 350
331 335 339 343 345 349 351 352 353 356 358 358 359 362 361 358 354 350 348 351 352 353 356 358 359 360 361 362 362 364 366 366 367 368 368 367 369 367 363 362 363 363 362 359 357 356 356 354 355 356 358 360 360 361 361 362 360 359 358 357 356 355 353
330 333 337 341 345 349 351 352 354 357 359 360 362 363 362 358 354 351 349 351 354 356 357 357 358 360 360 361 363 364 366 367 368 368 368 367 368 367 364 364 364 363 362 361 359 357 357 356 356 356 357 358 359 360 361 361 361 360 358 357 356 356 355
329 332 337 341 345 348 350 351 354 357 361 363 364 363 361 357 355 352 351 354 357 357 357 357 359 360 360 361 363 364 367 369 369 368 367 367 368 367 366 366 365 363 363 363 361 358 357 357 357 357 357 357 358 359 359 360 360 360 358 357 355 355 354
327 331 335 339 343 346 348 351 354 358 361 364 365 364 362 359 355 353 354 357 358 357 357 358 359 361 361 362 363 364 367 368 368 367 367 368 368 367 367 367 366 365 364 362 359 359 359 358 358 357 357 358 358 357 358 359 360 360 360 358 355 352 354
326 329 333 337 342 345 347 350 354 357 359 362 365 366 363 360 356 357 358 359 360 358 358 359 360 360 362 363 364 365 367 368 367 366 366 368 368 367 368 368 368 366 363 358 356 357 358 357 357 357 357 358 358 357 357 358 358 359 359 357 354 353 355
326 327 330 334 339 344 346 350 353 355 357 360 363 365 365 361 358 360 362 361 361 359 358 359 361 362 363 363 365 366 367 367 367 367 367 367 368 368 368 368 368 367 363 359 356 356 355 354 355 355 357 359 358 356 356 356 355 355 356 356 356 358 358
326 327 329 332 337 343 346 349 352 354 356 358 361 363 366 365 361 361 363 362 360 360 359 360 362 363 364 365 365 367 368 368 367 368 367 366 367 368 369 368 368 367 365 362 360 359 358 356 354 355 357 359 357 356 356 355 354 355 356 359 360 361 360
325 326 328 331 335 341 345 347 350 354 355 357 358 360 363 365 364 362 363 363 362 362 362 361 363 365 365 365 366 367 368 368 367 368 367 366 367 368 368 368 368 367 365 364 363 362 360 360 358 358 358 359 358 358 357 357 358 359 359 360 360 361 362
324 325 327 330 333 337 341 344 348 352 355 355 357 358 358 361 364 364 363 363 364 365 366 364 364 365 366 365 365 367 368 367 367 368 367 366 367 367 367 367 367 366 365 366 366 364 361 359 359 360 360 359 359 360 361 360 360 361 362 362 363 363 364

ECMWFFLT1_850_thetae_069.txt.gz
Theta_e
351 353 353 353 353 354 354 353 351 352 352 352 354 353 354 354 354 354 354 353 353 351 349 347 343 336 332 330 327 326 327 328 329 330 329 329 330 329 331 334 336 335 334 333 330 329 329 331 334 336 338 340 339 338 340 342 344 343 343 348 351 348 345
352 352 352 353 355 354 354 353 352 351 352 352 353 354 353 355 355 355 355 355 354 353 350 348 345 340 334 331 328 326 326 327 327 328 328 328 328 328 328 329 329 328 328 327 327 327 327 328 331 334 337 339 339 339 338 339 340 341 341 343 346 345 342
351 351 352 353 354 355 355 354 352 351 351 352 353 354 354 355 355 355 356 355 355 354 352 349 346 343 337 333 331 328 326 326 326 327 327 327 327 327 327 327 327 327 326 326 326 326 326 326 329 334 337 338 337 338 339 338 338 339 339 339 341 342 340
352 352 352 353 355 355 355 355 353 352 352 352 353 353 355 355 355 355 355 356 356 355 354 351 349 346 342 337 334 331 328 326 326 326 326 326 326 327 326 326 326 326 326 327 326 326 326 326 328 333 336 334 333 336 337 338 338 339 338 337 338 339 339
353 354 354 355 356 355 354 354 353 352 352 353 354 354 355 354 355 355 356 356 356 356 355 353 351 349 345 341 337 335 332 329 327 326 325 325 326 326 327 327 326 327 327 327 327 327 327 327 328 332 336 333 331 332 333 335 337 339 339 337 336 337 337
353 354 354 355 355 356 354 353 353 352 353 354 355 354 355 355 355 355 356 356 356 357 356 355 353 351 348 345 341 338 336 333 330 328 327 326 325 325 325 325 326 326 327 326 326 328 330 330 330 331 335 334 332 331 331 332 333 335 337 338 337 336 337
353 353 354 354 355 355 354 354 353 353 354 354 353 354 354 355 356 355 355 356 356 357 357 356 355 353 350 348 345 342 340 337 335 332 329 327 326 325 325 325 324 325 325 325 326 327 331 334 335 335 337 337 334 332 330 330 332 333 334 335 336 337 337
352 353 353 353 355 355 355 354 354 354 354 355 354 354 353 354 355 356 356 356 357 357 357 357 356 355 353 351 349 347 343 340 338 335 333 330 329 328 326 325 325 324 324 324 324 324 327 331 336 339 341 341 339 334 332 330 331 332 333 333 334 335 336
351 352 352 353 353 355 356 355 355 354 353 354 354 355 354 355 356 356 357 357 357 357 357 358 357 356 354 353 351 349 347 344 341 337 336 334 332 331 329 328 327 326 325 324 324 324 324 326 331 335 338 341 340 337 334 332 331 332 332 332 333 333 334
351 351 350 352 354 354 355 355 355 355 353 353 354 354 354 355 355 356 356 357 357 358 358 358 358 358 357 356 353 352 351 349 346 342 339 337 335 333 332 330 329 328 327 326 326 325 324 324 327 330 333 336 337 335 334 333 332 331 331 332 333 333 333
350 350 350 351 352 353 353 354 355 355 355 354 354 355 355 354 355 356 356 357 357 358 359 359 359 359 359 358 357 355 354 352 350 347 342 339 338 336 334 332 331 330 329 328 327 326 326 325 327 329 333 334 334 333 333 332 331 331 331 330 331 333 333
349 349 350 349 350 352 353 354 354 354 355 355 354 355 355 355 356 356 357 357 357 358 359 360 360 361 360 359 360 359 356 355 353 351 346 342 339 338 337 335 333 332 331 330 329 328 328 328 329 330 333 334 334 334 332 332 332 331 331 331 331 332 333
348 348 350 350 350 352 353 354 354 354 355 356 354 354 355 355 356 357 357 357 357 358 359 359 361 362 362 361 361 360 359 357 356 353 349 345 342 340 338 337 335 334 332 331 330 330 330 331 331 332 333 335 336 335 335 334 334 334 334 334 332 331 331
348 348 350 351 351 352 353 354 355 354 355 355 353 353 355 356 355 356 357 357 357 358 358 359 360 362 362 362 362 361 359 358 358 356 351 346 344 342 340 339 338 336 334 333 332 332 332 332 333 333 334 336 336 337 337 337 337 337 337 336 334 332 331
349 349 350 350 351 353 353 354 355 355 354 353 353 354 354 355 356 355 356 357 356 358 358 358 359 361 362 363 363 362 360 359 359 357 353 349 346 343 342 341 340 339 337 336 334 334 333 334 334 335 336 337 338 338 340 340 340 339 338 337 335 333 332
348 348 348 347 349 352 354 355 356 356 357 355 354 355 354 355 355 355 355 356 355 357 358 358 359 361 362 363 363 363 362 361 361 359 356 353 348 345 343 342 343 342 341 339 337 336 336 336 336 338 339 339 340 340 341 342 341 340 338 337 335 333 333
347 348 348 346 347 350 351 353 356 357 359 358 356 356 355 355 355 355 356 356 356 357 357 357 358 360 362 363 364 364 363 362 361 359 358 355 351 346 343 343 343 344 343 341 339 339 339 339 339 342 343 342 341 342 343 342 340 339 339 338 337 336 335
343 345 347 347 347 348 348 350 353 355 357 360 359 359 358 356 357 356 356 357 357 358 357 357 358 360 361 363 363 364 364 363 362 361 358 357 354 350 345 343 343 343 343 342 342 342 343 343 343 344 345 345 344 344 344 343 341 338 337 338 337 336 336
339 340 342 344 345 347 348 349 352 353 354 356 357 358 359 358 358 357 357 358 358 359 358 359 359 359 360 361 362 363 364 364 363 361 359 358 355 352 348 345 344 343 343 343 343 344 345 345 346 346 347 348 348 347 347 346 344 342 340 340 338 336 336
336 336 338 339 341 343 345 347 349 351 351 352 353 355 356 357 357 359 359 359 359 359 359 359 359 359 359 360 360 362 364 364 363 361 359 357 356 354 351 348 346 343 342 343 344 346 346 348 348 348 349 349 350 350 350 349 347 345 344 343 341 339 337
333 333 334 336 337 339 341 343 347 349 350 352 353 354 355 355 356 359 360 359 359 359 359 358 358 358 358 359 358 360 362 364 363 362 360 358 357 356 354 351 348 346 345 345 347 347 348 349 350 350 349 350 351 352 352 352 350 348 346 345 343 342 341
331 330 331 333 335 337 340 342 343 347 349 351 351 353 354 355 354 355 356 357 359 360 359 358 358 357 356 356 356 356 360 363 363 362 360 359 357 357 356 353 351 349 348 349 349 349 349 350 351 352 351 350 351 352 352 353 352 351 349 347 344 344 345
328 328 330 333 335 336 339 341 343 344 345 348 352 354 355 356 355 355 354 354 355 357 358 358 358 357 356 356 355 354 357 361 362 361 360 359 358 358 357 356 354 351 350 351 352 352 351 351 352 353 352 351 351 351 352 353 352 352 351 350 348 349 350
327 328 330 332 334 336 337 340 343 345 345 345 350 353 356 356 357 356 355 353 352 353 355 355 356 355 356 357 356 354 355 360 362 361 360 360 358 358 357 357 356 353 352 351 352 353 353 353 353 353 352 352 351 349 351 352 352 353 352 352 352 353 352
327 328 329 332 334 336 337 339 342 346 348 347 348 350 353 355 355 355 355 354 351 352 352 353 353 354 354 354 354 354 355 358 361 361 360 359 358 358 358 357 357 356 353 352 353 354 354 353 353 353 353 352 351 349 348 349 350 352 353 353 354 354 353
327 328 330 332 334 335 338 340 342 345 346 347 348 350 353 355 355 356 356 355 353 351 351 351 351 352 354 353 351 351 353 356 361 362 361 360 359 358 358 358 358 357 355 354 353 354 355 354 353 353 352 351 351 351 350 349 349 350 352 353 355 355 354
326 328 329 331 333 336 337 340 343 345 346 345 347 350 354 357 357 357 358 357 356 353 350 349 350 351 354 354 352 351 353 356 360 362 361 360 359 359 359 359 358 358 357 356 354 354 355 355 354 353 353 353 352 352 352 351 349 349 348 350 352 354 355
326 328 329 331 333 335 338 339 342 344 346 346 346 349 351 354 356 357 358 359 359 357 352 351 351 351 352 353 353 354 355 357 361 362 362 361 360 360 359 359 359 359 358 357 355 354 354 355 354 354 354 354 353 353 353 353 351 350 348 346 347 349 351
326 327 329 331 332 334 338 340 343 345 347 348 348 348 349 352 354 354 356 358 359 359 357 354 351 351 351 353 354 355 355 358 360 363 362 361 361 361 360 360 360 360 359 358 357 355 355 354 355 355 355 355 355 355 354 354 353 351 350 349 347 346 346
326 328 328 330 332 335 337 340 343 346 348 349 350 350 352 356 359 359 359 360 359 361 362 359 353 350 351 352 353 355 356 358 361 363 363 362 362 362 362 362 361 360 360 360 359 357 355 355 355 356 356 357 357 357 356 356 355 353 351 350 350 348 347
326 327 328 329 332 334 337 340 342 345 348 349 350 351 355 358 361 362 363 361 360 361 363 362 356 350 350 351 352 353 354 356 360 363 364 363 363 363 363 362 362 362 361 360 360 358 357 355 356 356 357 358 358 358 357 356 356 355 353 352 352 351 351
324 327 329 329 331 334 337 340 342 344 347 348 348 351 355 358 360 363 363 360 359 361 361 360 358 354 351 351 351 352 354 358 361 363 364 364 364 364 364 363 363 362 363 362 361 359 358 357 356 356 357 357 358 358 357 357 357 356 355 355 354 354 353
323 326 328 329 330 333 336 339 342 344 345 346 347 350 354 357 360 363 363 362 362 360 357 357 356 352 352 353 351 351 354 359 363 365 364 365 365 365 365 365 364 364 363 363 363 362 360 358 357 357 357 357 358 358 358 358 358 358 356 356 356 355 354
322 324 326 328 331 332 335 338 341 341 342 343 345 348 351 354 358 361 363 365 365 361 356 356 354 350 351 353 354 355 356 359 363 365 365 365 366 366 367 366 365 365 365 365 365 363 362 360 358 357 357 356 357 358 358 358 358 356 354 353 352 351 351
322 323 325 327 330 331 333 336 338 338 339 342 345 348 350 353 355 360 362 365 368 366 361 357 353 350 351 352 354 357 359 361 364 364 365 366 366 367 367 367 366 366 365 366 365 365 363 362 359 358 357 355 355 355 356 356 355 350 347 345 344 345 347
322 323 323 325 328 331 332 334 335 336 338 342 346 349 351 352 354 357 360 364 368 369 368 363 357 354 356 356 356 358 361 363 365 364 365 366 366 367 367 368 367 367 367 367 367 365 364 363 361 358 357 355 353 351 350 348 346 343 343 344 345 347 348
321 323 322 322 325 329 331 332 332 333 336 341 345 348 351 352 353 354 358 362 365 368 370 368 362 360 361 360 359 360 362 363 365 365 366 366 367 367 367 367 368 368 368 368 367 365 365 364 363 360 358 355 352 350 348 346 345 345 345 346 348 350 352
321 322 321 320 322 326 329 330 330 331 333 337 342 346 350 352 354 354 356 359 362 366 370 371 367 363 363 362 362 363 364 364 365 366 367 366 367 366 366 366 367 368 368 368 367 367 366 366 365 363 360 357 355 352 350 350 350 350 350 349 350 352 352

ECMWFFLT1_850_thetae_072.txt.gz
Theta_e
354 354 352 352 352 351 351 352 351 351 351 351 351 350 350 350 349 347 347 348 347 345 343 341 338 337 335 333 330 331 332 333 336 338 338 337 337 337 335 337 338 336 337 340 340 338 337 339 339 339 340 339 340 340 340 341 342 344 346 345 345 346 347
354 353 352 352 352 352 352 351 351 351 351 351 351 351 351 350 349 349 348 348 349 347 346 342 340 339 336 334 330 330 331 332 335 337 338 337 336 335 334 334 335 335 336 336 338 339 338 338 338 338 339 339 340 339 338 339 340 343 344 343 343 344 345
354 354 352 351 352 352 352 352 351 352 351 351 351 351 351 351 350 350 349 349 349 349 348 346 344 342 340 336 331 329 329 331 333 336 336 335 334 334 333 332 332 332 333 334 335 335 335 335 334 335 336 337 339 339 338 338 339 341 342 342 342 342 341
353 353 351 350 351 350 352 352 351 352 351 351 352 351 351 351 351 351 351 350 350 350 350 349 347 346 344 341 334 329 328 329 331 334 334 332 332 333 333 331 330 328 329 330 330 330 329 329 328 330 332 335 337 338 337 337 337 339 340 340 341 341 340
351 352 351 350 351 350 351 352 351 351 351 352 352 351 352 352 351 352 351 351 351 351 351 351 350 349 347 344 338 330 328 328 329 331 332 331 330 331 332 331 329 327 327 327 327 328 327 326 326 327 328 330 335 338 339 337 337 337 338 338 339 339 339
350 350 350 350 350 351 351 352 351 351 351 351 352 352 352 352 352 352 352 352 352 352 352 351 350 350 349 347 341 334 329 327 327 328 329 330 329 330 330 329 328 327 327 326 326 327 326 326 326 326 326 327 330 334 336 337 337 337 337 338 337 337 337
350 349 350 349 350 351 351 352 352 351 351 351 351 352 352 352 352 353 353 352 353 352 352 352 352 351 351 349 345 339 333 329 327 327 327 328 328 328 328 328 328 327 327 327 327 326 326 326 326 325 326 326 327 329 331 332 334 336 337 337 337 337 336
350 350 349 349 351 352 352 352 352 351 351 351 351 352 353 353 353 353 353 353 353 353 353 352 353 352 351 350 349 345 339 333 330 327 326 327 327 327 327 327 327 327 327 327 327 327 326 326 326 326 325 326 326 328 329 330 331 332 334 336 337 336 336
351 350 349 349 351 352 353 353 352 353 352 351 351 352 353 353 353 353 354 353 353 354 353 354 353 353 352 352 350 348 344 341 336 331 329 327 326 326 326 326 326 326 327 327 326 326 326 326 326 326 326 325 326 327 328 329 330 330 331 332 333 334 335
351 350 350 349 350 352 353 352 352 353 352 352 352 351 352 353 353 353 354 354 354 354 354 354 354 354 353 353 351 350 347 345 342 338 333 330 328 326 326 326 325 325 325 326 326 326 326 327 326 326 326 326 325 326 327 328 329 329 330 330 332 333 333
351 350 351 350 350 352 353 353 353 353 352 352 351 352 352 352 353 353 354 354 354 355 355 355 354 355 354 354 353 352 349 348 345 343 339 335 331 329 328 327 325 325 324 325 324 325 325 325 325 325 325 325 325 325 325 326 328 327 328 328 330 331 332
353 352 351 352 352 352 353 353 354 353 353 353 352 353 352 352 353 354 354 354 355 354 355 355 355 355 355 355 354 353 353 350 348 346 343 339 336 334 332 330 328 327 326 326 325 325 324 324 324 324 324 324 325 325 324 325 326 327 327 327 328 329 330
351 351 351 352 352 353 353 353 353 353 353 353 353 352 353 353 354 354 354 354 355 355 355 355 356 355 356 355 355 355 354 353 351 349 346 343 340 338 336 334 332 330 328 328 327 327 325 325 325 324 324 324 324 324 324 325 326 326 326 327 328 329 329
350 350 351 351 352 353 354 353 354 353 353 353 352 353 352 353 354 354 354 355 354 356 356 355 356 356 356 357 356 356 355 355 354 352 350 347 345 343 341 338 336 334 332 331 330 329 328 327 326 325 325 325 324 324 324 325 326 326 327 327 328 329 329
345 346 347 348 350 352 353 353 354 354 354 354 353 353 353 353 354 354 355 355 355 356 356 356 356 356 357 357 357 357 356 356 355 354 353 352 349 347 345 342 340 338 336 334 332 332 330 330 329 328 327 326 326 325 325 325 326 326 327 328 329 330 331
337 339 340 342 343 346 348 351 354 354 355 355 354 354 354 354 355 354 354 354 355 355 355 356 357 357 357 357 357 357 357 357 357 356 356 355 353 352 350 347 345 342 339 337 335 334 333 331 330 329 329 328 327 326 326 326 326 327 327 328 329 330 331
333 335 337 338 339 341 344 347 351 354 355 356 356 355 355 355 356 356 355 355 355 356 356 357 358 358 358 358 358 358 358 358 358 357 358 357 357 356 354 352 350 346 344 341 339 338 336 334 333 331 330 329 328 328 327 327 327 327 328 329 330 331 332
331 332 335 336 337 339 341 342 346 350 352 354 357 356 356 356 356 356 357 356 356 356 356 357 358 358 359 359 359 359 359 358 359 359 359 359 358 357 355 354 352 351 348 345 343 341 339 338 336 335 333 332 330 330 330 329 329 328 329 330 331 332 333
328 330 332 334 336 337 339 340 342 346 349 350 354 357 356 356 355 356 357 357 357 357 357 357 357 358 359 359 359 359 359 360 361 361 360 360 360 358 357 355 354 353 351 349 346 344 343 341 339 338 337 335 333 332 332 331 331 330 331 331 332 334 336
327 328 330 332 334 336 338 338 337 342 348 348 349 352 354 353 353 355 356 356 356 357 357 357 357 358 358 359 360 359 360 361 361 361 362 362 361 360 359 358 356 355 353 351 349 347 346 344 342 341 340 338 337 335 334 333 332 331 332 332 334 336 339
326 327 328 330 332 334 337 336 332 336 343 345 345 348 350 352 353 354 356 356 356 356 357 357 357 358 358 358 358 358 359 360 360 361 362 362 363 362 361 360 358 356 354 352 350 349 348 347 345 343 342 341 340 339 337 336 334 333 334 334 336 339 341
325 327 328 329 331 332 334 336 335 337 340 343 344 346 350 353 353 353 355 357 356 356 356 356 357 356 357 356 357 357 356 357 357 359 361 362 362 363 362 362 361 358 356 354 352 351 349 348 348 347 345 343 342 341 340 338 337 337 337 337 339 342 343
324 326 327 328 330 331 331 333 335 337 339 341 343 346 349 353 354 353 353 355 357 358 357 357 357 356 356 357 356 356 356 355 356 358 360 360 361 362 362 362 362 361 359 356 354 352 351 350 350 349 348 346 344 342 341 340 340 340 339 340 342 345 347
324 325 326 327 328 329 329 329 331 333 336 339 343 345 347 351 353 354 354 354 356 357 357 357 358 358 358 357 357 357 358 357 357 358 359 360 360 361 362 362 363 362 361 359 357 355 353 352 351 350 349 348 345 343 343 342 342 342 341 342 344 348 350
324 325 325 326 328 328 328 327 327 329 331 335 340 344 347 350 351 353 354 355 356 356 356 356 357 358 358 358 358 359 358 358 358 358 358 359 359 359 361 362 363 362 361 360 359 356 354 353 352 351 350 349 347 346 345 344 344 344 344 343 346 350 351
324 325 325 326 327 328 328 327 327 327 327 330 335 340 343 347 351 353 355 357 357 357 356 356 355 355 357 357 358 359 359 358 358 358 358 358 358 359 360 361 362 362 362 361 359 357 355 353 352 351 350 349 349 348 348 347 347 346 346 346 347 350 352
323 325 326 326 327 328 328 327 326 326 326 328 333 339 343 345 348 352 355 355 356 356 357 357 357 356 356 355 354 356 357 357 358 358 357 357 357 358 359 361 361 362 361 361 360 358 356 354 352 352 351 350 350 350 349 349 348 348 348 348 348 350 352
322 324 326 326 327 327 328 328 327 325 326 326 330 337 344 347 346 347 351 352 354 354 355 358 359 359 359 358 355 353 353 354 356 357 357 357 356 357 358 359 361 361 361 361 359 358 357 356 354 352 352 352 352 352 351 351 350 350 349 349 349 349 351
320 323 325 326 327 327 328 329 329 328 327 326 328 333 341 347 348 347 346 345 345 347 351 356 359 361 363 362 361 358 355 352 353 353 355 355 356 356 356 356 359 361 361 360 360 359 357 357 355 353 354 353 353 353 352 352 352 352 351 350 350 349 349
318 321 324 326 327 328 328 329 331 332 330 328 329 332 337 342 347 349 347 345 346 348 352 355 358 360 362 363 363 362 360 357 354 352 352 353 355 356 355 355 358 361 362 361 360 359 358 358 357 355 354 354 354 354 354 353 353 353 353 351 351 350 349
319 319 322 325 327 329 330 330 332 334 334 332 330 332 334 337 342 346 348 348 350 354 356 357 358 359 360 361 362 362 363 361 358 355 352 351 353 355 355 355 357 359 362 361 361 360 359 359 357 357 355 355 355 354 354 354 354 353 353 352 351 351 350
319 319 321 324 326 328 330 331 332 334 335 335 334 334 334 335 337 342 346 348 351 353 356 358 359 359 359 360 361 361 362 361 360 358 354 351 352 353 354 355 356 358 360 361 361 361 360 359 359 358 356 355 354 355 354 355 355 354 353 352 352 351 350
319 319 321 323 324 326 328 330 332 334 334 335 336 335 335 335 336 339 344 346 348 351 353 355 357 359 360 361 361 361 361 361 360 359 355 352 351 353 355 356 357 358 361 361 361 361 360 360 359 358 358 356 355 355 355 355 355 355 354 353 352 351 350
319 319 320 322 323 324 326 328 330 332 333 334 335 336 336 337 337 339 341 343 346 348 350 353 355 358 361 362 362 362 361 360 360 358 355 353 352 353 356 358 359 361 361 361 361 361 361 360 360 359 358 358 356 356 355 355 355 355 354 353 351 349 350
319 318 319 321 322 322 324 326 328 330 331 333 334 336 336 337 338 339 340 342 344 346 348 350 353 356 360 363 364 363 360 359 360 358 355 352 353 353 354 357 358 360 361 361 361 361 361 360 360 359 360 359 358 356 356 356 355 353 351 350 349 347 348
319 318 319 321 322 322 323 325 327 329 330 332 334 335 336 338 339 340 341 342 343 345 347 349 351 354 358 363 365 365 362 361 362 360 356 353 354 356 357 358 359 359 360 361 362 362 362 361 361 361 361 359 359 358 357 356 354 351 351 353 351 349 348
319 318 318 320 321 321 322 324 326 328 329 331 333 334 335 337 339 340 341 342 343 344 346 347 350 352 356 361 364 366 366 366 365 362 356 353 355 357 358 359 361 362 362 362 362 362 362 362 362 362 361 361 360 359 358 358 355 354 354 354 353 352 351
319 318 318 319 321 321 320 322 324 326 327 329 332 334 335 336 338 340 341 342 343 344 345 346 348 351 354 359 363 366 368 369 367 362 357 355 356 358 359 358 360 361 362 363 364 364 363 363 363 362 362 362 362 361 360 359 358 356 355 355 354 354 353

ECMWFFLT1_850_thetae_075.txt.gz
Theta_e
353 353 352 351 351 351 350 350 350 349 348 348 347 346 346 345 346 346 346 346 346 346 346 343 341 342 343 341 337 334 333 333 333 334 335 335 333 333 333 334 334 336 337 337 338 337 335 336 337 338 338 338 338 338 338 340 341 342 344 345 346 348 349
353 354 353 352 351 351 351 350 350 350 349 348 348 347 347 346 346 346 346 347 347 347 347 345 343 342 342 341 338 335 333 333 333 333 334 334 333 332 333 334 333 332 334 336 336 336 334 335 337 338 338 338 337 337 338 339 340 340 341 342 343 346 347
353 353 354 353 352 351 351 351 350 350 349 349 349 348 347 346 346 346 347 347 348 347 347 346 345 342 342 342 340 336 334 333 333 333 333 334 334 333 334 335 335 333 332 334 336 336 335 335 336 337 338 338 338 338 338 338 338 339 340 340 341 343 345
352 354 353 353 353 352 352 351 350 351 350 350 349 349 348 347 347 347 347 348 348 348 347 347 346 344 342 342 341 337 334 333 333 333 333 333 333 334 334 335 336 334 333 333 334 335 335 335 336 337 337 338 338 338 338 338 338 338 339 340 339 340 342
352 354 353 354 353 352 352 351 351 351 350 350 350 349 349 348 347 347 347 347 348 348 349 348 347 346 344 343 342 339 334 332 333 333 333 332 333 333 333 334 335 334 333 332 332 334 335 335 336 336 337 337 337 338 338 338 338 338 338 339 339 340 340
352 354 354 354 353 352 353 352 351 351 351 350 350 349 350 349 349 348 347 348 348 348 349 348 348 347 346 345 344 342 338 333 333 333 332 333 333 332 333 333 334 333 332 331 331 333 333 334 335 334 333 332 332 334 335 336 337 337 337 338 338 339 339
352 353 354 354 353 353 353 352 351 351 351 351 350 350 350 350 349 349 348 348 348 348 349 348 348 348 348 347 346 344 341 336 333 333 332 332 332 333 332 333 333 332 331 331 330 330 331 331 331 330 328 327 328 329 331 334 336 337 336 337 337 337 338
349 352 353 354 353 353 352 352 352 351 351 351 350 350 350 350 350 349 349 348 348 348 348 349 348 348 348 348 347 347 345 342 337 335 333 331 332 332 332 333 333 332 332 331 329 328 327 327 327 327 327 326 326 326 327 330 333 336 337 336 337 337 338
348 351 352 353 353 352 352 352 351 351 351 351 351 351 351 350 350 350 350 349 348 349 348 349 349 348 349 349 348 348 347 346 343 339 336 333 331 332 332 332 333 333 333 331 329 328 327 326 326 326 326 326 326 325 325 327 328 331 332 334 334 336 336
347 349 351 352 352 352 351 351 351 351 351 351 351 351 350 351 350 351 350 349 349 349 349 348 348 349 349 349 349 349 349 348 347 345 341 335 331 330 331 332 333 334 334 332 331 330 327 327 326 326 326 325 326 326 326 326 326 327 329 330 331 332 333
349 348 349 349 350 351 351 351 351 351 351 351 351 351 351 351 351 351 351 350 350 350 349 349 349 349 349 349 350 350 350 350 349 348 345 339 333 330 330 332 334 334 334 333 333 331 329 327 326 326 326 325 326 326 326 326 325 325 326 327 329 329 330
347 348 350 349 349 350 350 351 351 350 351 351 350 351 351 351 351 351 351 351 351 351 350 350 350 349 350 350 350 351 351 351 350 349 348 344 338 332 329 329 331 333 334 333 333 332 330 328 327 326 326 326 326 326 326 326 326 325 326 326 326 328 329
339 342 346 349 350 351 351 352 351 351 351 351 351 351 350 351 351 351 352 352 351 351 351 351 351 351 351 350 351 351 351 352 351 351 350 349 345 339 333 330 328 329 330 331 332 331 329 328 327 327 326 326 326 326 326 326 326 325 325 325 325 326 327
334 336 339 343 347 350 352 352 352 351 352 351 351 351 350 351 351 351 352 352 352 352 352 351 352 351 352 351 352 352 352 352 352 352 352 350 349 346 341 336 332 329 328 329 330 330 328 327 326 326 326 325 326 326 326 325 325 325 325 324 325 325 325
330 332 334 337 340 343 347 351 352 352 352 351 352 352 350 351 351 352 352 352 352 352 352 353 353 352 353 352 352 353 353 353 352 353 353 352 351 350 348 344 340 336 332 331 330 329 328 327 327 326 325 325 324 324 324 324 324 324 324 324 323 324 324
328 329 332 333 336 338 341 345 349 351 352 352 352 352 351 351 351 351 352 352 353 353 353 353 353 353 353 353 353 353 353 353 353 353 353 353 353 352 351 350 347 343 340 337 335 333 331 329 328 327 327 325 325 325 325 324 324 324 323 323 323 323 324
328 328 330 332 334 336 337 340 345 348 350 351 352 352 351 352 352 351 352 352 352 353 353 354 354 354 354 354 354 353 353 354 354 354 354 354 354 354 353 353 352 349 347 344 341 339 336 334 332 331 330 329 328 328 327 327 326 326 325 324 323 324 324
326 327 328 330 332 334 335 337 340 344 346 348 351 353 353 353 352 353 353 352 353 353 353 354 354 354 355 354 354 354 354 354 354 354 354 354 354 354 354 354 354 353 352 349 347 344 342 340 338 336 334 333 332 331 330 330 329 328 327 327 326 325 324
325 326 327 327 328 330 333 335 337 340 343 346 348 350 352 353 354 353 354 354 354 354 354 354 355 355 354 355 355 355 354 355 355 355 355 354 355 354 355 354 355 354 354 353 352 350 348 346 344 342 340 338 336 335 334 333 332 330 330 329 328 326 326
324 325 326 326 326 327 329 332 334 337 339 342 346 348 350 352 354 355 354 354 354 354 354 354 355 355 356 355 355 356 356 355 355 355 355 355 355 355 355 355 355 356 355 355 355 354 353 351 350 347 345 343 340 339 337 336 335 334 332 331 329 329 328
323 324 325 326 326 327 327 328 330 334 335 338 342 347 349 351 352 353 355 355 355 355 354 354 353 354 356 357 356 356 356 356 356 356 356 356 355 356 356 356 356 356 357 357 357 357 355 354 353 351 349 346 344 343 341 339 338 336 335 333 331 330 330
323 324 325 325 326 327 328 327 327 329 331 334 339 343 345 348 351 352 353 355 355 355 355 354 353 352 353 356 357 357 356 357 357 357 357 356 356 356 356 356 357 357 357 358 358 358 358 356 355 353 351 349 348 346 343 341 339 338 336 335 334 334 333
322 323 325 325 325 326 327 328 326 325 326 330 335 340 343 345 349 352 352 353 353 354 354 354 354 352 352 355 357 358 357 357 357 358 357 357 358 357 357 358 358 358 359 359 359 360 359 358 357 354 352 350 349 347 344 342 340 339 338 336 336 337 337
321 323 324 325 325 326 326 327 326 325 325 324 329 335 340 344 347 350 352 353 354 354 354 354 354 354 354 355 356 357 357 358 358 358 358 358 359 358 358 359 358 359 359 359 359 360 360 359 359 358 355 352 348 345 345 343 341 341 339 337 337 338 339
320 322 324 324 324 325 326 326 325 324 323 322 323 328 333 339 344 347 350 353 354 354 355 355 355 355 355 356 356 357 357 357 357 358 358 359 359 359 359 359 359 360 359 359 359 360 361 361 360 360 358 356 352 348 346 345 343 342 341 339 338 340 341
320 321 323 325 324 325 325 325 325 324 322 320 321 323 327 330 335 341 345 349 352 354 355 357 357 357 356 356 356 356 357 357 357 357 357 358 358 358 359 358 359 359 359 359 360 360 360 361 361 361 360 359 358 354 351 348 345 343 341 339 339 340 341
319 320 322 324 325 325 326 326 325 324 324 323 322 322 324 325 327 331 339 345 348 350 353 355 357 358 359 358 357 357 357 356 356 357 357 357 357 357 358 358 358 359 358 359 360 360 360 361 361 361 361 361 360 358 355 353 348 344 341 340 340 340 342
319 319 320 323 325 326 327 328 327 326 325 323 323 322 323 324 323 324 331 338 344 346 347 350 352 354 357 359 361 361 360 358 357 356 356 356 357 358 358 358 358 358 359 359 360 360 360 360 360 360 361 361 361 359 358 356 353 348 345 342 341 341 342
318 319 319 321 324 326 327 328 329 328 327 325 323 322 323 324 322 321 324 330 334 337 341 345 347 349 352 356 359 362 363 362 362 361 359 357 356 356 357 358 358 358 358 359 359 360 360 360 360 360 361 361 360 360 359 358 356 353 349 345 342 343 342
319 319 319 319 322 325 327 328 328 329 330 329 325 325 327 328 325 322 323 326 326 327 332 340 346 348 350 352 355 357 360 361 362 363 363 362 360 357 356 356 356 357 358 358 359 359 359 359 359 360 361 360 361 360 360 358 358 355 353 349 345 344 344
319 319 319 319 320 323 326 328 328 329 330 331 329 328 328 330 329 326 325 325 324 324 328 334 342 346 348 349 351 353 356 358 359 360 362 363 363 361 359 356 356 356 357 357 358 358 358 359 359 360 360 360 360 360 359 359 358 357 355 353 349 346 345
319 319 320 319 319 320 323 326 328 329 330 331 331 330 329 331 332 332 331 329 326 327 330 332 337 342 345 347 348 350 352 354 357 358 359 360 362 362 361 359 356 356 356 356 357 357 357 357 358 359 359 359 359 359 359 359 358 358 357 355 353 350 347
319 319 320 320 319 319 321 323 326 329 330 330 331 332 332 332 333 334 335 334 331 330 332 333 334 338 341 344 345 346 348 352 355 357 359 360 360 361 362 361 359 356 355 356 356 356 356 357 358 358 358 358 358 358 358 359 358 359 358 357 355 354 351
319 319 320 320 319 319 320 321 324 327 329 330 331 332 333 333 333 335 335 336 335 334 335 335 335 335 338 340 343 343 344 347 352 357 359 361 361 361 360 361 360 357 356 356 355 354 355 356 357 357 357 356 356 357 358 359 359 359 359 358 357 356 354
318 319 319 320 319 319 319 320 322 324 327 329 330 331 333 334 334 335 335 336 337 337 337 337 337 336 337 338 339 341 342 345 349 355 359 361 363 362 360 359 360 359 358 356 354 353 353 353 354 354 355 354 355 357 358 358 359 359 359 358 358 357 356
317 318 319 319 319 319 319 319 320 322 325 327 328 330 332 333 333 335 335 336 337 337 337 337 337 338 338 338 339 340 342 343 346 351 356 361 364 364 363 362 359 358 358 356 355 353 351 351 352 351 353 354 355 355 357 357 358 359 359 359 359 358 358
315 317 318 319 319 319 319 319 320 320 322 325 327 328 330 332 332 332 334 335 335 336 336 337 337 337 339 340 341 341 342 343 345 348 353 359 363 365 366 365 361 359 357 356 355 355 352 352 352 351 353 354 355 356 357 357 358 359 359 359 359 359 358
314 316 318 319 319 319 318 318 319 320 321 323 324 326 328 330 330 330 331 334 335 335 336 337 338 339 340 341 342 343 344 345 346 348 353 358 361 365 367 365 362 360 358 356 355 355 354 353 353 354 355 356 356 357 358 358 359 359 360 360 359 359 359

ECMWFFLT1_850_thetae_078.txt.gz
Theta_e
351 350 350 350 350 350 350 351 351 350 350 349 348 347 347 346 346 345 345 345 344 344 345 345 344 342 339 336 335 335 337 337 337 336 334 332 332 332 333 334 337 339 340 340 339 338 338 338 338 337 337 338 339 340 340 340 341 341 343 346 345 345 348
350 350 350 349 349 350 350 350 351 351 350 350 348 348 347 346 346 346 346 345 345 345 345 345 345 344 341 338 335 335 335 336 336 337 335 333 332 331 332 333 334 336 338 339 339 339 338 338 338 337 336 337 338 339 339 339 339 340 342 344 345 344 345
351 350 350 350 349 350 350 350 350 351 350 350 349 348 347 347 346 347 346 346 345 345 345 346 345 346 344 341 336 334 335 335 336 336 335 334 332 331 331 332 333 333 335 337 338 338 338 338 337 337 336 337 337 338 338 338 339 339 340 342 343 343 343
351 351 350 351 350 349 350 350 350 351 350 350 350 348 348 348 347 347 347 346 346 345 345 346 346 346 346 343 340 336 334 334 335 335 334 334 332 331 331 331 332 332 332 334 335 336 337 337 337 336 335 336 337 338 338 338 338 338 339 340 340 341 342
348 352 351 351 351 350 350 350 350 350 350 350 350 349 348 348 347 347 347 346 346 346 346 346 346 347 346 345 343 340 337 334 334 334 334 334 333 332 331 331 331 331 331 331 333 335 336 336 337 336 335 335 337 338 338 338 338 338 339 339 339 339 340
346 349 352 352 351 351 350 350 350 350 350 350 349 349 349 348 347 347 347 347 346 346 346 346 347 347 347 347 346 344 341 338 335 334 334 333 333 333 331 331 331 331 331 331 333 334 335 336 337 336 334 335 336 337 337 338 338 338 338 338 337 338 339
344 346 351 352 352 352 351 350 351 350 350 350 349 349 349 348 347 347 347 347 347 346 346 347 347 347 347 347 347 346 344 342 339 336 334 333 333 333 332 331 331 330 331 331 332 334 335 336 336 336 335 335 336 337 337 337 336 336 337 337 337 336 337
344 345 348 351 352 352 352 351 351 350 350 350 349 349 349 348 348 347 347 347 347 347 347 347 347 347 347 347 347 347 346 345 343 340 337 335 333 333 332 332 331 330 330 330 331 332 333 334 335 336 336 336 336 336 335 333 332 333 334 335 336 336 336
344 346 348 351 352 352 352 352 351 350 351 350 349 349 349 349 348 347 348 347 347 347 347 347 347 347 348 348 348 348 347 347 346 344 342 339 335 333 332 332 332 331 330 330 330 330 331 332 333 334 335 336 336 335 331 328 327 328 330 332 334 336 336
340 344 348 350 351 352 352 352 352 351 351 350 350 350 349 349 349 347 348 347 347 347 347 348 348 347 348 348 348 348 348 348 347 346 345 344 341 336 332 331 332 332 331 330 329 329 329 330 331 333 334 334 334 333 329 327 326 326 326 327 330 332 333
336 339 344 347 349 352 351 352 352 351 351 351 350 350 349 349 349 348 348 347 347 348 347 347 348 348 348 348 348 348 348 348 347 347 347 346 346 342 336 332 331 331 331 330 330 329 329 330 331 332 332 331 330 330 328 327 325 325 325 325 326 327 328
333 336 339 341 345 348 349 350 351 351 352 351 350 350 349 349 349 349 348 348 348 348 348 348 347 348 348 348 348 348 349 349 348 347 348 347 347 346 343 339 334 331 330 329 329 329 328 329 330 331 331 330 329 328 327 327 326 325 325 325 325 325 325
330 332 335 337 341 344 346 348 349 350 351 350 351 351 349 350 349 349 349 348 348 348 348 348 348 347 348 348 348 349 348 349 348 348 348 348 348 348 347 345 342 338 333 330 329 328 328 328 328 329 330 330 330 329 328 327 326 326 326 325 326 326 325
328 329 332 336 339 340 342 345 347 349 350 350 350 350 350 351 349 349 350 349 349 349 348 348 348 348 348 348 349 349 348 349 349 348 349 349 349 349 349 348 347 344 341 335 331 328 328 328 327 327 328 328 328 329 328 328 328 327 326 326 326 326 326
326 327 328 331 335 336 338 341 344 346 348 348 350 350 349 350 349 350 350 349 350 350 349 349 348 348 349 348 349 349 349 349 349 348 349 349 350 350 350 350 349 347 345 342 336 331 328 327 327 327 327 327 326 326 327 328 327 327 326 326 326 326 325
325 326 326 327 329 332 334 337 340 344 346 347 349 349 349 350 349 350 350 350 350 350 350 350 349 349 349 349 349 349 349 349 349 349 349 349 350 350 350 351 351 350 349 346 342 337 333 329 328 327 327 326 326 326 326 326 326 326 326 325 325 325 325
324 325 326 326 326 328 330 332 337 341 345 346 347 348 349 349 349 350 350 350 351 350 350 350 350 350 350 349 350 350 349 350 350 349 350 350 350 351 351 351 351 351 351 350 348 346 342 338 334 331 329 328 327 326 326 325 325 325 325 325 325 324 324
323 324 325 325 325 326 326 328 331 335 340 345 347 348 349 350 350 350 350 350 351 350 351 351 350 351 351 351 351 350 350 351 350 350 351 351 351 351 351 352 352 352 352 352 351 350 348 346 343 339 337 334 332 331 330 330 329 328 327 326 326 326 326
321 323 325 325 325 325 325 325 326 328 332 338 344 346 348 349 350 351 350 350 351 351 351 351 351 351 351 351 351 351 351 351 351 351 351 351 352 352 352 352 352 352 353 353 353 352 351 351 349 348 345 343 340 338 337 336 335 333 332 331 330 330 329
320 321 323 324 325 325 324 324 324 324 325 329 335 341 345 348 350 351 352 351 351 352 352 351 351 351 351 352 352 351 352 352 351 351 352 352 352 352 352 353 352 353 353 353 353 353 353 353 352 352 351 349 348 345 343 341 338 337 337 336 335 334 334
320 320 321 322 323 324 324 324 324 323 323 323 325 331 338 345 349 350 351 352 351 352 352 352 352 352 351 352 352 352 352 352 350 348 349 351 352 353 353 353 353 353 353 354 354 353 353 353 354 354 354 353 353 351 350 346 341 339 338 337 337 337 337
320 320 320 320 322 323 324 325 324 323 323 323 322 323 328 338 346 348 348 351 351 352 353 353 353 353 353 352 352 352 353 353 351 350 349 350 352 353 354 354 354 354 354 354 354 354 354 354 354 355 355 355 355 354 354 350 344 342 340 337 338 338 339
319 319 320 320 320 321 323 325 325 324 322 322 323 322 322 328 338 342 344 346 349 350 352 353 353 353 353 353 353 353 353 353 353 352 351 352 353 354 354 354 355 354 354 355 355 354 355 355 355 355 355 356 356 357 356 352 346 344 342 340 340 341 341
318 319 320 320 320 321 323 325 326 325 324 322 322 324 323 323 328 334 339 343 347 349 351 352 352 352 352 352 353 354 354 353 353 353 353 353 354 355 355 355 355 355 355 355 355 355 355 355 356 356 356 357 357 358 358 356 351 348 345 341 342 344 343
318 318 319 319 319 320 322 324 326 326 326 323 322 324 324 323 323 327 331 336 343 348 350 351 352 352 352 352 352 353 354 354 354 354 354 355 355 355 356 355 356 356 356 356 356 356 356 356 357 357 357 357 357 358 358 358 356 354 350 344 343 345 344
318 318 319 319 319 320 321 323 325 326 326 324 324 324 324 323 323 325 327 328 335 342 345 347 349 350 352 354 354 353 353 353 355 355 355 356 356 357 357 357 357 357 357 357 357 357 357 357 357 358 358 358 358 358 358 358 358 358 356 351 348 347 346
317 317 318 319 319 319 320 322 324 326 327 327 326 325 326 326 326 326 326 327 329 334 338 340 343 345 349 352 354 355 354 353 353 355 357 357 358 358 357 358 358 358 357 358 357 358 358 358 358 358 358 358 358 358 358 358 358 358 359 357 355 353 351
316 316 316 318 319 319 319 321 322 324 326 328 328 327 327 328 327 325 324 326 328 331 332 333 333 334 340 345 349 352 355 355 354 354 355 355 357 357 356 357 358 358 359 359 359 359 359 359 358 359 358 358 358 358 358 358 357 357 358 359 359 358 356
316 316 315 316 318 319 319 320 320 322 324 326 328 329 329 328 327 323 321 324 327 330 332 332 330 327 330 338 343 345 349 354 356 356 356 355 355 355 355 356 356 357 358 359 359 359 359 358 358 359 359 358 358 358 358 358 357 357 357 358 359 359 359
316 316 315 315 316 317 319 320 320 321 322 324 327 329 329 330 329 323 319 322 327 331 332 333 334 331 329 334 338 338 342 348 350 351 354 357 357 356 356 355 355 355 356 357 358 359 359 358 358 358 358 358 358 358 357 357 357 356 356 356 358 359 359
315 315 315 314 315 316 318 319 320 320 321 323 325 327 329 330 331 329 325 325 328 331 333 332 333 333 332 332 333 332 337 344 346 345 347 351 355 357 358 357 356 355 356 356 356 357 357 357 357 358 357 357 357 357 356 356 356 356 356 356 357 357 358
313 313 314 314 314 315 317 319 319 320 322 322 323 325 327 330 331 332 332 331 330 331 333 333 333 333 333 331 329 327 330 336 341 344 344 345 348 352 355 357 357 357 357 356 356 356 356 356 356 356 356 356 355 354 355 356 356 356 356 355 356 356 357
311 312 312 313 313 315 317 318 319 320 321 322 323 324 325 328 330 331 332 333 333 333 334 334 333 333 332 330 327 328 329 331 333 337 340 341 343 345 349 353 354 356 357 356 354 355 356 356 355 355 355 354 353 353 354 356 355 355 355 355 355 355 355
311 311 311 312 313 315 317 318 319 319 320 322 323 323 324 326 328 330 331 332 333 334 334 334 334 333 333 331 329 328 330 333 333 334 336 339 341 344 350 354 357 358 360 359 357 358 359 357 356 355 354 352 351 352 354 354 353 353 354 353 352 352 353
310 310 311 311 312 314 316 317 318 319 319 321 322 322 323 324 326 327 329 330 331 332 332 333 333 333 333 333 331 327 328 332 335 336 337 339 341 344 349 354 358 361 362 362 361 360 359 358 357 355 353 351 350 351 351 352 352 352 352 352 352 352 353
309 309 309 310 311 312 314 316 318 318 319 321 322 321 321 322 324 325 326 327 328 329 331 332 333 333 332 332 331 329 329 332 335 336 338 339 340 341 345 350 355 359 361 362 361 360 359 359 358 357 356 354 352 351 350 350 350 350 352 353 353 354 354
308 308 309 309 310 311 312 314 317 318 319 320 321 321 320 321 322 324 325 325 325 327 329 331 332 333 334 333 333 333 332 332 334 336 338 340 341 342 343 345 350 355 359 361 362 361 361 360 359 358 358 357 356 354 353 352 351 351 353 354 354 355 355
308 308 308 308 309 311 311 313 315 318 319 319 320 321 320 320 322 323 324 324 324 324 326 329 331 333 334 335 335 335 333 333 333 335 337 339 341 342 343 344 346 349 353 358 362 363 362 360 358 358 357 357 357 356 354 354 352 352 353 354 355 355 355

ECMWFFLT1_850_thetae_081.txt.gz
Theta_e
353 353 352 352 352 352 351 351 350 349 349 348 348 347 347 347 347 347 347 347 347 347 346 345 344 343 341 339 338 339 339 337 335 334 333 333 333 333 333 333 334 337 341 343 343 341 340 340 340 340 340 339 340 341 342 343 344 343 343 344 346 346 345
353 353 352 352 352 352 352 352 350 349 349 349 349 348 348 348 347 348 348 348 348 347 346 345 344 344 343 342 339 338 338 338 336 335 334 333 333 332 332 332 332 333 337 341 343 343 341 340 340 339 339 338 338 339 340 341 341 342 342 342 344 345 345
349 351 353 352 352 352 352 352 351 350 350 349 349 348 348 348 349 349 348 348 348 347 347 346 345 344 344 344 342 339 337 337 336 335 334 334 333 333 332 332 332 332 333 336 341 343 342 341 340 340 339 338 338 337 338 339 339 340 340 341 342 343 344
344 347 350 352 352 352 352 352 351 351 351 350 350 349 349 349 349 349 349 349 349 349 347 346 346 345 344 344 344 342 339 337 335 335 334 334 334 334 333 332 332 331 331 333 337 341 342 341 341 341 340 339 338 337 337 338 339 338 339 340 340 340 341
341 343 346 350 352 351 351 352 352 352 352 351 350 350 350 350 349 349 349 349 349 349 348 347 346 346 345 344 345 345 343 340 337 335 334 334 333 334 334 333 331 331 331 331 333 337 339 341 341 341 340 339 338 337 337 338 339 339 339 339 339 339 339
340 342 344 347 351 352 351 351 351 352 352 351 351 351 351 350 349 349 349 349 349 349 349 348 347 346 346 345 345 346 346 344 340 336 334 334 333 333 333 333 332 331 331 331 332 333 335 337 338 339 340 340 339 337 336 337 338 338 339 339 339 339 338
338 341 344 346 350 352 351 351 351 351 351 351 350 350 351 350 350 349 349 349 349 349 349 348 347 347 346 345 345 346 346 346 344 339 335 334 333 333 333 332 332 331 331 331 331 332 333 333 334 336 338 339 339 338 336 337 338 338 339 339 338 338 338
337 339 343 347 350 351 352 351 351 351 351 350 350 350 350 350 349 349 349 349 349 349 349 348 348 347 347 346 345 346 346 346 346 344 340 336 334 333 332 332 332 331 331 331 331 332 332 332 333 334 335 337 338 339 338 337 338 338 338 338 338 337 337
337 339 342 347 350 351 352 352 351 351 350 350 350 350 350 350 350 349 349 349 348 348 348 348 348 348 348 347 346 346 347 346 347 347 345 342 338 335 333 332 332 332 331 330 330 331 331 331 332 333 334 335 336 337 338 338 338 339 338 337 336 335 336
335 337 340 344 348 350 351 351 351 351 351 350 350 350 349 349 349 349 349 349 348 348 348 348 348 348 348 348 347 346 346 347 347 347 347 346 343 340 337 334 332 332 331 331 331 330 330 330 331 332 333 334 334 334 335 336 338 338 335 333 332 332 334
332 334 337 341 344 347 349 350 351 351 352 351 350 349 349 349 349 349 349 349 348 348 348 347 348 348 348 347 347 346 347 347 347 347 347 347 347 345 343 339 336 333 331 331 332 331 330 330 330 330 331 332 332 331 333 335 337 336 332 328 327 328 329
330 331 333 336 339 342 345 346 348 349 351 351 350 350 350 349 349 349 349 349 349 348 348 348 347 348 348 347 347 347 347 347 347 347 348 348 348 347 346 344 342 339 336 333 332 331 331 330 329 329 328 329 329 329 330 333 334 333 330 327 326 326 326
328 328 329 331 334 338 341 343 346 347 348 350 350 350 350 349 349 348 348 349 349 348 348 348 348 347 347 347 347 347 347 347 348 348 348 348 348 348 348 347 346 345 343 340 336 332 331 331 330 329 328 327 327 327 328 328 330 329 328 327 327 326 326
326 326 326 327 330 333 336 339 343 345 346 347 348 349 349 349 349 349 348 348 349 348 348 347 347 347 347 347 347 347 347 348 348 347 348 348 348 348 348 348 347 347 347 346 343 338 334 331 330 329 329 328 327 327 327 327 327 327 327 326 326 326 326
325 325 325 325 326 327 330 333 338 342 344 345 346 348 348 349 349 349 349 349 348 348 348 348 348 347 347 347 347 348 348 347 348 348 348 348 348 349 349 348 348 348 348 348 347 345 341 337 333 330 329 328 328 328 327 327 327 326 326 326 326 326 326
324 323 324 324 325 325 325 327 330 335 341 345 346 346 347 348 349 348 349 349 349 349 348 348 348 348 348 347 348 348 348 348 348 348 349 349 349 349 349 349 349 348 348 349 348 348 347 345 342 338 333 330 328 328 328 327 327 327 327 327 327 326 326
323 322 323 323 324 324 324 323 324 327 334 340 344 346 347 347 348 349 349 349 349 349 348 348 349 349 349 348 349 349 348 348 349 348 348 349 349 349 349 349 349 349 349 349 349 349 349 349 347 345 342 337 331 329 328 327 327 326 326 326 326 326 326
322 322 322 321 322 324 324 324 323 323 325 328 334 341 346 347 347 348 349 349 349 349 349 349 349 349 349 349 349 349 349 349 349 349 349 349 349 349 350 349 349 349 349 349 349 350 350 350 350 349 347 344 338 334 331 328 327 326 326 325 325 325 325
322 322 321 321 321 322 324 325 325 324 322 322 324 330 338 345 348 348 349 349 349 350 350 350 350 349 349 349 349 349 350 349 349 349 349 349 350 350 349 349 349 349 350 350 350 350 351 351 351 351 350 348 345 341 337 333 331 329 329 328 327 327 326
321 321 321 321 320 320 322 324 326 326 325 323 322 323 328 335 341 346 348 349 349 350 350 350 350 350 350 349 349 349 349 349 349 349 350 350 350 350 350 349 350 350 350 350 350 351 351 352 352 352 352 351 350 348 346 342 337 335 334 333 332 332 331
321 321 321 320 320 320 320 322 325 326 327 326 324 323 323 325 329 334 339 345 349 350 350 350 350 351 351 350 349 349 349 349 349 349 349 350 349 349 349 350 350 350 350 351 351 351 352 352 352 352 352 353 352 352 351 349 346 343 341 339 338 337 337
320 320 321 320 319 319 320 321 322 324 327 328 327 326 325 324 323 324 330 340 347 349 350 351 351 350 351 351 350 350 350 349 350 349 350 350 349 349 349 350 350 351 351 351 351 351 352 352 352 353 353 353 353 353 353 353 352 351 349 347 345 345 344
319 319 320 320 319 319 319 320 321 322 325 327 328 328 328 326 324 323 325 335 344 347 347 349 351 351 351 351 351 351 351 351 351 350 350 350 349 350 350 350 350 351 351 351 351 351 352 353 353 353 353 353 353 353 353 354 354 354 353 353 352 351 350
318 318 318 318 319 319 319 319 320 321 323 325 327 328 330 329 327 325 322 327 339 346 347 347 349 351 351 352 351 351 352 352 352 351 351 351 350 350 351 351 351 351 351 351 351 352 353 353 354 354 354 354 354 354 354 355 355 355 355 355 355 355 353
317 317 317 317 317 318 318 318 319 320 321 323 325 327 329 330 329 327 324 322 329 339 345 347 349 350 350 351 351 351 352 352 352 352 352 352 352 351 351 351 352 351 351 352 352 352 353 353 353 354 354 354 355 355 355 355 355 356 356 356 357 356 355
317 317 317 316 316 316 316 316 317 318 319 321 324 325 327 329 330 329 327 324 323 329 336 341 344 346 348 349 350 351 352 352 352 352 352 353 353 353 352 351 351 351 351 351 351 351 352 353 354 355 355 355 356 356 356 356 356 356 357 357 357 357 357
316 316 316 316 316 315 315 315 315 316 318 320 321 324 326 327 329 330 329 327 324 324 328 332 335 337 340 345 347 347 347 350 353 353 353 353 352 353 353 353 352 351 351 352 351 351 353 354 354 355 356 356 357 357 357 357 357 357 357 357 357 358 358
315 315 315 315 315 315 314 314 313 314 316 318 320 322 324 326 327 329 331 330 328 325 324 326 331 331 331 334 337 337 338 342 347 349 352 353 353 352 352 353 352 351 351 353 354 354 355 355 356 357 357 357 357 357 357 357 357 357 357 357 358 358 358
313 314 314 314 315 314 314 313 313 313 314 316 318 320 322 325 326 328 330 331 331 329 326 325 327 330 329 326 326 328 331 332 334 338 344 351 354 353 353 353 352 352 353 354 354 354 355 355 356 357 358 358 358 358 357 357 357 357 357 357 358 358 358
310 311 313 313 314 314 314 313 313 312 313 314 317 319 321 323 325 327 328 330 331 332 331 327 325 327 330 328 324 324 325 325 327 330 336 343 348 351 353 353 353 354 354 354 354 354 355 356 357 358 359 359 358 358 358 358 357 357 357 357 357 357 357
308 309 310 312 313 313 313 312 312 312 312 313 315 318 320 321 323 325 327 328 330 331 332 331 328 326 328 330 328 325 324 323 323 324 328 335 339 343 348 351 353 354 354 354 354 354 355 357 357 358 359 359 358 358 358 358 358 356 356 357 357 357 357
308 308 308 309 311 312 313 313 312 312 312 312 314 316 319 320 321 322 324 326 328 330 330 331 330 328 328 330 331 329 327 327 327 325 327 331 331 331 336 342 346 349 352 354 354 355 355 356 357 359 360 360 358 356 356 357 358 356 355 355 355 355 356
307 308 308 308 309 310 311 312 312 312 312 312 312 314 317 319 320 321 322 324 326 328 329 329 330 331 330 329 330 331 330 331 331 330 330 331 330 327 329 334 339 344 346 349 353 356 357 357 358 360 361 359 356 352 353 355 356 355 353 353 354 354 355
307 308 308 308 308 308 309 310 311 312 312 312 312 312 315 317 319 320 321 322 323 325 327 328 328 330 330 328 327 328 330 331 331 329 331 335 335 332 330 331 336 341 343 347 353 357 357 358 359 359 359 357 354 352 351 352 352 352 351 351 352 352 353
307 308 308 308 308 308 308 308 309 311 312 312 312 311 313 316 318 319 320 321 321 323 324 326 327 328 329 329 325 324 326 330 331 328 327 331 335 336 334 332 334 337 339 342 349 354 356 356 357 356 356 356 356 356 355 353 350 350 350 350 351 351 351
307 308 308 308 308 308 308 308 308 309 310 312 312 311 312 314 317 319 319 320 321 321 322 324 325 326 327 329 328 326 326 328 330 329 327 327 331 335 337 335 335 337 337 336 340 346 348 348 348 350 354 357 358 357 357 357 355 355 355 354 353 352 352
308 308 308 308 308 308 308 308 308 308 309 311 311 311 311 312 315 318 319 319 320 320 321 322 324 324 325 327 328 329 329 327 327 328 329 330 332 336 339 340 338 338 338 337 338 340 341 343 345 348 353 357 356 355 355 357 357 358 358 357 356 356 354
308 308 308 308 308 309 309 310 310 309 309 310 311 311 311 311 313 316 318 319 319 320 320 321 322 323 324 325 326 328 330 329 327 327 330 332 333 335 339 342 342 340 337 338 341 343 344 347 349 350 351 354 356 356 356 356 357 359 359 358 358 357 356

ECMWFFLT1_850_thetae_084.txt.gz
Theta_e
352 356 356 355 356 355 355 354 353 353 353 353 354 353 353 354 354 354 351 346 346 346 346 346 346 345 343 340 339 338 338 338 337 337 336 334 336 338 339 341 343 346 349 351 351 350 346 344 345 344 342 342 342 343 344 345 345 344 344 344 347 348 348
351 354 355 355 355 355 355 355 354 354 353 353 354 354 354 354 354 354 351 347 347 347 346 346 346 346 345 343 340 339 338 338 338 338 338 336 335 335 336 338 341 342 343 347 351 351 346 343 343 342 342 342 342 342 343 344 344 343 345 344 345 346 345
349 351 353 354 355 355 355 356 355 354 354 353 354 354 354 354 354 353 350 348 348 347 347 347 347 346 346 345 343 341 339 338 338 338 338 338 335 334 334 334 336 339 340 342 346 348 347 346 344 342 342 341 342 342 341 342 343 342 344 343 343 346 344
347 348 349 351 354 355 355 356 356 355 354 354 354 354 354 354 354 352 349 349 349 348 348 348 347 347 346 345 344 343 342 339 338 337 337 339 338 337 337 335 334 337 340 341 341 345 348 348 345 342 342 341 341 341 341 341 342 341 343 343 343 344 344
347 347 347 349 352 354 355 355 356 356 355 354 354 354 354 353 353 353 351 350 350 349 349 348 348 347 346 346 345 344 344 342 340 337 335 337 340 339 338 337 335 335 338 339 339 340 341 344 345 344 342 340 339 340 340 340 340 341 341 343 343 343 346
346 346 347 349 351 352 354 355 355 356 355 355 353 353 354 354 353 354 353 352 351 351 351 349 349 348 347 346 346 344 345 344 343 341 337 335 336 338 336 335 335 336 337 337 338 337 335 337 343 345 343 342 343 343 343 340 339 341 341 341 343 343 348
344 346 347 349 351 351 353 354 354 355 355 354 353 353 354 354 354 354 354 354 353 353 353 352 351 350 349 347 346 345 345 345 345 344 342 337 335 335 335 335 335 337 338 337 334 335 334 334 339 342 342 344 347 348 347 343 338 340 341 341 342 342 343
342 344 345 347 349 350 352 353 354 354 354 354 354 354 353 353 354 354 354 354 354 354 354 354 354 353 350 348 348 347 346 346 345 345 345 342 338 335 334 335 334 334 336 336 333 331 331 332 335 338 337 341 346 346 345 342 337 339 340 340 341 341 341
339 341 343 344 345 347 350 352 353 353 354 354 354 354 353 353 353 353 353 353 353 354 354 354 355 354 352 350 349 348 347 346 345 345 346 345 343 339 337 337 335 332 332 335 335 332 329 330 334 335 333 335 339 339 339 339 338 339 341 339 339 339 342
336 337 339 341 342 345 347 350 351 352 353 354 354 353 353 354 353 353 353 353 353 353 354 354 354 355 353 350 349 349 348 347 346 346 346 346 347 345 343 342 340 336 331 332 336 337 331 329 332 333 330 331 334 333 333 336 336 338 340 339 337 337 339
333 334 336 337 340 342 345 347 349 350 352 353 354 354 354 353 353 353 353 353 353 352 353 354 353 355 354 352 350 349 348 347 347 346 346 346 348 348 347 346 346 342 335 331 335 339 336 330 329 331 331 330 331 332 332 333 334 336 339 340 339 337 337
330 332 332 334 336 339 342 344 345 348 350 351 352 353 353 353 353 352 352 352 353 352 352 353 353 354 355 354 353 351 350 349 348 348 347 347 348 350 350 348 348 347 343 335 333 338 339 335 330 329 331 330 330 331 332 331 332 333 335 339 341 340 337
328 329 329 330 332 335 338 341 342 345 346 348 350 351 352 353 352 352 352 352 352 352 352 352 352 353 354 354 354 353 352 351 349 349 348 348 348 350 351 351 349 348 348 343 338 337 340 340 335 330 329 330 330 330 331 331 331 331 332 334 339 340 335
328 327 327 326 327 329 331 334 337 341 344 345 346 348 350 352 351 351 352 351 351 351 351 351 352 352 353 354 355 355 353 352 352 351 349 348 348 348 349 351 350 349 349 349 345 342 342 343 340 334 330 329 330 329 330 330 330 331 331 332 335 337 332
328 327 326 326 325 325 326 327 329 334 338 342 345 346 348 349 351 351 351 350 351 351 351 351 351 352 353 353 353 353 352 352 353 353 350 348 347 348 348 349 350 350 350 349 349 347 346 346 345 342 336 330 329 329 330 330 329 329 330 331 333 334 332
327 327 327 326 326 325 325 325 325 326 331 336 342 345 347 347 348 350 351 351 350 350 350 350 350 351 353 352 352 352 350 350 350 351 350 348 348 348 348 348 349 349 349 349 348 348 347 347 347 347 344 338 332 329 328 329 329 328 327 328 330 330 330
328 327 327 327 326 325 324 325 325 325 326 328 333 339 344 346 347 348 349 350 351 351 349 349 350 350 352 353 353 353 352 350 348 348 348 347 347 348 348 348 348 348 348 348 348 348 348 348 348 348 348 346 342 336 331 331 330 328 327 327 327 327 327
327 327 327 327 327 326 325 324 325 326 326 325 326 330 335 339 343 346 348 350 351 351 351 350 351 350 351 352 353 353 353 351 349 349 348 348 347 347 348 348 347 348 347 347 348 348 348 348 348 348 348 348 348 346 342 338 332 328 326 327 326 326 327
326 326 327 326 326 326 325 324 324 325 327 327 326 326 326 329 334 339 346 349 350 351 352 352 352 351 350 351 352 353 353 352 351 349 348 349 349 348 348 347 347 347 347 347 348 348 348 349 348 349 349 349 349 349 349 347 342 333 327 327 327 326 328
325 325 325 325 326 326 326 325 324 324 325 327 328 327 325 325 326 330 338 346 349 350 352 352 352 352 351 351 351 352 352 353 353 351 350 349 349 348 348 348 348 348 347 348 348 348 347 348 349 348 349 349 349 350 350 350 349 343 334 329 327 327 327
324 323 324 324 325 325 325 326 325 323 324 325 327 328 327 325 324 325 332 342 347 349 351 352 352 352 351 351 351 352 352 353 355 355 353 351 350 349 348 348 349 349 348 348 349 350 350 349 349 349 349 349 350 350 351 351 351 349 343 336 332 330 329
323 322 322 322 323 323 324 324 325 324 324 323 324 327 329 328 325 323 327 336 343 346 349 351 352 352 352 351 351 352 353 354 355 356 356 354 352 350 350 349 349 349 350 349 349 351 351 351 352 351 350 350 350 350 351 352 352 352 350 345 341 340 338
322 321 322 321 322 322 322 322 324 324 324 324 323 324 327 329 328 325 324 328 335 341 346 349 349 350 351 351 351 352 354 355 355 356 356 356 354 353 351 350 350 350 350 350 350 350 351 352 353 353 352 352 352 352 351 352 352 352 352 352 350 349 348
321 320 320 320 321 321 321 321 322 323 324 324 323 323 324 327 328 328 327 326 328 333 339 344 346 348 349 349 350 351 352 353 354 355 356 356 355 355 354 353 351 351 351 350 350 350 350 351 352 353 353 353 353 353 352 352 353 353 353 353 353 353 352
320 319 319 319 319 320 320 320 321 321 322 323 323 323 324 325 326 329 329 327 325 328 334 339 342 345 347 348 349 349 350 351 352 353 354 355 355 355 356 355 354 352 352 351 351 351 351 350 350 351 352 353 353 353 353 353 353 354 354 353 353 354 354
318 318 318 318 318 318 319 320 320 320 321 321 321 322 324 324 324 326 328 328 326 326 329 334 337 339 341 344 347 349 350 350 351 351 352 353 354 355 355 356 355 355 354 353 353 353 352 350 350 349 349 351 352 353 354 354 354 354 354 354 354 354 354
316 316 317 317 317 317 317 319 319 319 319 320 319 320 323 324 324 325 327 328 328 326 326 328 332 335 335 336 341 347 349 350 350 351 351 352 353 354 355 356 355 355 355 355 354 354 353 352 350 349 348 348 350 351 352 354 355 355 355 355 355 355 355
315 315 315 315 315 316 317 318 318 318 318 319 319 318 320 322 323 325 327 328 329 329 327 325 327 331 332 332 335 341 345 348 351 352 352 353 352 352 354 356 356 355 355 356 355 354 353 352 351 350 348 347 348 351 352 353 354 356 356 356 356 356 356
314 314 314 314 314 315 316 316 316 317 317 318 318 317 316 318 320 322 325 327 328 328 328 325 325 327 329 330 331 331 333 339 346 349 349 350 351 351 353 354 355 355 356 355 354 353 352 353 353 353 352 349 349 350 352 352 354 356 357 357 356 356 357
313 312 312 313 313 313 313 314 315 316 316 316 316 315 314 314 315 318 321 324 325 326 327 327 327 326 326 328 330 330 329 329 334 337 338 340 343 348 352 354 353 354 355 355 355 354 354 355 355 355 354 352 351 351 351 352 352 355 357 359 358 356 356
312 311 311 312 312 311 311 312 312 313 314 316 315 314 314 313 313 314 317 319 322 323 325 327 328 328 327 324 324 329 332 331 329 329 330 331 333 336 343 350 353 353 354 354 355 355 355 356 356 356 356 354 353 352 352 352 353 355 358 360 360 359 357
312 310 310 310 310 309 308 309 310 310 312 313 313 313 313 313 313 313 313 315 319 321 323 324 326 327 329 326 323 325 328 332 332 330 329 330 331 329 331 337 342 345 347 351 353 354 355 356 356 356 356 355 354 353 353 353 355 357 358 360 361 360 359
312 311 309 308 308 307 307 308 309 310 310 310 311 312 313 313 313 313 313 314 317 320 322 322 323 325 327 328 328 326 323 326 331 331 329 329 330 331 330 330 330 331 334 340 347 350 352 354 355 356 356 356 355 354 354 355 356 357 357 358 357 356 358
312 311 309 308 307 307 307 309 310 310 310 309 309 310 311 311 312 313 313 313 313 316 319 321 323 324 325 326 327 326 323 323 325 327 330 331 329 328 330 332 335 336 331 329 336 344 348 351 352 353 354 355 356 357 357 356 356 356 357 357 355 354 357
312 311 310 309 308 309 310 311 311 311 311 311 310 310 310 310 311 312 312 313 312 312 315 318 321 323 324 325 326 326 326 326 324 323 325 328 328 325 325 326 332 337 335 328 330 337 343 347 349 350 352 354 356 358 358 357 357 358 357 357 356 356 357
311 311 311 311 311 311 311 312 312 312 312 311 311 311 310 309 310 311 311 312 314 313 313 315 320 322 322 324 325 325 326 328 327 325 322 321 322 323 323 321 323 328 332 331 331 333 334 335 336 339 344 348 350 351 353 354 356 357 357 357 357 357 357
310 310 311 311 311 312 312 312 312 312 312 312 312 312 313 312 312 312 312 312 314 314 314 317 321 322 322 323 324 325 326 327 327 327 325 323 322 321 321 319 319 323 327 330 333 334 332 330 328 328 331 337 340 341 343 347 351 353 355 358 358 358 358
310 310 310 310 311 311 311 312 312 312 313 313 313 313 314 314 314 315 316 316 317 317 317 320 322 322 321 322 323 324 325 326 326 327 328 328 326 324 322 321 320 320 323 325 329 332 334 333 330 327 326 328 332 335 338 342 346 349 353 356 358 359 360

ECMWFFLT1_850_thetae_087.txt.gz
Theta_e
353 354 354 354 352 354 355 354 354 354 353 353 353 353 352 354 354 353 357 356 349 346 346 343 341 341 341 340 339 337 335 334 336 337 340 346 349 349 350 350 351 354 354 353 353 354 355 354 355 356 352 345 344 344 343 343 344 346 346 347 351 349 349
353 354 354 355 354 355 355 354 353 354 353 353 353 353 352 353 353 354 358 357 350 347 347 345 343 343 341 339 339 338 337 336 336 336 340 346 347 348 350 350 349 351 353 352 353 354 354 353 353 354 353 349 347 345 343 344 343 346 348 347 347 347 347
352 353 353 354 355 356 355 354 353 353 352 353 354 354 353 353 354 356 358 358 353 349 349 347 345 344 343 341 340 339 337 337 337 336 341 346 347 347 349 350 349 349 350 351 352 353 354 354 351 350 350 352 352 349 345 346 345 345 347 346 347 349 346
351 352 353 354 355 355 356 356 355 353 352 353 353 354 355 354 356 357 357 359 356 351 349 349 347 345 346 344 343 341 339 337 337 337 343 348 348 348 348 349 349 349 349 350 350 351 352 353 351 347 344 347 351 351 348 347 348 347 345 345 346 349 348
349 350 352 354 354 354 355 355 354 353 353 353 353 353 354 354 355 356 357 359 357 351 349 349 349 349 347 345 346 346 343 339 338 339 344 348 349 349 348 348 348 348 348 348 348 349 351 352 352 349 344 341 344 349 348 345 347 347 344 343 345 349 351
347 349 350 352 353 353 354 354 353 353 353 353 353 352 353 353 355 356 357 358 356 353 352 350 352 354 350 346 349 350 346 343 341 340 343 348 349 349 349 348 348 347 347 347 347 348 350 352 353 352 349 346 346 349 350 348 349 349 347 343 343 349 352
346 347 348 350 351 352 354 354 354 353 353 353 352 352 354 354 355 356 356 356 355 355 355 352 353 356 352 349 351 350 347 345 344 342 343 347 349 349 349 348 348 347 346 347 347 347 349 351 352 352 351 350 349 350 351 350 350 351 351 347 342 344 348
344 345 346 347 348 349 351 353 354 354 353 354 353 352 354 354 355 355 355 355 354 355 356 353 353 355 355 354 352 350 349 348 347 345 345 348 348 349 349 349 349 348 346 346 347 347 348 349 351 351 350 351 350 349 350 351 350 349 351 351 346 343 345
342 343 344 345 345 346 348 350 352 353 354 354 354 354 355 354 354 354 354 354 354 354 355 355 355 356 357 357 355 353 351 351 351 349 348 349 349 348 347 347 348 348 347 346 346 346 347 348 348 349 350 351 349 347 347 349 347 344 347 350 349 346 346
340 340 341 342 343 344 345 347 350 352 352 354 355 355 355 353 352 353 353 353 353 353 354 354 355 356 358 359 358 356 354 353 354 353 351 351 350 348 346 344 346 348 347 346 344 344 346 346 347 348 349 351 348 344 344 346 345 342 343 346 347 346 344
338 338 339 340 341 341 343 346 348 349 349 351 353 354 353 352 352 353 352 352 352 353 354 354 354 356 357 358 358 358 357 355 354 354 353 352 350 349 346 344 343 345 347 346 343 342 344 345 346 347 349 349 346 343 342 342 342 341 344 348 348 346 345
336 337 337 337 338 338 340 343 344 346 347 348 350 351 353 353 353 352 352 351 352 352 353 354 354 353 355 357 358 357 357 357 355 354 353 352 350 349 348 345 342 343 345 346 345 342 342 344 345 346 347 344 340 341 341 338 338 338 339 346 350 349 348
334 335 334 335 335 335 337 339 341 343 345 346 348 349 351 352 353 353 352 352 352 352 352 353 353 353 354 356 357 357 357 357 356 355 353 353 351 349 348 346 344 343 343 345 345 344 342 343 344 346 346 341 334 337 342 339 337 336 334 336 345 350 351
334 334 332 333 333 332 333 335 337 339 342 344 347 348 350 351 352 352 353 353 353 352 352 352 352 353 354 355 355 357 358 356 356 356 354 353 353 350 349 347 346 345 344 344 345 345 342 341 342 345 347 345 337 334 340 342 339 337 333 330 334 344 350
333 332 332 331 331 331 330 331 333 335 338 340 344 347 348 350 351 351 351 352 352 351 351 352 351 352 353 354 355 357 358 357 356 356 356 355 354 353 350 349 348 347 346 345 345 345 344 341 340 342 344 347 345 339 340 343 344 342 338 332 331 336 344
332 332 332 331 331 331 330 329 330 331 333 336 340 343 346 348 350 350 349 350 352 351 351 351 351 351 352 353 354 356 358 358 357 356 357 356 356 356 355 352 351 350 348 348 347 346 346 343 342 342 342 345 348 346 344 343 343 344 341 334 330 331 337
331 331 331 331 331 331 330 329 328 328 330 332 334 337 341 344 347 348 349 349 350 351 352 351 352 352 352 352 353 354 356 358 359 357 358 358 357 357 356 353 353 352 351 351 350 349 349 348 346 344 343 344 346 346 346 343 341 342 340 335 329 328 333
331 331 331 331 331 331 331 330 329 328 328 329 330 332 334 337 341 345 348 349 349 351 352 352 352 351 351 352 352 353 355 357 357 356 357 358 359 358 355 352 353 354 353 353 353 352 351 351 351 349 346 345 345 344 344 344 342 342 341 338 331 327 329
329 329 330 330 330 330 330 331 330 329 328 327 328 329 329 329 332 338 344 347 348 350 352 353 352 350 350 351 351 352 354 355 354 353 354 356 359 359 355 351 351 354 354 354 355 355 355 354 354 353 351 349 347 346 345 344 343 343 343 341 335 328 325
327 327 328 328 328 328 328 329 330 330 329 328 327 327 328 327 327 330 337 343 346 348 350 352 352 351 351 352 352 351 352 353 354 354 355 355 358 359 357 354 352 352 354 355 355 356 356 356 355 355 353 352 351 349 349 347 346 345 344 344 340 333 327
326 326 326 326 327 326 326 327 328 329 329 329 327 326 328 328 327 329 334 338 342 345 348 350 351 351 352 354 354 352 351 352 353 354 355 356 357 358 357 357 355 353 354 356 356 356 357 356 356 356 355 353 352 351 351 351 349 348 347 347 346 341 335
325 324 324 324 325 326 325 325 326 326 328 329 328 326 327 328 327 329 333 334 335 339 344 347 349 350 350 352 353 352 350 351 353 354 355 356 357 357 357 358 357 355 355 356 355 356 356 356 355 356 356 355 352 351 352 353 351 351 350 349 349 348 345
323 323 323 322 323 324 324 323 324 324 325 327 327 326 327 327 324 326 331 333 333 336 338 340 344 347 348 350 351 351 352 353 353 353 353 354 355 355 356 356 356 356 356 357 357 356 356 356 356 355 356 356 355 354 353 354 353 352 352 351 350 350 350
322 322 322 321 322 322 322 322 323 324 323 324 324 324 326 327 326 326 329 331 334 335 333 331 335 340 343 346 349 350 351 353 353 352 352 353 354 354 354 353 354 355 356 356 357 357 356 356 357 356 357 357 357 356 354 354 354 353 352 352 351 351 351
320 321 320 320 321 321 320 321 322 322 322 323 323 323 323 326 327 327 327 329 333 334 329 326 329 333 335 338 343 347 350 350 352 353 354 354 354 353 353 353 353 354 354 355 356 358 358 357 356 356 356 356 357 356 355 355 356 354 353 352 351 351 352
319 319 319 319 320 319 319 320 321 321 321 322 322 323 322 323 325 325 323 325 331 332 326 321 324 327 327 329 335 341 346 348 349 351 352 353 353 353 353 354 354 354 355 355 356 356 357 358 358 357 356 356 357 357 356 356 356 356 355 353 353 352 352
318 318 319 318 319 318 318 319 320 320 320 320 321 322 322 322 324 323 321 322 327 329 328 325 324 323 322 325 328 333 341 346 348 349 351 351 351 352 352 354 354 355 354 355 355 356 356 357 358 358 358 357 357 358 357 357 356 355 355 354 353 353 353
317 318 318 318 318 318 318 319 319 319 319 319 320 320 321 322 322 320 319 320 323 324 324 324 324 323 321 322 323 326 332 338 342 345 349 352 352 351 351 352 353 354 354 354 354 354 355 357 358 358 357 357 357 358 357 356 356 355 356 355 354 354 354
317 317 317 317 317 317 317 317 318 318 319 319 319 319 321 322 321 317 317 320 320 317 316 318 320 324 325 323 322 322 324 327 330 333 336 342 347 349 351 352 352 352 354 356 356 355 356 358 359 358 358 357 356 357 356 356 355 354 353 353 353 352 353
317 317 316 316 316 316 317 317 317 318 318 318 319 320 320 321 319 316 316 319 318 315 314 314 315 319 323 324 325 323 322 322 325 326 327 330 334 337 342 346 350 352 353 354 355 357 358 359 359 359 358 357 356 356 356 356 356 354 351 349 349 350 352
317 317 316 316 316 316 316 315 316 316 317 318 319 320 320 319 318 318 318 318 317 315 314 317 319 318 318 321 325 326 324 321 321 324 329 333 334 333 332 333 339 348 354 355 354 355 357 358 358 358 357 356 356 356 356 357 357 357 355 352 350 349 351
317 317 317 316 316 316 315 314 314 315 316 317 318 319 320 320 320 321 319 316 315 316 319 324 325 320 314 314 319 323 326 325 324 325 330 333 333 334 336 334 332 337 345 350 352 355 356 357 358 358 357 357 357 357 356 357 357 358 358 358 356 354 354
316 316 317 317 317 316 316 315 315 315 314 315 315 315 317 318 319 320 319 318 317 319 321 323 323 319 315 314 315 318 323 327 327 325 324 324 324 327 333 335 334 334 336 340 343 347 351 354 355 356 357 357 358 358 358 357 356 357 358 358 357 357 357
315 315 316 316 315 316 316 317 316 315 314 313 312 312 313 314 316 317 318 318 317 316 316 316 316 316 316 314 312 314 317 321 324 325 325 327 330 331 331 330 330 331 335 339 341 343 347 351 352 353 355 356 357 357 357 358 358 358 357 357 357 357 358
314 314 314 314 315 315 315 316 317 317 316 314 313 313 313 312 312 313 313 314 314 314 313 314 314 314 314 314 315 318 320 323 328 331 331 331 333 335 336 335 332 327 326 330 334 335 337 342 345 349 352 354 355 355 356 357 357 356 356 356 357 358 357
313 313 313 313 314 314 314 315 316 316 317 316 316 316 316 314 313 312 312 314 316 316 317 318 319 318 318 319 322 325 328 329 330 331 332 332 332 332 333 333 331 327 324 324 324 323 324 327 331 336 341 345 348 351 354 356 357 357 357 357 358 358 358
312 312 312 312 313 313 314 314 315 315 316 317 317 317 317 317 316 314 314 316 318 320 321 322 323 324 323 323 324 326 327 327 327 328 328 329 329 328 327 327 326 324 324 324 324 323 324 324 324 326 329 332 337 340 342 345 348 350 353 355 357 358 358
311 311 311 311 312 313 313 314 314 315 315 316 316 317 317 317 317 317 317 318 319 321 322 323 325 326 326 325 326 325 324 323 324 325 326 326 326 326 327 327 328 328 326 325 325 324 326 327 326 325 326 326 328 331 332 332 333 334 336 340 345 349 352

ECMWFFLT1_850_thetae_090.txt.gz
Theta_e
352 354 356 356 355 355 356 356 356 355 355 354 354 352 351 351 349 350 354 355 350 343 340 340 338 339 340 338 332 329 330 335 337 337 337 339 343 345 342 345 351 350 349 349 350 353 353 352 355 352 345 344 345 345 344 343 345 345 343 348 348 345 348
354 356 359 360 358 356 356 357 357 356 356 355 355 354 352 352 351 351 353 355 352 344 340 340 340 340 341 340 336 332 330 332 333 335 337 337 339 341 342 344 348 351 353 351 350 352 353 352 354 353 348 343 344 346 344 342 344 345 343 345 346 344 347
355 357 359 360 359 358 356 357 356 356 357 356 355 354 353 353 352 352 354 356 354 347 342 340 339 339 341 342 340 335 332 332 332 333 336 337 337 339 343 346 347 351 354 353 352 353 353 352 350 351 348 345 346 346 344 344 344 346 345 344 345 344 345
353 354 354 355 355 355 355 356 356 356 356 355 354 354 353 353 353 352 354 356 356 352 345 341 339 338 340 342 343 339 334 334 334 332 336 340 338 338 345 348 347 350 352 352 354 354 353 352 349 347 346 347 350 348 345 345 345 346 345 344 346 345 344
352 352 352 353 353 352 354 356 357 356 356 356 355 354 354 354 353 352 353 355 357 356 350 347 345 342 340 341 344 344 337 335 336 333 337 344 344 341 346 348 346 348 351 351 353 353 353 353 351 346 342 344 349 349 346 344 344 345 344 345 346 346 345
351 351 351 352 352 353 354 356 356 355 354 355 355 355 353 353 353 352 352 354 357 359 356 355 354 351 346 343 345 349 342 335 337 336 337 345 348 345 346 349 347 347 349 350 352 352 352 354 354 348 341 340 344 347 346 342 343 344 343 344 345 346 348
349 350 351 351 352 353 354 356 356 356 356 355 354 354 353 353 353 351 351 353 358 359 358 359 359 356 354 351 350 353 347 337 336 337 339 346 350 348 347 348 348 348 349 349 350 351 350 353 355 351 345 341 341 345 348 344 341 343 342 342 342 346 351
347 348 349 351 352 353 354 354 356 358 359 356 353 354 353 353 353 352 352 353 355 357 357 358 358 357 357 356 354 355 353 347 341 337 342 348 350 350 349 348 347 348 349 349 348 349 349 350 353 354 351 349 345 346 349 347 342 341 344 343 340 342 348
345 347 347 349 350 351 352 352 354 356 356 355 354 354 354 353 352 351 351 352 352 354 355 356 357 356 355 354 354 355 355 355 351 342 343 349 351 349 349 349 347 347 348 348 347 348 349 349 351 353 353 354 352 348 349 349 345 341 344 346 342 338 343
343 344 345 347 348 348 349 350 352 353 353 353 353 353 353 353 352 351 351 352 353 354 355 355 357 356 354 353 354 353 352 355 356 351 349 350 350 349 349 349 348 348 347 347 347 347 347 347 349 351 349 350 354 351 348 350 348 342 341 344 345 341 342
341 341 342 344 345 345 347 348 349 350 351 353 353 353 353 352 352 354 355 355 355 355 355 355 355 356 356 356 355 352 349 351 353 354 353 352 350 349 349 349 349 349 348 346 346 346 346 346 347 350 346 344 349 351 347 347 347 344 339 341 344 343 340
340 340 339 340 342 343 344 346 346 346 347 349 351 352 352 352 353 355 356 355 355 355 354 353 354 356 356 356 355 352 348 347 349 352 354 353 351 348 348 348 347 349 348 347 346 345 345 345 345 348 347 343 343 345 342 341 342 342 340 341 344 344 341
338 339 338 338 339 339 341 342 343 344 344 345 346 347 349 352 352 353 353 353 353 353 352 352 353 354 354 353 353 351 349 347 348 351 351 351 351 349 347 346 345 346 347 347 346 345 344 346 345 345 346 344 343 343 341 337 336 337 336 339 346 350 348
337 337 336 336 336 337 339 339 340 341 342 342 343 345 348 351 352 352 352 352 353 353 352 352 352 353 352 352 350 349 350 350 349 351 351 350 350 349 347 347 345 344 345 346 346 345 343 344 345 345 345 345 344 344 343 340 336 335 334 333 338 347 351
336 335 335 335 335 335 336 337 338 338 339 340 341 343 347 350 351 352 352 352 353 353 353 352 352 352 352 351 350 349 350 352 352 352 352 351 351 350 348 347 346 344 343 343 345 345 344 342 343 345 346 346 345 345 346 345 341 336 332 331 330 334 342
335 335 335 334 334 334 334 335 336 336 337 338 338 340 344 348 351 351 350 351 352 352 353 353 352 352 352 352 352 351 351 352 352 352 353 352 352 352 350 347 345 345 344 343 343 344 344 343 341 343 345 346 346 345 345 346 344 338 331 329 329 327 331
334 334 334 334 334 334 333 334 334 334 334 336 336 337 340 344 347 347 347 349 350 351 352 353 353 353 352 352 352 351 352 353 352 353 352 352 351 352 352 351 349 346 344 344 344 344 345 344 342 342 342 345 347 347 347 346 345 342 336 330 329 328 328
332 332 332 332 332 333 333 333 333 333 333 332 335 337 337 340 343 345 345 347 348 350 351 352 353 353 352 353 353 352 353 352 352 352 352 353 351 349 351 353 352 349 347 346 345 345 345 345 344 342 341 342 344 347 348 348 346 345 342 337 333 331 330
330 330 330 330 330 331 331 331 332 332 332 331 333 334 335 336 340 342 343 344 346 347 349 351 352 352 352 352 353 353 352 352 352 352 352 354 353 350 349 350 349 349 349 349 348 347 346 346 346 345 343 341 342 343 345 347 348 346 344 341 339 336 334
329 329 329 329 328 328 329 329 330 331 331 330 331 333 332 332 336 339 340 341 344 346 347 349 350 351 352 352 352 352 352 351 351 352 352 353 353 351 350 348 347 347 348 348 349 349 349 349 348 348 346 343 343 343 343 345 347 347 345 343 341 340 338
327 326 327 328 327 326 327 327 327 328 329 328 328 331 331 329 333 337 337 337 340 341 341 344 347 348 349 351 351 351 351 350 351 351 351 352 351 351 351 350 349 350 350 348 348 349 350 351 351 351 351 349 347 345 344 345 346 346 345 344 343 342 340
326 325 325 326 325 325 325 326 326 326 327 327 326 328 330 329 329 334 336 337 338 336 332 333 340 344 346 348 350 350 350 351 350 351 351 351 351 351 352 352 351 352 353 352 352 351 351 351 351 353 354 354 353 351 349 348 348 347 346 346 345 344 343
324 324 324 324 324 323 323 324 325 325 325 325 324 325 328 328 327 329 334 337 338 335 329 324 328 334 338 342 346 348 349 351 351 352 352 352 352 352 352 353 353 353 354 353 353 353 352 350 350 352 353 353 354 355 355 354 352 351 349 348 347 346 345
323 322 322 323 323 322 321 322 324 323 323 324 324 323 325 327 326 325 327 333 336 336 332 325 322 325 326 330 338 342 345 348 349 351 352 352 352 352 353 353 354 354 354 352 352 352 351 350 350 351 352 351 351 353 355 356 356 355 354 352 351 349 348
322 322 321 322 321 320 321 322 322 322 322 322 322 323 323 325 326 321 319 324 330 333 333 327 321 322 322 323 328 334 340 345 347 348 351 352 352 353 354 354 354 354 353 352 352 352 352 351 350 350 351 350 349 349 350 353 357 358 356 355 353 352 351
321 321 321 320 320 319 320 322 321 320 321 321 320 322 322 323 326 324 318 319 322 326 328 323 317 319 322 322 323 325 330 338 343 345 347 348 350 352 353 354 354 354 354 353 353 354 354 354 352 351 350 350 349 349 349 350 355 357 358 357 356 354 353
320 320 320 319 319 319 319 320 320 319 320 320 320 321 321 322 326 323 317 318 322 322 322 318 314 316 319 321 323 323 323 328 334 340 344 344 346 349 350 351 352 352 353 354 354 354 356 355 354 353 352 351 352 352 353 352 354 356 357 358 357 356 355
319 319 319 318 319 319 319 319 320 319 319 320 319 320 321 323 324 321 316 318 323 323 320 315 313 314 315 317 321 322 322 323 326 331 337 340 343 346 347 348 349 350 350 351 352 353 355 355 355 354 354 353 353 354 355 355 355 357 357 357 357 357 357
320 319 319 318 318 318 318 319 319 318 318 318 319 321 322 321 320 319 319 322 324 322 319 315 314 316 316 316 316 316 318 322 323 324 328 331 336 342 342 341 344 347 349 350 350 352 354 354 355 355 355 354 353 353 354 355 357 358 357 356 357 357 357
320 319 319 319 318 319 319 318 318 318 317 318 319 321 320 318 317 318 321 325 324 321 318 316 318 322 323 321 317 314 315 319 323 326 328 329 331 334 335 335 338 341 345 348 350 350 352 354 354 354 355 355 355 354 354 355 357 357 356 355 355 356 357
319 319 319 319 320 320 319 318 318 318 318 319 320 320 320 320 319 320 321 320 318 318 319 320 324 327 327 322 316 314 315 315 318 328 335 335 332 331 330 332 336 338 339 343 347 348 349 351 352 353 354 355 355 355 355 356 356 356 355 353 353 354 355
318 318 319 319 319 318 317 316 317 318 318 318 319 319 320 320 320 321 320 317 316 319 322 323 323 322 321 317 314 315 316 314 313 322 331 332 328 325 325 328 334 338 337 337 339 341 342 343 345 348 350 352 354 355 355 355 355 354 353 352 352 353 354
317 317 317 317 317 317 317 317 317 317 317 317 317 318 319 319 319 321 321 320 319 319 317 315 314 313 314 316 317 315 314 313 313 314 319 325 329 332 332 331 332 333 333 331 333 340 345 346 346 346 347 349 351 352 352 353 354 353 352 352 353 354 355
316 316 316 316 316 316 316 317 317 317 317 317 317 319 319 319 318 319 319 318 316 314 312 311 312 312 311 313 316 316 314 316 317 317 321 331 337 337 335 335 334 334 333 331 331 336 340 343 344 345 347 348 349 349 351 351 352 352 352 353 353 353 354
315 315 315 315 315 315 315 316 316 317 317 317 318 319 319 319 319 319 320 319 317 314 312 313 314 315 314 314 318 322 323 323 324 326 330 334 334 332 332 335 337 337 335 333 331 331 331 332 331 332 334 337 339 342 345 346 347 349 351 353 354 353 354
314 314 314 314 314 314 314 315 315 316 316 317 317 318 318 318 319 320 320 319 319 317 316 315 316 318 321 323 325 327 327 327 327 329 330 330 330 330 329 328 327 326 324 322 324 325 326 327 325 324 323 324 325 329 333 334 336 339 343 349 352 353 354
313 313 313 313 313 313 314 314 315 316 316 317 317 317 318 318 318 318 319 319 319 319 318 317 315 316 319 323 326 328 328 328 327 327 326 327 328 328 326 323 321 320 319 320 322 323 324 324 324 324 324 323 323 325 325 326 327 330 332 337 342 345 347
312 312 312 312 312 313 313 314 315 315 315 316 316 316 317 317 317 317 318 318 318 318 318 317 316 314 314 317 321 324 326 327 328 328 327 327 328 329 328 327 326 324 324 325 327 327 325 324 323 323 324 324 325 325 325 325 326 326 326 328 332 335 337

ECMWFFLT1_850_thetae_096.txt.gz
Theta_e
354 352 353 353 351 350 348 348 347 345 344 344 344 344 344 344 345 345 345 345 344 345 343 339 339 340 339 339 341 346 351 351 350 351 350 350 350 349 349 349 349 350 348 345 343 344 344 343 344 344 344 344 343 345 346 347 348 350 350 349 347 346 344
355 354 354 354 352 351 349 348 348 346 346 345 344 344 345 345 345 345 345 345 344 345 343 339 336 337 336 336 340 346 350 351 351 351 349 349 350 349 348 348 349 348 347 346 344 345 346 345 344 344 344 343 344 345 345 347 347 348 349 349 349 348 345
356 355 355 355 355 353 351 350 348 347 347 346 345 345 346 346 346 346 346 345 345 345 344 340 335 335 335 334 338 343 347 349 350 350 348 348 349 348 348 347 347 346 344 344 345 345 346 347 345 345 345 343 344 345 344 345 345 346 348 349 348 348 346
356 356 355 356 356 354 353 351 349 348 348 347 346 346 346 347 347 347 346 346 346 346 345 342 336 334 334 333 334 339 344 345 346 347 347 346 346 346 347 347 345 344 343 342 343 344 346 348 348 348 348 346 345 345 344 344 344 344 346 346 345 346 346
356 356 355 355 355 354 354 351 350 349 349 349 348 347 347 349 349 348 348 347 346 346 346 344 339 335 335 333 332 334 338 341 341 343 344 344 343 343 345 345 344 342 342 342 343 345 347 348 349 350 350 349 349 347 344 344 344 342 344 343 342 344 345
354 355 355 355 354 354 354 353 352 351 351 351 349 348 347 349 351 350 349 349 348 347 347 347 343 336 335 335 334 333 334 337 339 339 341 342 341 340 340 341 342 340 341 342 342 345 347 348 348 349 349 350 350 347 343 344 343 342 343 343 342 343 343
351 353 354 355 355 355 354 353 353 352 352 351 350 349 347 347 350 350 349 349 347 347 348 348 347 341 336 335 336 335 334 334 334 335 337 338 338 338 337 338 339 340 340 341 342 344 346 347 348 348 347 348 348 347 343 342 343 342 342 343 342 343 343
348 350 351 353 354 354 354 353 353 353 352 352 350 350 348 347 349 351 351 350 348 348 347 348 348 345 339 336 336 337 336 335 334 332 332 334 335 335 335 335 336 338 339 341 342 344 345 346 347 348 348 347 346 345 343 342 342 342 342 343 342 342 343
347 349 350 352 354 354 354 354 354 353 353 352 351 350 349 348 350 351 352 352 351 350 348 349 350 347 342 338 337 338 338 338 338 336 334 333 333 333 333 333 334 335 337 340 342 345 346 346 346 347 348 348 346 344 343 341 341 341 341 342 342 342 343
346 347 348 350 353 353 352 353 354 354 353 352 352 351 352 351 351 352 351 352 353 352 350 350 351 350 346 342 341 344 345 344 342 342 340 338 335 333 333 333 334 336 337 339 342 344 345 346 347 347 348 348 346 345 344 341 339 340 340 340 340 341 342
342 344 346 348 350 351 350 349 350 351 351 351 352 352 354 354 353 352 351 351 354 354 353 351 351 352 351 347 348 351 352 350 347 345 345 344 342 339 337 336 336 339 341 342 343 344 346 347 348 348 347 345 344 343 344 342 340 339 338 337 338 339 339
340 341 343 345 348 350 349 348 349 350 350 351 351 352 353 354 353 353 352 351 352 354 355 353 352 352 353 352 352 352 351 351 351 349 347 345 343 341 341 341 341 342 344 345 345 345 346 348 349 349 347 344 342 341 341 342 341 340 338 337 337 337 337
338 339 340 342 345 347 348 348 348 350 350 350 351 351 352 353 352 352 352 351 351 353 355 354 354 354 355 354 353 352 349 351 354 353 349 346 344 341 340 343 345 346 347 347 347 346 345 347 348 349 349 347 344 341 340 341 341 340 340 339 339 339 337
337 337 338 339 341 343 345 345 345 347 348 349 350 351 351 351 351 352 352 351 350 350 352 353 353 354 355 355 354 353 352 353 354 354 352 352 351 347 341 340 344 349 350 349 348 348 346 346 346 347 348 348 347 344 343 342 341 341 340 340 340 340 339
335 335 335 336 338 339 340 341 342 344 345 345 347 349 350 351 352 353 353 351 350 350 351 351 352 352 353 354 355 354 354 354 354 354 354 354 354 352 349 345 343 349 352 351 350 349 348 347 346 346 346 347 347 347 346 344 343 342 341 340 340 340 339
334 334 333 334 335 336 337 339 341 341 342 343 344 345 347 349 350 350 352 353 353 352 353 353 353 353 353 354 354 355 355 355 354 353 353 354 354 352 352 351 348 349 351 351 350 349 348 348 347 347 346 345 345 346 345 345 345 343 342 341 340 339 337
333 333 332 332 333 334 334 336 339 341 340 341 342 342 343 345 346 347 350 352 353 353 353 354 354 354 353 353 353 353 354 354 353 353 352 353 353 351 351 351 351 351 352 351 349 348 347 347 347 347 347 346 345 344 344 343 344 343 342 342 341 340 339
331 331 331 330 331 332 332 332 335 338 339 339 340 341 341 343 345 346 348 349 350 352 353 353 353 352 352 352 352 351 352 352 351 352 352 351 352 351 350 350 351 351 352 352 350 348 346 346 346 346 347 348 346 344 343 343 342 342 342 342 341 341 342
329 329 329 329 328 330 331 330 330 333 337 338 339 340 341 340 340 341 343 346 347 348 351 352 352 353 353 352 352 352 352 352 351 351 351 351 351 350 350 350 350 351 351 351 350 349 347 345 345 345 346 347 347 345 344 344 343 342 342 341 342 342 343
327 327 327 327 326 326 328 329 327 327 332 337 339 339 338 337 333 331 334 341 345 345 347 349 350 352 353 353 353 353 353 353 353 352 352 352 351 351 351 351 351 351 351 350 350 349 348 346 345 344 345 347 348 347 345 344 344 344 343 342 342 343 344
326 326 325 325 325 325 325 326 326 325 327 331 336 337 336 333 330 325 324 330 335 339 342 344 345 347 349 349 351 352 354 354 354 353 352 352 352 352 352 352 352 352 352 351 350 349 349 348 346 344 345 347 348 347 346 345 345 344 344 344 344 344 345
325 325 324 323 323 323 323 323 325 326 325 325 329 334 335 333 329 323 320 320 322 326 331 334 337 339 341 344 347 348 350 351 352 352 352 352 352 351 352 352 353 353 352 352 351 351 349 348 347 345 344 345 347 348 347 347 346 345 344 344 345 346 346
322 323 323 322 321 321 321 321 323 326 326 325 325 327 329 329 325 321 319 318 317 318 321 323 326 329 331 336 342 344 346 347 348 350 351 352 352 352 352 352 353 353 352 352 352 351 349 347 347 346 345 345 346 347 348 348 348 346 345 345 345 345 346
321 321 321 321 321 320 320 320 322 324 325 324 324 324 324 322 320 318 318 318 316 315 316 318 321 322 324 326 330 334 337 340 342 344 346 347 349 350 351 351 352 352 352 352 352 351 350 349 347 347 347 346 345 346 347 348 349 349 348 347 346 347 348
320 321 321 321 321 320 319 319 320 321 322 322 323 323 323 321 318 315 316 318 317 314 314 316 319 322 322 321 322 325 327 329 332 333 335 336 338 342 345 349 350 351 351 352 352 352 352 351 350 349 349 348 347 346 345 346 347 348 349 349 349 349 349
320 320 320 320 320 320 320 319 319 319 320 321 321 322 321 320 317 314 315 318 317 315 314 316 319 320 319 318 318 321 324 325 327 330 331 331 331 333 336 339 344 347 348 350 351 351 352 353 353 352 351 351 350 348 347 346 346 346 347 348 348 349 349
320 320 319 320 320 320 320 319 319 318 318 319 320 320 320 318 315 313 315 318 319 316 314 315 317 319 320 319 317 317 319 320 322 326 329 329 328 328 330 332 334 338 343 346 348 350 351 351 352 353 352 352 352 351 351 350 348 348 348 348 348 348 348
319 320 319 320 319 319 319 318 318 317 317 318 318 318 318 317 314 313 313 315 318 317 313 312 315 317 319 321 319 316 314 314 316 319 323 325 323 322 327 331 331 332 336 340 343 346 348 349 350 351 352 352 353 353 353 352 352 352 351 350 350 350 349
319 319 319 319 319 319 318 317 317 316 315 316 318 318 318 316 315 315 314 313 316 316 313 312 314 315 316 317 317 315 312 312 313 314 317 321 319 318 325 331 331 333 336 337 337 338 341 344 346 347 349 350 351 352 352 352 353 353 353 353 352 351 349
319 319 319 318 319 318 317 316 315 314 313 314 316 318 317 316 316 317 317 315 314 313 311 311 313 314 314 313 313 312 311 311 312 311 314 317 317 320 329 334 335 336 338 338 337 335 336 340 343 345 347 348 349 351 351 352 352 353 353 353 353 352 351
319 319 318 318 318 317 316 315 313 312 312 312 313 315 315 314 314 316 317 316 314 312 311 310 311 311 311 310 310 310 310 310 311 312 316 320 322 327 335 338 338 337 337 339 341 338 335 337 341 344 346 347 348 349 349 349 350 352 352 352 353 353 352
318 318 317 317 316 316 315 314 313 312 311 311 311 312 312 312 312 313 314 314 313 312 310 310 309 309 308 308 309 309 310 311 311 312 317 323 329 333 335 335 335 335 335 338 341 340 338 339 340 341 343 343 344 346 347 348 348 348 350 350 350 351 353
317 317 316 316 315 315 314 314 313 312 311 310 311 312 312 312 313 313 313 312 312 311 310 309 309 308 308 308 308 308 309 311 312 313 315 320 329 334 334 333 332 333 335 338 339 339 339 339 338 338 337 334 333 336 340 342 344 346 346 343 339 341 344
316 315 315 315 314 314 314 313 313 312 312 313 314 315 314 314 315 315 315 314 313 312 311 310 309 308 308 308 307 308 309 311 313 315 316 318 323 329 332 332 331 331 334 335 335 335 335 336 335 334 329 324 323 326 329 331 333 337 337 331 327 328 330
315 314 314 314 314 313 313 313 312 312 313 314 315 315 315 316 316 316 316 315 314 313 312 312 311 309 309 308 308 308 309 309 311 314 317 319 320 324 328 330 330 330 331 331 330 329 328 329 329 327 323 322 324 326 324 322 324 327 327 325 324 325 325
314 313 313 313 313 312 312 312 312 312 313 315 315 314 315 314 314 314 314 314 314 313 313 313 313 312 311 311 310 310 309 309 309 310 313 316 317 318 320 323 325 326 327 327 325 323 322 324 327 328 329 329 328 325 321 320 322 322 322 323 325 325 326
313 313 312 312 312 311 311 311 312 312 313 314 313 313 313 313 313 313 314 314 314 314 314 314 314 314 314 313 313 312 311 311 310 309 309 310 311 312 314 317 318 318 320 322 324 322 321 322 325 330 332 330 325 321 320 321 321 320 321 324 326 325 324
312 312 312 311 311 311 312 312 312 312 312 312 312 312 313 314 314 315 315 316 316 315 314 315 315 315 315 315 314 313 313 312 312 312 311 310 310 310 312 315 316 316 316 318 320 320 318 317 318 323 326 326 323 323 323 321 319 318 320 322 322 320 320

ECMWFFLT1_850_thetae_099.txt.gz
Theta_e
349 347 348 350 351 351 347 343 341 342 343 342 343 343 343 343 343 343 342 342 342 341 340 339 338 338 336 337 338 339 339 342 346 348 349 349 349 347 346 345 346 346 343 341 341 342 343 343 343 343 343 343 342 342 343 344 344 345 347 348 348 346 343
352 350 348 350 351 351 350 347 343 342 342 342 342 343 344 343 343 343 342 342 342 342 339 337 337 336 335 336 337 339 339 341 346 349 349 350 350 349 348 347 347 347 346 344 342 342 343 343 343 343 343 343 343 342 342 344 344 345 347 348 348 347 346
353 352 350 350 351 351 351 349 345 342 342 343 343 343 344 344 343 343 343 343 343 343 340 336 336 336 335 335 336 338 339 340 344 349 350 350 350 349 349 349 348 347 347 347 345 343 343 343 343 343 343 343 343 343 343 344 345 345 345 346 347 347 348
353 353 351 350 351 351 351 350 348 345 343 342 343 343 344 344 343 343 343 343 344 344 341 336 335 336 335 334 334 336 338 339 342 348 350 350 349 349 349 350 349 348 348 348 347 345 343 343 343 343 343 343 343 343 343 344 345 345 345 345 346 347 347
353 353 352 352 353 352 352 351 349 346 344 343 343 343 344 343 344 343 343 344 344 344 343 338 335 334 334 334 333 334 336 339 341 346 349 349 349 349 349 349 349 348 348 347 346 345 344 344 344 345 344 343 343 343 344 345 345 344 344 345 345 345 345
354 354 354 354 353 352 352 351 349 347 346 346 344 343 344 343 344 344 344 344 344 345 345 343 342 340 336 334 332 333 335 338 341 344 346 348 348 348 347 347 347 347 347 347 345 344 344 344 345 346 346 344 345 345 345 345 344 344 343 343 343 343 343
353 353 354 355 353 354 353 352 351 348 347 347 346 344 344 344 344 344 344 345 345 345 346 345 346 345 342 337 333 332 333 336 340 343 345 346 347 346 346 345 345 345 346 346 344 343 342 343 344 346 347 346 346 346 346 345 344 343 343 342 342 342 342
350 352 353 354 353 353 352 351 351 350 349 349 347 346 345 344 345 345 345 345 346 346 346 346 346 346 346 342 337 334 332 334 337 341 344 345 344 344 344 343 342 342 344 345 343 342 342 342 344 345 346 347 347 347 347 346 345 344 342 341 342 342 342
347 350 352 352 352 351 351 352 352 350 349 349 348 347 346 346 346 346 346 346 346 346 346 347 347 346 347 346 342 337 334 333 334 336 340 341 341 341 340 340 338 338 340 341 341 342 342 343 344 346 347 348 348 348 348 347 346 345 343 342 341 341 342
345 348 351 351 351 349 349 352 352 351 350 349 349 348 347 347 346 346 347 346 346 346 346 347 348 347 347 347 346 342 337 334 333 334 335 337 338 338 337 336 335 334 335 336 339 340 342 343 345 347 349 349 349 349 349 349 347 346 344 342 341 341 341
346 348 350 350 349 347 347 350 351 351 350 350 350 350 349 349 348 347 346 347 347 347 346 348 349 348 347 347 348 346 341 336 335 334 334 334 334 334 333 332 331 331 332 333 335 337 340 343 344 345 347 348 349 350 351 351 350 348 346 343 341 340 340
344 347 349 348 347 345 345 348 350 350 350 350 350 350 351 350 349 347 346 347 349 348 348 348 349 349 348 347 348 349 345 340 337 336 335 334 334 333 331 330 329 330 331 331 332 334 337 341 343 343 344 346 348 349 350 350 350 349 348 345 342 340 339
342 345 347 346 346 346 345 347 348 349 349 350 350 350 350 350 349 349 347 347 348 349 349 349 350 350 349 348 348 349 349 345 340 338 336 335 336 336 335 333 331 330 331 331 332 333 336 341 343 342 343 345 347 348 349 349 348 348 347 347 345 342 340
341 344 346 346 345 345 345 346 348 348 347 349 350 350 351 351 350 351 350 349 349 349 349 351 352 352 352 350 350 351 352 351 349 347 344 341 339 339 338 338 337 334 333 333 332 333 335 339 343 343 342 343 345 347 348 348 348 348 347 347 347 345 342
340 341 342 343 343 344 344 345 347 346 346 348 349 350 351 351 351 351 352 351 351 350 350 352 353 354 353 352 352 353 354 354 353 353 353 351 348 344 342 341 341 340 337 335 335 335 334 337 342 344 343 341 342 343 345 347 347 346 346 346 346 345 344
337 338 339 340 341 342 343 343 344 345 346 347 348 349 349 349 350 350 351 351 351 350 350 351 352 353 354 353 353 353 353 352 352 351 352 354 353 351 349 347 347 347 344 339 336 336 336 339 344 347 346 344 342 342 343 345 344 344 344 344 345 345 344
334 335 337 339 340 341 341 341 342 343 343 344 345 347 347 347 348 348 349 350 349 349 349 350 350 351 352 353 354 353 352 352 352 351 350 351 352 352 353 352 353 353 351 348 343 340 339 341 345 348 349 347 345 344 344 345 344 344 344 344 344 344 344
332 333 335 337 339 339 339 340 341 341 340 339 340 343 345 345 345 346 347 347 348 348 349 350 351 351 351 351 352 352 352 352 352 352 352 351 351 352 352 352 353 354 354 353 351 348 346 345 346 348 349 349 348 346 345 345 345 345 344 344 344 344 344
332 332 332 333 335 337 338 339 340 340 338 336 334 335 338 340 342 343 344 345 347 348 349 349 351 351 351 351 351 351 352 352 351 351 351 351 351 351 351 350 350 352 353 353 353 352 351 350 349 349 349 348 347 347 346 345 345 345 345 344 343 343 344
330 331 331 330 331 335 337 338 338 338 337 335 332 329 329 332 336 339 340 341 343 345 346 347 348 348 349 350 351 351 351 351 351 351 350 350 350 350 350 350 349 350 351 351 352 352 352 352 351 350 350 348 346 346 346 345 345 345 345 345 344 343 344
326 328 329 329 329 332 336 337 337 337 336 336 333 328 325 325 327 330 333 335 338 340 342 344 345 345 345 346 348 349 350 350 351 352 351 351 351 351 351 351 350 350 351 351 351 351 351 351 351 351 351 350 348 346 345 345 345 344 345 346 345 344 344
324 324 326 328 327 328 331 332 333 334 334 334 332 328 324 322 321 322 325 329 332 334 336 339 341 342 342 342 343 344 346 347 348 349 350 351 352 352 352 352 351 351 351 351 351 351 351 351 351 351 350 349 349 348 347 346 345 344 344 345 345 345 345
322 322 323 325 326 326 326 326 328 329 330 329 328 327 324 321 318 317 319 322 326 327 328 330 333 335 335 335 336 338 339 341 344 347 348 348 349 351 352 351 351 351 351 351 351 351 351 352 351 351 351 350 349 349 348 347 345 344 345 346 346 346 346
320 321 322 324 326 326 326 325 325 325 324 324 324 323 322 320 317 315 315 317 320 323 324 325 328 329 329 329 329 331 331 333 336 340 341 341 342 345 348 349 349 350 351 351 352 352 351 352 352 351 350 350 350 349 349 347 345 345 346 347 348 348 347
319 320 321 323 325 325 325 324 323 323 322 322 321 320 319 317 315 315 315 315 315 318 321 323 323 324 325 326 328 329 329 329 331 333 334 335 336 338 341 344 346 348 349 350 351 351 351 351 351 351 351 350 349 349 348 347 346 345 345 346 347 348 348
319 320 320 320 321 321 321 321 321 321 320 320 320 319 318 317 315 314 315 315 315 315 317 319 319 318 320 322 324 327 329 331 331 331 331 332 333 334 335 336 339 343 346 348 349 349 350 350 350 351 352 351 351 351 350 350 349 348 347 346 346 347 348
320 320 319 320 319 319 319 319 319 319 319 318 318 318 317 316 315 313 314 314 315 314 315 317 318 317 316 316 317 319 321 324 326 328 329 329 330 332 332 332 333 337 339 342 344 345 346 348 348 350 351 351 352 352 352 352 352 351 351 351 350 349 349
320 320 319 319 319 319 319 319 318 318 317 317 316 315 315 315 314 314 314 313 314 314 313 314 315 316 316 316 316 315 314 315 317 320 323 324 323 325 328 328 330 332 334 336 338 339 340 342 344 346 347 348 349 350 351 352 352 352 353 353 353 353 352
320 320 319 319 319 318 318 318 317 316 316 315 314 313 313 314 314 314 314 314 315 314 312 312 312 313 314 315 315 313 312 312 312 313 316 318 317 319 324 326 328 332 335 337 338 337 336 338 340 342 344 346 347 347 348 349 351 352 353 353 353 353 353
320 319 319 319 318 318 318 317 316 315 314 313 313 312 311 312 313 313 313 314 314 313 312 311 310 311 311 311 311 311 310 311 311 311 313 316 315 320 328 331 333 335 337 338 339 338 336 337 340 342 344 345 345 346 347 348 350 351 352 352 352 352 353
319 320 319 319 319 318 318 317 316 314 313 312 312 311 311 311 311 311 311 311 312 312 311 311 310 310 310 309 309 309 309 310 310 311 315 318 319 324 332 335 336 337 337 337 339 340 338 338 340 342 342 342 341 340 341 343 345 346 347 349 351 351 351
319 319 319 318 317 316 315 314 313 313 313 312 312 311 311 311 311 311 311 311 311 311 310 310 309 309 309 308 308 308 308 309 310 312 317 322 325 328 333 334 335 335 335 336 339 340 338 338 339 338 338 337 333 329 329 333 337 337 337 341 346 347 346
318 318 317 316 315 314 314 313 313 313 312 312 312 311 311 311 312 314 314 314 313 312 311 310 309 309 309 308 308 308 308 308 309 310 315 321 326 330 331 331 332 333 334 335 337 338 337 336 335 334 334 332 327 321 319 323 327 329 329 331 336 340 341
318 317 316 315 314 314 314 313 313 313 312 312 312 311 310 311 313 314 315 315 314 314 312 311 310 310 310 309 309 308 308 308 308 308 310 314 320 325 329 330 330 330 331 332 333 333 333 332 331 331 330 328 324 320 318 321 323 324 325 327 328 331 333
317 316 315 315 314 313 313 313 313 312 312 312 312 311 310 311 312 313 313 313 313 313 312 311 310 310 310 310 310 310 309 308 308 308 309 309 311 315 321 325 327 328 329 329 329 329 329 328 327 326 325 324 323 321 319 321 322 321 323 324 324 325 327
316 315 314 314 314 313 313 312 312 312 312 311 311 311 311 311 311 311 311 311 311 311 311 311 310 310 310 311 311 312 311 311 310 309 309 309 309 309 311 315 319 323 325 327 327 327 327 326 325 324 323 324 326 326 326 325 322 319 321 322 321 323 325
315 314 314 313 313 313 312 312 311 311 311 311 311 311 311 311 311 310 310 311 312 312 311 312 311 311 311 312 312 312 312 312 312 311 310 310 309 309 308 308 310 313 317 321 324 325 325 325 325 324 323 323 325 326 326 325 321 319 320 320 319 320 322
314 313 313 313 312 312 312 311 311 311 311 311 311 310 310 310 311 310 310 311 312 312 312 312 312 313 313 313 313 313 313 312 313 313 313 312 311 310 310 309 308 308 310 313 316 317 319 321 321 320 319 318 318 319 319 319 318 319 320 319 317 318 320

ECMWFFLT1_850_thetae_102.txt.gz
Theta_e
349 349 348 347 346 342 341 342 343 343 344 343 343 343 343 343 343 342 342 343 343 343 343 342 341 341 340 339 339 339 340 342 343 344 346 348 349 349 349 349 348 347 345 343 342 341 342 343 344 345 344 343 343 343 343 343 343 343 342 344 347 348 346
348 349 348 348 350 346 342 341 342 343 344 343 343 343 343 343 343 342 342 342 342 342 342 342 341 339 338 338 337 338 338 339 341 342 344 347 348 348 349 349 348 347 346 345 344 344 344 344 344 345 344 343 343 343 342 342 343 343 343 344 347 348 347
348 348 348 348 350 350 347 343 341 342 343 343 343 343 343 343 342 342 342 342 342 342 342 342 342 339 337 337 336 336 337 338 338 339 341 345 347 348 349 349 348 347 347 347 347 347 346 345 346 345 344 343 343 342 342 342 343 343 344 345 346 347 347
348 347 347 348 349 349 350 347 342 341 342 343 343 342 342 342 342 342 342 342 342 342 342 342 342 340 337 335 334 335 335 336 337 337 338 342 347 348 348 349 348 348 348 348 347 348 347 346 346 346 344 343 343 343 343 343 343 344 344 344 345 345 346
350 349 347 348 348 348 351 350 346 342 341 342 342 342 343 342 342 342 342 342 343 343 342 342 342 341 338 335 333 333 334 335 336 336 336 340 346 348 348 347 347 347 347 347 347 348 347 347 346 345 344 343 342 342 342 343 343 343 344 344 344 344 345
352 351 349 348 348 349 351 351 349 346 342 341 341 342 343 342 342 342 342 343 343 343 343 342 343 343 340 337 334 333 333 333 335 336 336 338 344 348 347 346 346 346 346 346 346 347 346 346 346 345 345 344 343 343 342 342 343 343 344 344 344 344 344
352 352 351 350 349 350 350 349 350 349 347 344 342 342 342 342 342 342 342 343 342 343 343 343 343 343 342 339 336 334 333 333 333 335 337 337 341 345 346 345 345 344 344 345 345 346 345 344 344 344 345 346 346 345 344 344 344 344 344 343 343 344 343
353 352 352 352 351 351 350 348 348 349 349 347 344 343 343 343 343 343 342 342 343 343 343 343 343 344 344 341 339 337 334 333 333 334 336 337 338 342 344 345 343 343 343 343 343 344 343 342 342 343 344 346 347 347 347 347 347 347 345 343 343 342 342
352 352 353 353 353 353 352 351 350 350 350 349 347 344 343 343 344 343 342 342 343 343 343 343 343 344 345 345 343 342 339 336 334 334 335 337 338 339 341 342 342 341 341 341 341 342 342 341 340 341 342 345 346 347 348 348 349 349 348 346 344 343 342
352 352 352 352 353 353 353 352 351 351 351 350 349 346 345 345 345 345 344 343 343 343 343 344 344 344 345 345 345 345 344 342 338 335 334 335 337 338 339 340 341 340 340 340 340 340 340 340 340 340 341 342 343 345 346 348 349 350 350 349 347 344 343
349 350 350 350 351 351 352 351 351 351 351 350 349 347 346 347 346 345 344 344 343 343 344 344 344 345 346 346 346 346 346 346 343 339 336 334 335 336 337 339 339 339 339 339 339 338 338 338 339 339 340 340 342 344 345 347 348 349 350 350 349 347 344
346 347 348 348 349 349 350 351 350 351 351 349 349 348 348 347 346 345 344 345 345 345 346 346 345 346 347 347 348 348 347 347 346 344 340 336 335 334 335 337 338 338 338 338 338 336 336 336 338 339 339 339 341 344 345 347 347 348 348 348 348 348 346
345 346 346 347 347 346 347 349 350 350 349 348 348 348 349 348 347 346 346 347 348 348 348 348 347 346 346 347 349 349 349 348 347 348 345 341 338 336 336 336 336 337 337 336 335 334 333 334 335 337 339 339 340 342 345 347 347 347 346 346 346 346 345
343 345 345 345 345 345 345 347 348 349 348 348 349 349 349 349 348 348 347 347 348 347 348 348 348 347 346 345 346 348 350 349 348 348 348 346 343 340 339 337 335 336 336 336 335 333 332 332 334 336 338 340 340 341 344 347 348 348 347 346 346 345 345
342 344 345 345 345 344 345 346 347 347 348 348 349 349 349 349 349 349 349 348 348 347 347 346 347 348 349 348 346 347 350 350 350 348 349 349 347 344 342 341 338 335 336 337 338 336 334 332 333 335 339 341 342 342 343 345 346 347 348 347 346 345 344
340 342 344 344 344 344 345 345 346 346 347 348 348 349 349 349 349 349 349 349 349 348 347 346 347 348 350 350 349 349 351 351 351 350 349 350 349 347 346 346 344 341 338 339 340 342 342 341 338 337 338 342 344 344 344 344 345 345 346 347 346 345 345
339 340 342 342 342 343 343 344 345 345 346 346 346 348 348 347 348 348 347 347 348 348 348 348 348 349 350 351 351 351 352 352 351 350 350 350 351 351 350 351 350 348 345 343 342 343 344 345 344 342 341 342 344 345 346 345 344 344 345 346 346 346 346
338 339 340 340 339 338 337 337 339 340 341 342 343 344 345 345 345 345 345 346 346 347 348 348 349 349 350 350 351 351 352 352 352 352 352 351 352 353 354 354 353 351 349 347 346 346 344 343 342 342 344 344 345 346 346 345 345 345 346 346 346 347 347
336 337 339 338 336 333 331 331 331 333 335 337 339 340 341 342 343 343 344 345 346 346 347 347 348 349 349 349 349 350 351 351 352 352 352 352 353 354 354 354 354 352 351 350 349 348 347 346 344 343 345 347 347 347 347 347 346 346 346 346 346 346 347
335 337 339 338 336 334 332 330 329 329 330 332 335 337 338 339 340 340 342 342 343 345 346 346 346 347 347 348 348 349 350 350 350 350 351 352 352 352 352 352 353 352 352 351 350 349 349 349 348 347 348 349 350 349 349 349 348 348 347 346 346 345 345
334 336 338 338 337 336 335 332 329 328 327 327 328 330 332 335 337 337 338 339 340 341 342 344 345 345 344 345 346 347 348 349 350 350 350 351 351 351 351 351 351 351 351 351 351 350 350 350 349 349 349 351 352 351 350 350 349 349 349 348 347 346 344
334 335 336 336 336 336 335 333 330 328 326 323 321 322 324 328 331 333 334 334 335 336 337 340 342 342 341 342 343 343 344 346 348 349 349 350 350 351 351 351 351 350 350 350 350 350 350 350 350 349 350 351 351 351 351 351 351 350 350 349 348 347 346
332 333 333 333 334 334 333 330 327 325 322 319 317 317 318 320 323 327 329 330 332 332 332 333 335 335 336 337 337 337 339 341 343 345 346 348 349 350 350 351 351 350 350 350 351 350 350 350 350 350 350 350 350 350 351 351 350 350 349 349 348 348 347
328 329 329 329 330 330 328 326 324 322 320 317 316 316 316 315 317 319 323 327 328 328 328 329 329 329 330 332 332 332 334 335 336 338 341 344 346 347 348 348 349 351 351 351 351 351 351 351 351 351 351 351 350 350 351 350 350 350 350 349 349 349 348
326 325 326 326 326 326 325 323 322 321 320 319 318 317 315 314 314 314 316 320 322 323 323 325 326 326 327 328 330 331 331 332 331 332 334 337 340 343 343 344 347 349 350 350 351 351 351 351 352 351 351 351 351 351 350 350 350 350 349 349 348 348 347
325 325 325 325 324 324 323 322 321 321 320 318 318 317 316 315 315 314 314 314 316 317 318 320 323 324 323 323 324 327 329 329 329 330 330 331 333 337 338 338 340 344 347 349 348 348 349 350 350 351 351 351 351 351 351 351 351 351 350 349 349 348 348
325 326 325 324 323 322 321 321 320 319 318 317 317 317 316 316 315 315 314 313 313 314 314 316 319 320 320 319 318 318 320 322 324 325 327 328 330 332 333 332 333 336 339 341 342 343 345 347 347 347 348 348 349 350 351 351 351 352 352 351 351 351 351
324 323 322 321 320 319 320 319 318 318 317 317 316 316 316 315 314 314 314 313 313 312 312 312 313 314 316 317 316 314 313 314 315 317 319 322 323 325 327 327 328 332 334 336 338 338 340 341 342 343 344 345 346 347 349 349 350 350 351 352 352 352 352
320 319 319 319 318 318 318 318 318 318 317 316 315 315 314 314 314 313 313 312 312 312 311 311 311 311 312 313 313 313 312 312 312 312 315 318 319 322 328 330 332 334 336 337 338 337 336 338 340 342 343 344 345 345 346 347 348 348 349 350 351 351 352
320 319 318 318 318 318 318 318 317 316 314 313 313 313 313 313 313 312 312 312 312 312 311 310 310 310 310 310 310 311 310 310 311 312 314 318 320 325 331 335 335 337 338 338 339 338 336 337 340 342 342 343 344 344 344 344 345 346 347 347 349 349 350
321 319 318 318 319 318 318 316 314 312 312 312 311 311 311 311 311 311 311 311 311 311 311 310 310 309 309 309 309 310 310 310 310 311 313 317 319 323 329 333 335 336 336 337 338 339 337 337 339 341 340 340 340 338 335 334 335 338 340 342 345 346 347
320 320 319 319 318 317 315 314 313 312 312 312 311 311 311 311 311 311 311 311 311 310 310 310 309 309 309 309 308 309 309 309 309 309 310 313 316 319 324 328 332 333 334 334 336 337 337 337 338 338 338 337 336 331 327 327 329 330 330 332 334 335 337
319 318 318 317 316 315 314 313 313 313 312 311 311 311 311 310 310 310 311 312 312 311 311 310 310 309 309 309 308 308 308 308 308 308 309 310 312 315 319 324 328 330 331 332 333 334 335 336 336 335 334 333 331 328 325 326 328 328 327 326 325 325 326
318 318 317 316 315 314 314 313 313 312 311 311 311 311 311 311 311 310 310 311 311 311 311 310 310 310 309 309 309 308 308 308 307 308 308 308 309 312 316 321 326 329 329 329 329 330 332 333 333 332 330 328 326 325 322 322 323 324 324 323 322 321 321
318 317 317 316 315 314 314 313 312 311 311 311 311 311 311 311 311 310 310 310 310 310 310 310 310 309 309 308 308 308 308 309 308 308 308 308 308 309 311 314 320 325 327 328 328 328 329 329 330 330 328 327 325 324 322 321 320 321 322 322 320 319 319
318 317 316 315 315 314 313 313 312 311 311 311 311 311 311 311 311 311 311 311 311 310 310 310 310 309 309 309 308 308 308 308 308 308 308 308 307 307 308 308 310 313 317 321 324 326 327 328 328 327 327 327 326 325 323 322 322 323 325 325 323 320 318
317 316 316 315 314 314 313 312 311 311 311 310 310 310 310 310 310 311 311 311 311 311 311 310 310 310 310 310 310 310 310 309 309 309 308 308 308 307 307 307 308 308 309 311 314 318 322 325 326 327 327 326 326 325 323 323 323 323 325 325 323 321 320
317 316 315 314 314 313 312 311 311 311 310 310 309 308 308 309 309 310 310 311 312 311 311 311 310 310 310 310 310 311 311 311 311 311 310 310 310 309 309 308 308 308 309 308 309 310 312 316 319 322 324 324 324 323 322 320 320 320 320 320 320 320 320

ECMWFFLT1_850_thetae_105.txt.gz
Theta_e
351 350 349 349 349 348 347 347 346 346 346 346 345 345 344 344 344 343 343 344 343 343 344 346 346 344 342 341 341 341 340 339 341 343 345 347 349 350 350 350 350 351 350 347 344 343 343 343 344 344 345 345 344 344 345 345 345 344 343 343 344 346 348
352 350 349 349 348 348 347 346 345 345 345 345 345 344 344 344 343 343 343 343 343 343 344 345 345 344 343 342 341 340 340 340 340 341 344 346 348 350 350 350 350 350 350 349 345 344 344 344 344 344 345 346 345 344 344 344 344 344 344 344 344 346 348
352 351 350 349 348 347 345 343 343 344 344 344 344 343 343 343 343 343 343 343 343 343 343 344 344 344 343 343 342 342 341 340 340 341 343 345 347 349 349 350 350 350 350 349 347 346 346 345 344 345 346 346 346 345 344 344 344 344 344 345 345 346 348
352 351 350 349 348 347 344 342 341 342 342 343 343 342 342 342 342 343 342 343 343 342 343 344 344 344 344 343 343 343 342 340 340 340 342 343 346 348 349 349 350 350 349 349 348 348 349 347 346 345 346 346 346 345 344 344 344 343 344 345 346 347 347
351 352 350 349 348 347 346 344 342 341 341 342 342 343 343 343 343 343 343 343 343 343 343 343 343 343 344 344 344 344 343 341 339 340 341 342 344 347 348 349 349 350 349 349 349 349 349 348 346 345 345 345 345 344 343 344 343 343 344 344 345 346 346
351 351 350 349 348 347 346 346 344 342 340 341 342 343 343 343 343 343 343 343 343 343 343 343 343 343 343 343 343 343 343 341 339 339 339 340 341 344 346 348 349 349 349 349 349 349 349 348 347 345 344 344 344 343 343 343 343 344 344 344 345 345 345
351 351 350 349 348 347 347 348 347 344 342 341 341 342 343 343 343 343 343 343 343 342 342 343 343 343 343 343 343 343 343 342 340 338 338 338 339 340 343 346 348 349 348 348 348 349 348 348 347 346 345 344 344 344 344 344 344 345 346 346 345 344 344
351 350 348 348 348 348 349 350 350 347 344 341 341 341 342 342 342 343 343 344 344 343 343 342 343 343 343 343 343 343 343 342 341 339 337 337 338 338 339 343 347 348 348 348 348 348 348 347 347 345 344 344 344 344 346 345 345 347 348 347 346 345 344
351 349 348 347 347 347 348 348 349 349 347 345 344 344 343 342 342 343 343 343 344 344 344 343 343 343 344 344 343 343 343 342 342 341 339 337 337 337 338 340 344 347 348 347 347 347 347 347 346 345 343 343 343 344 346 346 346 347 348 348 348 347 345
353 352 350 349 348 347 346 345 346 347 347 347 347 347 346 346 344 343 342 343 343 344 344 344 344 344 344 344 344 344 344 343 343 343 342 340 337 336 337 338 341 345 347 347 346 346 345 346 345 344 343 342 342 343 345 346 347 347 348 348 348 347 346
352 353 352 351 351 350 347 346 345 345 345 347 347 347 347 348 347 344 343 343 343 342 342 343 344 344 344 344 344 345 345 344 345 345 345 343 340 337 337 338 339 342 345 346 345 343 343 343 343 342 341 341 341 342 343 345 346 347 348 348 348 347 347
350 351 352 352 352 352 351 349 348 347 347 347 347 347 347 348 347 345 344 344 343 342 342 342 343 343 343 344 344 344 345 345 346 346 346 346 344 341 338 337 338 340 343 344 344 342 341 340 340 340 340 340 340 341 343 344 346 347 348 349 349 348 347
348 349 349 350 351 351 351 350 349 349 349 349 349 349 348 348 347 346 345 344 343 343 342 343 343 343 343 343 343 344 344 345 346 346 347 347 347 345 342 339 338 338 341 344 344 343 341 339 338 337 337 339 340 341 341 343 344 346 347 349 349 349 348
346 346 346 347 348 348 348 348 348 349 349 350 350 349 349 348 347 347 346 345 344 344 343 344 344 344 343 343 343 344 344 344 345 346 347 348 347 347 346 343 340 338 339 341 342 344 343 341 339 336 335 335 336 338 339 339 341 343 345 347 348 348 348
344 344 344 345 346 346 347 347 348 348 349 349 349 349 349 348 347 347 347 347 346 345 345 345 345 345 344 343 343 344 344 344 344 345 345 347 348 348 347 346 343 340 339 338 338 339 339 339 338 335 333 332 332 333 335 336 337 339 342 345 347 348 348
342 343 343 344 344 345 346 347 348 348 348 348 349 349 349 348 348 348 348 348 347 347 347 346 346 346 345 345 345 345 345 344 344 345 344 346 348 349 348 348 347 343 340 338 337 336 334 334 334 332 331 330 330 331 332 334 335 336 339 342 345 346 347
341 341 341 342 342 343 344 345 346 346 346 346 346 347 348 348 349 348 348 348 348 348 348 348 348 347 346 347 347 347 346 346 347 346 345 346 348 349 349 350 349 347 343 340 339 337 335 335 335 334 332 330 330 330 331 333 334 335 339 341 343 344 345
339 339 339 340 341 341 342 343 344 344 344 344 345 346 346 346 347 347 346 347 347 348 348 348 348 348 347 348 347 346 346 347 348 348 349 349 349 349 349 349 350 349 346 342 341 340 339 339 338 338 337 335 333 333 332 333 333 335 339 341 342 344 345
337 337 337 338 339 339 340 340 341 341 342 342 343 344 345 345 346 346 346 346 347 347 347 348 348 348 348 348 349 348 348 348 349 350 351 351 351 350 350 349 349 349 347 345 345 345 344 344 343 343 342 340 338 337 335 335 334 334 338 342 344 345 346
335 334 334 334 335 336 337 338 338 339 339 340 341 341 342 343 344 344 345 346 346 346 347 347 347 347 348 348 349 349 349 349 350 350 351 351 351 351 352 351 350 350 350 349 349 349 348 348 348 347 347 346 344 343 341 339 336 334 336 342 346 346 346
332 331 330 330 331 332 333 334 334 335 336 337 337 338 339 340 341 342 342 343 344 344 345 346 346 347 347 347 348 348 349 348 349 349 350 350 350 351 352 352 352 351 351 350 350 350 350 350 351 350 350 349 349 348 347 345 343 340 339 343 346 348 348
332 330 329 327 327 326 327 327 327 329 330 330 331 332 334 335 337 339 340 340 340 340 341 342 343 344 344 345 346 346 347 347 347 348 348 349 349 349 350 351 352 351 351 351 350 350 350 351 351 351 351 350 350 349 349 348 348 347 346 346 348 349 350
332 331 329 328 326 324 323 321 321 322 322 322 323 325 326 328 330 333 335 336 336 335 337 339 339 339 340 341 343 344 344 344 344 345 346 347 348 349 349 350 350 350 350 350 349 349 349 350 350 350 350 350 350 350 349 349 350 350 349 349 349 350 351
334 333 331 328 326 323 320 318 317 318 317 316 317 319 321 322 322 325 327 329 330 331 332 334 334 334 335 336 336 337 338 338 339 341 343 344 346 347 348 349 350 350 351 350 349 349 348 349 350 350 349 349 350 350 350 351 351 350 350 350 350 350 351
334 333 330 327 324 321 319 318 317 317 316 315 315 315 316 317 317 318 320 323 325 325 326 328 328 328 329 330 331 330 329 330 332 334 336 339 342 345 347 347 348 349 349 349 350 350 349 350 350 350 350 350 350 351 351 351 352 351 351 351 350 350 350
331 329 326 324 322 320 320 319 317 317 316 316 315 314 314 313 313 314 315 318 319 319 320 322 323 322 322 323 325 325 325 326 326 326 327 330 334 339 343 345 345 346 347 347 347 349 350 350 350 351 351 351 351 351 351 351 352 352 351 351 350 350 350
326 325 323 322 321 320 319 318 317 318 317 316 315 315 314 314 314 314 313 313 314 314 315 317 319 320 319 318 317 317 319 320 320 319 319 320 323 326 330 334 338 341 344 344 344 344 346 347 348 349 350 350 350 350 349 350 351 351 351 351 351 351 350
323 323 322 321 321 319 318 318 318 318 316 314 314 313 313 313 314 314 313 312 312 312 312 312 313 314 315 315 314 313 313 314 314 315 316 316 316 318 321 328 333 335 338 339 339 339 340 341 343 344 345 345 346 347 347 348 348 348 348 348 349 350 351
322 322 321 320 318 317 318 318 317 314 312 311 311 310 311 311 312 312 313 313 313 312 311 311 311 311 311 311 312 311 311 311 312 314 316 317 318 321 325 330 333 334 335 336 337 337 337 338 340 340 341 342 342 343 344 345 345 346 346 346 347 348 349
323 321 319 318 317 317 317 316 314 312 311 311 310 309 309 310 310 311 311 312 312 312 311 311 310 310 309 309 310 310 310 311 312 314 316 318 320 323 326 330 332 334 335 336 337 338 337 338 340 340 340 340 341 341 341 341 341 341 341 343 345 345 346
322 320 318 318 318 317 315 313 313 312 312 311 310 309 309 309 310 310 311 311 311 311 311 310 310 309 309 309 309 309 309 309 311 312 314 317 318 321 324 328 331 333 334 335 336 336 336 336 338 340 338 336 336 336 335 334 334 332 331 333 337 339 339
319 318 318 318 319 318 315 313 313 313 312 310 310 310 310 310 310 310 310 310 310 310 310 310 310 309 309 308 308 309 309 309 309 310 311 314 317 320 324 328 331 332 334 334 335 336 337 336 337 339 337 335 333 332 331 330 328 326 325 325 327 328 327
318 318 318 318 317 317 315 314 313 312 311 311 311 310 310 310 310 310 310 310 310 310 310 309 309 309 309 309 308 308 308 308 308 309 309 311 313 317 321 325 328 331 332 333 334 335 336 336 336 336 335 334 333 331 330 328 325 322 321 322 323 323 322
320 320 319 317 316 315 314 313 312 312 311 311 311 310 309 309 309 309 309 310 310 310 309 309 309 309 309 308 308 308 308 308 308 308 308 309 309 311 313 317 320 324 327 329 330 331 332 333 334 334 333 332 330 329 327 326 324 322 321 321 322 322 321
320 319 318 317 315 314 314 312 311 311 311 311 310 309 308 308 308 309 309 309 310 310 310 309 309 309 309 309 308 308 307 307 307 307 307 308 308 308 309 310 312 314 317 320 322 325 327 328 329 330 330 329 329 328 327 326 325 324 323 322 321 321 321
318 317 317 316 315 314 313 312 311 312 311 310 309 308 307 307 308 309 309 309 310 310 310 310 309 309 310 311 310 309 308 307 307 307 306 307 307 307 307 308 307 308 309 310 312 314 317 320 323 325 326 327 327 327 326 326 325 325 324 323 321 319 319
318 318 318 316 315 314 313 312 312 312 311 310 309 307 307 307 308 308 308 308 309 309 310 310 309 309 309 310 310 309 308 308 307 307 307 307 307 307 307 308 308 308 307 307 308 308 309 312 314 316 319 322 323 324 325 325 324 324 323 322 321 319 317
319 319 318 316 315 314 313 312 312 312 311 310 308 306 306 307 307 307 308 308 308 309 309 309 309 308 308 308 308 307 307 308 308 308 308 308 308 308 308 308 309 309 309 309 309 309 308 308 309 310 311 313 315 318 320 321 321 321 321 320 319 318 316

ECMWFFLT1_850_thetae_108.txt.gz
Theta_e
354 351 351 353 354 351 349 349 349 350 351 352 352 352 351 350 350 352 351 345 341 343 344 345 346 346 345 343 342 341 339 340 344 346 348 350 352 353 354 353 353 354 354 354 353 350 347 347 348 351 350 345 345 346 344 344 344 345 346 343 346 349 349
355 353 352 354 354 352 350 350 350 351 351 353 352 351 351 351 351 351 348 344 342 342 343 344 346 346 346 345 343 341 339 340 342 344 348 350 350 350 353 354 354 353 353 355 355 351 346 345 344 347 348 346 347 346 342 344 343 345 351 347 346 348 345
355 353 353 354 354 352 350 350 351 351 352 352 352 351 352 352 350 348 345 344 343 343 343 344 345 345 346 345 343 342 341 340 340 342 346 350 349 350 352 353 355 355 354 354 354 352 349 347 344 344 345 346 351 350 346 347 346 346 348 346 348 350 346
354 354 355 355 354 353 351 351 351 351 351 351 351 351 352 350 348 345 343 343 344 343 342 343 344 345 346 344 343 342 341 340 341 342 347 350 351 352 353 353 354 355 355 355 354 353 353 352 348 345 344 345 350 353 350 350 351 348 345 344 349 351 348
353 355 356 355 355 353 352 351 351 352 351 352 352 351 352 351 349 347 346 345 346 346 344 345 348 348 348 347 345 345 343 340 339 341 346 350 352 352 353 354 354 355 356 356 355 353 352 353 353 350 347 344 348 352 351 350 351 349 344 343 348 351 350
353 355 355 355 354 353 352 351 350 350 350 351 351 350 351 352 351 351 350 347 348 349 347 347 350 350 349 349 349 349 347 343 339 339 342 347 351 353 353 354 355 355 355 355 356 354 351 352 355 355 352 350 351 354 354 352 353 353 349 344 347 351 352
352 354 354 354 354 353 351 350 348 348 348 348 347 347 349 350 350 350 350 349 348 347 345 344 348 351 351 351 351 350 349 347 343 342 342 345 350 352 353 354 354 355 355 355 355 355 354 354 354 355 355 354 354 354 355 353 350 352 353 347 345 347 349
352 353 354 355 355 353 350 348 348 348 347 346 345 344 344 345 345 345 346 346 346 345 344 343 345 349 350 350 351 351 350 350 349 347 346 347 349 351 352 353 354 354 354 355 355 355 355 355 355 354 354 355 355 354 354 351 346 350 354 352 348 349 352
352 353 355 355 355 353 350 348 348 347 346 346 345 342 342 344 344 344 344 344 344 343 344 344 344 345 345 346 349 350 351 350 350 350 349 349 349 350 351 352 353 354 354 354 354 354 355 355 355 354 352 353 353 350 351 350 348 352 355 351 349 350 352
354 354 354 355 356 354 350 348 348 347 346 346 344 342 342 345 345 345 345 343 343 343 343 343 344 345 343 343 345 348 350 351 350 350 350 350 349 349 350 351 352 353 353 354 353 354 355 354 355 355 350 350 349 346 347 350 350 353 354 351 350 350 350
355 354 354 354 356 354 349 347 347 347 345 345 344 343 342 342 342 343 343 343 343 344 344 342 343 344 344 344 344 345 348 351 351 350 350 350 349 349 349 349 350 352 353 353 352 353 354 354 355 354 350 349 350 347 346 349 349 350 353 355 355 353 352
354 354 354 354 355 353 350 349 348 348 348 347 345 344 343 344 343 342 342 342 343 343 344 344 343 343 344 345 345 345 345 348 351 351 351 350 349 349 349 348 349 351 352 353 352 353 354 354 354 354 351 349 351 351 348 347 348 348 350 355 356 354 354
353 354 353 354 354 353 352 351 350 349 348 349 347 345 345 347 346 345 344 344 344 343 344 346 346 344 344 345 346 346 345 347 349 351 352 352 351 350 350 349 349 350 351 352 352 353 354 354 353 353 352 349 349 351 349 345 346 346 346 350 354 354 353
351 352 352 353 353 353 352 352 351 350 348 347 346 345 346 347 346 346 346 345 346 346 345 345 345 343 342 344 345 346 345 347 350 350 349 350 350 350 351 352 350 350 350 351 352 353 353 353 353 353 352 351 349 350 349 346 345 345 344 346 350 352 352
349 350 350 350 351 351 352 351 351 351 350 349 348 346 346 346 346 346 346 346 347 347 347 346 345 344 344 343 344 344 343 345 347 348 347 346 346 347 349 351 351 350 350 350 350 352 353 353 352 352 351 352 351 350 349 348 348 349 347 347 349 352 353
347 348 348 348 348 349 350 350 351 351 351 351 350 350 349 349 349 349 348 348 348 348 347 346 345 345 345 343 343 342 342 343 344 345 346 346 346 346 346 348 350 351 350 348 345 346 349 350 352 352 351 351 351 350 347 345 346 347 344 341 344 349 351
346 346 346 346 347 347 347 348 349 349 349 350 350 350 350 350 350 350 350 350 350 349 349 347 346 346 345 344 344 343 342 343 343 344 345 345 346 348 348 347 348 349 349 347 342 339 340 342 346 348 349 349 348 348 346 344 344 344 337 333 336 341 344
344 344 343 344 345 346 347 347 347 348 348 348 348 348 348 348 349 349 350 350 350 350 350 348 348 348 347 347 346 346 344 344 344 344 344 344 344 346 347 347 347 348 349 348 345 341 337 336 337 339 342 346 348 348 347 345 345 343 337 332 334 336 338
342 341 341 342 343 345 346 346 347 347 347 347 347 347 347 346 347 348 349 350 349 350 350 349 349 349 349 350 350 349 348 347 348 347 347 347 347 347 347 346 346 347 348 349 348 345 340 337 336 335 337 342 346 348 347 347 347 342 336 333 334 335 337
340 340 340 339 340 342 344 344 345 345 345 346 345 345 345 345 346 346 348 348 348 349 349 349 350 349 349 350 350 351 350 350 349 349 349 349 350 350 349 347 346 347 349 350 350 349 343 339 338 337 336 338 341 343 344 348 349 343 336 334 335 335 337
339 339 338 338 337 338 340 341 342 342 343 343 343 343 343 344 345 346 346 347 347 348 348 348 349 348 348 348 349 350 350 350 349 349 350 350 350 351 350 349 349 350 350 350 351 350 348 344 343 343 342 340 341 341 342 348 351 347 340 338 338 336 338
338 336 337 337 336 336 337 337 336 335 337 339 340 340 340 340 341 342 343 344 345 345 346 347 346 347 347 347 348 348 349 350 350 350 350 350 350 351 351 350 350 351 352 351 351 351 350 348 349 350 348 346 346 348 349 351 352 350 346 343 342 339 340
335 333 333 333 332 331 332 332 330 328 330 333 334 336 337 338 338 339 339 340 341 342 342 343 344 344 345 346 346 347 347 348 348 349 349 349 349 350 349 349 349 350 351 352 352 352 351 350 351 351 351 350 350 351 352 352 351 350 348 347 346 345 345
329 327 325 325 325 325 326 329 329 329 329 330 329 330 332 332 333 335 336 337 337 337 338 338 338 339 341 342 343 343 344 345 345 346 346 347 348 348 348 347 347 348 350 351 352 352 352 352 352 351 350 351 351 352 353 353 352 350 350 349 349 349 349
325 324 322 320 320 320 320 322 324 326 327 327 326 326 326 325 325 328 331 332 333 333 333 333 333 333 334 334 335 336 337 338 340 342 343 344 345 346 345 345 345 346 347 349 350 351 352 352 352 351 349 349 350 351 353 353 352 351 351 351 350 350 350
327 327 325 321 317 317 317 317 317 318 319 320 321 321 320 319 320 322 324 326 325 325 325 325 324 325 326 326 327 327 327 329 331 334 337 340 342 343 344 344 344 344 346 347 347 348 350 351 351 350 349 350 351 351 352 352 352 351 351 350 350 350 350
327 327 325 321 317 316 316 315 314 314 314 314 315 314 314 314 315 316 318 319 319 318 319 319 318 318 317 318 319 320 320 319 321 324 326 328 332 335 338 340 341 342 344 346 345 345 346 347 348 349 350 350 350 350 351 351 350 350 351 351 351 350 350
326 325 323 321 318 316 315 314 314 313 314 315 315 314 313 313 313 313 314 314 314 314 314 315 316 315 314 313 313 314 314 315 316 319 320 321 324 327 329 332 336 339 340 341 342 342 343 343 343 344 345 345 345 345 347 348 348 348 350 350 349 350 350
324 322 321 321 320 319 317 314 313 313 313 314 314 312 311 311 312 313 313 313 313 312 311 311 312 312 312 312 311 312 314 316 318 320 321 323 326 328 327 328 334 337 339 339 340 339 339 340 341 340 341 341 341 341 343 345 345 346 347 347 347 346 346
322 320 319 319 319 320 319 315 312 311 311 310 310 310 309 310 310 311 312 313 312 312 311 310 310 310 310 309 310 310 312 314 318 321 323 325 329 332 332 332 335 338 339 339 339 339 338 339 340 340 340 340 340 341 342 342 342 343 343 343 344 344 345
322 320 319 317 315 315 318 318 316 313 311 310 310 309 309 309 310 310 311 311 311 312 311 310 310 311 310 310 309 309 311 312 315 318 321 324 328 332 335 335 336 338 339 338 338 339 338 338 338 340 340 340 340 340 340 338 336 335 334 333 334 335 336
321 319 317 316 314 313 316 318 317 314 312 311 312 312 312 311 311 310 309 310 311 311 311 310 310 310 310 311 311 309 310 313 315 315 316 318 323 328 331 334 335 336 336 337 338 338 337 337 336 336 336 337 338 339 337 334 332 331 329 327 326 326 326
321 319 318 318 318 317 318 318 316 315 313 311 312 314 314 314 315 313 313 315 317 315 313 312 314 314 315 317 317 314 312 312 313 314 313 312 315 321 325 329 332 334 334 336 336 336 336 336 335 334 334 334 336 336 335 333 331 329 326 324 323 323 323
320 319 318 318 317 317 316 316 316 316 314 312 310 310 312 316 317 316 316 318 318 318 317 317 317 318 318 316 316 314 312 310 309 313 314 312 309 311 314 318 322 325 328 331 333 334 334 334 334 334 334 333 334 334 333 332 331 329 326 324 322 321 322
318 318 317 316 315 314 314 314 314 314 313 312 310 307 307 312 314 314 315 318 318 318 319 318 317 317 316 315 316 314 313 313 312 312 315 317 315 311 308 308 311 313 315 318 321 325 328 330 331 332 333 332 332 332 331 330 330 329 327 325 324 323 323
318 318 317 315 314 314 313 313 312 313 312 310 308 305 305 307 308 309 312 314 315 316 316 316 317 318 317 318 318 315 315 319 317 311 311 317 319 317 313 309 307 307 308 309 310 312 314 317 319 321 323 325 326 326 326 327 327 325 324 324 322 321 320
319 319 318 315 314 314 313 312 312 312 311 309 305 304 304 305 305 305 306 308 309 310 311 311 314 317 317 316 312 309 312 317 315 310 309 311 313 314 316 316 314 310 307 307 307 307 308 308 309 309 311 313 315 315 315 317 318 318 318 318 316 316 315
319 319 319 317 316 315 313 312 312 312 311 309 305 304 304 305 304 304 304 304 305 307 307 307 310 313 315 313 308 305 308 311 310 309 311 310 310 312 314 318 320 318 314 311 309 307 307 308 308 308 308 308 309 309 309 310 311 312 313 313 313 313 313

ECMWFFLT1_850_thetae_114.txt.gz
Theta_e
356 356 354 351 348 348 349 348 348 349 348 349 349 349 351 350 350 353 355 355 354 351 351 348 348 349 345 342 342 343 346 349 349 349 350 351 351 351 350 350 351 350 349 350 351 353 354 351 350 351 350 349 347 347 346 345 345 344 344 345 346 346 346
355 356 357 355 350 349 349 348 349 349 348 349 349 349 350 350 350 352 353 354 352 349 349 348 347 348 347 344 344 342 343 348 348 347 349 352 354 353 353 353 352 353 352 350 350 352 352 351 351 353 352 349 348 348 346 345 344 344 344 344 343 344 345
352 354 357 356 353 350 350 349 349 349 349 349 349 348 350 350 351 352 353 355 353 348 346 347 347 347 348 348 348 343 340 343 346 348 350 352 353 354 354 355 354 353 352 350 350 351 350 350 351 353 353 351 350 349 346 346 344 343 344 344 344 345 344
351 353 356 356 354 352 351 349 349 349 349 349 348 349 350 350 351 352 353 355 355 350 345 345 346 346 347 348 350 347 340 340 345 349 352 353 355 355 354 355 354 352 350 349 352 352 350 351 350 350 351 352 352 350 348 347 346 344 344 345 344 344 344
353 354 356 356 354 353 352 349 350 350 349 349 348 349 351 351 351 352 353 355 356 353 349 349 349 350 349 349 350 350 344 340 343 348 351 354 355 354 353 355 355 351 348 348 351 352 351 351 350 347 348 349 350 352 350 347 346 345 344 345 345 344 345
356 355 355 356 355 353 352 349 350 350 349 349 349 349 351 352 352 352 353 354 354 353 352 352 353 353 353 353 353 353 350 346 343 345 350 354 354 353 351 353 354 353 351 350 351 352 351 351 351 350 351 348 348 353 353 348 347 346 345 346 345 344 347
355 354 354 356 355 353 351 349 350 350 349 349 349 350 352 352 352 352 352 353 352 351 352 352 352 352 353 354 354 354 354 353 348 347 351 353 353 353 352 352 354 353 353 352 352 352 352 352 352 352 354 352 350 354 355 351 349 350 351 349 345 345 349
354 355 355 356 356 353 351 350 350 349 349 349 350 352 353 352 351 352 352 352 352 351 351 351 350 350 352 353 353 353 353 354 353 352 353 353 352 353 353 353 354 353 352 351 350 350 351 352 354 354 355 355 354 354 354 352 350 352 354 352 347 345 346
354 355 355 356 356 355 351 349 349 349 349 351 351 352 351 351 352 352 353 353 351 350 350 350 349 349 350 351 352 352 353 354 354 354 354 352 352 353 352 353 354 353 352 351 351 351 350 351 355 354 354 356 356 353 353 354 351 351 353 354 351 347 347
356 356 356 355 355 355 353 350 349 348 349 350 352 353 352 352 353 353 353 353 351 350 351 350 349 349 350 350 350 351 352 352 353 353 353 352 351 351 351 351 353 355 354 352 353 353 350 351 353 351 350 354 354 352 351 353 352 351 353 354 352 347 347
358 358 357 356 355 355 354 353 352 351 351 352 353 354 353 354 354 352 352 352 350 351 352 351 350 350 350 351 351 351 351 351 351 352 352 352 351 349 350 350 350 353 354 353 353 353 351 351 351 349 350 351 351 351 351 351 351 353 354 354 355 352 348
358 358 356 356 356 356 355 354 354 354 354 355 355 354 354 354 353 351 351 350 349 351 352 352 352 352 351 352 351 351 351 351 351 350 350 351 351 349 349 349 349 351 353 353 352 352 352 352 351 350 351 351 350 349 351 351 352 355 354 352 353 354 351
355 356 355 355 356 356 356 355 354 354 354 355 355 355 355 356 355 354 351 348 347 349 351 353 355 354 352 351 350 349 350 351 351 351 351 351 351 350 349 348 348 348 351 353 352 351 351 351 351 351 350 350 350 349 350 351 353 354 355 353 351 351 352
354 355 355 356 355 355 356 356 355 354 353 354 355 355 355 355 355 356 354 351 351 353 354 356 357 357 355 352 349 347 348 350 352 352 352 351 351 350 350 349 348 348 349 351 351 350 350 350 351 351 351 351 352 352 351 351 352 353 354 355 354 353 354
352 353 353 354 354 354 355 355 354 354 354 354 354 354 353 353 353 354 354 354 356 357 357 356 355 355 355 355 353 351 351 353 353 352 352 352 352 351 351 350 349 348 348 349 350 349 349 349 350 351 351 351 353 353 352 352 353 353 353 355 355 355 356
349 351 351 351 352 353 353 354 354 353 352 352 352 352 353 352 351 350 349 351 352 353 353 352 351 351 351 351 352 352 354 356 354 351 352 352 352 353 352 351 351 351 350 349 350 350 349 349 350 351 351 351 352 353 352 352 353 353 353 354 355 355 355
346 348 348 347 348 350 352 353 353 352 350 349 349 349 348 347 347 346 346 347 347 348 348 348 350 353 353 352 351 350 351 353 352 352 353 353 351 352 353 351 351 352 352 350 349 350 351 350 350 350 350 350 351 352 353 353 353 352 352 353 353 354 354
345 347 347 346 346 348 350 350 352 352 350 349 349 348 347 346 345 344 343 344 343 343 344 344 346 349 350 351 352 352 351 351 352 353 354 353 352 353 354 353 351 351 351 352 350 350 351 351 350 350 350 351 352 352 352 353 352 351 350 350 351 350 349
346 348 347 346 345 345 346 347 348 350 350 351 350 350 350 351 349 348 348 348 347 346 345 343 343 344 345 346 348 350 350 351 351 353 354 354 354 354 353 353 353 351 350 350 348 349 351 350 349 351 351 352 353 351 351 352 352 351 349 348 348 347 345
345 347 346 345 344 343 344 344 344 346 348 349 348 348 350 352 352 352 352 352 352 352 350 349 347 347 348 348 348 348 348 348 348 350 351 352 352 352 351 352 354 353 351 349 347 348 349 349 349 351 352 352 353 353 351 350 349 348 348 347 347 346 344
344 345 345 344 343 342 342 343 343 344 345 345 344 344 346 347 348 350 352 352 353 353 353 353 352 352 352 351 351 350 349 349 349 349 349 349 349 350 350 351 352 352 350 349 348 348 348 348 348 351 351 351 351 352 351 349 346 346 346 346 346 345 345
343 343 343 342 342 341 341 341 342 342 342 342 342 342 343 345 345 346 348 350 351 351 351 351 351 351 352 352 352 352 351 350 350 350 350 349 348 348 348 348 348 348 347 346 345 346 348 348 348 349 350 350 350 349 349 347 346 345 346 347 347 346 346
340 339 339 339 338 340 340 339 339 339 339 339 340 340 341 343 344 344 345 347 347 346 347 348 347 347 348 349 350 350 351 350 350 350 350 350 350 350 349 349 347 346 345 343 343 344 345 347 349 349 349 349 349 347 347 347 346 345 346 349 349 348 348
337 336 335 334 334 335 335 336 336 336 336 336 336 338 339 339 341 341 341 342 342 342 343 344 345 345 345 346 347 347 347 348 348 348 348 349 350 350 350 350 349 348 347 347 347 347 347 348 348 348 349 349 348 347 347 347 346 345 346 348 349 349 349
332 332 332 332 332 331 330 330 330 330 331 332 333 335 336 336 337 337 337 337 337 338 339 340 341 342 342 342 342 343 344 344 345 346 347 347 348 349 349 349 349 350 350 350 350 350 350 349 349 349 349 348 348 348 348 348 348 347 348 349 347 347 348
327 327 326 327 328 328 327 326 326 326 327 328 329 331 332 333 333 333 334 334 334 335 335 336 336 337 338 338 339 339 340 341 342 343 344 345 345 346 347 347 347 348 349 349 350 350 350 350 350 350 349 348 349 351 349 348 348 348 349 350 348 346 348
324 324 324 323 324 325 324 324 323 324 325 326 327 328 329 330 330 330 330 331 331 332 333 333 333 333 333 334 335 335 336 337 339 340 341 342 343 344 344 345 346 346 346 346 347 347 347 348 348 349 348 348 350 351 349 348 348 348 348 349 348 346 346
323 322 323 323 322 321 321 321 321 320 320 322 325 327 328 328 328 327 327 328 329 329 328 327 327 329 331 332 332 333 334 334 335 337 339 340 341 342 343 344 345 345 345 345 345 345 345 346 346 345 344 345 349 350 348 349 349 348 347 348 349 347 345
323 322 322 322 322 322 320 320 321 321 319 318 318 321 323 323 323 323 323 324 326 327 326 322 319 320 324 328 329 330 332 334 334 334 335 337 340 341 342 343 344 344 344 344 344 343 343 344 344 343 342 343 345 347 349 349 349 348 348 348 349 348 347
322 321 320 319 320 320 318 317 319 320 320 318 315 313 314 315 317 321 323 325 325 325 326 326 323 319 318 319 320 323 327 331 334 334 333 333 335 337 338 340 341 342 342 342 343 342 342 343 343 343 343 341 340 342 345 345 344 345 346 346 345 345 345
320 318 318 316 316 316 315 315 316 316 316 316 314 314 316 317 317 317 319 323 324 322 324 326 327 326 322 318 317 322 325 326 329 331 333 333 332 333 334 335 337 338 338 339 340 340 341 342 342 342 343 342 340 339 340 340 338 338 339 339 339 339 338
318 317 316 315 315 317 318 318 318 317 316 316 314 314 318 321 319 315 315 319 321 321 323 325 325 325 325 323 322 324 325 323 323 325 328 330 331 332 332 333 334 335 335 336 336 337 337 338 339 340 341 341 339 338 339 339 337 334 333 332 330 329 328
317 316 316 315 317 319 319 318 317 317 317 318 317 314 313 314 314 313 313 314 315 317 323 326 325 323 324 326 325 324 324 324 324 324 323 325 328 329 330 331 332 333 334 334 334 335 335 335 336 337 337 337 338 337 337 338 336 334 332 330 327 325 324
319 317 317 318 320 320 319 317 316 315 314 315 316 316 314 311 309 309 309 308 308 311 316 321 323 323 324 324 322 323 324 324 324 326 324 323 324 325 326 329 330 329 331 334 333 333 333 334 334 334 334 336 337 337 337 337 336 335 334 332 330 327 326
322 320 318 319 320 320 318 317 316 315 313 313 313 313 313 314 313 310 308 308 308 308 312 319 323 323 324 324 323 324 325 324 323 326 327 325 324 322 319 322 322 319 321 329 333 332 332 333 333 332 332 334 335 335 336 335 335 334 333 332 332 329 327
324 324 323 322 322 321 319 319 318 316 313 313 312 310 308 311 314 312 309 308 308 307 311 319 324 323 322 322 322 324 326 325 323 324 325 327 328 325 318 315 315 312 312 316 321 325 329 332 331 331 331 331 331 332 333 333 334 333 332 331 329 325 320
326 327 326 325 325 323 318 316 316 315 313 313 314 310 305 305 308 310 308 308 309 308 307 314 321 324 322 320 317 318 323 323 322 323 324 323 326 327 323 321 321 321 318 313 311 312 316 320 322 324 325 324 322 322 323 325 325 324 321 319 315 313 311
326 327 326 325 324 322 317 315 315 315 313 312 314 312 307 304 304 306 306 305 307 308 309 313 319 322 322 321 318 316 317 318 318 321 323 321 321 324 325 325 326 326 323 318 315 313 311 310 310 311 312 312 311 310 311 312 312 310 309 308 307 307 307

ECMWFFLT1_850_thetae_117.txt.gz
Theta_e
355 354 352 350 349 349 348 349 350 350 351 351 351 351 351 352 352 353 354 353 348 345 348 348 346 344 343 344 345 345 348 348 348 349 349 349 348 347 348 346 345 347 346 344 346 348 349 350 348 347 347 346 344 344 346 346 345 344 344 345 346 349 349
356 355 354 351 349 349 348 349 350 350 351 351 351 350 351 352 353 353 354 354 349 344 347 348 346 345 343 343 344 343 346 348 348 348 347 348 348 346 346 345 345 348 347 345 347 349 350 351 349 349 348 347 346 345 345 345 343 343 343 343 344 345 346
354 354 354 351 349 349 348 349 349 350 350 351 350 350 350 351 351 352 353 354 351 345 346 348 346 346 344 343 343 343 344 346 348 347 344 345 348 348 348 347 348 349 349 349 348 349 350 351 350 349 349 349 348 347 346 345 344 344 342 343 343 343 343
354 354 353 350 351 351 349 348 348 349 349 350 350 349 351 351 350 351 351 353 352 346 344 346 347 347 346 343 342 342 343 344 346 345 343 346 349 350 351 351 351 352 352 351 349 348 349 350 349 350 350 350 349 348 347 346 345 344 343 342 344 343 343
354 354 353 352 353 354 352 349 348 349 349 349 349 349 350 350 351 351 351 352 352 347 344 344 345 347 347 344 341 341 341 343 345 345 344 348 350 351 353 353 353 352 351 350 350 349 349 348 348 348 348 349 349 348 348 347 346 346 344 343 343 344 342
355 354 354 354 354 354 353 351 348 348 349 349 348 349 350 350 351 351 351 352 352 350 346 344 344 346 346 345 342 341 340 341 344 344 346 351 352 351 353 354 353 352 350 349 349 350 350 349 350 349 347 347 347 346 347 348 348 347 345 344 344 344 344
355 353 354 355 355 355 355 351 349 349 349 349 348 348 349 350 350 350 351 352 351 351 349 346 345 345 346 346 344 343 340 340 342 343 345 352 355 354 353 353 352 351 351 349 347 348 351 351 350 349 348 347 347 346 346 348 350 348 346 344 345 345 344
354 353 352 353 354 356 355 352 350 349 348 349 348 348 349 351 351 351 352 352 352 352 350 348 348 347 346 348 348 347 343 341 342 341 344 351 355 355 355 353 351 351 352 351 347 347 349 351 350 349 350 349 349 348 347 348 351 349 346 346 347 346 344
353 353 353 354 355 356 354 353 351 350 349 350 348 348 350 350 352 352 352 352 352 353 351 349 350 351 350 351 351 351 349 347 345 341 343 350 354 354 353 352 351 352 353 352 349 347 348 349 350 350 351 350 351 351 350 349 351 351 348 348 349 348 347
354 354 353 354 356 356 354 351 350 350 349 350 348 348 350 351 351 352 352 352 353 354 352 350 352 353 352 351 353 354 353 352 351 346 343 346 351 352 351 351 352 352 353 353 351 349 348 349 349 350 349 349 351 352 352 350 351 352 351 349 349 351 350
353 354 354 354 356 357 354 351 350 349 349 350 349 350 351 351 351 351 352 352 353 353 351 349 351 353 351 350 352 354 354 353 353 353 349 348 351 352 351 351 352 352 353 353 353 350 349 349 349 349 348 348 350 352 352 352 351 352 351 350 350 352 352
354 355 354 355 355 355 353 350 349 349 350 350 350 350 351 352 352 352 352 352 352 352 352 350 351 352 350 349 350 352 352 352 353 354 354 352 352 352 351 351 352 352 352 352 352 352 350 350 349 350 349 348 349 350 351 351 351 350 351 351 353 354 353
355 356 354 354 354 353 352 350 349 349 350 351 351 351 351 351 352 352 351 352 352 351 351 350 349 351 350 349 350 350 351 351 352 352 352 352 352 352 351 350 350 350 350 350 351 352 351 350 350 351 350 349 349 348 349 350 350 350 350 352 354 354 354
352 354 354 353 352 351 353 353 353 352 351 351 350 351 352 352 351 352 352 352 352 351 350 350 349 350 351 350 349 350 351 351 351 351 351 351 352 351 351 349 349 349 349 349 350 350 350 351 351 350 351 350 350 350 350 350 350 350 349 350 353 354 353
350 351 353 354 353 352 353 355 355 355 356 354 351 350 351 352 352 352 353 353 352 351 351 351 351 350 351 351 350 350 350 350 350 350 351 351 350 350 350 349 349 348 348 348 348 349 350 350 349 348 349 349 350 350 350 351 352 352 351 351 352 353 353
346 349 351 351 352 352 352 353 353 354 356 356 354 353 353 353 353 353 352 352 352 351 350 351 352 351 350 352 353 351 351 352 352 351 351 351 351 351 351 350 349 349 348 348 348 350 350 350 350 349 349 349 350 350 351 352 352 353 353 353 353 353 352
345 346 347 347 347 349 350 351 351 352 352 353 355 355 354 355 356 355 353 353 351 350 350 351 352 352 352 353 353 350 350 352 353 352 351 352 352 352 351 350 349 350 349 348 348 350 351 351 350 350 350 350 351 351 352 352 351 350 351 353 354 354 353
345 344 344 345 346 347 347 349 350 350 351 351 353 354 354 355 356 354 353 355 354 351 351 350 350 350 349 350 351 349 348 349 350 349 350 351 351 352 352 351 351 351 351 349 349 350 350 350 350 350 350 350 351 352 352 352 351 349 350 352 353 353 353
344 343 343 343 344 345 346 347 348 348 349 350 350 350 351 352 351 349 349 351 353 352 352 352 352 352 352 352 352 350 349 350 349 349 349 349 350 352 352 352 351 351 351 351 351 351 351 349 350 350 349 349 350 351 351 350 350 349 349 352 352 351 351
342 341 342 342 342 343 344 344 345 345 347 347 347 348 349 349 349 348 347 348 348 348 348 349 348 349 349 349 349 348 350 352 351 350 349 348 350 353 353 352 351 350 350 350 351 352 353 351 350 350 350 350 349 350 350 349 349 349 349 351 351 350 349
341 341 341 341 342 343 343 342 343 344 345 346 345 346 347 347 348 349 348 349 348 348 348 347 345 344 344 344 345 345 346 348 348 348 348 349 350 354 355 353 352 352 351 350 350 351 352 352 351 351 351 350 349 349 350 349 349 349 350 350 350 350 349
340 340 340 339 339 340 340 340 341 342 342 342 342 343 344 345 346 346 347 347 347 346 348 349 349 348 347 347 347 346 346 346 346 346 347 348 349 351 352 353 354 354 354 353 351 350 350 350 350 350 351 351 350 350 352 351 351 351 351 349 349 348 348
338 340 339 338 338 337 338 337 338 338 339 339 339 340 340 341 341 342 343 344 344 344 346 347 349 349 348 349 349 350 350 350 349 349 348 348 348 349 349 349 350 352 353 353 352 351 351 351 349 348 349 350 350 351 352 352 352 352 352 351 348 345 346
334 335 335 335 335 336 335 334 334 336 337 337 336 337 338 337 337 338 340 340 341 343 344 345 346 345 344 346 347 348 349 350 350 350 350 350 350 350 350 350 349 349 349 350 350 350 350 350 350 348 347 347 347 348 349 349 350 350 351 349 347 345 345
329 329 328 328 329 330 330 331 331 333 335 334 333 334 335 334 334 335 336 337 339 340 342 343 342 342 343 343 344 344 346 346 347 348 348 348 349 349 349 349 350 350 349 349 349 349 348 347 347 346 345 344 344 344 345 347 349 350 350 349 346 345 346
328 326 326 326 326 327 328 329 330 330 331 330 331 332 333 333 333 332 333 335 337 338 340 339 339 339 340 340 340 340 342 342 343 344 345 345 346 347 347 348 349 350 350 350 350 349 349 348 347 346 346 346 346 346 347 348 349 350 350 348 347 345 345
327 326 326 326 326 327 327 328 329 329 329 329 330 330 330 331 332 330 330 331 331 332 334 335 336 336 336 337 337 337 338 339 340 341 343 344 344 345 345 346 347 347 347 349 349 349 349 349 348 348 348 349 349 349 348 349 349 350 349 348 347 345 345
325 323 324 324 325 326 326 325 326 325 325 327 328 329 329 329 329 328 328 328 327 325 325 328 331 333 334 335 335 335 336 336 336 337 340 342 343 343 343 344 346 346 346 346 346 346 346 346 347 347 346 346 348 348 348 349 349 349 349 348 347 347 347
323 322 322 321 321 322 321 318 315 314 314 315 319 323 325 324 324 324 325 327 328 327 325 323 321 321 326 331 334 334 335 334 333 335 337 338 340 341 342 344 345 344 344 344 345 344 344 345 345 343 343 344 345 345 345 345 346 347 348 348 349 349 350
322 321 319 317 316 316 316 314 311 310 310 310 310 313 314 316 317 317 318 321 325 327 327 326 322 318 320 324 327 329 331 333 334 334 333 334 336 338 339 341 342 342 343 343 343 343 343 344 344 342 342 342 341 341 341 341 342 344 346 347 348 349 350
319 317 316 315 316 315 315 315 314 313 313 311 310 309 309 310 312 313 313 316 318 319 321 324 325 325 324 323 322 324 328 332 333 332 333 334 335 336 337 337 338 339 340 342 342 342 343 343 342 341 341 340 339 338 338 338 339 342 344 346 347 347 347
317 316 315 316 317 317 317 317 317 317 317 315 314 312 310 309 309 309 309 310 312 314 315 317 321 324 324 323 322 322 325 327 328 328 328 331 333 333 334 335 336 336 337 338 340 340 341 341 340 339 339 339 339 338 336 334 334 336 337 339 341 342 342
316 315 316 317 318 318 318 318 318 318 318 317 316 315 313 313 313 312 310 308 308 310 313 314 315 318 322 323 324 324 324 324 326 324 323 326 330 330 330 332 333 334 334 334 335 337 339 340 340 340 339 340 340 338 336 333 332 331 330 330 331 331 331
316 315 316 318 319 319 319 318 316 316 315 315 315 316 315 315 315 314 314 312 309 309 309 310 310 313 317 319 320 323 325 324 325 325 324 325 326 326 326 328 329 331 334 333 331 333 336 337 338 339 339 339 338 337 337 336 334 334 332 329 328 327 326
316 316 317 319 320 319 319 318 315 314 313 313 312 312 312 314 315 314 313 313 313 311 310 309 309 311 315 317 318 321 323 323 324 325 326 326 326 324 322 321 321 324 330 333 331 331 332 334 335 336 337 338 337 336 337 336 335 334 333 331 330 329 327
319 318 318 319 320 320 318 317 315 314 313 312 312 309 308 309 312 313 312 311 312 311 310 311 310 310 312 318 321 321 321 322 324 325 325 325 325 322 318 318 318 317 320 327 331 331 329 331 333 334 334 334 334 333 333 333 334 334 333 331 328 324 321
322 321 321 322 323 322 319 317 315 314 313 312 312 309 305 305 308 310 311 310 311 313 314 314 315 312 310 314 321 324 322 321 322 324 325 325 324 321 320 323 325 321 316 318 322 322 320 322 327 330 331 331 331 329 326 325 325 326 326 324 319 314 310
324 325 325 325 325 324 322 317 315 314 314 312 311 309 305 304 304 307 308 308 310 316 319 318 318 316 310 310 316 321 319 314 314 319 324 325 324 322 321 324 327 325 321 320 319 316 313 313 315 317 319 319 320 318 315 313 312 313 313 312 309 307 307

ECMWFFLT1_850_thetae_120.txt.gz
Theta_e
347 349 352 348 345 345 346 346 345 344 344 345 346 347 347 348 348 350 351 350 349 347 345 346 346 343 343 344 344 345 346 347 348 347 346 347 348 348 348 347 348 347 345 343 341 342 344 345 341 340 341 342 342 343 343 344 345 344 345 346 345 346 348
347 348 351 350 347 346 346 346 346 346 345 345 346 346 347 348 348 350 350 350 350 348 345 346 345 343 343 344 344 344 345 345 346 347 348 347 347 347 347 347 346 345 345 344 342 343 346 347 345 342 343 344 343 343 343 344 345 344 344 345 345 345 347
348 348 351 351 349 347 347 347 346 347 347 346 346 346 347 348 348 349 350 349 350 349 346 345 345 345 344 344 345 345 344 345 346 348 349 346 346 347 347 347 346 344 344 344 343 344 346 349 348 345 345 346 345 344 343 344 345 343 343 343 343 342 343
349 349 351 353 351 348 347 348 347 348 348 347 347 347 347 349 349 349 349 350 351 350 347 345 346 345 344 344 345 344 344 344 345 348 348 346 345 347 347 346 344 344 345 344 343 344 345 348 349 347 346 347 347 346 345 345 345 344 343 342 342 342 342
351 351 352 354 353 350 348 349 349 348 348 348 348 348 348 349 349 349 350 350 351 351 347 344 345 346 344 343 344 344 344 343 343 344 345 345 346 347 346 345 343 343 345 345 345 344 345 347 348 347 346 347 348 348 347 346 345 344 344 343 342 343 343
352 352 353 354 354 351 349 349 349 349 349 349 349 349 349 350 350 350 351 351 351 352 348 343 345 347 345 343 343 344 344 344 342 341 342 344 346 347 345 344 344 344 345 346 347 347 346 346 346 346 346 347 347 348 348 346 346 345 345 344 343 342 343
353 352 352 353 353 353 351 350 350 349 350 350 350 350 350 350 350 350 351 351 351 352 350 344 344 346 345 344 343 343 343 343 343 341 340 342 345 346 346 346 346 347 347 348 348 348 347 347 347 347 347 347 346 346 345 346 346 347 345 344 343 343 343
352 352 352 352 352 353 353 353 351 349 350 351 350 350 350 350 350 350 350 350 350 351 351 346 342 343 345 345 344 343 342 342 343 343 341 342 345 346 347 347 348 349 350 350 348 348 348 348 348 349 349 348 347 345 344 345 346 348 348 346 344 344 344
351 350 351 351 351 351 351 353 354 351 349 350 350 350 350 350 350 350 350 350 350 350 350 348 343 340 343 345 345 344 342 341 342 343 343 343 344 347 349 349 349 351 351 350 350 349 348 347 348 350 349 349 348 347 347 346 345 348 350 348 347 347 347
353 351 351 351 352 352 350 351 354 353 350 349 349 349 350 350 350 350 350 349 350 350 350 349 345 340 341 344 345 344 343 342 342 342 344 344 344 348 352 353 353 353 351 351 351 350 348 347 349 350 350 349 350 349 350 348 347 349 351 349 348 349 350
353 352 352 352 353 354 353 353 354 353 349 348 349 349 349 350 350 350 350 350 350 349 350 350 348 343 340 342 345 345 344 344 344 343 342 343 345 349 352 354 355 354 352 351 352 351 349 349 349 350 349 349 350 350 351 350 349 349 350 350 349 349 349
351 351 352 353 353 355 355 355 354 351 349 349 349 348 348 349 351 350 350 350 350 350 350 351 349 345 342 342 345 346 346 347 348 347 344 342 344 348 352 354 354 353 352 351 352 352 351 351 349 349 348 348 348 349 350 350 350 351 350 351 351 350 349
349 350 351 351 351 352 353 353 353 351 349 349 349 348 349 352 352 352 350 350 350 351 351 351 350 347 344 345 348 349 349 351 352 351 349 346 344 347 351 352 352 351 351 352 352 351 351 351 350 349 348 347 348 348 349 349 349 351 351 351 351 351 350
347 349 349 350 351 350 350 350 350 350 350 349 348 348 351 354 354 354 354 353 353 353 353 353 351 349 349 350 351 351 351 353 354 353 352 351 348 347 348 350 350 351 351 351 351 351 350 351 350 350 349 349 349 349 349 348 348 349 350 350 351 351 351
346 347 347 347 349 349 349 349 349 349 349 348 349 349 352 355 354 354 354 354 355 355 355 355 354 353 354 353 353 352 351 351 352 352 352 353 352 350 349 350 351 351 350 350 350 350 350 349 349 350 350 350 350 350 350 349 349 349 349 349 350 350 351
344 344 345 345 346 347 348 348 348 348 349 349 350 352 353 354 354 353 354 354 354 354 355 355 355 354 354 354 353 352 351 351 351 351 352 353 353 353 352 351 352 351 350 350 350 349 350 350 349 349 350 350 350 350 351 350 350 349 349 349 349 349 349
343 343 344 345 345 346 347 347 346 347 349 350 351 353 353 353 354 353 354 353 352 352 353 354 353 352 352 352 352 351 351 351 350 350 351 352 353 352 352 352 351 351 350 350 349 348 348 350 350 350 350 351 350 350 350 350 350 349 349 350 349 350 350
343 343 343 344 345 345 345 346 346 347 348 349 351 352 352 352 352 352 352 352 351 352 352 351 352 353 353 353 352 351 350 349 349 349 349 351 352 352 351 351 350 350 350 349 349 349 348 349 350 350 350 351 350 349 349 349 350 350 350 350 350 350 351
343 343 343 343 343 343 344 345 346 347 348 349 350 351 352 352 352 351 351 351 351 351 351 350 350 351 353 355 354 352 350 349 349 348 348 349 351 352 352 352 351 351 350 350 349 349 348 348 348 348 349 350 349 349 349 349 349 350 350 350 350 350 351
342 341 341 342 342 343 343 344 345 346 346 347 348 348 350 351 351 351 351 352 352 352 350 350 350 350 352 355 355 353 352 352 351 350 347 347 350 351 352 352 352 352 351 351 351 351 350 348 348 349 350 350 350 350 349 349 349 350 350 350 350 350 351
340 340 340 340 341 342 342 343 344 344 344 345 346 346 347 348 348 348 348 349 350 351 351 350 350 350 351 353 353 353 352 350 347 344 345 347 348 350 352 354 353 352 352 352 352 352 351 350 350 351 351 351 351 350 350 349 349 349 350 349 349 349 350
339 339 338 339 339 340 340 341 341 342 342 343 344 346 346 346 347 347 347 347 348 348 348 348 349 349 349 350 350 350 350 348 344 344 347 349 349 349 352 353 354 353 354 353 353 352 351 350 350 350 350 351 350 350 350 350 349 349 350 349 349 349 349
338 338 337 337 338 338 339 339 339 339 339 340 342 343 344 344 345 345 346 347 347 346 346 346 346 346 347 347 346 346 346 346 346 347 348 348 348 348 350 351 352 353 353 353 353 353 352 351 350 349 349 349 350 350 350 350 349 349 349 349 350 349 349
334 336 335 335 336 337 337 337 337 338 337 338 338 339 341 341 343 344 345 345 345 345 345 346 347 348 347 347 346 345 345 344 343 344 344 344 345 346 348 348 349 350 350 351 351 352 353 353 352 352 351 350 350 350 350 350 350 349 349 349 350 350 350
330 332 332 332 334 335 334 335 336 336 337 336 335 336 337 339 340 342 343 343 342 342 344 345 346 347 348 347 347 347 347 346 345 344 343 344 345 346 347 347 348 348 348 349 349 349 350 351 352 352 352 351 351 350 350 350 350 349 349 350 351 351 351
326 328 329 329 331 331 332 333 333 334 335 334 334 334 336 337 339 340 340 341 341 341 342 342 342 343 343 343 343 344 345 345 345 345 345 346 347 348 348 347 347 348 348 349 349 348 348 349 349 349 350 350 350 350 350 349 349 348 348 348 349 350 350
325 327 327 328 329 330 331 331 332 333 333 332 333 333 333 334 336 338 339 339 339 339 339 338 338 339 340 340 341 341 342 342 343 343 344 344 345 345 345 345 345 346 347 347 347 348 348 349 348 348 349 348 348 348 348 348 347 346 346 345 345 347 349
325 325 325 327 328 329 330 329 329 330 331 332 332 331 331 329 329 331 336 337 337 336 336 335 335 336 337 338 338 338 339 341 341 342 342 343 343 343 344 344 345 346 345 345 346 346 347 348 348 349 349 349 349 348 348 348 347 346 346 347 346 347 349
324 324 324 325 326 326 327 326 323 322 324 328 330 330 329 326 321 320 325 329 331 331 331 332 334 335 335 335 335 335 336 337 339 340 340 341 342 343 343 343 345 346 345 344 344 345 345 346 346 347 347 347 347 347 347 347 347 347 347 347 348 348 349
325 323 321 320 319 318 318 318 315 313 315 318 321 322 322 319 316 314 316 319 320 321 322 324 328 332 334 334 333 334 334 334 335 336 337 339 340 342 342 343 344 345 345 344 344 344 344 344 344 343 344 344 344 344 344 344 344 345 346 346 347 348 349
321 319 317 316 315 314 313 313 312 310 310 311 311 312 313 314 315 315 316 317 317 317 316 316 319 323 327 330 331 332 332 333 333 333 335 336 337 338 339 340 342 343 344 344 344 343 342 342 342 341 342 342 341 341 341 341 340 341 341 343 344 346 347
318 315 315 316 316 316 316 316 316 314 313 312 311 310 310 311 312 313 315 318 318 317 316 316 316 316 319 322 326 329 331 331 331 331 333 334 334 334 334 336 337 338 339 340 342 343 342 340 340 340 340 339 339 339 338 338 337 337 337 338 339 340 341
316 315 316 317 318 317 316 316 317 317 316 314 313 312 310 310 310 310 312 315 316 317 318 318 317 317 316 318 321 324 326 328 326 326 327 328 329 330 331 333 334 334 334 335 338 340 340 339 338 338 338 338 336 335 334 332 332 332 332 333 334 334 335
315 315 317 318 318 316 315 314 314 315 315 314 315 314 312 311 310 310 311 314 316 317 317 318 319 320 320 320 321 322 323 323 323 323 322 322 324 324 325 327 328 330 332 333 333 336 338 338 338 338 338 338 336 334 333 332 332 331 329 328 329 329 328
316 316 318 319 318 317 316 314 313 312 312 312 313 313 313 312 311 310 311 313 315 314 312 313 317 321 323 323 323 323 322 321 323 325 323 323 322 322 322 322 320 323 329 332 331 333 335 337 338 338 337 337 337 336 336 336 335 334 332 330 330 329 327
317 316 317 319 320 319 318 317 315 313 312 311 311 310 309 310 311 311 310 310 311 311 310 310 313 318 321 322 323 324 323 321 321 323 323 323 321 318 318 320 318 316 321 325 327 329 331 332 335 335 335 335 335 334 334 334 334 332 332 332 331 329 324
321 319 318 319 321 321 321 320 318 316 314 313 313 310 307 306 308 310 312 311 310 310 310 311 312 315 320 323 323 324 323 322 321 321 322 321 320 317 316 320 321 318 315 315 318 320 322 323 325 327 329 330 330 328 326 326 326 325 323 323 324 322 315
325 323 322 322 323 324 324 323 322 320 317 315 315 314 312 308 306 306 309 310 310 311 312 313 314 316 318 322 324 324 323 322 321 323 323 319 317 317 316 317 321 322 320 317 316 315 315 315 316 317 319 321 323 322 319 316 314 313 312 311 312 311 308

ECMWFFLT1_850_thetae_123.txt.gz
Theta_e
349 349 349 342 338 339 339 341 341 342 343 344 344 343 344 344 343 345 345 345 344 344 344 343 340 338 338 341 346 348 349 349 350 349 348 348 349 348 348 348 346 344 343 339 336 337 339 340 340 340 340 340 341 343 343 343 344 343 344 346 345 343 345
349 349 350 345 340 339 339 340 341 342 343 343 343 343 343 344 344 344 345 345 344 344 343 342 341 339 338 340 343 346 348 349 349 349 349 348 349 349 348 348 347 346 345 343 339 338 340 342 342 340 340 339 340 342 343 344 344 345 345 345 344 343 344
349 348 350 348 343 340 340 340 340 341 342 342 343 342 342 343 344 344 345 345 346 345 343 343 342 341 340 340 342 344 346 347 348 348 349 349 349 349 348 348 348 347 346 347 346 343 341 343 344 342 340 340 341 342 343 344 345 346 346 345 344 344 343
348 347 347 349 347 343 341 341 340 341 342 342 342 342 343 343 344 345 345 345 346 347 346 344 343 342 342 341 341 343 345 345 346 347 348 349 348 348 348 348 347 347 347 348 348 346 344 345 346 345 343 342 343 344 344 344 345 346 346 344 343 343 342
349 347 345 348 349 347 344 341 341 341 341 342 342 343 343 344 345 345 345 346 347 347 347 346 344 343 343 342 340 342 343 343 343 345 347 348 348 348 347 346 346 347 347 346 347 347 346 346 347 348 346 345 346 346 345 345 345 345 345 344 343 343 342
349 347 346 346 348 350 348 344 342 342 342 343 343 343 344 344 345 345 345 346 347 348 348 348 347 345 344 343 341 341 343 343 342 343 345 346 347 348 346 345 346 346 345 345 345 346 345 345 347 348 348 347 346 346 346 346 346 346 346 345 344 344 343
349 348 347 346 346 349 350 348 345 343 343 343 343 344 345 345 346 346 346 346 347 348 349 349 349 347 345 344 343 342 343 343 342 342 343 345 347 348 346 345 345 345 344 344 344 345 344 344 345 346 347 348 347 347 348 348 348 347 346 345 344 344 343
350 349 347 346 345 346 349 351 348 345 344 344 344 344 345 345 346 346 346 346 348 349 349 349 350 349 346 344 344 344 343 342 342 342 343 344 347 347 346 345 346 345 344 343 344 345 345 345 345 345 346 347 347 347 348 348 348 347 346 345 344 344 344
351 350 349 349 348 347 348 352 351 347 345 345 345 345 345 346 346 346 347 347 348 349 349 349 350 350 348 344 344 344 343 342 342 342 342 343 344 345 345 345 346 345 345 344 344 346 348 348 347 347 347 348 348 348 348 347 346 346 346 346 346 345 344
350 351 351 350 350 350 351 353 353 350 348 347 346 345 345 345 346 347 347 347 348 349 349 350 350 351 348 344 343 344 344 342 342 342 342 341 341 342 343 344 345 346 347 347 347 349 349 349 348 348 348 350 349 349 349 347 346 345 345 346 347 346 345
349 349 350 350 351 352 352 352 351 349 348 347 348 348 349 348 348 348 348 348 348 349 349 349 350 351 350 345 343 344 344 342 342 342 342 341 340 340 341 342 344 346 348 348 349 350 351 351 350 349 348 350 350 350 349 348 348 347 346 346 347 348 347
348 348 348 349 350 351 350 350 350 350 350 348 347 348 349 351 352 352 352 353 353 352 352 351 350 350 350 347 343 343 344 343 342 342 342 341 340 340 340 342 343 346 348 350 351 351 352 352 351 349 348 348 350 350 349 349 350 349 348 348 348 348 348
347 347 347 348 349 349 348 348 348 348 349 349 347 347 348 350 352 353 354 353 352 353 353 353 353 352 351 349 344 342 343 344 344 343 342 341 341 341 341 342 342 344 348 351 353 352 352 352 352 350 349 349 349 349 349 349 350 350 350 350 350 349 349
345 345 346 347 349 349 349 348 348 348 348 349 348 348 348 349 350 352 354 354 352 349 350 350 351 352 353 351 348 343 341 343 344 344 343 342 341 341 342 342 342 344 348 351 353 352 351 351 351 351 350 349 350 349 348 348 349 349 350 350 351 351 350
344 344 345 347 347 348 348 348 348 348 348 349 349 349 348 348 349 349 351 354 354 352 349 347 348 351 351 350 350 347 343 343 344 344 344 344 344 344 343 342 343 346 350 353 352 352 351 351 351 351 351 350 350 349 349 349 349 349 349 349 349 350 350
343 344 345 345 346 346 347 348 348 348 349 349 349 348 348 348 348 348 349 352 354 354 353 349 348 350 349 347 349 349 346 345 346 346 346 345 347 348 346 344 344 347 351 352 351 351 351 350 350 351 351 350 350 350 350 350 350 350 349 348 348 349 349
343 344 344 344 345 346 346 347 347 347 348 349 348 348 348 348 349 350 350 350 353 355 354 352 349 349 349 347 347 347 347 347 348 349 350 350 350 351 351 350 348 348 349 349 350 350 350 350 350 350 350 350 350 350 350 350 350 350 350 350 349 349 349
343 343 343 344 345 345 345 346 346 347 347 348 349 348 348 349 349 350 351 351 352 353 354 354 351 349 348 347 346 345 347 350 351 350 351 353 353 353 352 353 352 351 350 350 350 351 350 350 350 350 349 350 350 350 350 350 349 349 349 350 350 349 350
342 342 343 344 344 345 346 346 346 347 347 347 348 349 348 349 349 349 350 351 352 352 354 355 353 351 351 350 349 349 350 352 353 351 349 351 353 353 352 352 352 352 351 351 351 351 351 350 349 349 348 349 349 350 349 349 349 348 348 349 349 350 350
341 342 342 343 344 344 344 345 346 347 347 347 347 348 348 348 349 350 350 350 352 353 354 354 352 352 353 353 353 353 352 351 352 351 349 348 349 352 353 351 351 352 351 350 351 351 350 350 349 349 348 348 349 350 350 350 350 349 348 348 349 350 350
340 341 342 342 343 343 343 343 344 344 345 345 345 346 347 347 348 350 350 349 350 351 353 353 352 352 353 353 352 353 352 350 350 349 348 347 347 350 353 352 351 350 350 350 351 351 350 350 349 349 349 349 350 351 351 351 351 350 349 349 349 349 350
339 339 340 341 342 342 342 342 342 342 342 342 343 344 345 345 347 348 348 349 350 350 351 351 351 351 351 351 351 352 352 351 351 349 349 348 348 348 350 352 351 350 349 350 351 350 350 349 349 349 349 350 350 350 350 350 350 351 351 350 350 349 349
338 338 338 339 339 339 340 340 340 341 341 340 341 342 342 344 345 346 346 347 349 350 349 349 350 349 349 350 351 353 352 351 351 350 349 349 348 347 348 351 351 350 349 350 352 352 351 349 348 348 348 349 350 349 349 349 350 351 351 351 350 350 349
336 337 338 337 337 337 337 338 337 338 338 339 339 340 341 342 344 344 345 345 346 347 347 347 348 348 348 349 350 349 349 349 349 349 349 349 349 349 349 350 351 349 348 349 351 352 351 350 349 349 350 350 351 350 350 349 349 350 351 350 350 350 349
334 335 336 335 335 335 335 336 335 335 336 337 337 339 340 341 342 343 343 342 343 344 345 345 346 347 347 347 346 345 346 347 347 346 346 346 346 346 347 347 348 348 348 348 349 349 350 350 349 349 350 351 352 352 352 351 350 349 350 350 349 349 349
331 332 332 332 332 333 333 334 334 334 334 334 335 336 337 338 340 341 341 341 341 342 343 343 344 345 345 345 345 345 345 345 345 345 345 345 344 344 344 344 345 345 345 346 346 347 347 347 347 347 348 348 349 350 351 351 351 350 350 350 350 350 350
329 329 330 330 331 331 331 332 331 332 332 331 331 330 332 335 338 338 339 339 340 340 341 341 341 341 341 341 342 343 343 343 343 344 344 344 344 344 345 345 345 345 345 346 346 346 346 346 347 347 347 348 348 348 349 350 350 350 350 350 351 351 350
327 327 327 328 328 328 328 328 329 329 329 329 327 325 326 330 334 336 337 336 336 336 336 338 339 339 339 340 339 339 340 340 341 342 343 343 343 343 343 344 344 345 345 346 346 346 346 346 346 347 347 348 348 349 349 349 349 349 349 350 350 350 349
324 324 323 323 322 322 323 323 324 326 327 327 325 322 322 323 326 331 334 334 333 333 334 336 337 337 337 337 337 337 337 338 338 339 340 341 341 342 342 343 343 344 344 345 345 346 345 345 345 345 346 347 348 349 349 349 349 349 348 349 348 348 348
322 320 319 317 315 315 315 314 315 317 320 321 320 320 320 320 321 323 325 327 327 328 330 333 335 335 335 335 335 336 335 335 336 337 338 338 339 340 341 342 342 343 344 345 345 345 345 344 344 344 345 345 346 346 346 347 347 347 346 346 346 345 346
318 317 315 314 314 314 313 313 312 311 312 313 313 315 317 318 318 318 319 321 322 321 322 326 330 332 333 333 333 334 334 334 334 335 336 337 336 336 337 339 340 341 342 344 345 344 343 343 343 343 343 343 343 343 342 343 343 343 342 343 343 343 343
315 316 316 316 317 317 316 316 315 313 312 311 311 312 312 313 315 316 316 318 320 319 319 320 323 325 327 328 330 330 331 332 332 332 334 334 333 333 334 335 336 336 337 339 342 343 342 341 341 341 341 341 340 339 339 338 338 339 339 339 338 339 340
316 318 318 317 317 317 317 316 316 315 314 313 313 313 312 312 312 312 313 316 317 317 317 319 320 320 321 323 325 326 327 328 328 327 327 327 328 329 329 330 331 333 333 334 337 340 341 339 338 338 337 337 337 336 335 335 335 335 335 334 334 334 335
316 317 317 317 317 318 318 317 316 315 315 314 314 314 314 314 313 311 311 313 314 314 315 316 318 318 320 321 322 324 325 325 324 324 323 322 323 323 323 324 325 327 331 333 334 338 339 337 337 336 334 334 333 332 331 331 330 330 329 329 329 329 329
315 316 317 318 318 319 319 318 317 317 315 314 313 312 311 311 312 312 312 312 313 314 314 312 313 316 319 322 323 324 324 323 324 325 325 324 322 320 320 320 319 320 326 330 333 336 337 337 336 335 332 331 331 331 332 332 332 330 329 329 330 329 329
317 316 316 317 318 318 319 320 320 319 317 315 314 313 311 309 307 309 311 311 312 313 312 310 311 312 316 320 322 323 323 323 322 323 324 323 321 319 320 320 317 316 318 322 327 332 334 335 335 333 332 332 332 333 334 333 332 331 329 327 326 326 327
321 319 317 317 318 319 321 323 323 322 321 319 317 316 316 313 309 307 308 310 311 311 310 310 310 311 313 316 318 320 321 322 322 322 323 323 321 320 321 321 319 318 316 316 318 321 324 327 328 328 328 330 331 332 332 329 328 328 327 322 316 314 315
325 324 322 321 321 322 323 324 324 324 324 323 321 319 318 317 314 308 306 306 308 309 310 311 313 314 315 315 317 319 321 321 321 321 322 323 321 319 319 320 322 321 320 318 317 317 318 319 319 319 319 320 322 324 325 325 323 323 321 316 310 307 307

ECMWFFLT1_850_thetae_129.txt.gz
Theta_e
350 349 346 344 342 342 341 342 342 343 342 342 342 342 342 341 341 342 343 344 344 345 346 346 346 345 342 339 338 338 340 340 341 342 343 344 344 344 344 344 343 343 344 344 342 339 336 336 337 336 337 337 339 341 342 342 343 343 344 344 345 347 348
351 350 348 344 342 341 341 342 342 342 342 342 342 343 342 341 340 341 342 343 344 344 345 346 346 347 345 343 340 338 338 339 340 341 342 343 344 345 345 345 345 345 345 346 346 343 338 336 337 336 337 337 338 341 342 342 343 343 344 345 345 345 345
349 349 349 346 343 342 341 341 341 342 342 342 342 342 342 341 341 340 340 342 343 343 344 345 346 346 347 347 344 341 338 338 339 340 341 342 343 345 346 346 347 347 346 346 348 347 343 339 338 337 337 337 339 341 342 342 343 343 344 344 344 344 344
348 349 349 347 345 343 341 340 341 341 341 341 342 342 341 341 341 340 339 340 342 342 343 343 345 345 346 347 347 345 340 337 338 339 339 341 342 345 347 347 347 347 347 348 349 349 346 343 342 339 337 338 341 342 342 341 341 342 343 344 344 345 345
348 348 349 349 348 346 343 341 341 341 341 341 342 342 341 341 341 341 339 339 341 342 342 342 344 345 346 346 347 346 343 339 337 338 339 340 342 345 347 347 347 347 347 348 349 349 348 346 346 343 339 340 343 343 343 341 340 341 342 343 344 345 345
348 348 349 349 349 348 345 342 340 340 341 341 341 342 341 340 341 341 339 339 340 341 342 343 344 344 345 346 347 347 346 341 338 337 338 339 342 345 346 346 347 347 347 348 349 349 348 348 348 347 344 343 343 345 345 343 341 341 342 343 344 345 345
347 347 348 348 349 349 348 344 341 340 339 340 340 340 340 341 341 341 340 339 340 341 342 342 343 344 345 345 346 347 346 343 339 337 337 338 340 343 344 345 346 347 347 347 347 348 348 348 348 348 347 346 345 345 346 346 344 342 343 344 345 345 344
347 347 347 347 348 349 349 347 344 341 339 339 339 339 340 341 341 341 341 340 341 341 342 342 343 344 344 345 345 345 345 343 341 339 338 337 338 341 343 343 344 345 346 346 346 347 348 348 348 348 348 348 347 346 346 347 346 345 346 346 347 346 346
347 347 346 346 348 348 349 349 346 342 339 338 339 339 339 340 341 341 342 342 343 343 343 344 344 344 344 345 346 345 344 343 342 341 340 339 338 340 342 342 342 343 345 345 345 345 346 347 347 347 347 347 347 346 346 347 348 349 348 348 349 348 348
347 348 347 346 347 349 348 348 346 343 339 338 339 339 339 340 341 342 342 342 343 343 343 343 344 344 344 345 346 347 346 345 343 342 341 340 339 339 341 341 341 342 344 344 345 345 345 345 346 346 346 346 346 346 346 346 348 349 350 350 349 349 349
347 348 348 347 347 348 348 348 346 343 341 340 339 338 340 340 341 342 343 343 343 342 343 343 343 344 344 345 346 348 348 348 346 344 343 342 341 339 340 341 341 341 341 343 344 345 345 345 345 346 345 345 344 345 346 346 347 348 349 349 349 349 349
346 347 348 348 347 347 348 348 347 346 346 346 344 342 342 341 341 342 342 343 344 344 344 345 344 344 345 345 346 347 348 350 349 348 345 343 342 341 340 340 341 341 341 342 344 346 345 345 345 345 344 343 343 345 347 347 347 347 348 349 350 349 349
345 346 347 347 347 347 347 348 347 347 348 348 347 347 347 346 344 343 343 343 344 344 345 345 345 344 344 343 344 345 346 348 351 351 349 346 345 343 342 342 341 341 341 341 343 345 345 345 344 344 344 343 344 347 348 348 347 347 348 349 350 350 350
344 345 345 346 347 347 347 347 347 348 347 347 347 347 348 349 348 347 347 346 345 344 344 344 344 344 343 342 342 344 344 345 349 351 350 349 348 346 344 343 343 342 341 341 342 344 345 344 344 344 344 345 347 349 350 349 347 347 347 348 349 350 350
344 344 345 345 346 346 346 346 347 347 347 347 347 347 348 348 348 349 348 348 347 345 343 344 344 344 343 343 343 343 345 344 345 347 348 349 349 349 346 344 343 343 342 341 341 343 344 344 344 344 345 347 349 351 351 350 349 347 347 348 349 349 350
342 343 344 344 344 345 345 345 346 346 346 347 347 347 348 348 348 349 348 348 347 346 345 346 346 345 344 344 344 343 345 345 344 345 346 347 349 350 349 346 344 344 343 342 341 342 343 343 343 345 346 348 350 351 352 352 350 349 349 349 349 349 349
341 342 342 342 342 343 343 344 344 345 346 346 347 347 348 348 348 348 348 348 348 347 347 348 348 346 345 345 345 346 348 348 347 347 347 347 347 349 350 348 346 345 343 342 342 341 341 342 342 343 345 347 350 351 351 351 351 350 350 351 351 350 350
339 340 340 340 340 340 341 341 342 343 344 344 345 346 346 347 348 348 348 348 348 348 348 348 348 348 347 346 346 347 347 348 347 347 347 347 347 348 349 347 347 346 344 342 342 342 341 341 341 341 342 344 348 350 351 351 350 351 351 351 351 351 351
338 338 338 338 338 339 339 339 340 341 342 342 343 344 345 346 346 347 348 348 348 349 348 348 348 348 348 347 347 347 346 345 346 346 346 346 346 348 348 346 346 347 346 343 342 342 341 340 340 340 340 341 344 348 350 350 350 350 350 350 351 351 351
336 336 336 336 337 337 337 337 338 339 340 341 342 343 344 345 345 346 347 348 348 349 349 349 349 348 348 348 348 348 348 348 349 350 348 347 347 348 348 347 344 346 348 348 346 344 342 341 340 340 340 339 340 344 347 349 349 350 349 349 350 350 350
335 335 334 335 335 335 334 334 334 336 338 340 341 342 343 344 345 346 346 347 348 348 348 349 349 349 349 350 350 349 349 350 351 351 351 349 347 346 347 349 347 344 346 347 349 349 348 347 346 345 344 343 342 343 346 349 349 349 350 349 349 349 349
335 334 334 334 334 334 333 331 331 332 334 336 338 340 341 342 343 345 346 346 346 347 347 347 347 347 348 348 349 350 350 349 350 351 351 350 348 348 349 351 350 348 346 347 349 350 350 351 350 349 348 347 345 344 345 347 348 349 350 350 349 348 348
334 334 334 333 333 333 332 330 327 327 330 334 336 337 339 339 341 343 344 344 344 345 346 346 345 345 345 346 347 348 348 349 349 349 349 349 349 349 349 350 350 350 350 349 349 349 348 349 349 349 348 348 348 347 346 347 349 349 348 349 349 349 348
332 332 332 332 332 332 330 329 325 322 325 331 334 336 337 338 339 341 342 342 342 342 343 343 344 344 344 344 345 345 346 346 346 346 347 347 347 347 347 347 348 350 350 349 349 348 347 348 348 348 348 349 349 348 347 347 348 348 347 348 350 350 349
330 330 329 329 330 330 329 328 323 319 321 326 330 334 336 336 337 339 339 340 340 340 340 340 341 342 342 342 343 344 344 344 344 344 344 345 346 346 346 346 346 347 348 348 348 348 346 347 348 347 348 349 348 348 348 347 346 344 343 345 349 350 349
329 328 326 326 327 328 327 325 320 317 319 322 325 329 332 334 336 336 336 337 337 337 337 337 338 339 340 340 341 341 342 342 342 342 343 343 344 343 344 345 344 344 344 345 346 347 347 347 348 347 347 348 347 348 348 346 342 339 338 342 347 350 350
326 324 322 322 323 324 324 321 318 317 319 321 322 324 325 327 330 332 334 334 334 333 333 334 334 335 336 337 338 338 339 339 340 340 340 341 341 341 341 342 342 343 343 343 344 344 344 345 345 344 345 345 345 347 347 346 343 342 342 344 346 347 348
323 320 317 317 317 318 318 316 314 314 317 319 320 321 321 321 321 323 327 329 330 329 329 330 331 332 332 333 334 335 336 336 337 337 337 337 338 339 339 340 340 341 342 342 343 343 344 344 343 343 344 344 345 345 345 346 345 345 345 345 345 346 346
317 314 314 314 314 313 313 312 312 312 313 313 314 316 319 320 320 319 321 323 325 325 325 326 327 328 328 328 329 331 332 333 334 334 334 334 335 335 336 337 338 339 340 341 342 343 343 344 344 344 344 344 345 345 345 345 345 345 345 345 345 346 346
315 314 315 315 315 314 313 313 313 312 311 311 311 312 314 316 318 318 319 321 322 322 322 322 322 322 322 324 325 326 327 328 328 328 328 328 329 330 331 332 332 333 335 337 339 341 342 343 343 343 343 343 343 344 344 343 344 344 344 344 344 344 344
315 316 316 315 314 314 313 313 312 311 311 310 310 309 310 312 314 315 316 317 317 317 318 318 318 319 320 321 322 323 323 323 322 321 320 321 321 322 324 325 325 326 328 332 336 339 340 342 342 341 341 342 341 341 341 341 340 340 340 340 340 340 340
316 316 315 315 314 314 313 313 313 313 313 312 311 310 308 309 311 312 313 313 313 313 313 313 314 316 318 319 321 322 322 321 319 318 317 317 317 317 318 319 321 324 328 331 336 338 338 338 338 338 338 338 337 337 337 336 335 334 334 333 332 332 333
316 317 318 317 317 316 315 315 315 316 317 317 317 315 311 308 308 310 311 312 312 312 311 310 311 313 316 318 319 319 319 319 319 317 317 317 316 316 316 318 320 326 331 334 335 336 335 335 336 335 335 335 334 333 332 331 330 330 329 328 326 325 325
317 318 319 319 320 319 319 319 319 319 319 320 320 319 316 312 308 307 308 310 312 311 311 310 310 312 314 316 317 318 319 320 320 319 317 316 315 314 314 315 318 323 330 334 335 335 334 333 333 332 332 332 332 332 332 331 331 330 330 328 325 323 320
317 317 317 320 322 323 323 323 323 322 322 321 321 321 319 316 310 306 305 307 309 310 311 311 311 312 313 314 315 317 319 321 321 320 318 316 316 315 314 314 315 318 322 326 329 330 331 332 331 331 331 332 333 333 332 331 330 329 328 328 326 323 321
317 317 316 319 323 324 324 324 324 324 323 323 322 321 321 319 315 309 306 306 306 307 309 311 312 313 313 313 313 316 319 320 321 321 319 317 316 317 317 316 316 316 317 318 319 320 322 325 326 327 328 330 329 327 323 321 321 320 320 321 321 318 316
319 319 319 321 323 324 324 324 325 324 324 323 323 322 322 322 320 315 311 309 308 306 306 308 310 312 312 311 311 313 315 317 318 319 318 317 315 316 317 318 318 319 318 317 317 317 316 315 316 317 318 318 318 315 313 312 312 311 311 312 312 311 310
323 323 323 323 324 324 324 325 325 324 324 323 323 323 322 322 322 320 317 314 312 310 309 308 308 309 310 310 309 309 309 310 312 313 314 314 312 312 315 318 319 321 320 317 317 317 315 313 312 311 311 311 311 310 310 310 309 309 309 309 308 307 307